<?xml version="1.0" encoding="UTF-8" standalone="no" ?>
<gpx xmlns="http://www.topografix.com/GPX/1/1" xmlns:xsi="http://www.w3.org/2001/XMLSchema-instance" xsi:schemaLocation="http://www.topografix.com/GPX/1/1 http://www.topografix.com/GPX/1/1/gpx.xsd" version="1.1" creator="VisuGPX - https://www.visugpx.com">
  <metadata>
    <name>26 - Bathernay : 2021-03-28</name>
  </metadata>
  <trk>
    <name><![CDATA[26 - Bathernay : 2021-03-28_1]]></name>
    <trkseg>
      <trkpt lat="45.12155" lon="4.98524">
        <ele>166.4</ele>
        <time>2021-03-28T06:46:33Z</time>
      </trkpt>
      <trkpt lat="45.12165" lon="4.9852">
        <ele>166.4</ele>
        <time>2021-03-28T06:46:37Z</time>
      </trkpt>
      <trkpt lat="45.12176" lon="4.98518">
        <ele>167</ele>
        <time>2021-03-28T06:46:41Z</time>
      </trkpt>
      <trkpt lat="45.12186" lon="4.98512">
        <ele>167.2</ele>
        <time>2021-03-28T06:46:45Z</time>
      </trkpt>
      <trkpt lat="45.1219" lon="4.98504">
        <ele>167.8</ele>
        <time>2021-03-28T06:46:49Z</time>
      </trkpt>
      <trkpt lat="45.122" lon="4.98502">
        <ele>168.2</ele>
        <time>2021-03-28T06:46:53Z</time>
      </trkpt>
      <trkpt lat="45.12208" lon="4.98503">
        <ele>168.6</ele>
        <time>2021-03-28T06:46:57Z</time>
      </trkpt>
      <trkpt lat="45.12217" lon="4.985">
        <ele>167.6</ele>
        <time>2021-03-28T06:47:01Z</time>
      </trkpt>
      <trkpt lat="45.12221" lon="4.98486">
        <ele>167.4</ele>
        <time>2021-03-28T06:47:05Z</time>
      </trkpt>
      <trkpt lat="45.12223" lon="4.98464">
        <ele>165.8</ele>
        <time>2021-03-28T06:47:09Z</time>
      </trkpt>
      <trkpt lat="45.12224" lon="4.9844">
        <ele>166</ele>
        <time>2021-03-28T06:47:13Z</time>
      </trkpt>
      <trkpt lat="45.12231" lon="4.98426">
        <ele>165.4</ele>
        <time>2021-03-28T06:47:17Z</time>
      </trkpt>
      <trkpt lat="45.12245" lon="4.98423">
        <ele>166</ele>
        <time>2021-03-28T06:47:21Z</time>
      </trkpt>
      <trkpt lat="45.12253" lon="4.98422">
        <ele>166.2</ele>
        <time>2021-03-28T06:47:25Z</time>
      </trkpt>
      <trkpt lat="45.12267" lon="4.9841">
        <ele>166.2</ele>
        <time>2021-03-28T06:47:57Z</time>
      </trkpt>
      <trkpt lat="45.1228" lon="4.9841">
        <ele>166.2</ele>
        <time>2021-03-28T06:48:01Z</time>
      </trkpt>
      <trkpt lat="45.12294" lon="4.9841">
        <ele>166.2</ele>
        <time>2021-03-28T06:48:05Z</time>
      </trkpt>
      <trkpt lat="45.12308" lon="4.98411">
        <ele>166.4</ele>
        <time>2021-03-28T06:48:09Z</time>
      </trkpt>
      <trkpt lat="45.12321" lon="4.9841">
        <ele>166.6</ele>
        <time>2021-03-28T06:48:13Z</time>
      </trkpt>
      <trkpt lat="45.12333" lon="4.98405">
        <ele>167.2</ele>
        <time>2021-03-28T06:48:17Z</time>
      </trkpt>
      <trkpt lat="45.12345" lon="4.98406">
        <ele>167.2</ele>
        <time>2021-03-28T06:48:21Z</time>
      </trkpt>
      <trkpt lat="45.12354" lon="4.98415">
        <ele>167.8</ele>
        <time>2021-03-28T06:48:25Z</time>
      </trkpt>
      <trkpt lat="45.12359" lon="4.98411">
        <ele>167.4</ele>
        <time>2021-03-28T06:48:29Z</time>
      </trkpt>
      <trkpt lat="45.12357" lon="4.98395">
        <ele>167.6</ele>
        <time>2021-03-28T06:48:33Z</time>
      </trkpt>
      <trkpt lat="45.1236" lon="4.98378">
        <ele>167.2</ele>
        <time>2021-03-28T06:48:37Z</time>
      </trkpt>
      <trkpt lat="45.12372" lon="4.98371">
        <ele>167.2</ele>
        <time>2021-03-28T06:48:41Z</time>
      </trkpt>
      <trkpt lat="45.1238" lon="4.98379">
        <ele>166.8</ele>
        <time>2021-03-28T06:48:45Z</time>
      </trkpt>
      <trkpt lat="45.12386" lon="4.98396">
        <ele>167.4</ele>
        <time>2021-03-28T06:48:49Z</time>
      </trkpt>
      <trkpt lat="45.1239" lon="4.98413">
        <ele>167.6</ele>
        <time>2021-03-28T06:48:53Z</time>
      </trkpt>
      <trkpt lat="45.12394" lon="4.9843">
        <ele>168.2</ele>
        <time>2021-03-28T06:48:57Z</time>
      </trkpt>
      <trkpt lat="45.12399" lon="4.98445">
        <ele>169</ele>
        <time>2021-03-28T06:49:01Z</time>
      </trkpt>
      <trkpt lat="45.12404" lon="4.98463">
        <ele>169.2</ele>
        <time>2021-03-28T06:49:05Z</time>
      </trkpt>
      <trkpt lat="45.12409" lon="4.98481">
        <ele>169.6</ele>
        <time>2021-03-28T06:49:09Z</time>
      </trkpt>
      <trkpt lat="45.12415" lon="4.98499">
        <ele>169.6</ele>
        <time>2021-03-28T06:49:13Z</time>
      </trkpt>
      <trkpt lat="45.12424" lon="4.98517">
        <ele>169.8</ele>
        <time>2021-03-28T06:49:17Z</time>
      </trkpt>
      <trkpt lat="45.12428" lon="4.98534">
        <ele>170</ele>
        <time>2021-03-28T06:49:21Z</time>
      </trkpt>
      <trkpt lat="45.12439" lon="4.98546">
        <ele>171</ele>
        <time>2021-03-28T06:49:25Z</time>
      </trkpt>
      <trkpt lat="45.12449" lon="4.98551">
        <ele>171.4</ele>
        <time>2021-03-28T06:49:29Z</time>
      </trkpt>
      <trkpt lat="45.1246" lon="4.98555">
        <ele>171.8</ele>
        <time>2021-03-28T06:49:33Z</time>
      </trkpt>
      <trkpt lat="45.1247" lon="4.98558">
        <ele>173</ele>
        <time>2021-03-28T06:49:37Z</time>
      </trkpt>
      <trkpt lat="45.12479" lon="4.98558">
        <ele>173.6</ele>
        <time>2021-03-28T06:49:41Z</time>
      </trkpt>
      <trkpt lat="45.12488" lon="4.98559">
        <ele>174.2</ele>
        <time>2021-03-28T06:49:45Z</time>
      </trkpt>
      <trkpt lat="45.12495" lon="4.9856">
        <ele>174.6</ele>
        <time>2021-03-28T06:49:49Z</time>
      </trkpt>
      <trkpt lat="45.12503" lon="4.98561">
        <ele>175.6</ele>
        <time>2021-03-28T06:49:53Z</time>
      </trkpt>
      <trkpt lat="45.12514" lon="4.98563">
        <ele>176.6</ele>
        <time>2021-03-28T06:49:57Z</time>
      </trkpt>
      <trkpt lat="45.12523" lon="4.98567">
        <ele>177.2</ele>
        <time>2021-03-28T06:50:01Z</time>
      </trkpt>
      <trkpt lat="45.12532" lon="4.9857">
        <ele>177.6</ele>
        <time>2021-03-28T06:50:05Z</time>
      </trkpt>
      <trkpt lat="45.1254" lon="4.98574">
        <ele>178.4</ele>
        <time>2021-03-28T06:50:09Z</time>
      </trkpt>
      <trkpt lat="45.12548" lon="4.98578">
        <ele>179</ele>
        <time>2021-03-28T06:50:13Z</time>
      </trkpt>
      <trkpt lat="45.12557" lon="4.98583">
        <ele>180</ele>
        <time>2021-03-28T06:50:17Z</time>
      </trkpt>
      <trkpt lat="45.12565" lon="4.98586">
        <ele>180.6</ele>
        <time>2021-03-28T06:50:21Z</time>
      </trkpt>
      <trkpt lat="45.12571" lon="4.9859">
        <ele>181.2</ele>
        <time>2021-03-28T06:50:25Z</time>
      </trkpt>
      <trkpt lat="45.12578" lon="4.98594">
        <ele>182</ele>
        <time>2021-03-28T06:50:29Z</time>
      </trkpt>
      <trkpt lat="45.12585" lon="4.98598">
        <ele>182.8</ele>
        <time>2021-03-28T06:50:33Z</time>
      </trkpt>
      <trkpt lat="45.12592" lon="4.98602">
        <ele>183</ele>
        <time>2021-03-28T06:50:37Z</time>
      </trkpt>
      <trkpt lat="45.12599" lon="4.98607">
        <ele>183.4</ele>
        <time>2021-03-28T06:50:41Z</time>
      </trkpt>
      <trkpt lat="45.12606" lon="4.98611">
        <ele>184.6</ele>
        <time>2021-03-28T06:50:45Z</time>
      </trkpt>
      <trkpt lat="45.12614" lon="4.98614">
        <ele>184.2</ele>
        <time>2021-03-28T06:50:49Z</time>
      </trkpt>
      <trkpt lat="45.1262" lon="4.98618">
        <ele>185.2</ele>
        <time>2021-03-28T06:50:53Z</time>
      </trkpt>
      <trkpt lat="45.12627" lon="4.98623">
        <ele>185.8</ele>
        <time>2021-03-28T06:50:57Z</time>
      </trkpt>
      <trkpt lat="45.12634" lon="4.98626">
        <ele>186</ele>
        <time>2021-03-28T06:51:01Z</time>
      </trkpt>
      <trkpt lat="45.1264" lon="4.98631">
        <ele>186.8</ele>
        <time>2021-03-28T06:51:05Z</time>
      </trkpt>
      <trkpt lat="45.12647" lon="4.98634">
        <ele>187.4</ele>
        <time>2021-03-28T06:51:09Z</time>
      </trkpt>
      <trkpt lat="45.12655" lon="4.98638">
        <ele>188.4</ele>
        <time>2021-03-28T06:51:13Z</time>
      </trkpt>
      <trkpt lat="45.12662" lon="4.98642">
        <ele>188.6</ele>
        <time>2021-03-28T06:51:17Z</time>
      </trkpt>
      <trkpt lat="45.12669" lon="4.98647">
        <ele>189.6</ele>
        <time>2021-03-28T06:51:21Z</time>
      </trkpt>
      <trkpt lat="45.12676" lon="4.98652">
        <ele>190.2</ele>
        <time>2021-03-28T06:51:25Z</time>
      </trkpt>
      <trkpt lat="45.12682" lon="4.98659">
        <ele>190.6</ele>
        <time>2021-03-28T06:51:29Z</time>
      </trkpt>
      <trkpt lat="45.12686" lon="4.98665">
        <ele>191.4</ele>
        <time>2021-03-28T06:51:33Z</time>
      </trkpt>
      <trkpt lat="45.1269" lon="4.98673">
        <ele>192</ele>
        <time>2021-03-28T06:51:37Z</time>
      </trkpt>
      <trkpt lat="45.12694" lon="4.98682">
        <ele>192.4</ele>
        <time>2021-03-28T06:51:41Z</time>
      </trkpt>
      <trkpt lat="45.12699" lon="4.9869">
        <ele>193.4</ele>
        <time>2021-03-28T06:51:45Z</time>
      </trkpt>
      <trkpt lat="45.12703" lon="4.98699">
        <ele>193.6</ele>
        <time>2021-03-28T06:51:49Z</time>
      </trkpt>
      <trkpt lat="45.12708" lon="4.98707">
        <ele>195.2</ele>
        <time>2021-03-28T06:51:53Z</time>
      </trkpt>
      <trkpt lat="45.12712" lon="4.98717">
        <ele>195.2</ele>
        <time>2021-03-28T06:51:57Z</time>
      </trkpt>
      <trkpt lat="45.12717" lon="4.98726">
        <ele>195.6</ele>
        <time>2021-03-28T06:52:01Z</time>
      </trkpt>
      <trkpt lat="45.12721" lon="4.98734">
        <ele>196.6</ele>
        <time>2021-03-28T06:52:05Z</time>
      </trkpt>
      <trkpt lat="45.12726" lon="4.98743">
        <ele>196.8</ele>
        <time>2021-03-28T06:52:09Z</time>
      </trkpt>
      <trkpt lat="45.12731" lon="4.98752">
        <ele>197.4</ele>
        <time>2021-03-28T06:52:13Z</time>
      </trkpt>
      <trkpt lat="45.12737" lon="4.9876">
        <ele>198.4</ele>
        <time>2021-03-28T06:52:17Z</time>
      </trkpt>
      <trkpt lat="45.12744" lon="4.98767">
        <ele>198.6</ele>
        <time>2021-03-28T06:52:21Z</time>
      </trkpt>
      <trkpt lat="45.12751" lon="4.98774">
        <ele>199.2</ele>
        <time>2021-03-28T06:52:25Z</time>
      </trkpt>
      <trkpt lat="45.12759" lon="4.9878">
        <ele>199.4</ele>
        <time>2021-03-28T06:52:29Z</time>
      </trkpt>
      <trkpt lat="45.12767" lon="4.98785">
        <ele>199.6</ele>
        <time>2021-03-28T06:52:33Z</time>
      </trkpt>
      <trkpt lat="45.12774" lon="4.98788">
        <ele>200.4</ele>
        <time>2021-03-28T06:52:37Z</time>
      </trkpt>
      <trkpt lat="45.12781" lon="4.98793">
        <ele>201.4</ele>
        <time>2021-03-28T06:52:41Z</time>
      </trkpt>
      <trkpt lat="45.12789" lon="4.98797">
        <ele>201.6</ele>
        <time>2021-03-28T06:52:45Z</time>
      </trkpt>
      <trkpt lat="45.12797" lon="4.98802">
        <ele>202.6</ele>
        <time>2021-03-28T06:52:49Z</time>
      </trkpt>
      <trkpt lat="45.12805" lon="4.98806">
        <ele>203</ele>
        <time>2021-03-28T06:52:53Z</time>
      </trkpt>
      <trkpt lat="45.12813" lon="4.9881">
        <ele>203.4</ele>
        <time>2021-03-28T06:52:57Z</time>
      </trkpt>
      <trkpt lat="45.12821" lon="4.98813">
        <ele>203.8</ele>
        <time>2021-03-28T06:53:01Z</time>
      </trkpt>
      <trkpt lat="45.12831" lon="4.98817">
        <ele>204</ele>
        <time>2021-03-28T06:53:05Z</time>
      </trkpt>
      <trkpt lat="45.12843" lon="4.9882">
        <ele>204.4</ele>
        <time>2021-03-28T06:53:09Z</time>
      </trkpt>
      <trkpt lat="45.12855" lon="4.98823">
        <ele>204.6</ele>
        <time>2021-03-28T06:53:13Z</time>
      </trkpt>
      <trkpt lat="45.12867" lon="4.98827">
        <ele>205</ele>
        <time>2021-03-28T06:53:17Z</time>
      </trkpt>
      <trkpt lat="45.12879" lon="4.98831">
        <ele>205.2</ele>
        <time>2021-03-28T06:53:21Z</time>
      </trkpt>
      <trkpt lat="45.12891" lon="4.98834">
        <ele>206</ele>
        <time>2021-03-28T06:53:25Z</time>
      </trkpt>
      <trkpt lat="45.12903" lon="4.98837">
        <ele>206.4</ele>
        <time>2021-03-28T06:53:29Z</time>
      </trkpt>
      <trkpt lat="45.12915" lon="4.98841">
        <ele>206.6</ele>
        <time>2021-03-28T06:53:33Z</time>
      </trkpt>
      <trkpt lat="45.12928" lon="4.98844">
        <ele>207.4</ele>
        <time>2021-03-28T06:53:37Z</time>
      </trkpt>
      <trkpt lat="45.12941" lon="4.98847">
        <ele>207.8</ele>
        <time>2021-03-28T06:53:41Z</time>
      </trkpt>
      <trkpt lat="45.12953" lon="4.98849">
        <ele>208.4</ele>
        <time>2021-03-28T06:53:45Z</time>
      </trkpt>
      <trkpt lat="45.12965" lon="4.98853">
        <ele>208.8</ele>
        <time>2021-03-28T06:53:49Z</time>
      </trkpt>
      <trkpt lat="45.12978" lon="4.98856">
        <ele>209</ele>
        <time>2021-03-28T06:53:53Z</time>
      </trkpt>
      <trkpt lat="45.1299" lon="4.98861">
        <ele>208.6</ele>
        <time>2021-03-28T06:53:57Z</time>
      </trkpt>
      <trkpt lat="45.13003" lon="4.98865">
        <ele>209.2</ele>
        <time>2021-03-28T06:54:01Z</time>
      </trkpt>
      <trkpt lat="45.13015" lon="4.98869">
        <ele>209.8</ele>
        <time>2021-03-28T06:54:05Z</time>
      </trkpt>
      <trkpt lat="45.13028" lon="4.98874">
        <ele>210.2</ele>
        <time>2021-03-28T06:54:09Z</time>
      </trkpt>
      <trkpt lat="45.1304" lon="4.98878">
        <ele>211</ele>
        <time>2021-03-28T06:54:13Z</time>
      </trkpt>
      <trkpt lat="45.13052" lon="4.98882">
        <ele>211</ele>
        <time>2021-03-28T06:54:17Z</time>
      </trkpt>
      <trkpt lat="45.13064" lon="4.98887">
        <ele>211.2</ele>
        <time>2021-03-28T06:54:21Z</time>
      </trkpt>
      <trkpt lat="45.13077" lon="4.98892">
        <ele>212.2</ele>
        <time>2021-03-28T06:54:25Z</time>
      </trkpt>
      <trkpt lat="45.13089" lon="4.98896">
        <ele>212</ele>
        <time>2021-03-28T06:54:29Z</time>
      </trkpt>
      <trkpt lat="45.13101" lon="4.98901">
        <ele>212.2</ele>
        <time>2021-03-28T06:54:33Z</time>
      </trkpt>
      <trkpt lat="45.13114" lon="4.98906">
        <ele>213.2</ele>
        <time>2021-03-28T06:54:37Z</time>
      </trkpt>
      <trkpt lat="45.13126" lon="4.9891">
        <ele>213.6</ele>
        <time>2021-03-28T06:54:41Z</time>
      </trkpt>
      <trkpt lat="45.13138" lon="4.98914">
        <ele>214</ele>
        <time>2021-03-28T06:54:45Z</time>
      </trkpt>
      <trkpt lat="45.13149" lon="4.98918">
        <ele>214.8</ele>
        <time>2021-03-28T06:54:49Z</time>
      </trkpt>
      <trkpt lat="45.1316" lon="4.98922">
        <ele>215.2</ele>
        <time>2021-03-28T06:54:53Z</time>
      </trkpt>
      <trkpt lat="45.13171" lon="4.98926">
        <ele>215.6</ele>
        <time>2021-03-28T06:54:57Z</time>
      </trkpt>
      <trkpt lat="45.13182" lon="4.9893">
        <ele>216.4</ele>
        <time>2021-03-28T06:55:01Z</time>
      </trkpt>
      <trkpt lat="45.13192" lon="4.98933">
        <ele>217.2</ele>
        <time>2021-03-28T06:55:05Z</time>
      </trkpt>
      <trkpt lat="45.13203" lon="4.98937">
        <ele>217.8</ele>
        <time>2021-03-28T06:55:09Z</time>
      </trkpt>
      <trkpt lat="45.13213" lon="4.98942">
        <ele>218.4</ele>
        <time>2021-03-28T06:55:13Z</time>
      </trkpt>
      <trkpt lat="45.13224" lon="4.98946">
        <ele>219</ele>
        <time>2021-03-28T06:55:17Z</time>
      </trkpt>
      <trkpt lat="45.13234" lon="4.98949">
        <ele>218.8</ele>
        <time>2021-03-28T06:55:21Z</time>
      </trkpt>
      <trkpt lat="45.13245" lon="4.98955">
        <ele>220.4</ele>
        <time>2021-03-28T06:55:25Z</time>
      </trkpt>
      <trkpt lat="45.13255" lon="4.98959">
        <ele>220.8</ele>
        <time>2021-03-28T06:55:29Z</time>
      </trkpt>
      <trkpt lat="45.13264" lon="4.98963">
        <ele>221.2</ele>
        <time>2021-03-28T06:55:33Z</time>
      </trkpt>
      <trkpt lat="45.13274" lon="4.98967">
        <ele>222</ele>
        <time>2021-03-28T06:55:37Z</time>
      </trkpt>
      <trkpt lat="45.13283" lon="4.98971">
        <ele>222.8</ele>
        <time>2021-03-28T06:55:41Z</time>
      </trkpt>
      <trkpt lat="45.13292" lon="4.98976">
        <ele>223</ele>
        <time>2021-03-28T06:55:45Z</time>
      </trkpt>
      <trkpt lat="45.13301" lon="4.98981">
        <ele>224.4</ele>
        <time>2021-03-28T06:55:49Z</time>
      </trkpt>
      <trkpt lat="45.1331" lon="4.98985">
        <ele>225</ele>
        <time>2021-03-28T06:55:53Z</time>
      </trkpt>
      <trkpt lat="45.13319" lon="4.9899">
        <ele>224.8</ele>
        <time>2021-03-28T06:55:57Z</time>
      </trkpt>
      <trkpt lat="45.13328" lon="4.98996">
        <ele>225.6</ele>
        <time>2021-03-28T06:56:01Z</time>
      </trkpt>
      <trkpt lat="45.13337" lon="4.99003">
        <ele>226.8</ele>
        <time>2021-03-28T06:56:05Z</time>
      </trkpt>
      <trkpt lat="45.13347" lon="4.99009">
        <ele>227.2</ele>
        <time>2021-03-28T06:56:09Z</time>
      </trkpt>
      <trkpt lat="45.13355" lon="4.99015">
        <ele>227.8</ele>
        <time>2021-03-28T06:56:13Z</time>
      </trkpt>
      <trkpt lat="45.13364" lon="4.99021">
        <ele>228.2</ele>
        <time>2021-03-28T06:56:17Z</time>
      </trkpt>
      <trkpt lat="45.13372" lon="4.99029">
        <ele>229.2</ele>
        <time>2021-03-28T06:56:21Z</time>
      </trkpt>
      <trkpt lat="45.13379" lon="4.99036">
        <ele>229.6</ele>
        <time>2021-03-28T06:56:25Z</time>
      </trkpt>
      <trkpt lat="45.13388" lon="4.99042">
        <ele>230.8</ele>
        <time>2021-03-28T06:56:29Z</time>
      </trkpt>
      <trkpt lat="45.13396" lon="4.9905">
        <ele>231.2</ele>
        <time>2021-03-28T06:56:33Z</time>
      </trkpt>
      <trkpt lat="45.13403" lon="4.99058">
        <ele>231.4</ele>
        <time>2021-03-28T06:56:37Z</time>
      </trkpt>
      <trkpt lat="45.1341" lon="4.99065">
        <ele>232.6</ele>
        <time>2021-03-28T06:56:41Z</time>
      </trkpt>
      <trkpt lat="45.13419" lon="4.99072">
        <ele>233</ele>
        <time>2021-03-28T06:56:45Z</time>
      </trkpt>
      <trkpt lat="45.13429" lon="4.99081">
        <ele>233.4</ele>
        <time>2021-03-28T06:56:49Z</time>
      </trkpt>
      <trkpt lat="45.13438" lon="4.99089">
        <ele>234.2</ele>
        <time>2021-03-28T06:56:53Z</time>
      </trkpt>
      <trkpt lat="45.13446" lon="4.99097">
        <ele>234.2</ele>
        <time>2021-03-28T06:56:57Z</time>
      </trkpt>
      <trkpt lat="45.13455" lon="4.99105">
        <ele>235</ele>
        <time>2021-03-28T06:57:01Z</time>
      </trkpt>
      <trkpt lat="45.13464" lon="4.99113">
        <ele>235.6</ele>
        <time>2021-03-28T06:57:05Z</time>
      </trkpt>
      <trkpt lat="45.13473" lon="4.99122">
        <ele>235.8</ele>
        <time>2021-03-28T06:57:09Z</time>
      </trkpt>
      <trkpt lat="45.13482" lon="4.9913">
        <ele>236.4</ele>
        <time>2021-03-28T06:57:13Z</time>
      </trkpt>
      <trkpt lat="45.13491" lon="4.99139">
        <ele>236.8</ele>
        <time>2021-03-28T06:57:17Z</time>
      </trkpt>
      <trkpt lat="45.13501" lon="4.99147">
        <ele>237.4</ele>
        <time>2021-03-28T06:57:21Z</time>
      </trkpt>
      <trkpt lat="45.1351" lon="4.99155">
        <ele>238</ele>
        <time>2021-03-28T06:57:25Z</time>
      </trkpt>
      <trkpt lat="45.13521" lon="4.99164">
        <ele>238.2</ele>
        <time>2021-03-28T06:57:29Z</time>
      </trkpt>
      <trkpt lat="45.13531" lon="4.99173">
        <ele>238.2</ele>
        <time>2021-03-28T06:57:33Z</time>
      </trkpt>
      <trkpt lat="45.13543" lon="4.99181">
        <ele>237.8</ele>
        <time>2021-03-28T06:57:37Z</time>
      </trkpt>
      <trkpt lat="45.13555" lon="4.99189">
        <ele>238.6</ele>
        <time>2021-03-28T06:57:41Z</time>
      </trkpt>
      <trkpt lat="45.13567" lon="4.99198">
        <ele>238.4</ele>
        <time>2021-03-28T06:57:45Z</time>
      </trkpt>
      <trkpt lat="45.1358" lon="4.99206">
        <ele>238.4</ele>
        <time>2021-03-28T06:57:49Z</time>
      </trkpt>
      <trkpt lat="45.13593" lon="4.99213">
        <ele>238.2</ele>
        <time>2021-03-28T06:57:53Z</time>
      </trkpt>
      <trkpt lat="45.13606" lon="4.99219">
        <ele>238.6</ele>
        <time>2021-03-28T06:57:57Z</time>
      </trkpt>
      <trkpt lat="45.13621" lon="4.99222">
        <ele>238.6</ele>
        <time>2021-03-28T06:58:01Z</time>
      </trkpt>
      <trkpt lat="45.13638" lon="4.99224">
        <ele>238.4</ele>
        <time>2021-03-28T06:58:05Z</time>
      </trkpt>
      <trkpt lat="45.13654" lon="4.99221">
        <ele>238.4</ele>
        <time>2021-03-28T06:58:09Z</time>
      </trkpt>
      <trkpt lat="45.1367" lon="4.99216">
        <ele>239</ele>
        <time>2021-03-28T06:58:13Z</time>
      </trkpt>
      <trkpt lat="45.13684" lon="4.9921">
        <ele>238.6</ele>
        <time>2021-03-28T06:58:17Z</time>
      </trkpt>
      <trkpt lat="45.137" lon="4.99204">
        <ele>238.4</ele>
        <time>2021-03-28T06:58:21Z</time>
      </trkpt>
      <trkpt lat="45.13717" lon="4.99194">
        <ele>238</ele>
        <time>2021-03-28T06:58:25Z</time>
      </trkpt>
      <trkpt lat="45.13734" lon="4.99184">
        <ele>238</ele>
        <time>2021-03-28T06:58:29Z</time>
      </trkpt>
      <trkpt lat="45.13751" lon="4.99174">
        <ele>237.8</ele>
        <time>2021-03-28T06:58:33Z</time>
      </trkpt>
      <trkpt lat="45.13768" lon="4.99163">
        <ele>237</ele>
        <time>2021-03-28T06:58:37Z</time>
      </trkpt>
      <trkpt lat="45.13786" lon="4.99152">
        <ele>236.8</ele>
        <time>2021-03-28T06:58:41Z</time>
      </trkpt>
      <trkpt lat="45.13804" lon="4.99142">
        <ele>237</ele>
        <time>2021-03-28T06:58:45Z</time>
      </trkpt>
      <trkpt lat="45.13822" lon="4.99131">
        <ele>236.4</ele>
        <time>2021-03-28T06:58:49Z</time>
      </trkpt>
      <trkpt lat="45.13841" lon="4.9912">
        <ele>236.4</ele>
        <time>2021-03-28T06:58:53Z</time>
      </trkpt>
      <trkpt lat="45.1386" lon="4.9911">
        <ele>236.4</ele>
        <time>2021-03-28T06:58:57Z</time>
      </trkpt>
      <trkpt lat="45.13878" lon="4.991">
        <ele>236.6</ele>
        <time>2021-03-28T06:59:01Z</time>
      </trkpt>
      <trkpt lat="45.13897" lon="4.99091">
        <ele>236.6</ele>
        <time>2021-03-28T06:59:05Z</time>
      </trkpt>
      <trkpt lat="45.13916" lon="4.99085">
        <ele>235.8</ele>
        <time>2021-03-28T06:59:09Z</time>
      </trkpt>
      <trkpt lat="45.13936" lon="4.99081">
        <ele>235.2</ele>
        <time>2021-03-28T06:59:13Z</time>
      </trkpt>
      <trkpt lat="45.13958" lon="4.9908">
        <ele>235.2</ele>
        <time>2021-03-28T06:59:17Z</time>
      </trkpt>
      <trkpt lat="45.13979" lon="4.99081">
        <ele>235.2</ele>
        <time>2021-03-28T06:59:21Z</time>
      </trkpt>
      <trkpt lat="45.13999" lon="4.99081">
        <ele>235</ele>
        <time>2021-03-28T06:59:25Z</time>
      </trkpt>
      <trkpt lat="45.14018" lon="4.99083">
        <ele>235.2</ele>
        <time>2021-03-28T06:59:29Z</time>
      </trkpt>
      <trkpt lat="45.14038" lon="4.99082">
        <ele>234.8</ele>
        <time>2021-03-28T06:59:33Z</time>
      </trkpt>
      <trkpt lat="45.14058" lon="4.99083">
        <ele>235.8</ele>
        <time>2021-03-28T06:59:37Z</time>
      </trkpt>
      <trkpt lat="45.14077" lon="4.99083">
        <ele>235.2</ele>
        <time>2021-03-28T06:59:41Z</time>
      </trkpt>
      <trkpt lat="45.14097" lon="4.99084">
        <ele>235</ele>
        <time>2021-03-28T06:59:45Z</time>
      </trkpt>
      <trkpt lat="45.14114" lon="4.99084">
        <ele>234.8</ele>
        <time>2021-03-28T06:59:49Z</time>
      </trkpt>
      <trkpt lat="45.14134" lon="4.99085">
        <ele>233.8</ele>
        <time>2021-03-28T06:59:53Z</time>
      </trkpt>
      <trkpt lat="45.14155" lon="4.99091">
        <ele>233</ele>
        <time>2021-03-28T06:59:57Z</time>
      </trkpt>
      <trkpt lat="45.14179" lon="4.99103">
        <ele>232.4</ele>
        <time>2021-03-28T07:00:01Z</time>
      </trkpt>
      <trkpt lat="45.14203" lon="4.99116">
        <ele>231.2</ele>
        <time>2021-03-28T07:00:05Z</time>
      </trkpt>
      <trkpt lat="45.14228" lon="4.99124">
        <ele>229.6</ele>
        <time>2021-03-28T07:00:09Z</time>
      </trkpt>
      <trkpt lat="45.14257" lon="4.99126">
        <ele>229.2</ele>
        <time>2021-03-28T07:00:13Z</time>
      </trkpt>
      <trkpt lat="45.14283" lon="4.99124">
        <ele>228</ele>
        <time>2021-03-28T07:00:17Z</time>
      </trkpt>
      <trkpt lat="45.14308" lon="4.99123">
        <ele>226.6</ele>
        <time>2021-03-28T07:00:21Z</time>
      </trkpt>
      <trkpt lat="45.14339" lon="4.99122">
        <ele>225.8</ele>
        <time>2021-03-28T07:00:25Z</time>
      </trkpt>
      <trkpt lat="45.14369" lon="4.99121">
        <ele>225</ele>
        <time>2021-03-28T07:00:29Z</time>
      </trkpt>
      <trkpt lat="45.14396" lon="4.9912">
        <ele>224.8</ele>
        <time>2021-03-28T07:00:33Z</time>
      </trkpt>
      <trkpt lat="45.14419" lon="4.99123">
        <ele>225</ele>
        <time>2021-03-28T07:00:37Z</time>
      </trkpt>
      <trkpt lat="45.14437" lon="4.9913">
        <ele>225.4</ele>
        <time>2021-03-28T07:00:41Z</time>
      </trkpt>
      <trkpt lat="45.14454" lon="4.99139">
        <ele>225.4</ele>
        <time>2021-03-28T07:00:45Z</time>
      </trkpt>
      <trkpt lat="45.1447" lon="4.99145">
        <ele>224.8</ele>
        <time>2021-03-28T07:00:49Z</time>
      </trkpt>
      <trkpt lat="45.14491" lon="4.9915">
        <ele>225.8</ele>
        <time>2021-03-28T07:00:53Z</time>
      </trkpt>
      <trkpt lat="45.14513" lon="4.99153">
        <ele>226.6</ele>
        <time>2021-03-28T07:00:57Z</time>
      </trkpt>
      <trkpt lat="45.14532" lon="4.99155">
        <ele>227.6</ele>
        <time>2021-03-28T07:01:01Z</time>
      </trkpt>
      <trkpt lat="45.14548" lon="4.99157">
        <ele>227.6</ele>
        <time>2021-03-28T07:01:05Z</time>
      </trkpt>
      <trkpt lat="45.14566" lon="4.9916">
        <ele>228.6</ele>
        <time>2021-03-28T07:01:09Z</time>
      </trkpt>
      <trkpt lat="45.14582" lon="4.99161">
        <ele>228.8</ele>
        <time>2021-03-28T07:01:13Z</time>
      </trkpt>
      <trkpt lat="45.14598" lon="4.99163">
        <ele>228.6</ele>
        <time>2021-03-28T07:01:17Z</time>
      </trkpt>
      <trkpt lat="45.14615" lon="4.99164">
        <ele>228.8</ele>
        <time>2021-03-28T07:01:21Z</time>
      </trkpt>
      <trkpt lat="45.14628" lon="4.99166">
        <ele>229</ele>
        <time>2021-03-28T07:01:25Z</time>
      </trkpt>
      <trkpt lat="45.14642" lon="4.99167">
        <ele>229.2</ele>
        <time>2021-03-28T07:01:29Z</time>
      </trkpt>
      <trkpt lat="45.14658" lon="4.99168">
        <ele>228.6</ele>
        <time>2021-03-28T07:01:33Z</time>
      </trkpt>
      <trkpt lat="45.14676" lon="4.9917">
        <ele>229.6</ele>
        <time>2021-03-28T07:01:37Z</time>
      </trkpt>
      <trkpt lat="45.14698" lon="4.99173">
        <ele>229.4</ele>
        <time>2021-03-28T07:01:41Z</time>
      </trkpt>
      <trkpt lat="45.14721" lon="4.99176">
        <ele>228.2</ele>
        <time>2021-03-28T07:01:45Z</time>
      </trkpt>
      <trkpt lat="45.14739" lon="4.99183">
        <ele>228.6</ele>
        <time>2021-03-28T07:01:49Z</time>
      </trkpt>
      <trkpt lat="45.14756" lon="4.99191">
        <ele>229.2</ele>
        <time>2021-03-28T07:01:53Z</time>
      </trkpt>
      <trkpt lat="45.14771" lon="4.99201">
        <ele>230.2</ele>
        <time>2021-03-28T07:01:57Z</time>
      </trkpt>
      <trkpt lat="45.14783" lon="4.99211">
        <ele>230.2</ele>
        <time>2021-03-28T07:02:01Z</time>
      </trkpt>
      <trkpt lat="45.14795" lon="4.99218">
        <ele>231.4</ele>
        <time>2021-03-28T07:02:05Z</time>
      </trkpt>
      <trkpt lat="45.14807" lon="4.99226">
        <ele>232</ele>
        <time>2021-03-28T07:02:09Z</time>
      </trkpt>
      <trkpt lat="45.14815" lon="4.99233">
        <ele>232</ele>
        <time>2021-03-28T07:02:13Z</time>
      </trkpt>
      <trkpt lat="45.14826" lon="4.9924">
        <ele>233.2</ele>
        <time>2021-03-28T07:02:17Z</time>
      </trkpt>
      <trkpt lat="45.14836" lon="4.99246">
        <ele>233.4</ele>
        <time>2021-03-28T07:02:21Z</time>
      </trkpt>
      <trkpt lat="45.14846" lon="4.99254">
        <ele>233.4</ele>
        <time>2021-03-28T07:02:25Z</time>
      </trkpt>
      <trkpt lat="45.14856" lon="4.99261">
        <ele>234.4</ele>
        <time>2021-03-28T07:02:29Z</time>
      </trkpt>
      <trkpt lat="45.14866" lon="4.99268">
        <ele>234.8</ele>
        <time>2021-03-28T07:02:33Z</time>
      </trkpt>
      <trkpt lat="45.14876" lon="4.99274">
        <ele>235.4</ele>
        <time>2021-03-28T07:02:37Z</time>
      </trkpt>
      <trkpt lat="45.14888" lon="4.99282">
        <ele>236.4</ele>
        <time>2021-03-28T07:02:41Z</time>
      </trkpt>
      <trkpt lat="45.14897" lon="4.99288">
        <ele>236.8</ele>
        <time>2021-03-28T07:02:45Z</time>
      </trkpt>
      <trkpt lat="45.14906" lon="4.99296">
        <ele>237.8</ele>
        <time>2021-03-28T07:02:49Z</time>
      </trkpt>
      <trkpt lat="45.14917" lon="4.99302">
        <ele>238.4</ele>
        <time>2021-03-28T07:02:53Z</time>
      </trkpt>
      <trkpt lat="45.14928" lon="4.99308">
        <ele>238.6</ele>
        <time>2021-03-28T07:02:57Z</time>
      </trkpt>
      <trkpt lat="45.14935" lon="4.99313">
        <ele>238.8</ele>
        <time>2021-03-28T07:03:01Z</time>
      </trkpt>
      <trkpt lat="45.14947" lon="4.99319">
        <ele>239.6</ele>
        <time>2021-03-28T07:03:05Z</time>
      </trkpt>
      <trkpt lat="45.14961" lon="4.99325">
        <ele>239.8</ele>
        <time>2021-03-28T07:03:09Z</time>
      </trkpt>
      <trkpt lat="45.14979" lon="4.99332">
        <ele>240.4</ele>
        <time>2021-03-28T07:03:13Z</time>
      </trkpt>
      <trkpt lat="45.14989" lon="4.99341">
        <ele>240.8</ele>
        <time>2021-03-28T07:03:17Z</time>
      </trkpt>
      <trkpt lat="45.14999" lon="4.99347">
        <ele>242</ele>
        <time>2021-03-28T07:03:21Z</time>
      </trkpt>
      <trkpt lat="45.15006" lon="4.99354">
        <ele>242.6</ele>
        <time>2021-03-28T07:03:25Z</time>
      </trkpt>
      <trkpt lat="45.15014" lon="4.99362">
        <ele>242.6</ele>
        <time>2021-03-28T07:03:29Z</time>
      </trkpt>
      <trkpt lat="45.15023" lon="4.9937">
        <ele>243.4</ele>
        <time>2021-03-28T07:03:33Z</time>
      </trkpt>
      <trkpt lat="45.15031" lon="4.99378">
        <ele>244</ele>
        <time>2021-03-28T07:03:37Z</time>
      </trkpt>
      <trkpt lat="45.15038" lon="4.99385">
        <ele>244.6</ele>
        <time>2021-03-28T07:03:41Z</time>
      </trkpt>
      <trkpt lat="45.15044" lon="4.99392">
        <ele>246</ele>
        <time>2021-03-28T07:03:45Z</time>
      </trkpt>
      <trkpt lat="45.15052" lon="4.99399">
        <ele>246.2</ele>
        <time>2021-03-28T07:03:49Z</time>
      </trkpt>
      <trkpt lat="45.1506" lon="4.99407">
        <ele>246.8</ele>
        <time>2021-03-28T07:03:53Z</time>
      </trkpt>
      <trkpt lat="45.15068" lon="4.99414">
        <ele>247.4</ele>
        <time>2021-03-28T07:03:57Z</time>
      </trkpt>
      <trkpt lat="45.15075" lon="4.99421">
        <ele>248.2</ele>
        <time>2021-03-28T07:04:01Z</time>
      </trkpt>
      <trkpt lat="45.15082" lon="4.99428">
        <ele>248.8</ele>
        <time>2021-03-28T07:04:05Z</time>
      </trkpt>
      <trkpt lat="45.15088" lon="4.99434">
        <ele>249.4</ele>
        <time>2021-03-28T07:04:09Z</time>
      </trkpt>
      <trkpt lat="45.15095" lon="4.99441">
        <ele>249.6</ele>
        <time>2021-03-28T07:04:13Z</time>
      </trkpt>
      <trkpt lat="45.15102" lon="4.99448">
        <ele>250.2</ele>
        <time>2021-03-28T07:04:17Z</time>
      </trkpt>
      <trkpt lat="45.15111" lon="4.99454">
        <ele>250.8</ele>
        <time>2021-03-28T07:04:21Z</time>
      </trkpt>
      <trkpt lat="45.15121" lon="4.99461">
        <ele>251</ele>
        <time>2021-03-28T07:04:25Z</time>
      </trkpt>
      <trkpt lat="45.15127" lon="4.99467">
        <ele>251.8</ele>
        <time>2021-03-28T07:04:29Z</time>
      </trkpt>
      <trkpt lat="45.15135" lon="4.99474">
        <ele>251.8</ele>
        <time>2021-03-28T07:04:33Z</time>
      </trkpt>
      <trkpt lat="45.15144" lon="4.99482">
        <ele>252.8</ele>
        <time>2021-03-28T07:04:37Z</time>
      </trkpt>
      <trkpt lat="45.15154" lon="4.99491">
        <ele>253.2</ele>
        <time>2021-03-28T07:04:41Z</time>
      </trkpt>
      <trkpt lat="45.15161" lon="4.99502">
        <ele>254.4</ele>
        <time>2021-03-28T07:04:45Z</time>
      </trkpt>
      <trkpt lat="45.15167" lon="4.99512">
        <ele>254.4</ele>
        <time>2021-03-28T07:04:49Z</time>
      </trkpt>
      <trkpt lat="45.15173" lon="4.99523">
        <ele>255</ele>
        <time>2021-03-28T07:04:53Z</time>
      </trkpt>
      <trkpt lat="45.15178" lon="4.99534">
        <ele>255.6</ele>
        <time>2021-03-28T07:04:57Z</time>
      </trkpt>
      <trkpt lat="45.15183" lon="4.99545">
        <ele>256</ele>
        <time>2021-03-28T07:05:01Z</time>
      </trkpt>
      <trkpt lat="45.15186" lon="4.99557">
        <ele>256.4</ele>
        <time>2021-03-28T07:05:05Z</time>
      </trkpt>
      <trkpt lat="45.15188" lon="4.99569">
        <ele>257.4</ele>
        <time>2021-03-28T07:05:09Z</time>
      </trkpt>
      <trkpt lat="45.1519" lon="4.9958">
        <ele>258.2</ele>
        <time>2021-03-28T07:05:13Z</time>
      </trkpt>
      <trkpt lat="45.15191" lon="4.99592">
        <ele>258.8</ele>
        <time>2021-03-28T07:05:17Z</time>
      </trkpt>
      <trkpt lat="45.15192" lon="4.99605">
        <ele>259.4</ele>
        <time>2021-03-28T07:05:21Z</time>
      </trkpt>
      <trkpt lat="45.1519" lon="4.99618">
        <ele>259.2</ele>
        <time>2021-03-28T07:05:25Z</time>
      </trkpt>
      <trkpt lat="45.1519" lon="4.99631">
        <ele>260</ele>
        <time>2021-03-28T07:05:29Z</time>
      </trkpt>
      <trkpt lat="45.15194" lon="4.99644">
        <ele>259.8</ele>
        <time>2021-03-28T07:05:33Z</time>
      </trkpt>
      <trkpt lat="45.152" lon="4.99656">
        <ele>260.8</ele>
        <time>2021-03-28T07:05:37Z</time>
      </trkpt>
      <trkpt lat="45.15206" lon="4.99662">
        <ele>261.2</ele>
        <time>2021-03-28T07:05:41Z</time>
      </trkpt>
      <trkpt lat="45.15213" lon="4.99666">
        <ele>262.2</ele>
        <time>2021-03-28T07:05:45Z</time>
      </trkpt>
      <trkpt lat="45.1522" lon="4.99669">
        <ele>262.8</ele>
        <time>2021-03-28T07:05:49Z</time>
      </trkpt>
      <trkpt lat="45.15226" lon="4.99672">
        <ele>263.4</ele>
        <time>2021-03-28T07:05:53Z</time>
      </trkpt>
      <trkpt lat="45.15235" lon="4.99673">
        <ele>264.2</ele>
        <time>2021-03-28T07:05:57Z</time>
      </trkpt>
      <trkpt lat="45.15244" lon="4.99672">
        <ele>264.2</ele>
        <time>2021-03-28T07:06:01Z</time>
      </trkpt>
      <trkpt lat="45.15253" lon="4.9967">
        <ele>265.2</ele>
        <time>2021-03-28T07:06:05Z</time>
      </trkpt>
      <trkpt lat="45.15261" lon="4.99669">
        <ele>265.6</ele>
        <time>2021-03-28T07:06:09Z</time>
      </trkpt>
      <trkpt lat="45.15269" lon="4.99666">
        <ele>266</ele>
        <time>2021-03-28T07:06:13Z</time>
      </trkpt>
      <trkpt lat="45.15278" lon="4.99663">
        <ele>266.2</ele>
        <time>2021-03-28T07:06:17Z</time>
      </trkpt>
      <trkpt lat="45.15289" lon="4.99658">
        <ele>266.6</ele>
        <time>2021-03-28T07:06:21Z</time>
      </trkpt>
      <trkpt lat="45.15298" lon="4.99655">
        <ele>267.6</ele>
        <time>2021-03-28T07:06:25Z</time>
      </trkpt>
      <trkpt lat="45.15306" lon="4.99651">
        <ele>268</ele>
        <time>2021-03-28T07:06:29Z</time>
      </trkpt>
      <trkpt lat="45.15316" lon="4.99646">
        <ele>268.6</ele>
        <time>2021-03-28T07:06:33Z</time>
      </trkpt>
      <trkpt lat="45.15327" lon="4.99637">
        <ele>269.4</ele>
        <time>2021-03-28T07:06:37Z</time>
      </trkpt>
      <trkpt lat="45.15337" lon="4.99629">
        <ele>269.6</ele>
        <time>2021-03-28T07:06:41Z</time>
      </trkpt>
      <trkpt lat="45.15346" lon="4.99619">
        <ele>270.2</ele>
        <time>2021-03-28T07:06:45Z</time>
      </trkpt>
      <trkpt lat="45.15354" lon="4.9961">
        <ele>270.8</ele>
        <time>2021-03-28T07:06:49Z</time>
      </trkpt>
      <trkpt lat="45.1536" lon="4.99598">
        <ele>271.4</ele>
        <time>2021-03-28T07:06:53Z</time>
      </trkpt>
      <trkpt lat="45.15364" lon="4.99584">
        <ele>271.2</ele>
        <time>2021-03-28T07:06:57Z</time>
      </trkpt>
      <trkpt lat="45.15368" lon="4.99573">
        <ele>271.8</ele>
        <time>2021-03-28T07:07:01Z</time>
      </trkpt>
      <trkpt lat="45.15374" lon="4.99559">
        <ele>271.8</ele>
        <time>2021-03-28T07:07:05Z</time>
      </trkpt>
      <trkpt lat="45.15379" lon="4.99543">
        <ele>273</ele>
        <time>2021-03-28T07:07:09Z</time>
      </trkpt>
      <trkpt lat="45.15384" lon="4.99526">
        <ele>273.4</ele>
        <time>2021-03-28T07:07:13Z</time>
      </trkpt>
      <trkpt lat="45.15389" lon="4.99504">
        <ele>274</ele>
        <time>2021-03-28T07:07:17Z</time>
      </trkpt>
      <trkpt lat="45.15393" lon="4.99491">
        <ele>274.2</ele>
        <time>2021-03-28T07:07:21Z</time>
      </trkpt>
      <trkpt lat="45.15403" lon="4.99483">
        <ele>274.8</ele>
        <time>2021-03-28T07:07:25Z</time>
      </trkpt>
      <trkpt lat="45.15411" lon="4.99479">
        <ele>275.4</ele>
        <time>2021-03-28T07:07:29Z</time>
      </trkpt>
      <trkpt lat="45.15419" lon="4.99472">
        <ele>275.6</ele>
        <time>2021-03-28T07:07:33Z</time>
      </trkpt>
      <trkpt lat="45.15425" lon="4.99467">
        <ele>276.2</ele>
        <time>2021-03-28T07:07:37Z</time>
      </trkpt>
      <trkpt lat="45.15433" lon="4.99461">
        <ele>276.8</ele>
        <time>2021-03-28T07:07:41Z</time>
      </trkpt>
      <trkpt lat="45.15443" lon="4.99454">
        <ele>277.6</ele>
        <time>2021-03-28T07:07:45Z</time>
      </trkpt>
      <trkpt lat="45.1545" lon="4.99446">
        <ele>278.4</ele>
        <time>2021-03-28T07:07:49Z</time>
      </trkpt>
      <trkpt lat="45.15455" lon="4.99438">
        <ele>278.8</ele>
        <time>2021-03-28T07:07:53Z</time>
      </trkpt>
      <trkpt lat="45.15461" lon="4.9943">
        <ele>279.4</ele>
        <time>2021-03-28T07:07:57Z</time>
      </trkpt>
      <trkpt lat="45.15465" lon="4.9942">
        <ele>279.8</ele>
        <time>2021-03-28T07:08:01Z</time>
      </trkpt>
      <trkpt lat="45.15472" lon="4.99412">
        <ele>280.6</ele>
        <time>2021-03-28T07:08:05Z</time>
      </trkpt>
      <trkpt lat="45.15477" lon="4.99402">
        <ele>280.8</ele>
        <time>2021-03-28T07:08:09Z</time>
      </trkpt>
      <trkpt lat="45.15483" lon="4.99392">
        <ele>281.4</ele>
        <time>2021-03-28T07:08:13Z</time>
      </trkpt>
      <trkpt lat="45.15488" lon="4.99385">
        <ele>283</ele>
        <time>2021-03-28T07:08:17Z</time>
      </trkpt>
      <trkpt lat="45.15495" lon="4.99379">
        <ele>282.4</ele>
        <time>2021-03-28T07:08:21Z</time>
      </trkpt>
      <trkpt lat="45.15501" lon="4.99372">
        <ele>283.8</ele>
        <time>2021-03-28T07:08:25Z</time>
      </trkpt>
      <trkpt lat="45.15509" lon="4.99367">
        <ele>283.4</ele>
        <time>2021-03-28T07:08:29Z</time>
      </trkpt>
      <trkpt lat="45.15519" lon="4.99362">
        <ele>283.4</ele>
        <time>2021-03-28T07:08:33Z</time>
      </trkpt>
      <trkpt lat="45.15528" lon="4.99358">
        <ele>284</ele>
        <time>2021-03-28T07:08:37Z</time>
      </trkpt>
      <trkpt lat="45.15534" lon="4.99353">
        <ele>284.2</ele>
        <time>2021-03-28T07:08:41Z</time>
      </trkpt>
      <trkpt lat="45.15543" lon="4.99347">
        <ele>284.4</ele>
        <time>2021-03-28T07:08:45Z</time>
      </trkpt>
      <trkpt lat="45.15554" lon="4.99339">
        <ele>283.6</ele>
        <time>2021-03-28T07:08:49Z</time>
      </trkpt>
      <trkpt lat="45.15568" lon="4.99333">
        <ele>284.2</ele>
        <time>2021-03-28T07:08:53Z</time>
      </trkpt>
      <trkpt lat="45.15582" lon="4.99321">
        <ele>283.6</ele>
        <time>2021-03-28T07:08:57Z</time>
      </trkpt>
      <trkpt lat="45.15595" lon="4.99312">
        <ele>283.8</ele>
        <time>2021-03-28T07:09:01Z</time>
      </trkpt>
      <trkpt lat="45.15606" lon="4.99301">
        <ele>284.2</ele>
        <time>2021-03-28T07:09:05Z</time>
      </trkpt>
      <trkpt lat="45.15615" lon="4.99288">
        <ele>284.4</ele>
        <time>2021-03-28T07:09:09Z</time>
      </trkpt>
      <trkpt lat="45.15626" lon="4.99272">
        <ele>283.6</ele>
        <time>2021-03-28T07:09:13Z</time>
      </trkpt>
      <trkpt lat="45.15641" lon="4.9926">
        <ele>284</ele>
        <time>2021-03-28T07:09:17Z</time>
      </trkpt>
      <trkpt lat="45.15658" lon="4.99254">
        <ele>284</ele>
        <time>2021-03-28T07:09:21Z</time>
      </trkpt>
      <trkpt lat="45.15672" lon="4.99251">
        <ele>284</ele>
        <time>2021-03-28T07:09:25Z</time>
      </trkpt>
      <trkpt lat="45.15684" lon="4.99247">
        <ele>284.6</ele>
        <time>2021-03-28T07:09:29Z</time>
      </trkpt>
      <trkpt lat="45.157" lon="4.99242">
        <ele>283.6</ele>
        <time>2021-03-28T07:09:33Z</time>
      </trkpt>
      <trkpt lat="45.15714" lon="4.99239">
        <ele>284</ele>
        <time>2021-03-28T07:09:37Z</time>
      </trkpt>
      <trkpt lat="45.15728" lon="4.99234">
        <ele>283.6</ele>
        <time>2021-03-28T07:09:41Z</time>
      </trkpt>
      <trkpt lat="45.15743" lon="4.99229">
        <ele>283.2</ele>
        <time>2021-03-28T07:09:45Z</time>
      </trkpt>
      <trkpt lat="45.15757" lon="4.99225">
        <ele>283.4</ele>
        <time>2021-03-28T07:09:49Z</time>
      </trkpt>
      <trkpt lat="45.1577" lon="4.99222">
        <ele>282.8</ele>
        <time>2021-03-28T07:09:53Z</time>
      </trkpt>
      <trkpt lat="45.15783" lon="4.99218">
        <ele>282.4</ele>
        <time>2021-03-28T07:09:57Z</time>
      </trkpt>
      <trkpt lat="45.15799" lon="4.99216">
        <ele>282.4</ele>
        <time>2021-03-28T07:10:01Z</time>
      </trkpt>
      <trkpt lat="45.15813" lon="4.99215">
        <ele>282.8</ele>
        <time>2021-03-28T07:10:05Z</time>
      </trkpt>
      <trkpt lat="45.15828" lon="4.99214">
        <ele>282.6</ele>
        <time>2021-03-28T07:10:09Z</time>
      </trkpt>
      <trkpt lat="45.15844" lon="4.99212">
        <ele>282.4</ele>
        <time>2021-03-28T07:10:13Z</time>
      </trkpt>
      <trkpt lat="45.15861" lon="4.99212">
        <ele>282</ele>
        <time>2021-03-28T07:10:17Z</time>
      </trkpt>
      <trkpt lat="45.15878" lon="4.99211">
        <ele>281.6</ele>
        <time>2021-03-28T07:10:21Z</time>
      </trkpt>
      <trkpt lat="45.15898" lon="4.99205">
        <ele>281.6</ele>
        <time>2021-03-28T07:10:25Z</time>
      </trkpt>
      <trkpt lat="45.15933" lon="4.99189">
        <ele>281.8</ele>
        <time>2021-03-28T07:10:29Z</time>
      </trkpt>
      <trkpt lat="45.15954" lon="4.9918">
        <ele>281.2</ele>
        <time>2021-03-28T07:10:33Z</time>
      </trkpt>
      <trkpt lat="45.15971" lon="4.99175">
        <ele>281.2</ele>
        <time>2021-03-28T07:10:37Z</time>
      </trkpt>
      <trkpt lat="45.15982" lon="4.99169">
        <ele>281</ele>
        <time>2021-03-28T07:10:41Z</time>
      </trkpt>
      <trkpt lat="45.15995" lon="4.99166">
        <ele>280.2</ele>
        <time>2021-03-28T07:10:45Z</time>
      </trkpt>
      <trkpt lat="45.16021" lon="4.99159">
        <ele>280.6</ele>
        <time>2021-03-28T07:10:49Z</time>
      </trkpt>
      <trkpt lat="45.16053" lon="4.99154">
        <ele>281.4</ele>
        <time>2021-03-28T07:10:53Z</time>
      </trkpt>
      <trkpt lat="45.16075" lon="4.9915">
        <ele>280.4</ele>
        <time>2021-03-28T07:10:57Z</time>
      </trkpt>
      <trkpt lat="45.16095" lon="4.9915">
        <ele>280.8</ele>
        <time>2021-03-28T07:11:01Z</time>
      </trkpt>
      <trkpt lat="45.16112" lon="4.99159">
        <ele>281.8</ele>
        <time>2021-03-28T07:11:05Z</time>
      </trkpt>
      <trkpt lat="45.16122" lon="4.99173">
        <ele>282.4</ele>
        <time>2021-03-28T07:11:09Z</time>
      </trkpt>
      <trkpt lat="45.16129" lon="4.99188">
        <ele>283.2</ele>
        <time>2021-03-28T07:11:13Z</time>
      </trkpt>
      <trkpt lat="45.16138" lon="4.99201">
        <ele>284</ele>
        <time>2021-03-28T07:11:17Z</time>
      </trkpt>
      <trkpt lat="45.16147" lon="4.9921">
        <ele>284.4</ele>
        <time>2021-03-28T07:11:21Z</time>
      </trkpt>
      <trkpt lat="45.16157" lon="4.99213">
        <ele>285.2</ele>
        <time>2021-03-28T07:11:25Z</time>
      </trkpt>
      <trkpt lat="45.16168" lon="4.99213">
        <ele>286</ele>
        <time>2021-03-28T07:11:29Z</time>
      </trkpt>
      <trkpt lat="45.16168" lon="4.99213">
        <ele>286.6</ele>
        <time>2021-03-28T07:11:33Z</time>
      </trkpt>
      <trkpt lat="45.16184" lon="4.99211">
        <ele>286.4</ele>
        <time>2021-03-28T07:12:22Z</time>
      </trkpt>
      <trkpt lat="45.16196" lon="4.99209">
        <ele>287.2</ele>
        <time>2021-03-28T07:12:26Z</time>
      </trkpt>
      <trkpt lat="45.16207" lon="4.99207">
        <ele>287.4</ele>
        <time>2021-03-28T07:12:30Z</time>
      </trkpt>
      <trkpt lat="45.16218" lon="4.99206">
        <ele>288.2</ele>
        <time>2021-03-28T07:12:34Z</time>
      </trkpt>
      <trkpt lat="45.16227" lon="4.99205">
        <ele>288.8</ele>
        <time>2021-03-28T07:12:38Z</time>
      </trkpt>
      <trkpt lat="45.16237" lon="4.99202">
        <ele>289.2</ele>
        <time>2021-03-28T07:12:42Z</time>
      </trkpt>
      <trkpt lat="45.16248" lon="4.99199">
        <ele>289.8</ele>
        <time>2021-03-28T07:12:46Z</time>
      </trkpt>
      <trkpt lat="45.16259" lon="4.99196">
        <ele>290.6</ele>
        <time>2021-03-28T07:12:50Z</time>
      </trkpt>
      <trkpt lat="45.16268" lon="4.99192">
        <ele>290.4</ele>
        <time>2021-03-28T07:12:54Z</time>
      </trkpt>
      <trkpt lat="45.16278" lon="4.99189">
        <ele>291.6</ele>
        <time>2021-03-28T07:12:58Z</time>
      </trkpt>
      <trkpt lat="45.16289" lon="4.99185">
        <ele>292.4</ele>
        <time>2021-03-28T07:13:02Z</time>
      </trkpt>
      <trkpt lat="45.16299" lon="4.99181">
        <ele>293</ele>
        <time>2021-03-28T07:13:06Z</time>
      </trkpt>
      <trkpt lat="45.16309" lon="4.99178">
        <ele>293.4</ele>
        <time>2021-03-28T07:13:10Z</time>
      </trkpt>
      <trkpt lat="45.16318" lon="4.99175">
        <ele>294</ele>
        <time>2021-03-28T07:13:14Z</time>
      </trkpt>
      <trkpt lat="45.16328" lon="4.99171">
        <ele>294.8</ele>
        <time>2021-03-28T07:13:18Z</time>
      </trkpt>
      <trkpt lat="45.16338" lon="4.99167">
        <ele>295.8</ele>
        <time>2021-03-28T07:13:22Z</time>
      </trkpt>
      <trkpt lat="45.16349" lon="4.99163">
        <ele>296</ele>
        <time>2021-03-28T07:13:26Z</time>
      </trkpt>
      <trkpt lat="45.16359" lon="4.99159">
        <ele>296.8</ele>
        <time>2021-03-28T07:13:30Z</time>
      </trkpt>
      <trkpt lat="45.1637" lon="4.99156">
        <ele>297</ele>
        <time>2021-03-28T07:13:34Z</time>
      </trkpt>
      <trkpt lat="45.16379" lon="4.99152">
        <ele>298</ele>
        <time>2021-03-28T07:13:38Z</time>
      </trkpt>
      <trkpt lat="45.16388" lon="4.99148">
        <ele>298.4</ele>
        <time>2021-03-28T07:13:42Z</time>
      </trkpt>
      <trkpt lat="45.16398" lon="4.99145">
        <ele>299.4</ele>
        <time>2021-03-28T07:13:46Z</time>
      </trkpt>
      <trkpt lat="45.16407" lon="4.99141">
        <ele>299.4</ele>
        <time>2021-03-28T07:13:50Z</time>
      </trkpt>
      <trkpt lat="45.16418" lon="4.99138">
        <ele>300</ele>
        <time>2021-03-28T07:13:54Z</time>
      </trkpt>
      <trkpt lat="45.16428" lon="4.99134">
        <ele>301</ele>
        <time>2021-03-28T07:13:58Z</time>
      </trkpt>
      <trkpt lat="45.16437" lon="4.99131">
        <ele>301.6</ele>
        <time>2021-03-28T07:14:02Z</time>
      </trkpt>
      <trkpt lat="45.16446" lon="4.99128">
        <ele>302.4</ele>
        <time>2021-03-28T07:14:06Z</time>
      </trkpt>
      <trkpt lat="45.16455" lon="4.99125">
        <ele>302.2</ele>
        <time>2021-03-28T07:14:10Z</time>
      </trkpt>
      <trkpt lat="45.16463" lon="4.99121">
        <ele>303.2</ele>
        <time>2021-03-28T07:14:14Z</time>
      </trkpt>
      <trkpt lat="45.16471" lon="4.99119">
        <ele>304.2</ele>
        <time>2021-03-28T07:14:18Z</time>
      </trkpt>
      <trkpt lat="45.1648" lon="4.99117">
        <ele>305</ele>
        <time>2021-03-28T07:14:22Z</time>
      </trkpt>
      <trkpt lat="45.1649" lon="4.99116">
        <ele>305.6</ele>
        <time>2021-03-28T07:14:26Z</time>
      </trkpt>
      <trkpt lat="45.16499" lon="4.99115">
        <ele>306.4</ele>
        <time>2021-03-28T07:14:30Z</time>
      </trkpt>
      <trkpt lat="45.16507" lon="4.99114">
        <ele>307</ele>
        <time>2021-03-28T07:14:34Z</time>
      </trkpt>
      <trkpt lat="45.16517" lon="4.99113">
        <ele>307.2</ele>
        <time>2021-03-28T07:14:38Z</time>
      </trkpt>
      <trkpt lat="45.16526" lon="4.99113">
        <ele>308</ele>
        <time>2021-03-28T07:14:42Z</time>
      </trkpt>
      <trkpt lat="45.16537" lon="4.99112">
        <ele>308.2</ele>
        <time>2021-03-28T07:14:46Z</time>
      </trkpt>
      <trkpt lat="45.16546" lon="4.99111">
        <ele>309.8</ele>
        <time>2021-03-28T07:14:50Z</time>
      </trkpt>
      <trkpt lat="45.16557" lon="4.99111">
        <ele>309.8</ele>
        <time>2021-03-28T07:14:54Z</time>
      </trkpt>
      <trkpt lat="45.16568" lon="4.9911">
        <ele>311.2</ele>
        <time>2021-03-28T07:14:58Z</time>
      </trkpt>
      <trkpt lat="45.16578" lon="4.9911">
        <ele>311.8</ele>
        <time>2021-03-28T07:15:02Z</time>
      </trkpt>
      <trkpt lat="45.16586" lon="4.99112">
        <ele>312</ele>
        <time>2021-03-28T07:15:06Z</time>
      </trkpt>
      <trkpt lat="45.16595" lon="4.99117">
        <ele>312.6</ele>
        <time>2021-03-28T07:15:10Z</time>
      </trkpt>
      <trkpt lat="45.16605" lon="4.99127">
        <ele>312.8</ele>
        <time>2021-03-28T07:15:14Z</time>
      </trkpt>
      <trkpt lat="45.16611" lon="4.99137">
        <ele>313.4</ele>
        <time>2021-03-28T07:15:18Z</time>
      </trkpt>
      <trkpt lat="45.16618" lon="4.99148">
        <ele>314.2</ele>
        <time>2021-03-28T07:15:22Z</time>
      </trkpt>
      <trkpt lat="45.16624" lon="4.99157">
        <ele>315</ele>
        <time>2021-03-28T07:15:26Z</time>
      </trkpt>
      <trkpt lat="45.16631" lon="4.99163">
        <ele>315.4</ele>
        <time>2021-03-28T07:15:30Z</time>
      </trkpt>
      <trkpt lat="45.16639" lon="4.99167">
        <ele>316.2</ele>
        <time>2021-03-28T07:15:34Z</time>
      </trkpt>
      <trkpt lat="45.16649" lon="4.99168">
        <ele>316.6</ele>
        <time>2021-03-28T07:15:38Z</time>
      </trkpt>
      <trkpt lat="45.16659" lon="4.99166">
        <ele>317</ele>
        <time>2021-03-28T07:15:42Z</time>
      </trkpt>
      <trkpt lat="45.16668" lon="4.99163">
        <ele>317.6</ele>
        <time>2021-03-28T07:15:46Z</time>
      </trkpt>
      <trkpt lat="45.16677" lon="4.99159">
        <ele>318.2</ele>
        <time>2021-03-28T07:15:50Z</time>
      </trkpt>
      <trkpt lat="45.16686" lon="4.99155">
        <ele>319</ele>
        <time>2021-03-28T07:15:54Z</time>
      </trkpt>
      <trkpt lat="45.16697" lon="4.99154">
        <ele>319.2</ele>
        <time>2021-03-28T07:15:58Z</time>
      </trkpt>
      <trkpt lat="45.16707" lon="4.99159">
        <ele>320.2</ele>
        <time>2021-03-28T07:16:02Z</time>
      </trkpt>
      <trkpt lat="45.16714" lon="4.99168">
        <ele>320.4</ele>
        <time>2021-03-28T07:16:06Z</time>
      </trkpt>
      <trkpt lat="45.16721" lon="4.99179">
        <ele>321</ele>
        <time>2021-03-28T07:16:10Z</time>
      </trkpt>
      <trkpt lat="45.16728" lon="4.99188">
        <ele>322</ele>
        <time>2021-03-28T07:16:14Z</time>
      </trkpt>
      <trkpt lat="45.16735" lon="4.99195">
        <ele>321.8</ele>
        <time>2021-03-28T07:16:18Z</time>
      </trkpt>
      <trkpt lat="45.16744" lon="4.99199">
        <ele>322.4</ele>
        <time>2021-03-28T07:16:22Z</time>
      </trkpt>
      <trkpt lat="45.16756" lon="4.99195">
        <ele>323.4</ele>
        <time>2021-03-28T07:16:26Z</time>
      </trkpt>
      <trkpt lat="45.16764" lon="4.9919">
        <ele>324.4</ele>
        <time>2021-03-28T07:16:30Z</time>
      </trkpt>
      <trkpt lat="45.16773" lon="4.99184">
        <ele>325</ele>
        <time>2021-03-28T07:16:34Z</time>
      </trkpt>
      <trkpt lat="45.16783" lon="4.99181">
        <ele>324.8</ele>
        <time>2021-03-28T07:16:38Z</time>
      </trkpt>
      <trkpt lat="45.16794" lon="4.99182">
        <ele>326.2</ele>
        <time>2021-03-28T07:16:42Z</time>
      </trkpt>
      <trkpt lat="45.16804" lon="4.99187">
        <ele>326.6</ele>
        <time>2021-03-28T07:16:46Z</time>
      </trkpt>
      <trkpt lat="45.16813" lon="4.99195">
        <ele>327.2</ele>
        <time>2021-03-28T07:16:50Z</time>
      </trkpt>
      <trkpt lat="45.16822" lon="4.99203">
        <ele>327</ele>
        <time>2021-03-28T07:16:54Z</time>
      </trkpt>
      <trkpt lat="45.1683" lon="4.99212">
        <ele>328.4</ele>
        <time>2021-03-28T07:16:58Z</time>
      </trkpt>
      <trkpt lat="45.16838" lon="4.99219">
        <ele>328.2</ele>
        <time>2021-03-28T07:17:02Z</time>
      </trkpt>
      <trkpt lat="45.16846" lon="4.99227">
        <ele>328.8</ele>
        <time>2021-03-28T07:17:06Z</time>
      </trkpt>
      <trkpt lat="45.16854" lon="4.99234">
        <ele>330.2</ele>
        <time>2021-03-28T07:17:10Z</time>
      </trkpt>
      <trkpt lat="45.16863" lon="4.99241">
        <ele>330.2</ele>
        <time>2021-03-28T07:17:14Z</time>
      </trkpt>
      <trkpt lat="45.1687" lon="4.99249">
        <ele>330.4</ele>
        <time>2021-03-28T07:17:18Z</time>
      </trkpt>
      <trkpt lat="45.16879" lon="4.99255">
        <ele>331.6</ele>
        <time>2021-03-28T07:17:22Z</time>
      </trkpt>
      <trkpt lat="45.16888" lon="4.99258">
        <ele>332</ele>
        <time>2021-03-28T07:17:26Z</time>
      </trkpt>
      <trkpt lat="45.16899" lon="4.99258">
        <ele>333</ele>
        <time>2021-03-28T07:17:30Z</time>
      </trkpt>
      <trkpt lat="45.16909" lon="4.99255">
        <ele>333.6</ele>
        <time>2021-03-28T07:17:34Z</time>
      </trkpt>
      <trkpt lat="45.16921" lon="4.99251">
        <ele>332.6</ele>
        <time>2021-03-28T07:17:38Z</time>
      </trkpt>
      <trkpt lat="45.16933" lon="4.99245">
        <ele>333.6</ele>
        <time>2021-03-28T07:17:42Z</time>
      </trkpt>
      <trkpt lat="45.16947" lon="4.99239">
        <ele>334.2</ele>
        <time>2021-03-28T07:17:46Z</time>
      </trkpt>
      <trkpt lat="45.16962" lon="4.99234">
        <ele>334.2</ele>
        <time>2021-03-28T07:17:50Z</time>
      </trkpt>
      <trkpt lat="45.16977" lon="4.99228">
        <ele>334</ele>
        <time>2021-03-28T07:17:54Z</time>
      </trkpt>
      <trkpt lat="45.16992" lon="4.99222">
        <ele>334.2</ele>
        <time>2021-03-28T07:17:58Z</time>
      </trkpt>
      <trkpt lat="45.17006" lon="4.99217">
        <ele>334.8</ele>
        <time>2021-03-28T07:18:02Z</time>
      </trkpt>
      <trkpt lat="45.1702" lon="4.99211">
        <ele>334.6</ele>
        <time>2021-03-28T07:18:06Z</time>
      </trkpt>
      <trkpt lat="45.17035" lon="4.99206">
        <ele>335.2</ele>
        <time>2021-03-28T07:18:10Z</time>
      </trkpt>
      <trkpt lat="45.17048" lon="4.99201">
        <ele>335.2</ele>
        <time>2021-03-28T07:18:14Z</time>
      </trkpt>
      <trkpt lat="45.17059" lon="4.99197">
        <ele>336.2</ele>
        <time>2021-03-28T07:18:18Z</time>
      </trkpt>
      <trkpt lat="45.1707" lon="4.99192">
        <ele>336.4</ele>
        <time>2021-03-28T07:18:22Z</time>
      </trkpt>
      <trkpt lat="45.17083" lon="4.99187">
        <ele>336.8</ele>
        <time>2021-03-28T07:18:26Z</time>
      </trkpt>
      <trkpt lat="45.17096" lon="4.99182">
        <ele>336.4</ele>
        <time>2021-03-28T07:18:30Z</time>
      </trkpt>
      <trkpt lat="45.17109" lon="4.99176">
        <ele>336.4</ele>
        <time>2021-03-28T07:18:34Z</time>
      </trkpt>
      <trkpt lat="45.17122" lon="4.99169">
        <ele>337</ele>
        <time>2021-03-28T07:18:38Z</time>
      </trkpt>
      <trkpt lat="45.17134" lon="4.99163">
        <ele>338</ele>
        <time>2021-03-28T07:18:42Z</time>
      </trkpt>
      <trkpt lat="45.17145" lon="4.99156">
        <ele>338.4</ele>
        <time>2021-03-28T07:18:46Z</time>
      </trkpt>
      <trkpt lat="45.17158" lon="4.99148">
        <ele>339.6</ele>
        <time>2021-03-28T07:18:50Z</time>
      </trkpt>
      <trkpt lat="45.1717" lon="4.99141">
        <ele>339.8</ele>
        <time>2021-03-28T07:18:54Z</time>
      </trkpt>
      <trkpt lat="45.17183" lon="4.99135">
        <ele>340.6</ele>
        <time>2021-03-28T07:18:58Z</time>
      </trkpt>
      <trkpt lat="45.17199" lon="4.99129">
        <ele>340.4</ele>
        <time>2021-03-28T07:19:02Z</time>
      </trkpt>
      <trkpt lat="45.17215" lon="4.99127">
        <ele>339.4</ele>
        <time>2021-03-28T07:19:06Z</time>
      </trkpt>
      <trkpt lat="45.1723" lon="4.99127">
        <ele>340.8</ele>
        <time>2021-03-28T07:19:10Z</time>
      </trkpt>
      <trkpt lat="45.17246" lon="4.9913">
        <ele>341.8</ele>
        <time>2021-03-28T07:19:14Z</time>
      </trkpt>
      <trkpt lat="45.17261" lon="4.99133">
        <ele>340.6</ele>
        <time>2021-03-28T07:19:18Z</time>
      </trkpt>
      <trkpt lat="45.17276" lon="4.99139">
        <ele>340.6</ele>
        <time>2021-03-28T07:19:22Z</time>
      </trkpt>
      <trkpt lat="45.17292" lon="4.99146">
        <ele>341.2</ele>
        <time>2021-03-28T07:19:26Z</time>
      </trkpt>
      <trkpt lat="45.17307" lon="4.99157">
        <ele>341.8</ele>
        <time>2021-03-28T07:19:30Z</time>
      </trkpt>
      <trkpt lat="45.17321" lon="4.99169">
        <ele>340.6</ele>
        <time>2021-03-28T07:19:34Z</time>
      </trkpt>
      <trkpt lat="45.17335" lon="4.99182">
        <ele>341</ele>
        <time>2021-03-28T07:19:38Z</time>
      </trkpt>
      <trkpt lat="45.17349" lon="4.99194">
        <ele>340.2</ele>
        <time>2021-03-28T07:19:42Z</time>
      </trkpt>
      <trkpt lat="45.17364" lon="4.99205">
        <ele>340.2</ele>
        <time>2021-03-28T07:19:46Z</time>
      </trkpt>
      <trkpt lat="45.17378" lon="4.99213">
        <ele>340.2</ele>
        <time>2021-03-28T07:19:50Z</time>
      </trkpt>
      <trkpt lat="45.17394" lon="4.99218">
        <ele>340.4</ele>
        <time>2021-03-28T07:19:54Z</time>
      </trkpt>
      <trkpt lat="45.1741" lon="4.99221">
        <ele>340.8</ele>
        <time>2021-03-28T07:19:58Z</time>
      </trkpt>
      <trkpt lat="45.17426" lon="4.99223">
        <ele>340.2</ele>
        <time>2021-03-28T07:20:02Z</time>
      </trkpt>
      <trkpt lat="45.17443" lon="4.99225">
        <ele>339.8</ele>
        <time>2021-03-28T07:20:06Z</time>
      </trkpt>
      <trkpt lat="45.1746" lon="4.99226">
        <ele>340.2</ele>
        <time>2021-03-28T07:20:10Z</time>
      </trkpt>
      <trkpt lat="45.17475" lon="4.99227">
        <ele>341</ele>
        <time>2021-03-28T07:20:14Z</time>
      </trkpt>
      <trkpt lat="45.17492" lon="4.99229">
        <ele>340.8</ele>
        <time>2021-03-28T07:20:18Z</time>
      </trkpt>
      <trkpt lat="45.17507" lon="4.9923">
        <ele>341.8</ele>
        <time>2021-03-28T07:20:22Z</time>
      </trkpt>
      <trkpt lat="45.17522" lon="4.99232">
        <ele>341.8</ele>
        <time>2021-03-28T07:20:26Z</time>
      </trkpt>
      <trkpt lat="45.17537" lon="4.99233">
        <ele>342.4</ele>
        <time>2021-03-28T07:20:30Z</time>
      </trkpt>
      <trkpt lat="45.17551" lon="4.99235">
        <ele>342.4</ele>
        <time>2021-03-28T07:20:34Z</time>
      </trkpt>
      <trkpt lat="45.17565" lon="4.99235">
        <ele>342.4</ele>
        <time>2021-03-28T07:20:38Z</time>
      </trkpt>
      <trkpt lat="45.17579" lon="4.99236">
        <ele>342.4</ele>
        <time>2021-03-28T07:20:42Z</time>
      </trkpt>
      <trkpt lat="45.17594" lon="4.99235">
        <ele>343.2</ele>
        <time>2021-03-28T07:20:46Z</time>
      </trkpt>
      <trkpt lat="45.1761" lon="4.99231">
        <ele>343</ele>
        <time>2021-03-28T07:20:50Z</time>
      </trkpt>
      <trkpt lat="45.17625" lon="4.99226">
        <ele>344</ele>
        <time>2021-03-28T07:20:54Z</time>
      </trkpt>
      <trkpt lat="45.17641" lon="4.99221">
        <ele>343.4</ele>
        <time>2021-03-28T07:20:58Z</time>
      </trkpt>
      <trkpt lat="45.17657" lon="4.99216">
        <ele>343.8</ele>
        <time>2021-03-28T07:21:02Z</time>
      </trkpt>
      <trkpt lat="45.17671" lon="4.99213">
        <ele>343.8</ele>
        <time>2021-03-28T07:21:06Z</time>
      </trkpt>
      <trkpt lat="45.17689" lon="4.99211">
        <ele>343.6</ele>
        <time>2021-03-28T07:21:10Z</time>
      </trkpt>
      <trkpt lat="45.17708" lon="4.99216">
        <ele>343</ele>
        <time>2021-03-28T07:21:14Z</time>
      </trkpt>
      <trkpt lat="45.17725" lon="4.99226">
        <ele>343.2</ele>
        <time>2021-03-28T07:21:18Z</time>
      </trkpt>
      <trkpt lat="45.17741" lon="4.99241">
        <ele>341.8</ele>
        <time>2021-03-28T07:21:22Z</time>
      </trkpt>
      <trkpt lat="45.17756" lon="4.9926">
        <ele>342.4</ele>
        <time>2021-03-28T07:21:26Z</time>
      </trkpt>
      <trkpt lat="45.17768" lon="4.99279">
        <ele>341.8</ele>
        <time>2021-03-28T07:21:30Z</time>
      </trkpt>
      <trkpt lat="45.17781" lon="4.99294">
        <ele>342</ele>
        <time>2021-03-28T07:21:34Z</time>
      </trkpt>
      <trkpt lat="45.17793" lon="4.99307">
        <ele>342.4</ele>
        <time>2021-03-28T07:21:38Z</time>
      </trkpt>
      <trkpt lat="45.17803" lon="4.99316">
        <ele>342.4</ele>
        <time>2021-03-28T07:21:42Z</time>
      </trkpt>
      <trkpt lat="45.17824" lon="4.99327">
        <ele>341</ele>
        <time>2021-03-28T07:22:51Z</time>
      </trkpt>
      <trkpt lat="45.17835" lon="4.99333">
        <ele>340.8</ele>
        <time>2021-03-28T07:22:55Z</time>
      </trkpt>
      <trkpt lat="45.17849" lon="4.99342">
        <ele>340.8</ele>
        <time>2021-03-28T07:22:59Z</time>
      </trkpt>
      <trkpt lat="45.17864" lon="4.99349">
        <ele>340.6</ele>
        <time>2021-03-28T07:23:03Z</time>
      </trkpt>
      <trkpt lat="45.17884" lon="4.99353">
        <ele>339</ele>
        <time>2021-03-28T07:23:07Z</time>
      </trkpt>
      <trkpt lat="45.17904" lon="4.99352">
        <ele>338.2</ele>
        <time>2021-03-28T07:23:11Z</time>
      </trkpt>
      <trkpt lat="45.17923" lon="4.99357">
        <ele>339.2</ele>
        <time>2021-03-28T07:23:15Z</time>
      </trkpt>
      <trkpt lat="45.17939" lon="4.99371">
        <ele>339.4</ele>
        <time>2021-03-28T07:23:19Z</time>
      </trkpt>
      <trkpt lat="45.17946" lon="4.99387">
        <ele>339.2</ele>
        <time>2021-03-28T07:23:23Z</time>
      </trkpt>
      <trkpt lat="45.17951" lon="4.99405">
        <ele>340</ele>
        <time>2021-03-28T07:23:27Z</time>
      </trkpt>
      <trkpt lat="45.17954" lon="4.99424">
        <ele>340.2</ele>
        <time>2021-03-28T07:23:31Z</time>
      </trkpt>
      <trkpt lat="45.17957" lon="4.99443">
        <ele>340.6</ele>
        <time>2021-03-28T07:23:35Z</time>
      </trkpt>
      <trkpt lat="45.17958" lon="4.99463">
        <ele>340.8</ele>
        <time>2021-03-28T07:23:39Z</time>
      </trkpt>
      <trkpt lat="45.17963" lon="4.99478">
        <ele>341.8</ele>
        <time>2021-03-28T07:23:43Z</time>
      </trkpt>
      <trkpt lat="45.17971" lon="4.99493">
        <ele>341.6</ele>
        <time>2021-03-28T07:23:47Z</time>
      </trkpt>
      <trkpt lat="45.17979" lon="4.99508">
        <ele>341.6</ele>
        <time>2021-03-28T07:23:51Z</time>
      </trkpt>
      <trkpt lat="45.17988" lon="4.99524">
        <ele>340.2</ele>
        <time>2021-03-28T07:23:55Z</time>
      </trkpt>
      <trkpt lat="45.17995" lon="4.99535">
        <ele>340.8</ele>
        <time>2021-03-28T07:23:59Z</time>
      </trkpt>
      <trkpt lat="45.18" lon="4.99535">
        <ele>340.8</ele>
        <time>2021-03-28T07:24:03Z</time>
      </trkpt>
      <trkpt lat="45.17995" lon="4.99528">
        <ele>341.2</ele>
        <time>2021-03-28T07:24:07Z</time>
      </trkpt>
      <trkpt lat="45.17988" lon="4.99518">
        <ele>341.4</ele>
        <time>2021-03-28T07:24:11Z</time>
      </trkpt>
      <trkpt lat="45.17981" lon="4.99506">
        <ele>341.6</ele>
        <time>2021-03-28T07:24:15Z</time>
      </trkpt>
      <trkpt lat="45.17974" lon="4.99495">
        <ele>342.4</ele>
        <time>2021-03-28T07:24:19Z</time>
      </trkpt>
      <trkpt lat="45.17967" lon="4.99484">
        <ele>342.4</ele>
        <time>2021-03-28T07:24:23Z</time>
      </trkpt>
      <trkpt lat="45.17962" lon="4.99477">
        <ele>342</ele>
        <time>2021-03-28T07:24:27Z</time>
      </trkpt>
      <trkpt lat="45.17963" lon="4.99474">
        <ele>341.8</ele>
        <time>2021-03-28T07:24:31Z</time>
      </trkpt>
      <trkpt lat="45.17967" lon="4.99482">
        <ele>341.6</ele>
        <time>2021-03-28T07:24:35Z</time>
      </trkpt>
      <trkpt lat="45.17971" lon="4.99491">
        <ele>341.8</ele>
        <time>2021-03-28T07:24:39Z</time>
      </trkpt>
      <trkpt lat="45.17977" lon="4.99501">
        <ele>341.4</ele>
        <time>2021-03-28T07:24:43Z</time>
      </trkpt>
      <trkpt lat="45.17983" lon="4.99513">
        <ele>341.4</ele>
        <time>2021-03-28T07:24:47Z</time>
      </trkpt>
      <trkpt lat="45.17991" lon="4.99525">
        <ele>340.6</ele>
        <time>2021-03-28T07:24:51Z</time>
      </trkpt>
      <trkpt lat="45.17996" lon="4.99533">
        <ele>340.8</ele>
        <time>2021-03-28T07:24:55Z</time>
      </trkpt>
      <trkpt lat="45.18" lon="4.99541">
        <ele>340.4</ele>
        <time>2021-03-28T07:24:59Z</time>
      </trkpt>
      <trkpt lat="45.18008" lon="4.99551">
        <ele>339.2</ele>
        <time>2021-03-28T07:25:03Z</time>
      </trkpt>
      <trkpt lat="45.18018" lon="4.99561">
        <ele>338.8</ele>
        <time>2021-03-28T07:25:07Z</time>
      </trkpt>
      <trkpt lat="45.18028" lon="4.9957">
        <ele>340</ele>
        <time>2021-03-28T07:25:11Z</time>
      </trkpt>
      <trkpt lat="45.18038" lon="4.99576">
        <ele>340.2</ele>
        <time>2021-03-28T07:25:15Z</time>
      </trkpt>
      <trkpt lat="45.18046" lon="4.99576">
        <ele>340.2</ele>
        <time>2021-03-28T07:25:19Z</time>
      </trkpt>
      <trkpt lat="45.18052" lon="4.99575">
        <ele>340.4</ele>
        <time>2021-03-28T07:25:23Z</time>
      </trkpt>
      <trkpt lat="45.18052" lon="4.99565">
        <ele>341.4</ele>
        <time>2021-03-28T07:25:58Z</time>
      </trkpt>
      <trkpt lat="45.18052" lon="4.99559">
        <ele>342.4</ele>
        <time>2021-03-28T07:26:02Z</time>
      </trkpt>
      <trkpt lat="45.18052" lon="4.99554">
        <ele>342.6</ele>
        <time>2021-03-28T07:26:06Z</time>
      </trkpt>
      <trkpt lat="45.18052" lon="4.99547">
        <ele>344.2</ele>
        <time>2021-03-28T07:26:10Z</time>
      </trkpt>
      <trkpt lat="45.18052" lon="4.99541">
        <ele>344.6</ele>
        <time>2021-03-28T07:26:14Z</time>
      </trkpt>
      <trkpt lat="45.18052" lon="4.99535">
        <ele>345.2</ele>
        <time>2021-03-28T07:26:18Z</time>
      </trkpt>
      <trkpt lat="45.18052" lon="4.99529">
        <ele>346</ele>
        <time>2021-03-28T07:26:22Z</time>
      </trkpt>
      <trkpt lat="45.18051" lon="4.99523">
        <ele>346.8</ele>
        <time>2021-03-28T07:26:26Z</time>
      </trkpt>
      <trkpt lat="45.18051" lon="4.99517">
        <ele>348</ele>
        <time>2021-03-28T07:26:30Z</time>
      </trkpt>
      <trkpt lat="45.18049" lon="4.99513">
        <ele>348.6</ele>
        <time>2021-03-28T07:26:34Z</time>
      </trkpt>
      <trkpt lat="45.18048" lon="4.99509">
        <ele>349.8</ele>
        <time>2021-03-28T07:26:38Z</time>
      </trkpt>
      <trkpt lat="45.18048" lon="4.99509">
        <ele>350.6</ele>
        <time>2021-03-28T07:26:42Z</time>
      </trkpt>
      <trkpt lat="45.18043" lon="4.99342">
        <ele>378</ele>
        <time>2021-03-28T07:31:29Z</time>
      </trkpt>
      <trkpt lat="45.1805" lon="4.99339">
        <ele>378.2</ele>
        <time>2021-03-28T07:31:33Z</time>
      </trkpt>
      <trkpt lat="45.18055" lon="4.99334">
        <ele>377.2</ele>
        <time>2021-03-28T07:31:37Z</time>
      </trkpt>
      <trkpt lat="45.18062" lon="4.99331">
        <ele>378.2</ele>
        <time>2021-03-28T07:31:41Z</time>
      </trkpt>
      <trkpt lat="45.18069" lon="4.99326">
        <ele>379.8</ele>
        <time>2021-03-28T07:31:45Z</time>
      </trkpt>
      <trkpt lat="45.18077" lon="4.99322">
        <ele>379.8</ele>
        <time>2021-03-28T07:31:49Z</time>
      </trkpt>
      <trkpt lat="45.18084" lon="4.99319">
        <ele>381.4</ele>
        <time>2021-03-28T07:31:53Z</time>
      </trkpt>
      <trkpt lat="45.1809" lon="4.99314">
        <ele>382.4</ele>
        <time>2021-03-28T07:31:57Z</time>
      </trkpt>
      <trkpt lat="45.18096" lon="4.99311">
        <ele>383</ele>
        <time>2021-03-28T07:32:01Z</time>
      </trkpt>
      <trkpt lat="45.18103" lon="4.99308">
        <ele>383.4</ele>
        <time>2021-03-28T07:32:05Z</time>
      </trkpt>
      <trkpt lat="45.18109" lon="4.99304">
        <ele>384.4</ele>
        <time>2021-03-28T07:32:09Z</time>
      </trkpt>
      <trkpt lat="45.1812" lon="4.99294">
        <ele>385.2</ele>
        <time>2021-03-28T07:32:26Z</time>
      </trkpt>
      <trkpt lat="45.18124" lon="4.99289">
        <ele>386.6</ele>
        <time>2021-03-28T07:32:30Z</time>
      </trkpt>
      <trkpt lat="45.18127" lon="4.99285">
        <ele>387</ele>
        <time>2021-03-28T07:32:34Z</time>
      </trkpt>
      <trkpt lat="45.18131" lon="4.99281">
        <ele>387.8</ele>
        <time>2021-03-28T07:32:38Z</time>
      </trkpt>
      <trkpt lat="45.18134" lon="4.99276">
        <ele>388.2</ele>
        <time>2021-03-28T07:32:42Z</time>
      </trkpt>
      <trkpt lat="45.18137" lon="4.99272">
        <ele>389.2</ele>
        <time>2021-03-28T07:32:46Z</time>
      </trkpt>
      <trkpt lat="45.18141" lon="4.99267">
        <ele>389.8</ele>
        <time>2021-03-28T07:32:50Z</time>
      </trkpt>
      <trkpt lat="45.18144" lon="4.99262">
        <ele>390.2</ele>
        <time>2021-03-28T07:32:54Z</time>
      </trkpt>
      <trkpt lat="45.18147" lon="4.99257">
        <ele>391.6</ele>
        <time>2021-03-28T07:32:58Z</time>
      </trkpt>
      <trkpt lat="45.18149" lon="4.99253">
        <ele>392.2</ele>
        <time>2021-03-28T07:33:02Z</time>
      </trkpt>
      <trkpt lat="45.18152" lon="4.99248">
        <ele>392.8</ele>
        <time>2021-03-28T07:33:06Z</time>
      </trkpt>
      <trkpt lat="45.18155" lon="4.99244">
        <ele>393.8</ele>
        <time>2021-03-28T07:33:10Z</time>
      </trkpt>
      <trkpt lat="45.18158" lon="4.99239">
        <ele>394.4</ele>
        <time>2021-03-28T07:33:14Z</time>
      </trkpt>
      <trkpt lat="45.18161" lon="4.99235">
        <ele>395.6</ele>
        <time>2021-03-28T07:33:18Z</time>
      </trkpt>
      <trkpt lat="45.18164" lon="4.9923">
        <ele>396.2</ele>
        <time>2021-03-28T07:33:22Z</time>
      </trkpt>
      <trkpt lat="45.18167" lon="4.99226">
        <ele>396.4</ele>
        <time>2021-03-28T07:33:26Z</time>
      </trkpt>
      <trkpt lat="45.1817" lon="4.99221">
        <ele>397.4</ele>
        <time>2021-03-28T07:33:30Z</time>
      </trkpt>
      <trkpt lat="45.18173" lon="4.99216">
        <ele>398.6</ele>
        <time>2021-03-28T07:33:34Z</time>
      </trkpt>
      <trkpt lat="45.18175" lon="4.99212">
        <ele>399.2</ele>
        <time>2021-03-28T07:33:38Z</time>
      </trkpt>
      <trkpt lat="45.18177" lon="4.99207">
        <ele>399</ele>
        <time>2021-03-28T07:33:42Z</time>
      </trkpt>
      <trkpt lat="45.18179" lon="4.99201">
        <ele>400.4</ele>
        <time>2021-03-28T07:33:46Z</time>
      </trkpt>
      <trkpt lat="45.18182" lon="4.99195">
        <ele>400.8</ele>
        <time>2021-03-28T07:33:50Z</time>
      </trkpt>
      <trkpt lat="45.18183" lon="4.99188">
        <ele>401.4</ele>
        <time>2021-03-28T07:33:54Z</time>
      </trkpt>
      <trkpt lat="45.18186" lon="4.99182">
        <ele>402.2</ele>
        <time>2021-03-28T07:33:58Z</time>
      </trkpt>
      <trkpt lat="45.1819" lon="4.99176">
        <ele>402.6</ele>
        <time>2021-03-28T07:34:02Z</time>
      </trkpt>
      <trkpt lat="45.18195" lon="4.99172">
        <ele>403</ele>
        <time>2021-03-28T07:34:06Z</time>
      </trkpt>
      <trkpt lat="45.18203" lon="4.99177">
        <ele>403</ele>
        <time>2021-03-28T07:34:10Z</time>
      </trkpt>
      <trkpt lat="45.18213" lon="4.99184">
        <ele>402</ele>
        <time>2021-03-28T07:34:14Z</time>
      </trkpt>
      <trkpt lat="45.18224" lon="4.99192">
        <ele>401.6</ele>
        <time>2021-03-28T07:34:18Z</time>
      </trkpt>
      <trkpt lat="45.18236" lon="4.99201">
        <ele>401.4</ele>
        <time>2021-03-28T07:34:22Z</time>
      </trkpt>
      <trkpt lat="45.18251" lon="4.99211">
        <ele>399.8</ele>
        <time>2021-03-28T07:34:26Z</time>
      </trkpt>
      <trkpt lat="45.18267" lon="4.99221">
        <ele>399.6</ele>
        <time>2021-03-28T07:34:30Z</time>
      </trkpt>
      <trkpt lat="45.18284" lon="4.99231">
        <ele>399</ele>
        <time>2021-03-28T07:34:34Z</time>
      </trkpt>
      <trkpt lat="45.18301" lon="4.99241">
        <ele>398.8</ele>
        <time>2021-03-28T07:34:38Z</time>
      </trkpt>
      <trkpt lat="45.18317" lon="4.99247">
        <ele>398.6</ele>
        <time>2021-03-28T07:34:42Z</time>
      </trkpt>
      <trkpt lat="45.18332" lon="4.99252">
        <ele>399</ele>
        <time>2021-03-28T07:34:46Z</time>
      </trkpt>
      <trkpt lat="45.18345" lon="4.99254">
        <ele>400.4</ele>
        <time>2021-03-28T07:34:50Z</time>
      </trkpt>
      <trkpt lat="45.18356" lon="4.99259">
        <ele>401.4</ele>
        <time>2021-03-28T07:34:54Z</time>
      </trkpt>
      <trkpt lat="45.18367" lon="4.99263">
        <ele>402</ele>
        <time>2021-03-28T07:34:58Z</time>
      </trkpt>
      <trkpt lat="45.18378" lon="4.9927">
        <ele>402.4</ele>
        <time>2021-03-28T07:35:02Z</time>
      </trkpt>
      <trkpt lat="45.18388" lon="4.99277">
        <ele>403.2</ele>
        <time>2021-03-28T07:35:06Z</time>
      </trkpt>
      <trkpt lat="45.18398" lon="4.99282">
        <ele>404</ele>
        <time>2021-03-28T07:35:10Z</time>
      </trkpt>
      <trkpt lat="45.18408" lon="4.99289">
        <ele>404.6</ele>
        <time>2021-03-28T07:35:14Z</time>
      </trkpt>
      <trkpt lat="45.1842" lon="4.99295">
        <ele>404.8</ele>
        <time>2021-03-28T07:35:18Z</time>
      </trkpt>
      <trkpt lat="45.18431" lon="4.993">
        <ele>404.6</ele>
        <time>2021-03-28T07:35:22Z</time>
      </trkpt>
      <trkpt lat="45.18442" lon="4.99305">
        <ele>404.8</ele>
        <time>2021-03-28T07:35:26Z</time>
      </trkpt>
      <trkpt lat="45.18455" lon="4.99309">
        <ele>403</ele>
        <time>2021-03-28T07:35:30Z</time>
      </trkpt>
      <trkpt lat="45.18469" lon="4.99311">
        <ele>404.4</ele>
        <time>2021-03-28T07:35:34Z</time>
      </trkpt>
      <trkpt lat="45.18485" lon="4.99313">
        <ele>404.4</ele>
        <time>2021-03-28T07:35:38Z</time>
      </trkpt>
      <trkpt lat="45.18502" lon="4.99314">
        <ele>402.6</ele>
        <time>2021-03-28T07:35:42Z</time>
      </trkpt>
      <trkpt lat="45.18522" lon="4.99314">
        <ele>402</ele>
        <time>2021-03-28T07:35:46Z</time>
      </trkpt>
      <trkpt lat="45.1854" lon="4.9931">
        <ele>402.2</ele>
        <time>2021-03-28T07:35:50Z</time>
      </trkpt>
      <trkpt lat="45.18557" lon="4.99308">
        <ele>402.6</ele>
        <time>2021-03-28T07:35:54Z</time>
      </trkpt>
      <trkpt lat="45.18575" lon="4.99306">
        <ele>403</ele>
        <time>2021-03-28T07:35:58Z</time>
      </trkpt>
      <trkpt lat="45.18592" lon="4.99304">
        <ele>402.4</ele>
        <time>2021-03-28T07:36:02Z</time>
      </trkpt>
      <trkpt lat="45.1861" lon="4.99302">
        <ele>402.2</ele>
        <time>2021-03-28T07:36:06Z</time>
      </trkpt>
      <trkpt lat="45.18624" lon="4.99301">
        <ele>403.8</ele>
        <time>2021-03-28T07:36:10Z</time>
      </trkpt>
      <trkpt lat="45.18636" lon="4.99298">
        <ele>403.6</ele>
        <time>2021-03-28T07:36:14Z</time>
      </trkpt>
      <trkpt lat="45.18647" lon="4.99294">
        <ele>404.6</ele>
        <time>2021-03-28T07:36:18Z</time>
      </trkpt>
      <trkpt lat="45.18657" lon="4.99288">
        <ele>404.8</ele>
        <time>2021-03-28T07:36:22Z</time>
      </trkpt>
      <trkpt lat="45.18667" lon="4.99283">
        <ele>405.2</ele>
        <time>2021-03-28T07:36:26Z</time>
      </trkpt>
      <trkpt lat="45.18679" lon="4.99278">
        <ele>405</ele>
        <time>2021-03-28T07:37:08Z</time>
      </trkpt>
      <trkpt lat="45.18692" lon="4.99275">
        <ele>403.4</ele>
        <time>2021-03-28T07:37:12Z</time>
      </trkpt>
      <trkpt lat="45.18707" lon="4.99271">
        <ele>402.4</ele>
        <time>2021-03-28T07:37:16Z</time>
      </trkpt>
      <trkpt lat="45.18724" lon="4.99267">
        <ele>401.4</ele>
        <time>2021-03-28T07:37:20Z</time>
      </trkpt>
      <trkpt lat="45.18743" lon="4.99262">
        <ele>400.2</ele>
        <time>2021-03-28T07:37:24Z</time>
      </trkpt>
      <trkpt lat="45.18764" lon="4.99259">
        <ele>399</ele>
        <time>2021-03-28T07:37:28Z</time>
      </trkpt>
      <trkpt lat="45.18784" lon="4.99256">
        <ele>399.4</ele>
        <time>2021-03-28T07:37:32Z</time>
      </trkpt>
      <trkpt lat="45.18806" lon="4.99251">
        <ele>398.2</ele>
        <time>2021-03-28T07:37:36Z</time>
      </trkpt>
      <trkpt lat="45.18827" lon="4.99244">
        <ele>398.4</ele>
        <time>2021-03-28T07:37:40Z</time>
      </trkpt>
      <trkpt lat="45.18849" lon="4.99234">
        <ele>397.6</ele>
        <time>2021-03-28T07:37:44Z</time>
      </trkpt>
      <trkpt lat="45.18871" lon="4.99224">
        <ele>397</ele>
        <time>2021-03-28T07:37:48Z</time>
      </trkpt>
      <trkpt lat="45.18894" lon="4.99216">
        <ele>395.2</ele>
        <time>2021-03-28T07:37:52Z</time>
      </trkpt>
      <trkpt lat="45.18917" lon="4.99209">
        <ele>394</ele>
        <time>2021-03-28T07:37:56Z</time>
      </trkpt>
      <trkpt lat="45.18943" lon="4.99204">
        <ele>393.8</ele>
        <time>2021-03-28T07:38:00Z</time>
      </trkpt>
      <trkpt lat="45.18967" lon="4.99193">
        <ele>393.4</ele>
        <time>2021-03-28T07:38:04Z</time>
      </trkpt>
      <trkpt lat="45.18988" lon="4.99177">
        <ele>392.6</ele>
        <time>2021-03-28T07:38:08Z</time>
      </trkpt>
      <trkpt lat="45.1901" lon="4.99161">
        <ele>392.4</ele>
        <time>2021-03-28T07:38:12Z</time>
      </trkpt>
      <trkpt lat="45.19033" lon="4.99147">
        <ele>390.8</ele>
        <time>2021-03-28T07:38:16Z</time>
      </trkpt>
      <trkpt lat="45.19056" lon="4.99135">
        <ele>389.4</ele>
        <time>2021-03-28T07:38:20Z</time>
      </trkpt>
      <trkpt lat="45.1908" lon="4.99124">
        <ele>388.4</ele>
        <time>2021-03-28T07:38:24Z</time>
      </trkpt>
      <trkpt lat="45.19104" lon="4.99114">
        <ele>389.2</ele>
        <time>2021-03-28T07:38:28Z</time>
      </trkpt>
      <trkpt lat="45.19125" lon="4.99106">
        <ele>389.6</ele>
        <time>2021-03-28T07:38:32Z</time>
      </trkpt>
      <trkpt lat="45.19145" lon="4.99098">
        <ele>391</ele>
        <time>2021-03-28T07:38:36Z</time>
      </trkpt>
      <trkpt lat="45.19163" lon="4.9909">
        <ele>392</ele>
        <time>2021-03-28T07:38:40Z</time>
      </trkpt>
      <trkpt lat="45.19177" lon="4.99082">
        <ele>393</ele>
        <time>2021-03-28T07:38:44Z</time>
      </trkpt>
      <trkpt lat="45.19187" lon="4.99073">
        <ele>394.6</ele>
        <time>2021-03-28T07:38:48Z</time>
      </trkpt>
      <trkpt lat="45.19196" lon="4.99063">
        <ele>394.4</ele>
        <time>2021-03-28T07:38:52Z</time>
      </trkpt>
      <trkpt lat="45.19204" lon="4.99053">
        <ele>395.8</ele>
        <time>2021-03-28T07:38:56Z</time>
      </trkpt>
      <trkpt lat="45.19211" lon="4.99042">
        <ele>396.2</ele>
        <time>2021-03-28T07:39:00Z</time>
      </trkpt>
      <trkpt lat="45.19216" lon="4.99026">
        <ele>395.8</ele>
        <time>2021-03-28T07:39:04Z</time>
      </trkpt>
      <trkpt lat="45.1922" lon="4.99006">
        <ele>395.4</ele>
        <time>2021-03-28T07:39:08Z</time>
      </trkpt>
      <trkpt lat="45.1922" lon="4.98981">
        <ele>394.6</ele>
        <time>2021-03-28T07:39:12Z</time>
      </trkpt>
      <trkpt lat="45.19215" lon="4.98953">
        <ele>393.4</ele>
        <time>2021-03-28T07:39:16Z</time>
      </trkpt>
      <trkpt lat="45.19215" lon="4.98924">
        <ele>391.6</ele>
        <time>2021-03-28T07:39:20Z</time>
      </trkpt>
      <trkpt lat="45.19231" lon="4.98931">
        <ele>390</ele>
        <time>2021-03-28T07:39:24Z</time>
      </trkpt>
      <trkpt lat="45.19243" lon="4.98956">
        <ele>388.4</ele>
        <time>2021-03-28T07:39:28Z</time>
      </trkpt>
      <trkpt lat="45.19251" lon="4.98941">
        <ele>388.6</ele>
        <time>2021-03-28T07:39:32Z</time>
      </trkpt>
      <trkpt lat="45.19246" lon="4.98907">
        <ele>384.2</ele>
        <time>2021-03-28T07:39:36Z</time>
      </trkpt>
      <trkpt lat="45.19246" lon="4.98863">
        <ele>380.4</ele>
        <time>2021-03-28T07:39:40Z</time>
      </trkpt>
      <trkpt lat="45.19257" lon="4.98821">
        <ele>377.6</ele>
        <time>2021-03-28T07:39:44Z</time>
      </trkpt>
      <trkpt lat="45.19278" lon="4.98785">
        <ele>375.4</ele>
        <time>2021-03-28T07:39:48Z</time>
      </trkpt>
      <trkpt lat="45.193" lon="4.98749">
        <ele>372.8</ele>
        <time>2021-03-28T07:39:52Z</time>
      </trkpt>
      <trkpt lat="45.19307" lon="4.98702">
        <ele>373</ele>
        <time>2021-03-28T07:39:56Z</time>
      </trkpt>
      <trkpt lat="45.1932" lon="4.98661">
        <ele>369.4</ele>
        <time>2021-03-28T07:40:00Z</time>
      </trkpt>
      <trkpt lat="45.19345" lon="4.98628">
        <ele>367.2</ele>
        <time>2021-03-28T07:40:04Z</time>
      </trkpt>
      <trkpt lat="45.19372" lon="4.98601">
        <ele>364.8</ele>
        <time>2021-03-28T07:40:08Z</time>
      </trkpt>
      <trkpt lat="45.19405" lon="4.98599">
        <ele>363.6</ele>
        <time>2021-03-28T07:40:12Z</time>
      </trkpt>
      <trkpt lat="45.19438" lon="4.98602">
        <ele>362.8</ele>
        <time>2021-03-28T07:40:16Z</time>
      </trkpt>
      <trkpt lat="45.19472" lon="4.98606">
        <ele>359.2</ele>
        <time>2021-03-28T07:40:20Z</time>
      </trkpt>
      <trkpt lat="45.19504" lon="4.9861">
        <ele>358.8</ele>
        <time>2021-03-28T07:40:24Z</time>
      </trkpt>
      <trkpt lat="45.19535" lon="4.98614">
        <ele>358.6</ele>
        <time>2021-03-28T07:40:28Z</time>
      </trkpt>
      <trkpt lat="45.19558" lon="4.98611">
        <ele>359</ele>
        <time>2021-03-28T07:40:32Z</time>
      </trkpt>
      <trkpt lat="45.19567" lon="4.9859">
        <ele>358.8</ele>
        <time>2021-03-28T07:40:36Z</time>
      </trkpt>
      <trkpt lat="45.19565" lon="4.98567">
        <ele>357.6</ele>
        <time>2021-03-28T07:40:40Z</time>
      </trkpt>
      <trkpt lat="45.19556" lon="4.98544">
        <ele>356.8</ele>
        <time>2021-03-28T07:40:44Z</time>
      </trkpt>
      <trkpt lat="45.19545" lon="4.98523">
        <ele>356.2</ele>
        <time>2021-03-28T07:40:48Z</time>
      </trkpt>
      <trkpt lat="45.19546" lon="4.98499">
        <ele>355.8</ele>
        <time>2021-03-28T07:40:52Z</time>
      </trkpt>
      <trkpt lat="45.19561" lon="4.98493">
        <ele>352.6</ele>
        <time>2021-03-28T07:40:56Z</time>
      </trkpt>
      <trkpt lat="45.19583" lon="4.985">
        <ele>349.4</ele>
        <time>2021-03-28T07:41:00Z</time>
      </trkpt>
      <trkpt lat="45.19612" lon="4.98507">
        <ele>348.4</ele>
        <time>2021-03-28T07:41:04Z</time>
      </trkpt>
      <trkpt lat="45.1964" lon="4.98501">
        <ele>344.8</ele>
        <time>2021-03-28T07:41:08Z</time>
      </trkpt>
      <trkpt lat="45.1967" lon="4.98482">
        <ele>345</ele>
        <time>2021-03-28T07:41:12Z</time>
      </trkpt>
      <trkpt lat="45.197" lon="4.9846">
        <ele>342.4</ele>
        <time>2021-03-28T07:41:16Z</time>
      </trkpt>
      <trkpt lat="45.1973" lon="4.98426">
        <ele>338.8</ele>
        <time>2021-03-28T07:41:20Z</time>
      </trkpt>
      <trkpt lat="45.1976" lon="4.98393">
        <ele>339</ele>
        <time>2021-03-28T07:41:24Z</time>
      </trkpt>
      <trkpt lat="45.19772" lon="4.98365">
        <ele>337.4</ele>
        <time>2021-03-28T07:41:28Z</time>
      </trkpt>
      <trkpt lat="45.19758" lon="4.9834">
        <ele>335</ele>
        <time>2021-03-28T07:41:32Z</time>
      </trkpt>
      <trkpt lat="45.19727" lon="4.98332">
        <ele>332</ele>
        <time>2021-03-28T07:41:36Z</time>
      </trkpt>
      <trkpt lat="45.19707" lon="4.98311">
        <ele>332</ele>
        <time>2021-03-28T07:41:40Z</time>
      </trkpt>
      <trkpt lat="45.19718" lon="4.98288">
        <ele>331.4</ele>
        <time>2021-03-28T07:41:44Z</time>
      </trkpt>
      <trkpt lat="45.19736" lon="4.98269">
        <ele>331.8</ele>
        <time>2021-03-28T07:41:48Z</time>
      </trkpt>
      <trkpt lat="45.19749" lon="4.98249">
        <ele>332</ele>
        <time>2021-03-28T07:41:52Z</time>
      </trkpt>
      <trkpt lat="45.19753" lon="4.98228">
        <ele>332.6</ele>
        <time>2021-03-28T07:41:56Z</time>
      </trkpt>
      <trkpt lat="45.19754" lon="4.98204">
        <ele>332.8</ele>
        <time>2021-03-28T07:42:00Z</time>
      </trkpt>
      <trkpt lat="45.19752" lon="4.98178">
        <ele>332.8</ele>
        <time>2021-03-28T07:42:04Z</time>
      </trkpt>
      <trkpt lat="45.19752" lon="4.98152">
        <ele>333.4</ele>
        <time>2021-03-28T07:42:08Z</time>
      </trkpt>
      <trkpt lat="45.19752" lon="4.98129">
        <ele>334.4</ele>
        <time>2021-03-28T07:42:12Z</time>
      </trkpt>
      <trkpt lat="45.19752" lon="4.98107">
        <ele>335.2</ele>
        <time>2021-03-28T07:42:16Z</time>
      </trkpt>
      <trkpt lat="45.19749" lon="4.98086">
        <ele>334.8</ele>
        <time>2021-03-28T07:42:20Z</time>
      </trkpt>
      <trkpt lat="45.19745" lon="4.98064">
        <ele>335.2</ele>
        <time>2021-03-28T07:42:24Z</time>
      </trkpt>
      <trkpt lat="45.19739" lon="4.98042">
        <ele>334.8</ele>
        <time>2021-03-28T07:42:28Z</time>
      </trkpt>
      <trkpt lat="45.19734" lon="4.9802">
        <ele>335</ele>
        <time>2021-03-28T07:42:32Z</time>
      </trkpt>
      <trkpt lat="45.19729" lon="4.97998">
        <ele>335.8</ele>
        <time>2021-03-28T07:42:36Z</time>
      </trkpt>
      <trkpt lat="45.19721" lon="4.97978">
        <ele>336.6</ele>
        <time>2021-03-28T07:42:40Z</time>
      </trkpt>
      <trkpt lat="45.1971" lon="4.97964">
        <ele>337.4</ele>
        <time>2021-03-28T07:42:44Z</time>
      </trkpt>
      <trkpt lat="45.19697" lon="4.97955">
        <ele>338</ele>
        <time>2021-03-28T07:42:48Z</time>
      </trkpt>
      <trkpt lat="45.19683" lon="4.97953">
        <ele>339.2</ele>
        <time>2021-03-28T07:42:52Z</time>
      </trkpt>
      <trkpt lat="45.19672" lon="4.97959">
        <ele>338.4</ele>
        <time>2021-03-28T07:42:56Z</time>
      </trkpt>
      <trkpt lat="45.19662" lon="4.97975">
        <ele>338.2</ele>
        <time>2021-03-28T07:43:00Z</time>
      </trkpt>
      <trkpt lat="45.19653" lon="4.97994">
        <ele>338</ele>
        <time>2021-03-28T07:43:04Z</time>
      </trkpt>
      <trkpt lat="45.19643" lon="4.98013">
        <ele>337</ele>
        <time>2021-03-28T07:43:08Z</time>
      </trkpt>
      <trkpt lat="45.19633" lon="4.98035">
        <ele>337</ele>
        <time>2021-03-28T07:43:12Z</time>
      </trkpt>
      <trkpt lat="45.19621" lon="4.98054">
        <ele>337</ele>
        <time>2021-03-28T07:43:16Z</time>
      </trkpt>
      <trkpt lat="45.19605" lon="4.98071">
        <ele>335.8</ele>
        <time>2021-03-28T07:43:20Z</time>
      </trkpt>
      <trkpt lat="45.19588" lon="4.98087">
        <ele>335.6</ele>
        <time>2021-03-28T07:43:24Z</time>
      </trkpt>
      <trkpt lat="45.19572" lon="4.98104">
        <ele>335</ele>
        <time>2021-03-28T07:43:28Z</time>
      </trkpt>
      <trkpt lat="45.19556" lon="4.98119">
        <ele>334.8</ele>
        <time>2021-03-28T07:43:32Z</time>
      </trkpt>
      <trkpt lat="45.19538" lon="4.98132">
        <ele>334</ele>
        <time>2021-03-28T07:43:36Z</time>
      </trkpt>
      <trkpt lat="45.1952" lon="4.98139">
        <ele>334.2</ele>
        <time>2021-03-28T07:43:40Z</time>
      </trkpt>
      <trkpt lat="45.19501" lon="4.98142">
        <ele>334.2</ele>
        <time>2021-03-28T07:43:44Z</time>
      </trkpt>
      <trkpt lat="45.19482" lon="4.98143">
        <ele>334.4</ele>
        <time>2021-03-28T07:43:48Z</time>
      </trkpt>
      <trkpt lat="45.19465" lon="4.98142">
        <ele>334.2</ele>
        <time>2021-03-28T07:43:52Z</time>
      </trkpt>
      <trkpt lat="45.19452" lon="4.98148">
        <ele>334.8</ele>
        <time>2021-03-28T07:43:56Z</time>
      </trkpt>
      <trkpt lat="45.19438" lon="4.98153">
        <ele>334.8</ele>
        <time>2021-03-28T07:44:00Z</time>
      </trkpt>
      <trkpt lat="45.19419" lon="4.98154">
        <ele>334</ele>
        <time>2021-03-28T07:44:04Z</time>
      </trkpt>
      <trkpt lat="45.19404" lon="4.98143">
        <ele>333.4</ele>
        <time>2021-03-28T07:44:08Z</time>
      </trkpt>
      <trkpt lat="45.19393" lon="4.98122">
        <ele>333.6</ele>
        <time>2021-03-28T07:44:12Z</time>
      </trkpt>
      <trkpt lat="45.19386" lon="4.98102">
        <ele>334.2</ele>
        <time>2021-03-28T07:44:16Z</time>
      </trkpt>
      <trkpt lat="45.19376" lon="4.9808">
        <ele>335</ele>
        <time>2021-03-28T07:44:20Z</time>
      </trkpt>
      <trkpt lat="45.1937" lon="4.98057">
        <ele>335.2</ele>
        <time>2021-03-28T07:44:24Z</time>
      </trkpt>
      <trkpt lat="45.19364" lon="4.98036">
        <ele>335.2</ele>
        <time>2021-03-28T07:44:28Z</time>
      </trkpt>
      <trkpt lat="45.1936" lon="4.98011">
        <ele>334.8</ele>
        <time>2021-03-28T07:44:32Z</time>
      </trkpt>
      <trkpt lat="45.19357" lon="4.97982">
        <ele>335.8</ele>
        <time>2021-03-28T07:44:36Z</time>
      </trkpt>
      <trkpt lat="45.19342" lon="4.97958">
        <ele>336.4</ele>
        <time>2021-03-28T07:44:40Z</time>
      </trkpt>
      <trkpt lat="45.19329" lon="4.97951">
        <ele>335.2</ele>
        <time>2021-03-28T07:44:44Z</time>
      </trkpt>
      <trkpt lat="45.19305" lon="4.97944">
        <ele>334.8</ele>
        <time>2021-03-28T07:44:48Z</time>
      </trkpt>
      <trkpt lat="45.19286" lon="4.97941">
        <ele>334.2</ele>
        <time>2021-03-28T07:44:52Z</time>
      </trkpt>
      <trkpt lat="45.19267" lon="4.97939">
        <ele>333.4</ele>
        <time>2021-03-28T07:44:56Z</time>
      </trkpt>
      <trkpt lat="45.19248" lon="4.97933">
        <ele>331.2</ele>
        <time>2021-03-28T07:45:00Z</time>
      </trkpt>
      <trkpt lat="45.19237" lon="4.97907">
        <ele>330.2</ele>
        <time>2021-03-28T07:45:04Z</time>
      </trkpt>
      <trkpt lat="45.19232" lon="4.97873">
        <ele>328.8</ele>
        <time>2021-03-28T07:45:08Z</time>
      </trkpt>
      <trkpt lat="45.19228" lon="4.97835">
        <ele>327.6</ele>
        <time>2021-03-28T07:45:12Z</time>
      </trkpt>
      <trkpt lat="45.19226" lon="4.97792">
        <ele>326</ele>
        <time>2021-03-28T07:45:16Z</time>
      </trkpt>
      <trkpt lat="45.19235" lon="4.97753">
        <ele>326.6</ele>
        <time>2021-03-28T07:45:20Z</time>
      </trkpt>
      <trkpt lat="45.19247" lon="4.9772">
        <ele>326.2</ele>
        <time>2021-03-28T07:45:24Z</time>
      </trkpt>
      <trkpt lat="45.1926" lon="4.9769">
        <ele>325.4</ele>
        <time>2021-03-28T07:45:28Z</time>
      </trkpt>
      <trkpt lat="45.19278" lon="4.97667">
        <ele>324.8</ele>
        <time>2021-03-28T07:45:32Z</time>
      </trkpt>
      <trkpt lat="45.19301" lon="4.97652">
        <ele>323</ele>
        <time>2021-03-28T07:45:36Z</time>
      </trkpt>
      <trkpt lat="45.19324" lon="4.97638">
        <ele>321.4</ele>
        <time>2021-03-28T07:45:40Z</time>
      </trkpt>
      <trkpt lat="45.19346" lon="4.97621">
        <ele>321.8</ele>
        <time>2021-03-28T07:45:44Z</time>
      </trkpt>
      <trkpt lat="45.19365" lon="4.976">
        <ele>320.4</ele>
        <time>2021-03-28T07:45:48Z</time>
      </trkpt>
      <trkpt lat="45.19379" lon="4.97574">
        <ele>322</ele>
        <time>2021-03-28T07:45:52Z</time>
      </trkpt>
      <trkpt lat="45.1938" lon="4.97546">
        <ele>322.2</ele>
        <time>2021-03-28T07:45:56Z</time>
      </trkpt>
      <trkpt lat="45.19369" lon="4.97528">
        <ele>322.8</ele>
        <time>2021-03-28T07:46:00Z</time>
      </trkpt>
      <trkpt lat="45.1935" lon="4.97519">
        <ele>322.8</ele>
        <time>2021-03-28T07:46:04Z</time>
      </trkpt>
      <trkpt lat="45.19333" lon="4.97508">
        <ele>322</ele>
        <time>2021-03-28T07:46:08Z</time>
      </trkpt>
      <trkpt lat="45.19322" lon="4.97487">
        <ele>321.2</ele>
        <time>2021-03-28T07:46:12Z</time>
      </trkpt>
      <trkpt lat="45.19318" lon="4.97461">
        <ele>321.8</ele>
        <time>2021-03-28T07:46:16Z</time>
      </trkpt>
      <trkpt lat="45.19314" lon="4.9744">
        <ele>322.8</ele>
        <time>2021-03-28T07:46:20Z</time>
      </trkpt>
      <trkpt lat="45.19309" lon="4.97421">
        <ele>323.2</ele>
        <time>2021-03-28T07:46:24Z</time>
      </trkpt>
      <trkpt lat="45.19307" lon="4.97403">
        <ele>324.2</ele>
        <time>2021-03-28T07:46:28Z</time>
      </trkpt>
      <trkpt lat="45.19309" lon="4.97383">
        <ele>325</ele>
        <time>2021-03-28T07:46:32Z</time>
      </trkpt>
      <trkpt lat="45.19316" lon="4.97371">
        <ele>324.6</ele>
        <time>2021-03-28T07:46:36Z</time>
      </trkpt>
      <trkpt lat="45.19329" lon="4.97363">
        <ele>325</ele>
        <time>2021-03-28T07:46:40Z</time>
      </trkpt>
      <trkpt lat="45.19342" lon="4.97356">
        <ele>326.6</ele>
        <time>2021-03-28T07:46:44Z</time>
      </trkpt>
      <trkpt lat="45.19355" lon="4.9735">
        <ele>326.8</ele>
        <time>2021-03-28T07:46:48Z</time>
      </trkpt>
      <trkpt lat="45.19368" lon="4.97345">
        <ele>326.8</ele>
        <time>2021-03-28T07:46:52Z</time>
      </trkpt>
      <trkpt lat="45.19381" lon="4.97339">
        <ele>325.2</ele>
        <time>2021-03-28T07:46:56Z</time>
      </trkpt>
      <trkpt lat="45.19395" lon="4.97333">
        <ele>324.2</ele>
        <time>2021-03-28T07:47:00Z</time>
      </trkpt>
      <trkpt lat="45.19416" lon="4.97326">
        <ele>322.4</ele>
        <time>2021-03-28T07:47:04Z</time>
      </trkpt>
      <trkpt lat="45.19441" lon="4.97325">
        <ele>320.4</ele>
        <time>2021-03-28T07:47:08Z</time>
      </trkpt>
      <trkpt lat="45.19469" lon="4.97326">
        <ele>319.4</ele>
        <time>2021-03-28T07:47:12Z</time>
      </trkpt>
      <trkpt lat="45.19499" lon="4.97329">
        <ele>314.8</ele>
        <time>2021-03-28T07:47:16Z</time>
      </trkpt>
      <trkpt lat="45.19529" lon="4.97322">
        <ele>314.6</ele>
        <time>2021-03-28T07:47:20Z</time>
      </trkpt>
      <trkpt lat="45.19536" lon="4.97282">
        <ele>314.6</ele>
        <time>2021-03-28T07:47:24Z</time>
      </trkpt>
      <trkpt lat="45.19535" lon="4.97245">
        <ele>314.8</ele>
        <time>2021-03-28T07:47:28Z</time>
      </trkpt>
      <trkpt lat="45.19534" lon="4.97209">
        <ele>315.6</ele>
        <time>2021-03-28T07:47:32Z</time>
      </trkpt>
      <trkpt lat="45.19534" lon="4.97178">
        <ele>315</ele>
        <time>2021-03-28T07:47:36Z</time>
      </trkpt>
      <trkpt lat="45.19542" lon="4.97148">
        <ele>314.6</ele>
        <time>2021-03-28T07:47:40Z</time>
      </trkpt>
      <trkpt lat="45.1955" lon="4.97123">
        <ele>315</ele>
        <time>2021-03-28T07:47:44Z</time>
      </trkpt>
      <trkpt lat="45.1956" lon="4.97098">
        <ele>314.6</ele>
        <time>2021-03-28T07:47:48Z</time>
      </trkpt>
      <trkpt lat="45.1957" lon="4.97072">
        <ele>314.2</ele>
        <time>2021-03-28T07:47:52Z</time>
      </trkpt>
      <trkpt lat="45.1958" lon="4.97048">
        <ele>314</ele>
        <time>2021-03-28T07:47:56Z</time>
      </trkpt>
      <trkpt lat="45.19589" lon="4.97027">
        <ele>315</ele>
        <time>2021-03-28T07:48:00Z</time>
      </trkpt>
      <trkpt lat="45.19595" lon="4.97015">
        <ele>314.4</ele>
        <time>2021-03-28T07:48:04Z</time>
      </trkpt>
      <trkpt lat="45.19601" lon="4.97011">
        <ele>314</ele>
        <time>2021-03-28T07:48:08Z</time>
      </trkpt>
      <trkpt lat="45.19611" lon="4.97008">
        <ele>313.6</ele>
        <time>2021-03-28T07:48:12Z</time>
      </trkpt>
      <trkpt lat="45.19621" lon="4.97007">
        <ele>313.2</ele>
        <time>2021-03-28T07:48:16Z</time>
      </trkpt>
      <trkpt lat="45.19636" lon="4.97006">
        <ele>311.8</ele>
        <time>2021-03-28T07:48:20Z</time>
      </trkpt>
      <trkpt lat="45.19656" lon="4.97006">
        <ele>311.6</ele>
        <time>2021-03-28T07:48:24Z</time>
      </trkpt>
      <trkpt lat="45.19676" lon="4.97003">
        <ele>310.2</ele>
        <time>2021-03-28T07:48:28Z</time>
      </trkpt>
      <trkpt lat="45.19697" lon="4.97">
        <ele>309</ele>
        <time>2021-03-28T07:48:32Z</time>
      </trkpt>
      <trkpt lat="45.1972" lon="4.96994">
        <ele>308.2</ele>
        <time>2021-03-28T07:48:36Z</time>
      </trkpt>
      <trkpt lat="45.1974" lon="4.96984">
        <ele>306.8</ele>
        <time>2021-03-28T07:48:40Z</time>
      </trkpt>
      <trkpt lat="45.19761" lon="4.96976">
        <ele>307</ele>
        <time>2021-03-28T07:48:44Z</time>
      </trkpt>
      <trkpt lat="45.19772" lon="4.9697">
        <ele>307</ele>
        <time>2021-03-28T07:48:48Z</time>
      </trkpt>
      <trkpt lat="45.19786" lon="4.96959">
        <ele>305.6</ele>
        <time>2021-03-28T07:48:52Z</time>
      </trkpt>
      <trkpt lat="45.19803" lon="4.96948">
        <ele>304.8</ele>
        <time>2021-03-28T07:48:56Z</time>
      </trkpt>
      <trkpt lat="45.19822" lon="4.96938">
        <ele>302.6</ele>
        <time>2021-03-28T07:49:00Z</time>
      </trkpt>
      <trkpt lat="45.19842" lon="4.96922">
        <ele>302</ele>
        <time>2021-03-28T07:49:04Z</time>
      </trkpt>
      <trkpt lat="45.19853" lon="4.96894">
        <ele>302.4</ele>
        <time>2021-03-28T07:49:08Z</time>
      </trkpt>
      <trkpt lat="45.19858" lon="4.9686">
        <ele>300.6</ele>
        <time>2021-03-28T07:49:12Z</time>
      </trkpt>
      <trkpt lat="45.19853" lon="4.96823">
        <ele>298.6</ele>
        <time>2021-03-28T07:49:16Z</time>
      </trkpt>
      <trkpt lat="45.19831" lon="4.96798">
        <ele>298.4</ele>
        <time>2021-03-28T07:49:20Z</time>
      </trkpt>
      <trkpt lat="45.19803" lon="4.96783">
        <ele>296.4</ele>
        <time>2021-03-28T07:49:24Z</time>
      </trkpt>
      <trkpt lat="45.19772" lon="4.96776">
        <ele>293.8</ele>
        <time>2021-03-28T07:49:28Z</time>
      </trkpt>
      <trkpt lat="45.19741" lon="4.96774">
        <ele>290.8</ele>
        <time>2021-03-28T07:49:32Z</time>
      </trkpt>
      <trkpt lat="45.19708" lon="4.96766">
        <ele>287.2</ele>
        <time>2021-03-28T07:49:36Z</time>
      </trkpt>
      <trkpt lat="45.19669" lon="4.96756">
        <ele>287.6</ele>
        <time>2021-03-28T07:49:40Z</time>
      </trkpt>
      <trkpt lat="45.19635" lon="4.96762">
        <ele>287.8</ele>
        <time>2021-03-28T07:49:44Z</time>
      </trkpt>
      <trkpt lat="45.19607" lon="4.96776">
        <ele>288.8</ele>
        <time>2021-03-28T07:49:48Z</time>
      </trkpt>
      <trkpt lat="45.19581" lon="4.9678">
        <ele>287.2</ele>
        <time>2021-03-28T07:49:52Z</time>
      </trkpt>
      <trkpt lat="45.19569" lon="4.96748">
        <ele>283.8</ele>
        <time>2021-03-28T07:49:56Z</time>
      </trkpt>
      <trkpt lat="45.19554" lon="4.96709">
        <ele>281.4</ele>
        <time>2021-03-28T07:50:00Z</time>
      </trkpt>
      <trkpt lat="45.19543" lon="4.96662">
        <ele>278.4</ele>
        <time>2021-03-28T07:50:04Z</time>
      </trkpt>
      <trkpt lat="45.19547" lon="4.96611">
        <ele>278.6</ele>
        <time>2021-03-28T07:50:08Z</time>
      </trkpt>
      <trkpt lat="45.19548" lon="4.96566">
        <ele>278.8</ele>
        <time>2021-03-28T07:50:12Z</time>
      </trkpt>
      <trkpt lat="45.19546" lon="4.9652">
        <ele>275.6</ele>
        <time>2021-03-28T07:50:16Z</time>
      </trkpt>
      <trkpt lat="45.19543" lon="4.96471">
        <ele>272.8</ele>
        <time>2021-03-28T07:50:20Z</time>
      </trkpt>
      <trkpt lat="45.19536" lon="4.96419">
        <ele>269</ele>
        <time>2021-03-28T07:50:24Z</time>
      </trkpt>
      <trkpt lat="45.19531" lon="4.96362">
        <ele>263</ele>
        <time>2021-03-28T07:50:28Z</time>
      </trkpt>
      <trkpt lat="45.19538" lon="4.96302">
        <ele>259</ele>
        <time>2021-03-28T07:50:32Z</time>
      </trkpt>
      <trkpt lat="45.19554" lon="4.96246">
        <ele>257</ele>
        <time>2021-03-28T07:50:36Z</time>
      </trkpt>
      <trkpt lat="45.19572" lon="4.96196">
        <ele>257</ele>
        <time>2021-03-28T07:50:40Z</time>
      </trkpt>
      <trkpt lat="45.19589" lon="4.9615">
        <ele>256.4</ele>
        <time>2021-03-28T07:50:44Z</time>
      </trkpt>
      <trkpt lat="45.19594" lon="4.96104">
        <ele>256.2</ele>
        <time>2021-03-28T07:50:48Z</time>
      </trkpt>
      <trkpt lat="45.19589" lon="4.96058">
        <ele>255.6</ele>
        <time>2021-03-28T07:50:52Z</time>
      </trkpt>
      <trkpt lat="45.19582" lon="4.96016">
        <ele>255</ele>
        <time>2021-03-28T07:50:56Z</time>
      </trkpt>
      <trkpt lat="45.19576" lon="4.95976">
        <ele>254.6</ele>
        <time>2021-03-28T07:51:00Z</time>
      </trkpt>
      <trkpt lat="45.19571" lon="4.95938">
        <ele>254.4</ele>
        <time>2021-03-28T07:51:04Z</time>
      </trkpt>
      <trkpt lat="45.19565" lon="4.95903">
        <ele>254.4</ele>
        <time>2021-03-28T07:51:08Z</time>
      </trkpt>
      <trkpt lat="45.19559" lon="4.95872">
        <ele>255.2</ele>
        <time>2021-03-28T07:51:12Z</time>
      </trkpt>
      <trkpt lat="45.19551" lon="4.9584">
        <ele>253.8</ele>
        <time>2021-03-28T07:51:16Z</time>
      </trkpt>
      <trkpt lat="45.19541" lon="4.95807">
        <ele>251.2</ele>
        <time>2021-03-28T07:51:20Z</time>
      </trkpt>
      <trkpt lat="45.19533" lon="4.95766">
        <ele>248.4</ele>
        <time>2021-03-28T07:51:24Z</time>
      </trkpt>
      <trkpt lat="45.19525" lon="4.95718">
        <ele>245.2</ele>
        <time>2021-03-28T07:51:28Z</time>
      </trkpt>
      <trkpt lat="45.19518" lon="4.95665">
        <ele>240.8</ele>
        <time>2021-03-28T07:51:32Z</time>
      </trkpt>
      <trkpt lat="45.19507" lon="4.9561">
        <ele>239.2</ele>
        <time>2021-03-28T07:51:36Z</time>
      </trkpt>
      <trkpt lat="45.19484" lon="4.95561">
        <ele>234</ele>
        <time>2021-03-28T07:51:40Z</time>
      </trkpt>
      <trkpt lat="45.19462" lon="4.95511">
        <ele>231.8</ele>
        <time>2021-03-28T07:51:44Z</time>
      </trkpt>
      <trkpt lat="45.1946" lon="4.95451">
        <ele>227.6</ele>
        <time>2021-03-28T07:51:48Z</time>
      </trkpt>
      <trkpt lat="45.19484" lon="4.954">
        <ele>224.4</ele>
        <time>2021-03-28T07:51:52Z</time>
      </trkpt>
      <trkpt lat="45.19508" lon="4.95349">
        <ele>219.8</ele>
        <time>2021-03-28T07:51:56Z</time>
      </trkpt>
      <trkpt lat="45.19528" lon="4.95296">
        <ele>216.8</ele>
        <time>2021-03-28T07:52:00Z</time>
      </trkpt>
      <trkpt lat="45.19547" lon="4.95246">
        <ele>216.2</ele>
        <time>2021-03-28T07:52:04Z</time>
      </trkpt>
      <trkpt lat="45.19576" lon="4.95212">
        <ele>214.2</ele>
        <time>2021-03-28T07:52:08Z</time>
      </trkpt>
      <trkpt lat="45.19608" lon="4.95192">
        <ele>213.6</ele>
        <time>2021-03-28T07:52:12Z</time>
      </trkpt>
      <trkpt lat="45.19641" lon="4.95176">
        <ele>212</ele>
        <time>2021-03-28T07:52:16Z</time>
      </trkpt>
      <trkpt lat="45.19676" lon="4.95168">
        <ele>212</ele>
        <time>2021-03-28T07:52:20Z</time>
      </trkpt>
      <trkpt lat="45.19696" lon="4.95153">
        <ele>211.8</ele>
        <time>2021-03-28T07:52:24Z</time>
      </trkpt>
      <trkpt lat="45.19683" lon="4.95127">
        <ele>210.8</ele>
        <time>2021-03-28T07:52:28Z</time>
      </trkpt>
      <trkpt lat="45.19666" lon="4.95104">
        <ele>210.2</ele>
        <time>2021-03-28T07:52:32Z</time>
      </trkpt>
      <trkpt lat="45.1965" lon="4.95081">
        <ele>210</ele>
        <time>2021-03-28T07:52:36Z</time>
      </trkpt>
      <trkpt lat="45.19636" lon="4.9506">
        <ele>211.2</ele>
        <time>2021-03-28T07:52:40Z</time>
      </trkpt>
      <trkpt lat="45.19621" lon="4.9504">
        <ele>210.6</ele>
        <time>2021-03-28T07:52:44Z</time>
      </trkpt>
      <trkpt lat="45.19605" lon="4.9502">
        <ele>210.4</ele>
        <time>2021-03-28T07:52:48Z</time>
      </trkpt>
      <trkpt lat="45.19587" lon="4.95003">
        <ele>210.2</ele>
        <time>2021-03-28T07:52:52Z</time>
      </trkpt>
      <trkpt lat="45.19567" lon="4.94987">
        <ele>209</ele>
        <time>2021-03-28T07:52:56Z</time>
      </trkpt>
      <trkpt lat="45.19546" lon="4.94969">
        <ele>207.6</ele>
        <time>2021-03-28T07:53:00Z</time>
      </trkpt>
      <trkpt lat="45.19524" lon="4.94948">
        <ele>207</ele>
        <time>2021-03-28T07:53:04Z</time>
      </trkpt>
      <trkpt lat="45.19506" lon="4.94918">
        <ele>206</ele>
        <time>2021-03-28T07:53:08Z</time>
      </trkpt>
      <trkpt lat="45.19493" lon="4.94883">
        <ele>205.6</ele>
        <time>2021-03-28T07:53:12Z</time>
      </trkpt>
      <trkpt lat="45.19484" lon="4.9485">
        <ele>205.8</ele>
        <time>2021-03-28T07:53:16Z</time>
      </trkpt>
      <trkpt lat="45.19475" lon="4.94819">
        <ele>206.2</ele>
        <time>2021-03-28T07:53:20Z</time>
      </trkpt>
      <trkpt lat="45.19466" lon="4.9479">
        <ele>206.2</ele>
        <time>2021-03-28T07:53:24Z</time>
      </trkpt>
      <trkpt lat="45.19456" lon="4.94763">
        <ele>206.6</ele>
        <time>2021-03-28T07:53:28Z</time>
      </trkpt>
      <trkpt lat="45.19443" lon="4.94741">
        <ele>206.6</ele>
        <time>2021-03-28T07:53:32Z</time>
      </trkpt>
      <trkpt lat="45.19426" lon="4.94727">
        <ele>207.2</ele>
        <time>2021-03-28T07:53:36Z</time>
      </trkpt>
      <trkpt lat="45.19407" lon="4.94718">
        <ele>206.8</ele>
        <time>2021-03-28T07:53:40Z</time>
      </trkpt>
      <trkpt lat="45.19387" lon="4.94711">
        <ele>207.2</ele>
        <time>2021-03-28T07:53:44Z</time>
      </trkpt>
      <trkpt lat="45.19368" lon="4.94706">
        <ele>206.8</ele>
        <time>2021-03-28T07:53:48Z</time>
      </trkpt>
      <trkpt lat="45.19348" lon="4.94701">
        <ele>207</ele>
        <time>2021-03-28T07:53:52Z</time>
      </trkpt>
      <trkpt lat="45.19328" lon="4.94695">
        <ele>207.2</ele>
        <time>2021-03-28T07:53:56Z</time>
      </trkpt>
      <trkpt lat="45.19308" lon="4.94689">
        <ele>207</ele>
        <time>2021-03-28T07:54:00Z</time>
      </trkpt>
      <trkpt lat="45.19287" lon="4.94683">
        <ele>207.6</ele>
        <time>2021-03-28T07:54:04Z</time>
      </trkpt>
      <trkpt lat="45.19267" lon="4.94677">
        <ele>207.6</ele>
        <time>2021-03-28T07:54:08Z</time>
      </trkpt>
      <trkpt lat="45.19247" lon="4.94672">
        <ele>207.6</ele>
        <time>2021-03-28T07:54:12Z</time>
      </trkpt>
      <trkpt lat="45.19227" lon="4.94666">
        <ele>207.8</ele>
        <time>2021-03-28T07:54:16Z</time>
      </trkpt>
      <trkpt lat="45.19208" lon="4.94659">
        <ele>208.2</ele>
        <time>2021-03-28T07:54:20Z</time>
      </trkpt>
      <trkpt lat="45.1919" lon="4.9465">
        <ele>208.4</ele>
        <time>2021-03-28T07:54:24Z</time>
      </trkpt>
      <trkpt lat="45.19172" lon="4.94638">
        <ele>208</ele>
        <time>2021-03-28T07:54:28Z</time>
      </trkpt>
      <trkpt lat="45.19153" lon="4.94626">
        <ele>207.6</ele>
        <time>2021-03-28T07:54:32Z</time>
      </trkpt>
      <trkpt lat="45.19134" lon="4.94612">
        <ele>207.2</ele>
        <time>2021-03-28T07:54:36Z</time>
      </trkpt>
      <trkpt lat="45.19116" lon="4.94594">
        <ele>206.4</ele>
        <time>2021-03-28T07:54:40Z</time>
      </trkpt>
      <trkpt lat="45.19098" lon="4.94573">
        <ele>205.2</ele>
        <time>2021-03-28T07:54:44Z</time>
      </trkpt>
      <trkpt lat="45.19081" lon="4.94552">
        <ele>204.2</ele>
        <time>2021-03-28T07:54:48Z</time>
      </trkpt>
      <trkpt lat="45.19065" lon="4.94529">
        <ele>204.2</ele>
        <time>2021-03-28T07:54:52Z</time>
      </trkpt>
      <trkpt lat="45.19048" lon="4.94506">
        <ele>203.4</ele>
        <time>2021-03-28T07:54:56Z</time>
      </trkpt>
      <trkpt lat="45.1903" lon="4.94483">
        <ele>202.6</ele>
        <time>2021-03-28T07:55:00Z</time>
      </trkpt>
      <trkpt lat="45.19013" lon="4.9446">
        <ele>202.2</ele>
        <time>2021-03-28T07:55:04Z</time>
      </trkpt>
      <trkpt lat="45.18996" lon="4.94436">
        <ele>202.6</ele>
        <time>2021-03-28T07:55:08Z</time>
      </trkpt>
      <trkpt lat="45.18978" lon="4.94414">
        <ele>200.6</ele>
        <time>2021-03-28T07:55:12Z</time>
      </trkpt>
      <trkpt lat="45.18962" lon="4.94391">
        <ele>201.6</ele>
        <time>2021-03-28T07:55:16Z</time>
      </trkpt>
      <trkpt lat="45.18944" lon="4.94371">
        <ele>201.8</ele>
        <time>2021-03-28T07:55:20Z</time>
      </trkpt>
      <trkpt lat="45.18926" lon="4.94353">
        <ele>201.6</ele>
        <time>2021-03-28T07:55:24Z</time>
      </trkpt>
      <trkpt lat="45.18906" lon="4.94337">
        <ele>200.2</ele>
        <time>2021-03-28T07:55:28Z</time>
      </trkpt>
      <trkpt lat="45.18886" lon="4.94323">
        <ele>200</ele>
        <time>2021-03-28T07:55:32Z</time>
      </trkpt>
      <trkpt lat="45.18865" lon="4.9431">
        <ele>199.6</ele>
        <time>2021-03-28T07:55:36Z</time>
      </trkpt>
      <trkpt lat="45.18845" lon="4.94297">
        <ele>198.4</ele>
        <time>2021-03-28T07:55:40Z</time>
      </trkpt>
      <trkpt lat="45.18826" lon="4.94284">
        <ele>198.6</ele>
        <time>2021-03-28T07:55:44Z</time>
      </trkpt>
      <trkpt lat="45.18807" lon="4.94272">
        <ele>198.8</ele>
        <time>2021-03-28T07:55:48Z</time>
      </trkpt>
      <trkpt lat="45.18789" lon="4.9426">
        <ele>198.6</ele>
        <time>2021-03-28T07:55:52Z</time>
      </trkpt>
      <trkpt lat="45.18772" lon="4.94247">
        <ele>198.6</ele>
        <time>2021-03-28T07:55:56Z</time>
      </trkpt>
      <trkpt lat="45.18755" lon="4.94236">
        <ele>199.2</ele>
        <time>2021-03-28T07:56:00Z</time>
      </trkpt>
      <trkpt lat="45.18737" lon="4.94224">
        <ele>198.8</ele>
        <time>2021-03-28T07:56:04Z</time>
      </trkpt>
      <trkpt lat="45.18721" lon="4.94213">
        <ele>199</ele>
        <time>2021-03-28T07:56:08Z</time>
      </trkpt>
      <trkpt lat="45.18704" lon="4.94202">
        <ele>199.2</ele>
        <time>2021-03-28T07:56:12Z</time>
      </trkpt>
      <trkpt lat="45.18687" lon="4.94189">
        <ele>199.4</ele>
        <time>2021-03-28T07:56:16Z</time>
      </trkpt>
      <trkpt lat="45.18668" lon="4.94176">
        <ele>199</ele>
        <time>2021-03-28T07:56:20Z</time>
      </trkpt>
      <trkpt lat="45.18649" lon="4.94161">
        <ele>197.6</ele>
        <time>2021-03-28T07:56:24Z</time>
      </trkpt>
      <trkpt lat="45.1863" lon="4.94146">
        <ele>198.6</ele>
        <time>2021-03-28T07:56:28Z</time>
      </trkpt>
      <trkpt lat="45.18613" lon="4.9413">
        <ele>196.8</ele>
        <time>2021-03-28T07:56:32Z</time>
      </trkpt>
      <trkpt lat="45.18597" lon="4.94113">
        <ele>196.2</ele>
        <time>2021-03-28T07:56:36Z</time>
      </trkpt>
      <trkpt lat="45.1858" lon="4.94095">
        <ele>195.6</ele>
        <time>2021-03-28T07:56:40Z</time>
      </trkpt>
      <trkpt lat="45.18562" lon="4.94081">
        <ele>196.6</ele>
        <time>2021-03-28T07:56:44Z</time>
      </trkpt>
      <trkpt lat="45.18544" lon="4.94069">
        <ele>195.6</ele>
        <time>2021-03-28T07:56:48Z</time>
      </trkpt>
      <trkpt lat="45.18524" lon="4.94058">
        <ele>194.8</ele>
        <time>2021-03-28T07:56:52Z</time>
      </trkpt>
      <trkpt lat="45.18504" lon="4.9405">
        <ele>194.6</ele>
        <time>2021-03-28T07:56:56Z</time>
      </trkpt>
      <trkpt lat="45.18485" lon="4.94041">
        <ele>194.4</ele>
        <time>2021-03-28T07:57:00Z</time>
      </trkpt>
      <trkpt lat="45.18465" lon="4.94031">
        <ele>193.4</ele>
        <time>2021-03-28T07:57:04Z</time>
      </trkpt>
      <trkpt lat="45.18443" lon="4.94022">
        <ele>192</ele>
        <time>2021-03-28T07:57:08Z</time>
      </trkpt>
      <trkpt lat="45.18422" lon="4.94012">
        <ele>191.8</ele>
        <time>2021-03-28T07:57:12Z</time>
      </trkpt>
      <trkpt lat="45.18399" lon="4.94002">
        <ele>190.2</ele>
        <time>2021-03-28T07:57:16Z</time>
      </trkpt>
      <trkpt lat="45.18378" lon="4.93992">
        <ele>189.6</ele>
        <time>2021-03-28T07:57:20Z</time>
      </trkpt>
      <trkpt lat="45.18356" lon="4.93981">
        <ele>189.4</ele>
        <time>2021-03-28T07:57:24Z</time>
      </trkpt>
      <trkpt lat="45.18335" lon="4.93966">
        <ele>189</ele>
        <time>2021-03-28T07:57:28Z</time>
      </trkpt>
      <trkpt lat="45.18317" lon="4.93946">
        <ele>188.2</ele>
        <time>2021-03-28T07:57:32Z</time>
      </trkpt>
      <trkpt lat="45.18302" lon="4.93922">
        <ele>188</ele>
        <time>2021-03-28T07:57:36Z</time>
      </trkpt>
      <trkpt lat="45.18293" lon="4.93892">
        <ele>186.4</ele>
        <time>2021-03-28T07:57:40Z</time>
      </trkpt>
      <trkpt lat="45.18284" lon="4.93861">
        <ele>186</ele>
        <time>2021-03-28T07:57:44Z</time>
      </trkpt>
      <trkpt lat="45.18275" lon="4.93829">
        <ele>184.8</ele>
        <time>2021-03-28T07:57:48Z</time>
      </trkpt>
      <trkpt lat="45.18266" lon="4.93796">
        <ele>184.6</ele>
        <time>2021-03-28T07:57:52Z</time>
      </trkpt>
      <trkpt lat="45.18257" lon="4.93763">
        <ele>183.6</ele>
        <time>2021-03-28T07:57:56Z</time>
      </trkpt>
      <trkpt lat="45.18249" lon="4.93732">
        <ele>183</ele>
        <time>2021-03-28T07:58:00Z</time>
      </trkpt>
      <trkpt lat="45.18239" lon="4.93701">
        <ele>182.2</ele>
        <time>2021-03-28T07:58:04Z</time>
      </trkpt>
      <trkpt lat="45.18233" lon="4.93674">
        <ele>181.8</ele>
        <time>2021-03-28T07:58:08Z</time>
      </trkpt>
      <trkpt lat="45.18222" lon="4.93647">
        <ele>181.8</ele>
        <time>2021-03-28T07:58:12Z</time>
      </trkpt>
      <trkpt lat="45.1821" lon="4.9362">
        <ele>182.2</ele>
        <time>2021-03-28T07:58:16Z</time>
      </trkpt>
      <trkpt lat="45.18198" lon="4.93596">
        <ele>183</ele>
        <time>2021-03-28T07:58:20Z</time>
      </trkpt>
      <trkpt lat="45.18185" lon="4.93571">
        <ele>183</ele>
        <time>2021-03-28T07:58:24Z</time>
      </trkpt>
      <trkpt lat="45.18174" lon="4.93546">
        <ele>183</ele>
        <time>2021-03-28T07:58:28Z</time>
      </trkpt>
      <trkpt lat="45.18163" lon="4.93523">
        <ele>184.2</ele>
        <time>2021-03-28T07:58:32Z</time>
      </trkpt>
      <trkpt lat="45.18151" lon="4.935">
        <ele>184.2</ele>
        <time>2021-03-28T07:58:36Z</time>
      </trkpt>
      <trkpt lat="45.18138" lon="4.9348">
        <ele>183.6</ele>
        <time>2021-03-28T07:58:40Z</time>
      </trkpt>
      <trkpt lat="45.18125" lon="4.93462">
        <ele>184.4</ele>
        <time>2021-03-28T07:58:44Z</time>
      </trkpt>
      <trkpt lat="45.18112" lon="4.93446">
        <ele>186</ele>
        <time>2021-03-28T07:58:48Z</time>
      </trkpt>
      <trkpt lat="45.181" lon="4.9343">
        <ele>186.8</ele>
        <time>2021-03-28T07:58:52Z</time>
      </trkpt>
      <trkpt lat="45.18089" lon="4.93413">
        <ele>186.4</ele>
        <time>2021-03-28T07:58:56Z</time>
      </trkpt>
      <trkpt lat="45.18081" lon="4.93393">
        <ele>187.4</ele>
        <time>2021-03-28T07:59:00Z</time>
      </trkpt>
      <trkpt lat="45.1808" lon="4.93371">
        <ele>186.6</ele>
        <time>2021-03-28T07:59:04Z</time>
      </trkpt>
      <trkpt lat="45.18084" lon="4.9335">
        <ele>186</ele>
        <time>2021-03-28T07:59:08Z</time>
      </trkpt>
      <trkpt lat="45.18088" lon="4.93324">
        <ele>183.4</ele>
        <time>2021-03-28T07:59:12Z</time>
      </trkpt>
      <trkpt lat="45.18093" lon="4.93297">
        <ele>181.4</ele>
        <time>2021-03-28T07:59:16Z</time>
      </trkpt>
      <trkpt lat="45.18101" lon="4.93267">
        <ele>180</ele>
        <time>2021-03-28T07:59:20Z</time>
      </trkpt>
      <trkpt lat="45.18104" lon="4.93237">
        <ele>178.8</ele>
        <time>2021-03-28T07:59:24Z</time>
      </trkpt>
      <trkpt lat="45.18106" lon="4.93203">
        <ele>176.8</ele>
        <time>2021-03-28T07:59:28Z</time>
      </trkpt>
      <trkpt lat="45.18109" lon="4.9317">
        <ele>177</ele>
        <time>2021-03-28T07:59:32Z</time>
      </trkpt>
      <trkpt lat="45.18113" lon="4.9314">
        <ele>177.4</ele>
        <time>2021-03-28T07:59:36Z</time>
      </trkpt>
      <trkpt lat="45.18119" lon="4.93112">
        <ele>177.2</ele>
        <time>2021-03-28T07:59:40Z</time>
      </trkpt>
      <trkpt lat="45.18123" lon="4.93084">
        <ele>177.8</ele>
        <time>2021-03-28T07:59:44Z</time>
      </trkpt>
      <trkpt lat="45.1812" lon="4.93057">
        <ele>177.4</ele>
        <time>2021-03-28T07:59:48Z</time>
      </trkpt>
      <trkpt lat="45.18123" lon="4.93035">
        <ele>177.4</ele>
        <time>2021-03-28T07:59:52Z</time>
      </trkpt>
      <trkpt lat="45.18123" lon="4.9301">
        <ele>175.8</ele>
        <time>2021-03-28T07:59:56Z</time>
      </trkpt>
      <trkpt lat="45.1812" lon="4.92984">
        <ele>176.2</ele>
        <time>2021-03-28T08:00:00Z</time>
      </trkpt>
      <trkpt lat="45.18112" lon="4.92963">
        <ele>178</ele>
        <time>2021-03-28T08:00:04Z</time>
      </trkpt>
      <trkpt lat="45.18106" lon="4.92949">
        <ele>178</ele>
        <time>2021-03-28T08:00:08Z</time>
      </trkpt>
      <trkpt lat="45.18107" lon="4.92936">
        <ele>178.6</ele>
        <time>2021-03-28T08:00:12Z</time>
      </trkpt>
      <trkpt lat="45.1811" lon="4.92926">
        <ele>177.8</ele>
        <time>2021-03-28T08:00:16Z</time>
      </trkpt>
      <trkpt lat="45.18123" lon="4.92917">
        <ele>176</ele>
        <time>2021-03-28T08:00:20Z</time>
      </trkpt>
      <trkpt lat="45.18129" lon="4.92899">
        <ele>175.6</ele>
        <time>2021-03-28T08:00:24Z</time>
      </trkpt>
      <trkpt lat="45.18126" lon="4.92871">
        <ele>173.6</ele>
        <time>2021-03-28T08:00:28Z</time>
      </trkpt>
      <trkpt lat="45.18124" lon="4.92841">
        <ele>172</ele>
        <time>2021-03-28T08:00:32Z</time>
      </trkpt>
      <trkpt lat="45.1812" lon="4.92805">
        <ele>169.8</ele>
        <time>2021-03-28T08:00:36Z</time>
      </trkpt>
      <trkpt lat="45.18117" lon="4.92777">
        <ele>170.4</ele>
        <time>2021-03-28T08:00:40Z</time>
      </trkpt>
      <trkpt lat="45.18113" lon="4.9275">
        <ele>170</ele>
        <time>2021-03-28T08:00:44Z</time>
      </trkpt>
      <trkpt lat="45.18103" lon="4.92727">
        <ele>168.6</ele>
        <time>2021-03-28T08:00:48Z</time>
      </trkpt>
      <trkpt lat="45.18092" lon="4.92707">
        <ele>170</ele>
        <time>2021-03-28T08:00:52Z</time>
      </trkpt>
      <trkpt lat="45.18082" lon="4.92689">
        <ele>170.4</ele>
        <time>2021-03-28T08:00:56Z</time>
      </trkpt>
      <trkpt lat="45.18074" lon="4.92671">
        <ele>169.4</ele>
        <time>2021-03-28T08:01:00Z</time>
      </trkpt>
      <trkpt lat="45.18065" lon="4.92651">
        <ele>169.2</ele>
        <time>2021-03-28T08:01:04Z</time>
      </trkpt>
      <trkpt lat="45.18059" lon="4.92628">
        <ele>170.4</ele>
        <time>2021-03-28T08:01:08Z</time>
      </trkpt>
      <trkpt lat="45.18053" lon="4.92603">
        <ele>170</ele>
        <time>2021-03-28T08:01:12Z</time>
      </trkpt>
      <trkpt lat="45.18049" lon="4.92578">
        <ele>169</ele>
        <time>2021-03-28T08:01:16Z</time>
      </trkpt>
      <trkpt lat="45.18044" lon="4.92553">
        <ele>168.8</ele>
        <time>2021-03-28T08:01:20Z</time>
      </trkpt>
      <trkpt lat="45.18043" lon="4.9253">
        <ele>169.4</ele>
        <time>2021-03-28T08:01:24Z</time>
      </trkpt>
      <trkpt lat="45.18041" lon="4.92507">
        <ele>168</ele>
        <time>2021-03-28T08:01:28Z</time>
      </trkpt>
      <trkpt lat="45.18033" lon="4.9249">
        <ele>168</ele>
        <time>2021-03-28T08:01:32Z</time>
      </trkpt>
      <trkpt lat="45.18016" lon="4.92496">
        <ele>168.2</ele>
        <time>2021-03-28T08:01:36Z</time>
      </trkpt>
      <trkpt lat="45.17998" lon="4.92506">
        <ele>166.6</ele>
        <time>2021-03-28T08:01:40Z</time>
      </trkpt>
      <trkpt lat="45.1798" lon="4.92519">
        <ele>167</ele>
        <time>2021-03-28T08:01:44Z</time>
      </trkpt>
      <trkpt lat="45.17964" lon="4.92531">
        <ele>167.2</ele>
        <time>2021-03-28T08:01:48Z</time>
      </trkpt>
      <trkpt lat="45.17948" lon="4.92541">
        <ele>168</ele>
        <time>2021-03-28T08:01:52Z</time>
      </trkpt>
      <trkpt lat="45.17932" lon="4.92549">
        <ele>168</ele>
        <time>2021-03-28T08:01:56Z</time>
      </trkpt>
      <trkpt lat="45.17916" lon="4.92558">
        <ele>167.8</ele>
        <time>2021-03-28T08:02:00Z</time>
      </trkpt>
      <trkpt lat="45.179" lon="4.92566">
        <ele>169</ele>
        <time>2021-03-28T08:02:04Z</time>
      </trkpt>
      <trkpt lat="45.17885" lon="4.92574">
        <ele>169.4</ele>
        <time>2021-03-28T08:02:08Z</time>
      </trkpt>
      <trkpt lat="45.1787" lon="4.92581">
        <ele>170.2</ele>
        <time>2021-03-28T08:02:12Z</time>
      </trkpt>
      <trkpt lat="45.17856" lon="4.92588">
        <ele>171</ele>
        <time>2021-03-28T08:02:16Z</time>
      </trkpt>
      <trkpt lat="45.17843" lon="4.92594">
        <ele>171.4</ele>
        <time>2021-03-28T08:02:20Z</time>
      </trkpt>
      <trkpt lat="45.17831" lon="4.92596">
        <ele>172.8</ele>
        <time>2021-03-28T08:02:24Z</time>
      </trkpt>
      <trkpt lat="45.17828" lon="4.92585">
        <ele>173.2</ele>
        <time>2021-03-28T08:02:28Z</time>
      </trkpt>
      <trkpt lat="45.17826" lon="4.92567">
        <ele>172.6</ele>
        <time>2021-03-28T08:02:32Z</time>
      </trkpt>
      <trkpt lat="45.17825" lon="4.92546">
        <ele>172.4</ele>
        <time>2021-03-28T08:02:36Z</time>
      </trkpt>
      <trkpt lat="45.17822" lon="4.92523">
        <ele>171.8</ele>
        <time>2021-03-28T08:02:40Z</time>
      </trkpt>
      <trkpt lat="45.17819" lon="4.92498">
        <ele>171.6</ele>
        <time>2021-03-28T08:02:44Z</time>
      </trkpt>
      <trkpt lat="45.17815" lon="4.92473">
        <ele>171</ele>
        <time>2021-03-28T08:02:48Z</time>
      </trkpt>
      <trkpt lat="45.17807" lon="4.92445">
        <ele>170</ele>
        <time>2021-03-28T08:02:52Z</time>
      </trkpt>
      <trkpt lat="45.178" lon="4.92414">
        <ele>168.8</ele>
        <time>2021-03-28T08:02:56Z</time>
      </trkpt>
      <trkpt lat="45.17793" lon="4.92382">
        <ele>168</ele>
        <time>2021-03-28T08:03:00Z</time>
      </trkpt>
      <trkpt lat="45.17788" lon="4.92349">
        <ele>167</ele>
        <time>2021-03-28T08:03:04Z</time>
      </trkpt>
      <trkpt lat="45.17786" lon="4.92318">
        <ele>167.4</ele>
        <time>2021-03-28T08:03:08Z</time>
      </trkpt>
      <trkpt lat="45.17787" lon="4.92289">
        <ele>167</ele>
        <time>2021-03-28T08:03:12Z</time>
      </trkpt>
      <trkpt lat="45.17788" lon="4.9226">
        <ele>167.8</ele>
        <time>2021-03-28T08:03:16Z</time>
      </trkpt>
      <trkpt lat="45.17788" lon="4.9223">
        <ele>167.8</ele>
        <time>2021-03-28T08:03:20Z</time>
      </trkpt>
      <trkpt lat="45.17787" lon="4.92201">
        <ele>167.6</ele>
        <time>2021-03-28T08:03:24Z</time>
      </trkpt>
      <trkpt lat="45.17785" lon="4.92173">
        <ele>168</ele>
        <time>2021-03-28T08:03:28Z</time>
      </trkpt>
      <trkpt lat="45.17782" lon="4.92145">
        <ele>168</ele>
        <time>2021-03-28T08:03:32Z</time>
      </trkpt>
      <trkpt lat="45.17778" lon="4.92117">
        <ele>168.2</ele>
        <time>2021-03-28T08:03:36Z</time>
      </trkpt>
      <trkpt lat="45.17774" lon="4.92089">
        <ele>168</ele>
        <time>2021-03-28T08:03:40Z</time>
      </trkpt>
      <trkpt lat="45.1777" lon="4.92062">
        <ele>169</ele>
        <time>2021-03-28T08:03:44Z</time>
      </trkpt>
      <trkpt lat="45.17766" lon="4.92035">
        <ele>169</ele>
        <time>2021-03-28T08:03:48Z</time>
      </trkpt>
      <trkpt lat="45.17762" lon="4.9201">
        <ele>170</ele>
        <time>2021-03-28T08:03:52Z</time>
      </trkpt>
      <trkpt lat="45.17761" lon="4.9199">
        <ele>170.8</ele>
        <time>2021-03-28T08:03:56Z</time>
      </trkpt>
      <trkpt lat="45.17761" lon="4.91972">
        <ele>172.8</ele>
        <time>2021-03-28T08:04:00Z</time>
      </trkpt>
      <trkpt lat="45.17763" lon="4.91957">
        <ele>174</ele>
        <time>2021-03-28T08:04:04Z</time>
      </trkpt>
      <trkpt lat="45.17763" lon="4.91943">
        <ele>174.6</ele>
        <time>2021-03-28T08:04:08Z</time>
      </trkpt>
      <trkpt lat="45.17764" lon="4.91928">
        <ele>175.2</ele>
        <time>2021-03-28T08:04:12Z</time>
      </trkpt>
      <trkpt lat="45.17765" lon="4.91914">
        <ele>176.2</ele>
        <time>2021-03-28T08:04:16Z</time>
      </trkpt>
      <trkpt lat="45.17766" lon="4.919">
        <ele>177.2</ele>
        <time>2021-03-28T08:04:20Z</time>
      </trkpt>
      <trkpt lat="45.17768" lon="4.91886">
        <ele>177.4</ele>
        <time>2021-03-28T08:04:24Z</time>
      </trkpt>
      <trkpt lat="45.17768" lon="4.91872">
        <ele>178</ele>
        <time>2021-03-28T08:04:28Z</time>
      </trkpt>
      <trkpt lat="45.17769" lon="4.91859">
        <ele>179.6</ele>
        <time>2021-03-28T08:04:32Z</time>
      </trkpt>
      <trkpt lat="45.1777" lon="4.91844">
        <ele>180.2</ele>
        <time>2021-03-28T08:04:36Z</time>
      </trkpt>
      <trkpt lat="45.1777" lon="4.9183">
        <ele>180.8</ele>
        <time>2021-03-28T08:04:40Z</time>
      </trkpt>
      <trkpt lat="45.1777" lon="4.91814">
        <ele>181.4</ele>
        <time>2021-03-28T08:04:44Z</time>
      </trkpt>
      <trkpt lat="45.1777" lon="4.91798">
        <ele>181.8</ele>
        <time>2021-03-28T08:04:48Z</time>
      </trkpt>
      <trkpt lat="45.17769" lon="4.9178">
        <ele>181.8</ele>
        <time>2021-03-28T08:04:52Z</time>
      </trkpt>
      <trkpt lat="45.17767" lon="4.91762">
        <ele>181.6</ele>
        <time>2021-03-28T08:04:56Z</time>
      </trkpt>
      <trkpt lat="45.17765" lon="4.91743">
        <ele>181.8</ele>
        <time>2021-03-28T08:05:00Z</time>
      </trkpt>
      <trkpt lat="45.17763" lon="4.91721">
        <ele>180.8</ele>
        <time>2021-03-28T08:05:04Z</time>
      </trkpt>
      <trkpt lat="45.17761" lon="4.91699">
        <ele>180.8</ele>
        <time>2021-03-28T08:05:08Z</time>
      </trkpt>
      <trkpt lat="45.17759" lon="4.91675">
        <ele>180.6</ele>
        <time>2021-03-28T08:05:12Z</time>
      </trkpt>
      <trkpt lat="45.17759" lon="4.9165">
        <ele>179.8</ele>
        <time>2021-03-28T08:05:16Z</time>
      </trkpt>
      <trkpt lat="45.17761" lon="4.91622">
        <ele>178.4</ele>
        <time>2021-03-28T08:05:20Z</time>
      </trkpt>
      <trkpt lat="45.17766" lon="4.91587">
        <ele>175.4</ele>
        <time>2021-03-28T08:05:24Z</time>
      </trkpt>
      <trkpt lat="45.17769" lon="4.91545">
        <ele>171</ele>
        <time>2021-03-28T08:05:28Z</time>
      </trkpt>
      <trkpt lat="45.17768" lon="4.915">
        <ele>169.4</ele>
        <time>2021-03-28T08:05:32Z</time>
      </trkpt>
      <trkpt lat="45.17765" lon="4.91456">
        <ele>169.4</ele>
        <time>2021-03-28T08:05:36Z</time>
      </trkpt>
      <trkpt lat="45.17762" lon="4.91416">
        <ele>168.4</ele>
        <time>2021-03-28T08:05:40Z</time>
      </trkpt>
      <trkpt lat="45.1776" lon="4.91375">
        <ele>166.2</ele>
        <time>2021-03-28T08:05:44Z</time>
      </trkpt>
      <trkpt lat="45.1776" lon="4.91332">
        <ele>163.6</ele>
        <time>2021-03-28T08:05:48Z</time>
      </trkpt>
      <trkpt lat="45.17762" lon="4.91284">
        <ele>164.6</ele>
        <time>2021-03-28T08:05:52Z</time>
      </trkpt>
      <trkpt lat="45.17766" lon="4.91234">
        <ele>159</ele>
        <time>2021-03-28T08:05:56Z</time>
      </trkpt>
      <trkpt lat="45.17774" lon="4.91188">
        <ele>161.4</ele>
        <time>2021-03-28T08:06:00Z</time>
      </trkpt>
      <trkpt lat="45.17782" lon="4.9115">
        <ele>159.6</ele>
        <time>2021-03-28T08:06:04Z</time>
      </trkpt>
      <trkpt lat="45.17791" lon="4.91119">
        <ele>161.6</ele>
        <time>2021-03-28T08:06:08Z</time>
      </trkpt>
      <trkpt lat="45.17798" lon="4.91089">
        <ele>162.6</ele>
        <time>2021-03-28T08:06:12Z</time>
      </trkpt>
      <trkpt lat="45.17804" lon="4.91064">
        <ele>163.8</ele>
        <time>2021-03-28T08:06:16Z</time>
      </trkpt>
      <trkpt lat="45.1781" lon="4.91043">
        <ele>165</ele>
        <time>2021-03-28T08:06:20Z</time>
      </trkpt>
      <trkpt lat="45.17814" lon="4.91022">
        <ele>165</ele>
        <time>2021-03-28T08:06:24Z</time>
      </trkpt>
      <trkpt lat="45.17817" lon="4.91001">
        <ele>164.8</ele>
        <time>2021-03-28T08:06:28Z</time>
      </trkpt>
      <trkpt lat="45.1782" lon="4.90979">
        <ele>165.4</ele>
        <time>2021-03-28T08:06:32Z</time>
      </trkpt>
      <trkpt lat="45.17822" lon="4.90953">
        <ele>164.8</ele>
        <time>2021-03-28T08:06:36Z</time>
      </trkpt>
      <trkpt lat="45.17826" lon="4.90926">
        <ele>165</ele>
        <time>2021-03-28T08:06:40Z</time>
      </trkpt>
      <trkpt lat="45.17829" lon="4.90898">
        <ele>164.8</ele>
        <time>2021-03-28T08:06:44Z</time>
      </trkpt>
      <trkpt lat="45.17832" lon="4.90871">
        <ele>165.4</ele>
        <time>2021-03-28T08:06:48Z</time>
      </trkpt>
      <trkpt lat="45.17835" lon="4.90844">
        <ele>165.8</ele>
        <time>2021-03-28T08:06:52Z</time>
      </trkpt>
      <trkpt lat="45.17838" lon="4.9082">
        <ele>166</ele>
        <time>2021-03-28T08:06:56Z</time>
      </trkpt>
      <trkpt lat="45.17841" lon="4.90798">
        <ele>167</ele>
        <time>2021-03-28T08:07:00Z</time>
      </trkpt>
      <trkpt lat="45.17845" lon="4.90778">
        <ele>167</ele>
        <time>2021-03-28T08:07:04Z</time>
      </trkpt>
      <trkpt lat="45.17848" lon="4.90758">
        <ele>167.6</ele>
        <time>2021-03-28T08:07:08Z</time>
      </trkpt>
      <trkpt lat="45.17852" lon="4.90738">
        <ele>167.6</ele>
        <time>2021-03-28T08:07:12Z</time>
      </trkpt>
      <trkpt lat="45.17855" lon="4.90721">
        <ele>168.4</ele>
        <time>2021-03-28T08:07:16Z</time>
      </trkpt>
      <trkpt lat="45.17855" lon="4.90701">
        <ele>168.4</ele>
        <time>2021-03-28T08:07:20Z</time>
      </trkpt>
      <trkpt lat="45.17853" lon="4.90679">
        <ele>166.2</ele>
        <time>2021-03-28T08:07:24Z</time>
      </trkpt>
      <trkpt lat="45.17847" lon="4.90654">
        <ele>166.6</ele>
        <time>2021-03-28T08:07:28Z</time>
      </trkpt>
      <trkpt lat="45.17841" lon="4.90626">
        <ele>163.8</ele>
        <time>2021-03-28T08:07:32Z</time>
      </trkpt>
      <trkpt lat="45.17834" lon="4.90593">
        <ele>162.6</ele>
        <time>2021-03-28T08:07:36Z</time>
      </trkpt>
      <trkpt lat="45.17826" lon="4.90559">
        <ele>160.8</ele>
        <time>2021-03-28T08:07:40Z</time>
      </trkpt>
      <trkpt lat="45.17819" lon="4.90522">
        <ele>160</ele>
        <time>2021-03-28T08:07:44Z</time>
      </trkpt>
      <trkpt lat="45.17813" lon="4.90485">
        <ele>158.6</ele>
        <time>2021-03-28T08:07:48Z</time>
      </trkpt>
      <trkpt lat="45.17812" lon="4.90444">
        <ele>155.6</ele>
        <time>2021-03-28T08:07:52Z</time>
      </trkpt>
      <trkpt lat="45.17817" lon="4.90403">
        <ele>155.2</ele>
        <time>2021-03-28T08:07:56Z</time>
      </trkpt>
      <trkpt lat="45.17824" lon="4.90363">
        <ele>153</ele>
        <time>2021-03-28T08:08:00Z</time>
      </trkpt>
      <trkpt lat="45.17831" lon="4.90324">
        <ele>152</ele>
        <time>2021-03-28T08:08:04Z</time>
      </trkpt>
      <trkpt lat="45.17838" lon="4.90283">
        <ele>152.2</ele>
        <time>2021-03-28T08:08:08Z</time>
      </trkpt>
      <trkpt lat="45.17844" lon="4.90243">
        <ele>149.4</ele>
        <time>2021-03-28T08:08:12Z</time>
      </trkpt>
      <trkpt lat="45.1785" lon="4.90205">
        <ele>150</ele>
        <time>2021-03-28T08:08:16Z</time>
      </trkpt>
      <trkpt lat="45.17856" lon="4.90168">
        <ele>149.4</ele>
        <time>2021-03-28T08:08:20Z</time>
      </trkpt>
      <trkpt lat="45.17862" lon="4.90133">
        <ele>149.2</ele>
        <time>2021-03-28T08:08:24Z</time>
      </trkpt>
      <trkpt lat="45.17861" lon="4.90099">
        <ele>149.4</ele>
        <time>2021-03-28T08:08:28Z</time>
      </trkpt>
      <trkpt lat="45.17851" lon="4.90071">
        <ele>148.8</ele>
        <time>2021-03-28T08:08:32Z</time>
      </trkpt>
      <trkpt lat="45.17841" lon="4.90046">
        <ele>149.6</ele>
        <time>2021-03-28T08:08:36Z</time>
      </trkpt>
      <trkpt lat="45.17831" lon="4.90021">
        <ele>149.6</ele>
        <time>2021-03-28T08:08:40Z</time>
      </trkpt>
      <trkpt lat="45.1782" lon="4.89996">
        <ele>149.2</ele>
        <time>2021-03-28T08:08:44Z</time>
      </trkpt>
      <trkpt lat="45.17812" lon="4.89971">
        <ele>149.6</ele>
        <time>2021-03-28T08:08:48Z</time>
      </trkpt>
      <trkpt lat="45.17805" lon="4.89948">
        <ele>150.8</ele>
        <time>2021-03-28T08:08:52Z</time>
      </trkpt>
      <trkpt lat="45.17799" lon="4.89923">
        <ele>150.8</ele>
        <time>2021-03-28T08:08:56Z</time>
      </trkpt>
      <trkpt lat="45.17795" lon="4.89897">
        <ele>150.6</ele>
        <time>2021-03-28T08:09:00Z</time>
      </trkpt>
      <trkpt lat="45.17791" lon="4.89871">
        <ele>150.6</ele>
        <time>2021-03-28T08:09:04Z</time>
      </trkpt>
      <trkpt lat="45.17787" lon="4.89843">
        <ele>150.2</ele>
        <time>2021-03-28T08:09:08Z</time>
      </trkpt>
      <trkpt lat="45.17783" lon="4.89815">
        <ele>150.2</ele>
        <time>2021-03-28T08:09:12Z</time>
      </trkpt>
      <trkpt lat="45.17779" lon="4.89786">
        <ele>150.6</ele>
        <time>2021-03-28T08:09:16Z</time>
      </trkpt>
      <trkpt lat="45.17775" lon="4.89756">
        <ele>150</ele>
        <time>2021-03-28T08:09:20Z</time>
      </trkpt>
      <trkpt lat="45.1777" lon="4.89727">
        <ele>150</ele>
        <time>2021-03-28T08:09:24Z</time>
      </trkpt>
      <trkpt lat="45.17765" lon="4.89697">
        <ele>149.8</ele>
        <time>2021-03-28T08:09:28Z</time>
      </trkpt>
      <trkpt lat="45.17761" lon="4.89669">
        <ele>150</ele>
        <time>2021-03-28T08:09:32Z</time>
      </trkpt>
      <trkpt lat="45.17757" lon="4.89641">
        <ele>149.8</ele>
        <time>2021-03-28T08:09:36Z</time>
      </trkpt>
      <trkpt lat="45.17753" lon="4.89614">
        <ele>150.2</ele>
        <time>2021-03-28T08:09:40Z</time>
      </trkpt>
      <trkpt lat="45.17749" lon="4.89586">
        <ele>149.4</ele>
        <time>2021-03-28T08:09:44Z</time>
      </trkpt>
      <trkpt lat="45.17744" lon="4.89559">
        <ele>149.8</ele>
        <time>2021-03-28T08:09:48Z</time>
      </trkpt>
      <trkpt lat="45.1774" lon="4.89531">
        <ele>149.2</ele>
        <time>2021-03-28T08:09:52Z</time>
      </trkpt>
      <trkpt lat="45.17735" lon="4.89503">
        <ele>149.2</ele>
        <time>2021-03-28T08:09:56Z</time>
      </trkpt>
      <trkpt lat="45.17731" lon="4.89474">
        <ele>149.8</ele>
        <time>2021-03-28T08:10:00Z</time>
      </trkpt>
      <trkpt lat="45.17726" lon="4.89445">
        <ele>149.2</ele>
        <time>2021-03-28T08:10:04Z</time>
      </trkpt>
      <trkpt lat="45.17722" lon="4.89416">
        <ele>149.8</ele>
        <time>2021-03-28T08:10:08Z</time>
      </trkpt>
      <trkpt lat="45.17718" lon="4.89387">
        <ele>149.2</ele>
        <time>2021-03-28T08:10:12Z</time>
      </trkpt>
      <trkpt lat="45.17714" lon="4.89358">
        <ele>149</ele>
        <time>2021-03-28T08:10:16Z</time>
      </trkpt>
      <trkpt lat="45.1771" lon="4.89329">
        <ele>148.4</ele>
        <time>2021-03-28T08:10:20Z</time>
      </trkpt>
      <trkpt lat="45.17707" lon="4.89301">
        <ele>148.8</ele>
        <time>2021-03-28T08:10:24Z</time>
      </trkpt>
      <trkpt lat="45.17705" lon="4.89274">
        <ele>148.4</ele>
        <time>2021-03-28T08:10:28Z</time>
      </trkpt>
      <trkpt lat="45.17703" lon="4.89249">
        <ele>149</ele>
        <time>2021-03-28T08:10:32Z</time>
      </trkpt>
      <trkpt lat="45.17702" lon="4.89223">
        <ele>148.2</ele>
        <time>2021-03-28T08:10:36Z</time>
      </trkpt>
      <trkpt lat="45.17701" lon="4.89195">
        <ele>147</ele>
        <time>2021-03-28T08:10:40Z</time>
      </trkpt>
      <trkpt lat="45.17702" lon="4.89165">
        <ele>144.4</ele>
        <time>2021-03-28T08:10:44Z</time>
      </trkpt>
      <trkpt lat="45.17705" lon="4.89131">
        <ele>143</ele>
        <time>2021-03-28T08:10:48Z</time>
      </trkpt>
      <trkpt lat="45.17708" lon="4.89096">
        <ele>141.4</ele>
        <time>2021-03-28T08:10:52Z</time>
      </trkpt>
      <trkpt lat="45.17711" lon="4.89069">
        <ele>141.2</ele>
        <time>2021-03-28T08:10:56Z</time>
      </trkpt>
      <trkpt lat="45.17714" lon="4.89045">
        <ele>139.4</ele>
        <time>2021-03-28T08:11:00Z</time>
      </trkpt>
      <trkpt lat="45.17717" lon="4.89026">
        <ele>139</ele>
        <time>2021-03-28T08:11:04Z</time>
      </trkpt>
      <trkpt lat="45.17735" lon="4.89015">
        <ele>136.4</ele>
        <time>2021-03-28T08:11:08Z</time>
      </trkpt>
      <trkpt lat="45.17756" lon="4.89005">
        <ele>135.8</ele>
        <time>2021-03-28T08:11:12Z</time>
      </trkpt>
      <trkpt lat="45.17776" lon="4.88993">
        <ele>135.8</ele>
        <time>2021-03-28T08:11:16Z</time>
      </trkpt>
      <trkpt lat="45.17794" lon="4.88979">
        <ele>135.6</ele>
        <time>2021-03-28T08:11:20Z</time>
      </trkpt>
      <trkpt lat="45.1781" lon="4.88961">
        <ele>135.4</ele>
        <time>2021-03-28T08:11:24Z</time>
      </trkpt>
      <trkpt lat="45.17826" lon="4.8894">
        <ele>135</ele>
        <time>2021-03-28T08:11:28Z</time>
      </trkpt>
      <trkpt lat="45.17841" lon="4.88919">
        <ele>134.8</ele>
        <time>2021-03-28T08:11:32Z</time>
      </trkpt>
      <trkpt lat="45.17857" lon="4.889">
        <ele>135.2</ele>
        <time>2021-03-28T08:11:36Z</time>
      </trkpt>
      <trkpt lat="45.17874" lon="4.88883">
        <ele>135</ele>
        <time>2021-03-28T08:11:40Z</time>
      </trkpt>
      <trkpt lat="45.17891" lon="4.88868">
        <ele>135.4</ele>
        <time>2021-03-28T08:11:44Z</time>
      </trkpt>
      <trkpt lat="45.17909" lon="4.88853">
        <ele>135</ele>
        <time>2021-03-28T08:11:48Z</time>
      </trkpt>
      <trkpt lat="45.17928" lon="4.88839">
        <ele>135</ele>
        <time>2021-03-28T08:11:52Z</time>
      </trkpt>
      <trkpt lat="45.17946" lon="4.88826">
        <ele>134.2</ele>
        <time>2021-03-28T08:11:56Z</time>
      </trkpt>
      <trkpt lat="45.17963" lon="4.8881">
        <ele>134.8</ele>
        <time>2021-03-28T08:12:00Z</time>
      </trkpt>
      <trkpt lat="45.17981" lon="4.88794">
        <ele>134.2</ele>
        <time>2021-03-28T08:12:04Z</time>
      </trkpt>
      <trkpt lat="45.17999" lon="4.88777">
        <ele>134.4</ele>
        <time>2021-03-28T08:12:08Z</time>
      </trkpt>
      <trkpt lat="45.18017" lon="4.8876">
        <ele>134.6</ele>
        <time>2021-03-28T08:12:12Z</time>
      </trkpt>
      <trkpt lat="45.18034" lon="4.88745">
        <ele>135.4</ele>
        <time>2021-03-28T08:12:16Z</time>
      </trkpt>
      <trkpt lat="45.18046" lon="4.88734">
        <ele>138.2</ele>
        <time>2021-03-28T08:12:20Z</time>
      </trkpt>
      <trkpt lat="45.18056" lon="4.88726">
        <ele>138.8</ele>
        <time>2021-03-28T08:12:24Z</time>
      </trkpt>
      <trkpt lat="45.18067" lon="4.88714">
        <ele>138.4</ele>
        <time>2021-03-28T08:12:28Z</time>
      </trkpt>
      <trkpt lat="45.18081" lon="4.88701">
        <ele>136.2</ele>
        <time>2021-03-28T08:12:32Z</time>
      </trkpt>
      <trkpt lat="45.181" lon="4.88684">
        <ele>134.6</ele>
        <time>2021-03-28T08:12:36Z</time>
      </trkpt>
      <trkpt lat="45.18118" lon="4.88666">
        <ele>134.6</ele>
        <time>2021-03-28T08:12:40Z</time>
      </trkpt>
      <trkpt lat="45.18134" lon="4.88649">
        <ele>136.2</ele>
        <time>2021-03-28T08:12:44Z</time>
      </trkpt>
      <trkpt lat="45.18149" lon="4.88632">
        <ele>135.2</ele>
        <time>2021-03-28T08:12:48Z</time>
      </trkpt>
      <trkpt lat="45.18164" lon="4.88613">
        <ele>135</ele>
        <time>2021-03-28T08:12:52Z</time>
      </trkpt>
      <trkpt lat="45.18178" lon="4.88595">
        <ele>135.4</ele>
        <time>2021-03-28T08:12:56Z</time>
      </trkpt>
      <trkpt lat="45.18194" lon="4.8858">
        <ele>136</ele>
        <time>2021-03-28T08:13:00Z</time>
      </trkpt>
      <trkpt lat="45.18207" lon="4.88567">
        <ele>137.2</ele>
        <time>2021-03-28T08:13:04Z</time>
      </trkpt>
      <trkpt lat="45.1822" lon="4.88557">
        <ele>138</ele>
        <time>2021-03-28T08:13:08Z</time>
      </trkpt>
      <trkpt lat="45.18233" lon="4.8855">
        <ele>138.2</ele>
        <time>2021-03-28T08:13:12Z</time>
      </trkpt>
      <trkpt lat="45.18248" lon="4.88549">
        <ele>138.2</ele>
        <time>2021-03-28T08:13:16Z</time>
      </trkpt>
      <trkpt lat="45.18261" lon="4.88547">
        <ele>139.4</ele>
        <time>2021-03-28T08:13:20Z</time>
      </trkpt>
      <trkpt lat="45.18274" lon="4.88546">
        <ele>139.8</ele>
        <time>2021-03-28T08:13:24Z</time>
      </trkpt>
      <trkpt lat="45.18284" lon="4.88543">
        <ele>141</ele>
        <time>2021-03-28T08:13:28Z</time>
      </trkpt>
      <trkpt lat="45.18294" lon="4.88541">
        <ele>141.8</ele>
        <time>2021-03-28T08:13:32Z</time>
      </trkpt>
      <trkpt lat="45.18302" lon="4.8854">
        <ele>142.6</ele>
        <time>2021-03-28T08:13:36Z</time>
      </trkpt>
      <trkpt lat="45.1831" lon="4.88538">
        <ele>143.4</ele>
        <time>2021-03-28T08:13:40Z</time>
      </trkpt>
      <trkpt lat="45.18316" lon="4.88533">
        <ele>144.2</ele>
        <time>2021-03-28T08:13:44Z</time>
      </trkpt>
      <trkpt lat="45.18326" lon="4.88524">
        <ele>144</ele>
        <time>2021-03-28T08:13:48Z</time>
      </trkpt>
      <trkpt lat="45.18334" lon="4.88516">
        <ele>145</ele>
        <time>2021-03-28T08:13:52Z</time>
      </trkpt>
      <trkpt lat="45.1834" lon="4.88507">
        <ele>145.8</ele>
        <time>2021-03-28T08:13:56Z</time>
      </trkpt>
      <trkpt lat="45.18346" lon="4.88496">
        <ele>146.8</ele>
        <time>2021-03-28T08:14:00Z</time>
      </trkpt>
      <trkpt lat="45.18351" lon="4.88488">
        <ele>147.6</ele>
        <time>2021-03-28T08:14:04Z</time>
      </trkpt>
      <trkpt lat="45.18355" lon="4.88482">
        <ele>147.8</ele>
        <time>2021-03-28T08:14:08Z</time>
      </trkpt>
      <trkpt lat="45.1836" lon="4.88474">
        <ele>148.4</ele>
        <time>2021-03-28T08:14:12Z</time>
      </trkpt>
      <trkpt lat="45.18364" lon="4.88466">
        <ele>149.4</ele>
        <time>2021-03-28T08:14:16Z</time>
      </trkpt>
      <trkpt lat="45.18368" lon="4.88459">
        <ele>150.2</ele>
        <time>2021-03-28T08:14:20Z</time>
      </trkpt>
      <trkpt lat="45.18371" lon="4.88451">
        <ele>151</ele>
        <time>2021-03-28T08:14:24Z</time>
      </trkpt>
      <trkpt lat="45.18376" lon="4.88443">
        <ele>151.6</ele>
        <time>2021-03-28T08:14:28Z</time>
      </trkpt>
      <trkpt lat="45.1838" lon="4.88435">
        <ele>152</ele>
        <time>2021-03-28T08:14:32Z</time>
      </trkpt>
      <trkpt lat="45.18386" lon="4.88429">
        <ele>152.6</ele>
        <time>2021-03-28T08:14:36Z</time>
      </trkpt>
      <trkpt lat="45.18393" lon="4.88423">
        <ele>153.2</ele>
        <time>2021-03-28T08:14:40Z</time>
      </trkpt>
      <trkpt lat="45.18402" lon="4.8842">
        <ele>153.4</ele>
        <time>2021-03-28T08:14:44Z</time>
      </trkpt>
      <trkpt lat="45.18411" lon="4.88417">
        <ele>154.4</ele>
        <time>2021-03-28T08:14:48Z</time>
      </trkpt>
      <trkpt lat="45.1842" lon="4.88416">
        <ele>155</ele>
        <time>2021-03-28T08:14:52Z</time>
      </trkpt>
      <trkpt lat="45.18429" lon="4.88416">
        <ele>155.6</ele>
        <time>2021-03-28T08:14:56Z</time>
      </trkpt>
      <trkpt lat="45.18439" lon="4.88418">
        <ele>155.8</ele>
        <time>2021-03-28T08:15:00Z</time>
      </trkpt>
      <trkpt lat="45.18449" lon="4.8842">
        <ele>156.2</ele>
        <time>2021-03-28T08:15:04Z</time>
      </trkpt>
      <trkpt lat="45.18458" lon="4.88425">
        <ele>156.8</ele>
        <time>2021-03-28T08:15:08Z</time>
      </trkpt>
      <trkpt lat="45.18468" lon="4.8843">
        <ele>157.2</ele>
        <time>2021-03-28T08:15:12Z</time>
      </trkpt>
      <trkpt lat="45.18478" lon="4.88438">
        <ele>157.4</ele>
        <time>2021-03-28T08:15:16Z</time>
      </trkpt>
      <trkpt lat="45.18489" lon="4.88446">
        <ele>157.8</ele>
        <time>2021-03-28T08:15:20Z</time>
      </trkpt>
      <trkpt lat="45.18498" lon="4.88453">
        <ele>158.6</ele>
        <time>2021-03-28T08:15:24Z</time>
      </trkpt>
      <trkpt lat="45.18507" lon="4.88463">
        <ele>158.8</ele>
        <time>2021-03-28T08:15:28Z</time>
      </trkpt>
      <trkpt lat="45.18515" lon="4.88474">
        <ele>159.6</ele>
        <time>2021-03-28T08:15:32Z</time>
      </trkpt>
      <trkpt lat="45.1852" lon="4.88486">
        <ele>160.2</ele>
        <time>2021-03-28T08:15:36Z</time>
      </trkpt>
      <trkpt lat="45.18524" lon="4.885">
        <ele>161</ele>
        <time>2021-03-28T08:15:40Z</time>
      </trkpt>
      <trkpt lat="45.18535" lon="4.88507">
        <ele>161.8</ele>
        <time>2021-03-28T08:15:44Z</time>
      </trkpt>
      <trkpt lat="45.18548" lon="4.88511">
        <ele>162</ele>
        <time>2021-03-28T08:15:48Z</time>
      </trkpt>
      <trkpt lat="45.18559" lon="4.88514">
        <ele>162.8</ele>
        <time>2021-03-28T08:15:52Z</time>
      </trkpt>
      <trkpt lat="45.18569" lon="4.88515">
        <ele>163.2</ele>
        <time>2021-03-28T08:15:56Z</time>
      </trkpt>
      <trkpt lat="45.18581" lon="4.88521">
        <ele>163.2</ele>
        <time>2021-03-28T08:16:00Z</time>
      </trkpt>
      <trkpt lat="45.18591" lon="4.88531">
        <ele>162.8</ele>
        <time>2021-03-28T08:16:04Z</time>
      </trkpt>
      <trkpt lat="45.18601" lon="4.88541">
        <ele>164.2</ele>
        <time>2021-03-28T08:16:08Z</time>
      </trkpt>
      <trkpt lat="45.18612" lon="4.88551">
        <ele>164.4</ele>
        <time>2021-03-28T08:16:12Z</time>
      </trkpt>
      <trkpt lat="45.18621" lon="4.8856">
        <ele>165.8</ele>
        <time>2021-03-28T08:16:16Z</time>
      </trkpt>
      <trkpt lat="45.1863" lon="4.88564">
        <ele>166</ele>
        <time>2021-03-28T08:16:20Z</time>
      </trkpt>
      <trkpt lat="45.18638" lon="4.88567">
        <ele>166.4</ele>
        <time>2021-03-28T08:16:24Z</time>
      </trkpt>
      <trkpt lat="45.18645" lon="4.88569">
        <ele>167.4</ele>
        <time>2021-03-28T08:16:28Z</time>
      </trkpt>
      <trkpt lat="45.18652" lon="4.88571">
        <ele>167.6</ele>
        <time>2021-03-28T08:16:32Z</time>
      </trkpt>
      <trkpt lat="45.18659" lon="4.88575">
        <ele>168.6</ele>
        <time>2021-03-28T08:16:36Z</time>
      </trkpt>
      <trkpt lat="45.18666" lon="4.88577">
        <ele>170.4</ele>
        <time>2021-03-28T08:16:40Z</time>
      </trkpt>
      <trkpt lat="45.18673" lon="4.8858">
        <ele>170.8</ele>
        <time>2021-03-28T08:16:44Z</time>
      </trkpt>
      <trkpt lat="45.1868" lon="4.88582">
        <ele>171.4</ele>
        <time>2021-03-28T08:16:48Z</time>
      </trkpt>
      <trkpt lat="45.18687" lon="4.88584">
        <ele>172.4</ele>
        <time>2021-03-28T08:16:52Z</time>
      </trkpt>
      <trkpt lat="45.18696" lon="4.88585">
        <ele>172.6</ele>
        <time>2021-03-28T08:16:56Z</time>
      </trkpt>
      <trkpt lat="45.18706" lon="4.88586">
        <ele>172.8</ele>
        <time>2021-03-28T08:17:00Z</time>
      </trkpt>
      <trkpt lat="45.18715" lon="4.88586">
        <ele>172.8</ele>
        <time>2021-03-28T08:17:04Z</time>
      </trkpt>
      <trkpt lat="45.18724" lon="4.88586">
        <ele>173.6</ele>
        <time>2021-03-28T08:17:08Z</time>
      </trkpt>
      <trkpt lat="45.18734" lon="4.88586">
        <ele>174.4</ele>
        <time>2021-03-28T08:17:12Z</time>
      </trkpt>
      <trkpt lat="45.18743" lon="4.88586">
        <ele>175</ele>
        <time>2021-03-28T08:17:16Z</time>
      </trkpt>
      <trkpt lat="45.18751" lon="4.88587">
        <ele>175.4</ele>
        <time>2021-03-28T08:17:20Z</time>
      </trkpt>
      <trkpt lat="45.18758" lon="4.88587">
        <ele>176.4</ele>
        <time>2021-03-28T08:17:24Z</time>
      </trkpt>
      <trkpt lat="45.18765" lon="4.88586">
        <ele>177</ele>
        <time>2021-03-28T08:17:28Z</time>
      </trkpt>
      <trkpt lat="45.18772" lon="4.88585">
        <ele>178.2</ele>
        <time>2021-03-28T08:17:32Z</time>
      </trkpt>
      <trkpt lat="45.18778" lon="4.88583">
        <ele>179</ele>
        <time>2021-03-28T08:17:36Z</time>
      </trkpt>
      <trkpt lat="45.18785" lon="4.88583">
        <ele>179.4</ele>
        <time>2021-03-28T08:17:40Z</time>
      </trkpt>
      <trkpt lat="45.18792" lon="4.88582">
        <ele>180</ele>
        <time>2021-03-28T08:17:44Z</time>
      </trkpt>
      <trkpt lat="45.188" lon="4.88584">
        <ele>181</ele>
        <time>2021-03-28T08:17:48Z</time>
      </trkpt>
      <trkpt lat="45.18807" lon="4.88585">
        <ele>181.4</ele>
        <time>2021-03-28T08:17:52Z</time>
      </trkpt>
      <trkpt lat="45.18816" lon="4.88586">
        <ele>181.8</ele>
        <time>2021-03-28T08:17:56Z</time>
      </trkpt>
      <trkpt lat="45.18825" lon="4.88588">
        <ele>182.2</ele>
        <time>2021-03-28T08:18:00Z</time>
      </trkpt>
      <trkpt lat="45.18836" lon="4.8859">
        <ele>182.4</ele>
        <time>2021-03-28T08:18:04Z</time>
      </trkpt>
      <trkpt lat="45.18848" lon="4.88592">
        <ele>183</ele>
        <time>2021-03-28T08:18:08Z</time>
      </trkpt>
      <trkpt lat="45.1886" lon="4.88592">
        <ele>183.2</ele>
        <time>2021-03-28T08:18:12Z</time>
      </trkpt>
      <trkpt lat="45.18873" lon="4.8859">
        <ele>183</ele>
        <time>2021-03-28T08:18:16Z</time>
      </trkpt>
      <trkpt lat="45.18887" lon="4.88587">
        <ele>183.4</ele>
        <time>2021-03-28T08:18:20Z</time>
      </trkpt>
      <trkpt lat="45.18902" lon="4.88587">
        <ele>183</ele>
        <time>2021-03-28T08:18:24Z</time>
      </trkpt>
      <trkpt lat="45.18918" lon="4.88592">
        <ele>183.4</ele>
        <time>2021-03-28T08:18:28Z</time>
      </trkpt>
      <trkpt lat="45.18933" lon="4.886">
        <ele>183.2</ele>
        <time>2021-03-28T08:18:32Z</time>
      </trkpt>
      <trkpt lat="45.18949" lon="4.8861">
        <ele>183.6</ele>
        <time>2021-03-28T08:18:36Z</time>
      </trkpt>
      <trkpt lat="45.18964" lon="4.8862">
        <ele>183.8</ele>
        <time>2021-03-28T08:18:40Z</time>
      </trkpt>
      <trkpt lat="45.18979" lon="4.88631">
        <ele>184</ele>
        <time>2021-03-28T08:18:44Z</time>
      </trkpt>
      <trkpt lat="45.18994" lon="4.88643">
        <ele>184.6</ele>
        <time>2021-03-28T08:18:48Z</time>
      </trkpt>
      <trkpt lat="45.19008" lon="4.88657">
        <ele>184.2</ele>
        <time>2021-03-28T08:18:52Z</time>
      </trkpt>
      <trkpt lat="45.19022" lon="4.8867">
        <ele>184.8</ele>
        <time>2021-03-28T08:18:56Z</time>
      </trkpt>
      <trkpt lat="45.19038" lon="4.88679">
        <ele>185</ele>
        <time>2021-03-28T08:19:00Z</time>
      </trkpt>
      <trkpt lat="45.19056" lon="4.8868">
        <ele>184.4</ele>
        <time>2021-03-28T08:19:04Z</time>
      </trkpt>
      <trkpt lat="45.19073" lon="4.88673">
        <ele>184.6</ele>
        <time>2021-03-28T08:19:08Z</time>
      </trkpt>
      <trkpt lat="45.19088" lon="4.88662">
        <ele>185.4</ele>
        <time>2021-03-28T08:19:12Z</time>
      </trkpt>
      <trkpt lat="45.19103" lon="4.8865">
        <ele>185.8</ele>
        <time>2021-03-28T08:19:16Z</time>
      </trkpt>
      <trkpt lat="45.19118" lon="4.88639">
        <ele>185.6</ele>
        <time>2021-03-28T08:19:20Z</time>
      </trkpt>
      <trkpt lat="45.19134" lon="4.88628">
        <ele>185.6</ele>
        <time>2021-03-28T08:19:24Z</time>
      </trkpt>
      <trkpt lat="45.1915" lon="4.88619">
        <ele>185.2</ele>
        <time>2021-03-28T08:19:28Z</time>
      </trkpt>
      <trkpt lat="45.19166" lon="4.88613">
        <ele>186</ele>
        <time>2021-03-28T08:19:32Z</time>
      </trkpt>
      <trkpt lat="45.19182" lon="4.88607">
        <ele>186</ele>
        <time>2021-03-28T08:19:36Z</time>
      </trkpt>
      <trkpt lat="45.19198" lon="4.88601">
        <ele>186</ele>
        <time>2021-03-28T08:19:40Z</time>
      </trkpt>
      <trkpt lat="45.19213" lon="4.88594">
        <ele>186.8</ele>
        <time>2021-03-28T08:19:44Z</time>
      </trkpt>
      <trkpt lat="45.19223" lon="4.8858">
        <ele>188</ele>
        <time>2021-03-28T08:19:48Z</time>
      </trkpt>
      <trkpt lat="45.19223" lon="4.88558">
        <ele>188</ele>
        <time>2021-03-28T08:19:52Z</time>
      </trkpt>
      <trkpt lat="45.19223" lon="4.88534">
        <ele>187.6</ele>
        <time>2021-03-28T08:19:56Z</time>
      </trkpt>
      <trkpt lat="45.19223" lon="4.88509">
        <ele>187.4</ele>
        <time>2021-03-28T08:20:00Z</time>
      </trkpt>
      <trkpt lat="45.19223" lon="4.88484">
        <ele>187.4</ele>
        <time>2021-03-28T08:20:04Z</time>
      </trkpt>
      <trkpt lat="45.19223" lon="4.88458">
        <ele>186.8</ele>
        <time>2021-03-28T08:20:08Z</time>
      </trkpt>
      <trkpt lat="45.19223" lon="4.88431">
        <ele>186.6</ele>
        <time>2021-03-28T08:20:12Z</time>
      </trkpt>
      <trkpt lat="45.19223" lon="4.88403">
        <ele>186.6</ele>
        <time>2021-03-28T08:20:16Z</time>
      </trkpt>
      <trkpt lat="45.19223" lon="4.88375">
        <ele>186</ele>
        <time>2021-03-28T08:20:20Z</time>
      </trkpt>
      <trkpt lat="45.19223" lon="4.88347">
        <ele>186.2</ele>
        <time>2021-03-28T08:20:24Z</time>
      </trkpt>
      <trkpt lat="45.19231" lon="4.88323">
        <ele>186</ele>
        <time>2021-03-28T08:20:28Z</time>
      </trkpt>
      <trkpt lat="45.19242" lon="4.88301">
        <ele>187</ele>
        <time>2021-03-28T08:20:32Z</time>
      </trkpt>
      <trkpt lat="45.19254" lon="4.88279">
        <ele>187.4</ele>
        <time>2021-03-28T08:20:36Z</time>
      </trkpt>
      <trkpt lat="45.19264" lon="4.88259">
        <ele>188</ele>
        <time>2021-03-28T08:20:40Z</time>
      </trkpt>
      <trkpt lat="45.19274" lon="4.88239">
        <ele>188.4</ele>
        <time>2021-03-28T08:20:44Z</time>
      </trkpt>
      <trkpt lat="45.19283" lon="4.88221">
        <ele>189.2</ele>
        <time>2021-03-28T08:20:48Z</time>
      </trkpt>
      <trkpt lat="45.19291" lon="4.88206">
        <ele>189.8</ele>
        <time>2021-03-28T08:20:52Z</time>
      </trkpt>
      <trkpt lat="45.19299" lon="4.8819">
        <ele>190.2</ele>
        <time>2021-03-28T08:20:56Z</time>
      </trkpt>
      <trkpt lat="45.19306" lon="4.88174">
        <ele>191</ele>
        <time>2021-03-28T08:21:00Z</time>
      </trkpt>
      <trkpt lat="45.19304" lon="4.88157">
        <ele>191.8</ele>
        <time>2021-03-28T08:21:04Z</time>
      </trkpt>
      <trkpt lat="45.193" lon="4.88139">
        <ele>192</ele>
        <time>2021-03-28T08:21:08Z</time>
      </trkpt>
      <trkpt lat="45.19296" lon="4.88119">
        <ele>191.8</ele>
        <time>2021-03-28T08:21:12Z</time>
      </trkpt>
      <trkpt lat="45.1929" lon="4.881">
        <ele>192.8</ele>
        <time>2021-03-28T08:21:16Z</time>
      </trkpt>
      <trkpt lat="45.19283" lon="4.88084">
        <ele>192</ele>
        <time>2021-03-28T08:21:20Z</time>
      </trkpt>
      <trkpt lat="45.19274" lon="4.88069">
        <ele>192.2</ele>
        <time>2021-03-28T08:21:24Z</time>
      </trkpt>
      <trkpt lat="45.19265" lon="4.88053">
        <ele>193</ele>
        <time>2021-03-28T08:21:28Z</time>
      </trkpt>
      <trkpt lat="45.19257" lon="4.88033">
        <ele>193</ele>
        <time>2021-03-28T08:21:32Z</time>
      </trkpt>
      <trkpt lat="45.19251" lon="4.88014">
        <ele>193.6</ele>
        <time>2021-03-28T08:21:36Z</time>
      </trkpt>
      <trkpt lat="45.19245" lon="4.87996">
        <ele>194.2</ele>
        <time>2021-03-28T08:21:40Z</time>
      </trkpt>
      <trkpt lat="45.19239" lon="4.87979">
        <ele>194.8</ele>
        <time>2021-03-28T08:21:44Z</time>
      </trkpt>
      <trkpt lat="45.19234" lon="4.87961">
        <ele>195</ele>
        <time>2021-03-28T08:21:48Z</time>
      </trkpt>
      <trkpt lat="45.19229" lon="4.87944">
        <ele>195</ele>
        <time>2021-03-28T08:21:52Z</time>
      </trkpt>
      <trkpt lat="45.19224" lon="4.87928">
        <ele>196.4</ele>
        <time>2021-03-28T08:21:56Z</time>
      </trkpt>
      <trkpt lat="45.19219" lon="4.87914">
        <ele>196.2</ele>
        <time>2021-03-28T08:22:00Z</time>
      </trkpt>
      <trkpt lat="45.19214" lon="4.87899">
        <ele>196.2</ele>
        <time>2021-03-28T08:22:04Z</time>
      </trkpt>
      <trkpt lat="45.19213" lon="4.87883">
        <ele>195.6</ele>
        <time>2021-03-28T08:22:08Z</time>
      </trkpt>
      <trkpt lat="45.19222" lon="4.87876">
        <ele>195.6</ele>
        <time>2021-03-28T08:22:12Z</time>
      </trkpt>
      <trkpt lat="45.19233" lon="4.87877">
        <ele>196</ele>
        <time>2021-03-28T08:22:16Z</time>
      </trkpt>
      <trkpt lat="45.19242" lon="4.8788">
        <ele>197</ele>
        <time>2021-03-28T08:22:20Z</time>
      </trkpt>
      <trkpt lat="45.1925" lon="4.87882">
        <ele>197.8</ele>
        <time>2021-03-28T08:22:24Z</time>
      </trkpt>
      <trkpt lat="45.19258" lon="4.87883">
        <ele>198</ele>
        <time>2021-03-28T08:22:28Z</time>
      </trkpt>
      <trkpt lat="45.19266" lon="4.87885">
        <ele>199.2</ele>
        <time>2021-03-28T08:22:32Z</time>
      </trkpt>
      <trkpt lat="45.19273" lon="4.87887">
        <ele>199.6</ele>
        <time>2021-03-28T08:22:36Z</time>
      </trkpt>
      <trkpt lat="45.19281" lon="4.87888">
        <ele>200.6</ele>
        <time>2021-03-28T08:22:40Z</time>
      </trkpt>
      <trkpt lat="45.19288" lon="4.8789">
        <ele>200.2</ele>
        <time>2021-03-28T08:22:44Z</time>
      </trkpt>
      <trkpt lat="45.19295" lon="4.87892">
        <ele>201.2</ele>
        <time>2021-03-28T08:22:48Z</time>
      </trkpt>
      <trkpt lat="45.19303" lon="4.87894">
        <ele>201.6</ele>
        <time>2021-03-28T08:22:52Z</time>
      </trkpt>
      <trkpt lat="45.1931" lon="4.87896">
        <ele>202.6</ele>
        <time>2021-03-28T08:22:56Z</time>
      </trkpt>
      <trkpt lat="45.19317" lon="4.87898">
        <ele>202.6</ele>
        <time>2021-03-28T08:23:00Z</time>
      </trkpt>
      <trkpt lat="45.19324" lon="4.879">
        <ele>203.6</ele>
        <time>2021-03-28T08:23:04Z</time>
      </trkpt>
      <trkpt lat="45.19332" lon="4.879">
        <ele>203</ele>
        <time>2021-03-28T08:23:08Z</time>
      </trkpt>
      <trkpt lat="45.19339" lon="4.87896">
        <ele>204.4</ele>
        <time>2021-03-28T08:23:12Z</time>
      </trkpt>
      <trkpt lat="45.19344" lon="4.87885">
        <ele>205.2</ele>
        <time>2021-03-28T08:23:16Z</time>
      </trkpt>
      <trkpt lat="45.19346" lon="4.8787">
        <ele>205</ele>
        <time>2021-03-28T08:23:20Z</time>
      </trkpt>
      <trkpt lat="45.19344" lon="4.87854">
        <ele>205.4</ele>
        <time>2021-03-28T08:23:24Z</time>
      </trkpt>
      <trkpt lat="45.19341" lon="4.87834">
        <ele>205.2</ele>
        <time>2021-03-28T08:23:28Z</time>
      </trkpt>
      <trkpt lat="45.19337" lon="4.87814">
        <ele>206</ele>
        <time>2021-03-28T08:23:32Z</time>
      </trkpt>
      <trkpt lat="45.19334" lon="4.87795">
        <ele>206.2</ele>
        <time>2021-03-28T08:23:36Z</time>
      </trkpt>
      <trkpt lat="45.1933" lon="4.87775">
        <ele>206.2</ele>
        <time>2021-03-28T08:23:40Z</time>
      </trkpt>
      <trkpt lat="45.19326" lon="4.87754">
        <ele>206.2</ele>
        <time>2021-03-28T08:23:44Z</time>
      </trkpt>
      <trkpt lat="45.19323" lon="4.87734">
        <ele>206.4</ele>
        <time>2021-03-28T08:23:48Z</time>
      </trkpt>
      <trkpt lat="45.1932" lon="4.87714">
        <ele>206.2</ele>
        <time>2021-03-28T08:23:52Z</time>
      </trkpt>
      <trkpt lat="45.19316" lon="4.87693">
        <ele>207</ele>
        <time>2021-03-28T08:23:56Z</time>
      </trkpt>
      <trkpt lat="45.19314" lon="4.87672">
        <ele>207</ele>
        <time>2021-03-28T08:24:00Z</time>
      </trkpt>
      <trkpt lat="45.19312" lon="4.8765">
        <ele>207.6</ele>
        <time>2021-03-28T08:24:04Z</time>
      </trkpt>
      <trkpt lat="45.1931" lon="4.87628">
        <ele>208</ele>
        <time>2021-03-28T08:24:08Z</time>
      </trkpt>
      <trkpt lat="45.19307" lon="4.87607">
        <ele>207.6</ele>
        <time>2021-03-28T08:24:12Z</time>
      </trkpt>
      <trkpt lat="45.19305" lon="4.87585">
        <ele>208.6</ele>
        <time>2021-03-28T08:24:16Z</time>
      </trkpt>
      <trkpt lat="45.19303" lon="4.87564">
        <ele>209.2</ele>
        <time>2021-03-28T08:24:20Z</time>
      </trkpt>
      <trkpt lat="45.193" lon="4.87543">
        <ele>209.4</ele>
        <time>2021-03-28T08:24:24Z</time>
      </trkpt>
      <trkpt lat="45.19297" lon="4.87523">
        <ele>209</ele>
        <time>2021-03-28T08:24:28Z</time>
      </trkpt>
      <trkpt lat="45.19294" lon="4.87505">
        <ele>210.2</ele>
        <time>2021-03-28T08:24:32Z</time>
      </trkpt>
      <trkpt lat="45.19289" lon="4.87488">
        <ele>210.2</ele>
        <time>2021-03-28T08:24:36Z</time>
      </trkpt>
      <trkpt lat="45.19285" lon="4.87473">
        <ele>210</ele>
        <time>2021-03-28T08:24:40Z</time>
      </trkpt>
      <trkpt lat="45.19275" lon="4.87462">
        <ele>209.6</ele>
        <time>2021-03-28T08:24:44Z</time>
      </trkpt>
      <trkpt lat="45.19252" lon="4.87459">
        <ele>205.8</ele>
        <time>2021-03-28T08:24:48Z</time>
      </trkpt>
      <trkpt lat="45.19215" lon="4.87462">
        <ele>197.8</ele>
        <time>2021-03-28T08:24:52Z</time>
      </trkpt>
      <trkpt lat="45.19171" lon="4.87466">
        <ele>192.4</ele>
        <time>2021-03-28T08:24:56Z</time>
      </trkpt>
      <trkpt lat="45.19128" lon="4.8747">
        <ele>190.4</ele>
        <time>2021-03-28T08:25:00Z</time>
      </trkpt>
      <trkpt lat="45.19086" lon="4.87473">
        <ele>186.8</ele>
        <time>2021-03-28T08:25:04Z</time>
      </trkpt>
      <trkpt lat="45.19042" lon="4.87475">
        <ele>183.2</ele>
        <time>2021-03-28T08:25:08Z</time>
      </trkpt>
      <trkpt lat="45.19004" lon="4.87467">
        <ele>182.4</ele>
        <time>2021-03-28T08:25:12Z</time>
      </trkpt>
      <trkpt lat="45.1897" lon="4.87458">
        <ele>183</ele>
        <time>2021-03-28T08:25:16Z</time>
      </trkpt>
      <trkpt lat="45.1894" lon="4.87445">
        <ele>183</ele>
        <time>2021-03-28T08:25:20Z</time>
      </trkpt>
      <trkpt lat="45.18916" lon="4.87428">
        <ele>182.6</ele>
        <time>2021-03-28T08:25:24Z</time>
      </trkpt>
      <trkpt lat="45.18894" lon="4.87413">
        <ele>184</ele>
        <time>2021-03-28T08:25:28Z</time>
      </trkpt>
      <trkpt lat="45.18872" lon="4.87404">
        <ele>183.2</ele>
        <time>2021-03-28T08:25:32Z</time>
      </trkpt>
      <trkpt lat="45.18849" lon="4.87397">
        <ele>182.8</ele>
        <time>2021-03-28T08:25:36Z</time>
      </trkpt>
      <trkpt lat="45.18824" lon="4.87392">
        <ele>181</ele>
        <time>2021-03-28T08:25:40Z</time>
      </trkpt>
      <trkpt lat="45.18796" lon="4.87387">
        <ele>178.4</ele>
        <time>2021-03-28T08:25:44Z</time>
      </trkpt>
      <trkpt lat="45.18766" lon="4.87384">
        <ele>175.6</ele>
        <time>2021-03-28T08:25:48Z</time>
      </trkpt>
      <trkpt lat="45.18729" lon="4.87384">
        <ele>169.6</ele>
        <time>2021-03-28T08:25:52Z</time>
      </trkpt>
      <trkpt lat="45.18683" lon="4.87379">
        <ele>164</ele>
        <time>2021-03-28T08:25:56Z</time>
      </trkpt>
      <trkpt lat="45.18642" lon="4.87365">
        <ele>160.2</ele>
        <time>2021-03-28T08:26:00Z</time>
      </trkpt>
      <trkpt lat="45.18606" lon="4.87336">
        <ele>155</ele>
        <time>2021-03-28T08:26:04Z</time>
      </trkpt>
      <trkpt lat="45.18569" lon="4.873">
        <ele>148</ele>
        <time>2021-03-28T08:26:08Z</time>
      </trkpt>
      <trkpt lat="45.18527" lon="4.87276">
        <ele>144</ele>
        <time>2021-03-28T08:26:12Z</time>
      </trkpt>
      <trkpt lat="45.18483" lon="4.87261">
        <ele>139.4</ele>
        <time>2021-03-28T08:26:16Z</time>
      </trkpt>
      <trkpt lat="45.18439" lon="4.87253">
        <ele>135.8</ele>
        <time>2021-03-28T08:26:20Z</time>
      </trkpt>
      <trkpt lat="45.18395" lon="4.87248">
        <ele>136.8</ele>
        <time>2021-03-28T08:26:24Z</time>
      </trkpt>
      <trkpt lat="45.18367" lon="4.87247">
        <ele>140.6</ele>
        <time>2021-03-28T08:26:28Z</time>
      </trkpt>
      <trkpt lat="45.18355" lon="4.87246">
        <ele>141</ele>
        <time>2021-03-28T08:26:32Z</time>
      </trkpt>
      <trkpt lat="45.1834" lon="4.87243">
        <ele>139.8</ele>
        <time>2021-03-28T08:26:36Z</time>
      </trkpt>
      <trkpt lat="45.1832" lon="4.87242">
        <ele>138.6</ele>
        <time>2021-03-28T08:26:40Z</time>
      </trkpt>
      <trkpt lat="45.183" lon="4.87235">
        <ele>138</ele>
        <time>2021-03-28T08:26:44Z</time>
      </trkpt>
      <trkpt lat="45.18278" lon="4.87227">
        <ele>136.6</ele>
        <time>2021-03-28T08:26:48Z</time>
      </trkpt>
      <trkpt lat="45.18257" lon="4.87219">
        <ele>137</ele>
        <time>2021-03-28T08:26:52Z</time>
      </trkpt>
      <trkpt lat="45.18236" lon="4.87218">
        <ele>136.4</ele>
        <time>2021-03-28T08:26:56Z</time>
      </trkpt>
      <trkpt lat="45.18216" lon="4.87223">
        <ele>136</ele>
        <time>2021-03-28T08:27:00Z</time>
      </trkpt>
      <trkpt lat="45.18195" lon="4.87222">
        <ele>135</ele>
        <time>2021-03-28T08:27:04Z</time>
      </trkpt>
      <trkpt lat="45.18173" lon="4.87219">
        <ele>134.4</ele>
        <time>2021-03-28T08:27:08Z</time>
      </trkpt>
      <trkpt lat="45.18152" lon="4.87215">
        <ele>135</ele>
        <time>2021-03-28T08:27:12Z</time>
      </trkpt>
      <trkpt lat="45.18132" lon="4.87215">
        <ele>134.6</ele>
        <time>2021-03-28T08:27:16Z</time>
      </trkpt>
      <trkpt lat="45.18111" lon="4.87222">
        <ele>134.6</ele>
        <time>2021-03-28T08:27:20Z</time>
      </trkpt>
      <trkpt lat="45.1809" lon="4.87228">
        <ele>134</ele>
        <time>2021-03-28T08:27:24Z</time>
      </trkpt>
      <trkpt lat="45.18071" lon="4.87217">
        <ele>134</ele>
        <time>2021-03-28T08:27:28Z</time>
      </trkpt>
      <trkpt lat="45.18057" lon="4.87201">
        <ele>134</ele>
        <time>2021-03-28T08:27:32Z</time>
      </trkpt>
      <trkpt lat="45.18045" lon="4.87184">
        <ele>133.2</ele>
        <time>2021-03-28T08:27:36Z</time>
      </trkpt>
      <trkpt lat="45.18029" lon="4.87163">
        <ele>131.2</ele>
        <time>2021-03-28T08:27:40Z</time>
      </trkpt>
      <trkpt lat="45.18009" lon="4.87141">
        <ele>127.8</ele>
        <time>2021-03-28T08:27:44Z</time>
      </trkpt>
      <trkpt lat="45.17987" lon="4.87118">
        <ele>127.4</ele>
        <time>2021-03-28T08:27:48Z</time>
      </trkpt>
      <trkpt lat="45.17966" lon="4.87096">
        <ele>126.6</ele>
        <time>2021-03-28T08:27:52Z</time>
      </trkpt>
      <trkpt lat="45.17943" lon="4.87078">
        <ele>126.8</ele>
        <time>2021-03-28T08:27:56Z</time>
      </trkpt>
      <trkpt lat="45.1792" lon="4.87063">
        <ele>126.6</ele>
        <time>2021-03-28T08:28:00Z</time>
      </trkpt>
      <trkpt lat="45.17896" lon="4.87051">
        <ele>126.2</ele>
        <time>2021-03-28T08:28:04Z</time>
      </trkpt>
      <trkpt lat="45.17872" lon="4.87037">
        <ele>126.8</ele>
        <time>2021-03-28T08:28:08Z</time>
      </trkpt>
      <trkpt lat="45.17851" lon="4.87026">
        <ele>125.4</ele>
        <time>2021-03-28T08:28:12Z</time>
      </trkpt>
      <trkpt lat="45.1783" lon="4.87016">
        <ele>125.8</ele>
        <time>2021-03-28T08:28:16Z</time>
      </trkpt>
      <trkpt lat="45.1781" lon="4.87006">
        <ele>126</ele>
        <time>2021-03-28T08:28:20Z</time>
      </trkpt>
      <trkpt lat="45.17789" lon="4.86996">
        <ele>126.2</ele>
        <time>2021-03-28T08:28:24Z</time>
      </trkpt>
      <trkpt lat="45.17768" lon="4.86989">
        <ele>126</ele>
        <time>2021-03-28T08:28:28Z</time>
      </trkpt>
      <trkpt lat="45.17748" lon="4.8698">
        <ele>124.6</ele>
        <time>2021-03-28T08:28:32Z</time>
      </trkpt>
      <trkpt lat="45.17726" lon="4.8697">
        <ele>124</ele>
        <time>2021-03-28T08:28:36Z</time>
      </trkpt>
      <trkpt lat="45.17704" lon="4.86959">
        <ele>122.8</ele>
        <time>2021-03-28T08:28:40Z</time>
      </trkpt>
      <trkpt lat="45.17683" lon="4.86948">
        <ele>123.2</ele>
        <time>2021-03-28T08:28:44Z</time>
      </trkpt>
      <trkpt lat="45.17662" lon="4.86937">
        <ele>123</ele>
        <time>2021-03-28T08:28:48Z</time>
      </trkpt>
      <trkpt lat="45.17642" lon="4.86925">
        <ele>123</ele>
        <time>2021-03-28T08:28:52Z</time>
      </trkpt>
      <trkpt lat="45.17631" lon="4.869">
        <ele>121.6</ele>
        <time>2021-03-28T08:28:56Z</time>
      </trkpt>
      <trkpt lat="45.17626" lon="4.86873">
        <ele>122.4</ele>
        <time>2021-03-28T08:29:00Z</time>
      </trkpt>
      <trkpt lat="45.17618" lon="4.86847">
        <ele>121.8</ele>
        <time>2021-03-28T08:29:04Z</time>
      </trkpt>
      <trkpt lat="45.17608" lon="4.86823">
        <ele>122.4</ele>
        <time>2021-03-28T08:29:08Z</time>
      </trkpt>
      <trkpt lat="45.17603" lon="4.86794">
        <ele>121.6</ele>
        <time>2021-03-28T08:29:12Z</time>
      </trkpt>
      <trkpt lat="45.17611" lon="4.86765">
        <ele>120.6</ele>
        <time>2021-03-28T08:29:16Z</time>
      </trkpt>
      <trkpt lat="45.17618" lon="4.86738">
        <ele>121.8</ele>
        <time>2021-03-28T08:29:20Z</time>
      </trkpt>
      <trkpt lat="45.17625" lon="4.8671">
        <ele>121.2</ele>
        <time>2021-03-28T08:29:24Z</time>
      </trkpt>
      <trkpt lat="45.17631" lon="4.86682">
        <ele>121.4</ele>
        <time>2021-03-28T08:29:28Z</time>
      </trkpt>
      <trkpt lat="45.17637" lon="4.86655">
        <ele>120.8</ele>
        <time>2021-03-28T08:29:32Z</time>
      </trkpt>
      <trkpt lat="45.17645" lon="4.86629">
        <ele>122</ele>
        <time>2021-03-28T08:29:36Z</time>
      </trkpt>
      <trkpt lat="45.17654" lon="4.86608">
        <ele>120.8</ele>
        <time>2021-03-28T08:29:40Z</time>
      </trkpt>
      <trkpt lat="45.17662" lon="4.86582">
        <ele>120.8</ele>
        <time>2021-03-28T08:29:44Z</time>
      </trkpt>
      <trkpt lat="45.17672" lon="4.86559">
        <ele>120.8</ele>
        <time>2021-03-28T08:29:48Z</time>
      </trkpt>
      <trkpt lat="45.17681" lon="4.86534">
        <ele>121.2</ele>
        <time>2021-03-28T08:29:52Z</time>
      </trkpt>
      <trkpt lat="45.17695" lon="4.86511">
        <ele>121.8</ele>
        <time>2021-03-28T08:29:56Z</time>
      </trkpt>
      <trkpt lat="45.17709" lon="4.8649">
        <ele>121.8</ele>
        <time>2021-03-28T08:30:00Z</time>
      </trkpt>
      <trkpt lat="45.17723" lon="4.8647">
        <ele>122</ele>
        <time>2021-03-28T08:30:04Z</time>
      </trkpt>
      <trkpt lat="45.17737" lon="4.86448">
        <ele>122.4</ele>
        <time>2021-03-28T08:30:08Z</time>
      </trkpt>
      <trkpt lat="45.1775" lon="4.86427">
        <ele>121.6</ele>
        <time>2021-03-28T08:30:12Z</time>
      </trkpt>
      <trkpt lat="45.17762" lon="4.86405">
        <ele>121</ele>
        <time>2021-03-28T08:30:16Z</time>
      </trkpt>
      <trkpt lat="45.17774" lon="4.86384">
        <ele>122.4</ele>
        <time>2021-03-28T08:30:20Z</time>
      </trkpt>
      <trkpt lat="45.17783" lon="4.86362">
        <ele>122.4</ele>
        <time>2021-03-28T08:30:24Z</time>
      </trkpt>
      <trkpt lat="45.17788" lon="4.86339">
        <ele>120.6</ele>
        <time>2021-03-28T08:30:28Z</time>
      </trkpt>
      <trkpt lat="45.17774" lon="4.86328">
        <ele>120</ele>
        <time>2021-03-28T08:30:32Z</time>
      </trkpt>
      <trkpt lat="45.17754" lon="4.86331">
        <ele>120.2</ele>
        <time>2021-03-28T08:30:36Z</time>
      </trkpt>
      <trkpt lat="45.17734" lon="4.86329">
        <ele>119.8</ele>
        <time>2021-03-28T08:30:40Z</time>
      </trkpt>
      <trkpt lat="45.17716" lon="4.86319">
        <ele>119.8</ele>
        <time>2021-03-28T08:30:44Z</time>
      </trkpt>
      <trkpt lat="45.17698" lon="4.86304">
        <ele>118.6</ele>
        <time>2021-03-28T08:30:48Z</time>
      </trkpt>
      <trkpt lat="45.17684" lon="4.86288">
        <ele>119.8</ele>
        <time>2021-03-28T08:30:52Z</time>
      </trkpt>
      <trkpt lat="45.1767" lon="4.86271">
        <ele>118.4</ele>
        <time>2021-03-28T08:30:56Z</time>
      </trkpt>
      <trkpt lat="45.17656" lon="4.86254">
        <ele>119.6</ele>
        <time>2021-03-28T08:31:00Z</time>
      </trkpt>
      <trkpt lat="45.17643" lon="4.86237">
        <ele>119.8</ele>
        <time>2021-03-28T08:31:04Z</time>
      </trkpt>
      <trkpt lat="45.1763" lon="4.86218">
        <ele>120.6</ele>
        <time>2021-03-28T08:31:08Z</time>
      </trkpt>
      <trkpt lat="45.17614" lon="4.86206">
        <ele>120</ele>
        <time>2021-03-28T08:31:12Z</time>
      </trkpt>
      <trkpt lat="45.17597" lon="4.86195">
        <ele>120.8</ele>
        <time>2021-03-28T08:31:16Z</time>
      </trkpt>
      <trkpt lat="45.17581" lon="4.86187">
        <ele>122</ele>
        <time>2021-03-28T08:31:20Z</time>
      </trkpt>
      <trkpt lat="45.17565" lon="4.86178">
        <ele>122</ele>
        <time>2021-03-28T08:31:24Z</time>
      </trkpt>
      <trkpt lat="45.17549" lon="4.86169">
        <ele>122.2</ele>
        <time>2021-03-28T08:31:28Z</time>
      </trkpt>
      <trkpt lat="45.17533" lon="4.86159">
        <ele>122.4</ele>
        <time>2021-03-28T08:31:32Z</time>
      </trkpt>
      <trkpt lat="45.17517" lon="4.86149">
        <ele>122.8</ele>
        <time>2021-03-28T08:31:36Z</time>
      </trkpt>
      <trkpt lat="45.17501" lon="4.8614">
        <ele>123.2</ele>
        <time>2021-03-28T08:31:40Z</time>
      </trkpt>
      <trkpt lat="45.17486" lon="4.86132">
        <ele>124</ele>
        <time>2021-03-28T08:31:44Z</time>
      </trkpt>
      <trkpt lat="45.17475" lon="4.86123">
        <ele>125.2</ele>
        <time>2021-03-28T08:31:48Z</time>
      </trkpt>
      <trkpt lat="45.1748" lon="4.86107">
        <ele>124.4</ele>
        <time>2021-03-28T08:31:52Z</time>
      </trkpt>
      <trkpt lat="45.17491" lon="4.86085">
        <ele>122.6</ele>
        <time>2021-03-28T08:31:56Z</time>
      </trkpt>
      <trkpt lat="45.17503" lon="4.8606">
        <ele>122</ele>
        <time>2021-03-28T08:32:00Z</time>
      </trkpt>
      <trkpt lat="45.17515" lon="4.86033">
        <ele>121.4</ele>
        <time>2021-03-28T08:32:04Z</time>
      </trkpt>
      <trkpt lat="45.17529" lon="4.86005">
        <ele>120.8</ele>
        <time>2021-03-28T08:32:08Z</time>
      </trkpt>
      <trkpt lat="45.17543" lon="4.85977">
        <ele>119.4</ele>
        <time>2021-03-28T08:32:12Z</time>
      </trkpt>
      <trkpt lat="45.17556" lon="4.85948">
        <ele>119.6</ele>
        <time>2021-03-28T08:32:16Z</time>
      </trkpt>
      <trkpt lat="45.17569" lon="4.8592">
        <ele>119.2</ele>
        <time>2021-03-28T08:32:20Z</time>
      </trkpt>
      <trkpt lat="45.17578" lon="4.8589">
        <ele>118.6</ele>
        <time>2021-03-28T08:32:24Z</time>
      </trkpt>
      <trkpt lat="45.17585" lon="4.85862">
        <ele>119.6</ele>
        <time>2021-03-28T08:32:28Z</time>
      </trkpt>
      <trkpt lat="45.1759" lon="4.85834">
        <ele>120.2</ele>
        <time>2021-03-28T08:32:32Z</time>
      </trkpt>
      <trkpt lat="45.17596" lon="4.85809">
        <ele>121.4</ele>
        <time>2021-03-28T08:32:36Z</time>
      </trkpt>
      <trkpt lat="45.17603" lon="4.85786">
        <ele>122</ele>
        <time>2021-03-28T08:32:40Z</time>
      </trkpt>
      <trkpt lat="45.17615" lon="4.85768">
        <ele>122.4</ele>
        <time>2021-03-28T08:32:44Z</time>
      </trkpt>
      <trkpt lat="45.17627" lon="4.85756">
        <ele>123.2</ele>
        <time>2021-03-28T08:32:48Z</time>
      </trkpt>
      <trkpt lat="45.1764" lon="4.85748">
        <ele>124</ele>
        <time>2021-03-28T08:32:52Z</time>
      </trkpt>
      <trkpt lat="45.17652" lon="4.8574">
        <ele>124.4</ele>
        <time>2021-03-28T08:32:56Z</time>
      </trkpt>
      <trkpt lat="45.17666" lon="4.85733">
        <ele>124.2</ele>
        <time>2021-03-28T08:33:00Z</time>
      </trkpt>
      <trkpt lat="45.17679" lon="4.85726">
        <ele>124.8</ele>
        <time>2021-03-28T08:33:04Z</time>
      </trkpt>
      <trkpt lat="45.17692" lon="4.85718">
        <ele>125.4</ele>
        <time>2021-03-28T08:33:08Z</time>
      </trkpt>
      <trkpt lat="45.17704" lon="4.85711">
        <ele>125.6</ele>
        <time>2021-03-28T08:33:12Z</time>
      </trkpt>
      <trkpt lat="45.17717" lon="4.85702">
        <ele>126</ele>
        <time>2021-03-28T08:33:16Z</time>
      </trkpt>
      <trkpt lat="45.1773" lon="4.8569">
        <ele>126.6</ele>
        <time>2021-03-28T08:33:20Z</time>
      </trkpt>
      <trkpt lat="45.17744" lon="4.85678">
        <ele>127.4</ele>
        <time>2021-03-28T08:33:24Z</time>
      </trkpt>
      <trkpt lat="45.17759" lon="4.85665">
        <ele>126.8</ele>
        <time>2021-03-28T08:33:28Z</time>
      </trkpt>
      <trkpt lat="45.17772" lon="4.85653">
        <ele>126.2</ele>
        <time>2021-03-28T08:33:32Z</time>
      </trkpt>
      <trkpt lat="45.17785" lon="4.85641">
        <ele>126.6</ele>
        <time>2021-03-28T08:33:36Z</time>
      </trkpt>
      <trkpt lat="45.17798" lon="4.8563">
        <ele>126.4</ele>
        <time>2021-03-28T08:33:40Z</time>
      </trkpt>
      <trkpt lat="45.17811" lon="4.85618">
        <ele>127.6</ele>
        <time>2021-03-28T08:33:44Z</time>
      </trkpt>
      <trkpt lat="45.17822" lon="4.85606">
        <ele>128.2</ele>
        <time>2021-03-28T08:33:48Z</time>
      </trkpt>
      <trkpt lat="45.17832" lon="4.85592">
        <ele>128.6</ele>
        <time>2021-03-28T08:33:52Z</time>
      </trkpt>
      <trkpt lat="45.1784" lon="4.85578">
        <ele>129</ele>
        <time>2021-03-28T08:33:56Z</time>
      </trkpt>
      <trkpt lat="45.17848" lon="4.85566">
        <ele>129.4</ele>
        <time>2021-03-28T08:34:00Z</time>
      </trkpt>
      <trkpt lat="45.17856" lon="4.85553">
        <ele>130.6</ele>
        <time>2021-03-28T08:34:04Z</time>
      </trkpt>
      <trkpt lat="45.17866" lon="4.85541">
        <ele>131</ele>
        <time>2021-03-28T08:34:08Z</time>
      </trkpt>
      <trkpt lat="45.17871" lon="4.85525">
        <ele>131.2</ele>
        <time>2021-03-28T08:34:12Z</time>
      </trkpt>
      <trkpt lat="45.17878" lon="4.85509">
        <ele>132.4</ele>
        <time>2021-03-28T08:34:16Z</time>
      </trkpt>
      <trkpt lat="45.17885" lon="4.85494">
        <ele>132.6</ele>
        <time>2021-03-28T08:34:20Z</time>
      </trkpt>
      <trkpt lat="45.17887" lon="4.85476">
        <ele>134</ele>
        <time>2021-03-28T08:34:24Z</time>
      </trkpt>
      <trkpt lat="45.17889" lon="4.85459">
        <ele>133.8</ele>
        <time>2021-03-28T08:34:28Z</time>
      </trkpt>
      <trkpt lat="45.17887" lon="4.85442">
        <ele>134</ele>
        <time>2021-03-28T08:34:32Z</time>
      </trkpt>
      <trkpt lat="45.17883" lon="4.85423">
        <ele>134.4</ele>
        <time>2021-03-28T08:34:36Z</time>
      </trkpt>
      <trkpt lat="45.17878" lon="4.854">
        <ele>134</ele>
        <time>2021-03-28T08:34:40Z</time>
      </trkpt>
      <trkpt lat="45.17875" lon="4.85378">
        <ele>133.2</ele>
        <time>2021-03-28T08:34:44Z</time>
      </trkpt>
      <trkpt lat="45.1787" lon="4.85353">
        <ele>131.8</ele>
        <time>2021-03-28T08:34:48Z</time>
      </trkpt>
      <trkpt lat="45.17866" lon="4.8532">
        <ele>131</ele>
        <time>2021-03-28T08:34:52Z</time>
      </trkpt>
      <trkpt lat="45.17868" lon="4.85285">
        <ele>129.8</ele>
        <time>2021-03-28T08:34:56Z</time>
      </trkpt>
      <trkpt lat="45.17872" lon="4.85251">
        <ele>129.2</ele>
        <time>2021-03-28T08:35:00Z</time>
      </trkpt>
      <trkpt lat="45.17884" lon="4.85219">
        <ele>127.4</ele>
        <time>2021-03-28T08:35:04Z</time>
      </trkpt>
      <trkpt lat="45.17904" lon="4.85194">
        <ele>127.2</ele>
        <time>2021-03-28T08:35:08Z</time>
      </trkpt>
      <trkpt lat="45.17922" lon="4.85168">
        <ele>127</ele>
        <time>2021-03-28T08:35:12Z</time>
      </trkpt>
      <trkpt lat="45.17943" lon="4.85139">
        <ele>125.4</ele>
        <time>2021-03-28T08:35:16Z</time>
      </trkpt>
      <trkpt lat="45.17964" lon="4.85109">
        <ele>123</ele>
        <time>2021-03-28T08:35:20Z</time>
      </trkpt>
      <trkpt lat="45.17978" lon="4.85067">
        <ele>119.6</ele>
        <time>2021-03-28T08:35:24Z</time>
      </trkpt>
      <trkpt lat="45.1799" lon="4.85025">
        <ele>120.2</ele>
        <time>2021-03-28T08:35:28Z</time>
      </trkpt>
      <trkpt lat="45.18013" lon="4.85009">
        <ele>120.8</ele>
        <time>2021-03-28T08:35:32Z</time>
      </trkpt>
      <trkpt lat="45.18021" lon="4.84988">
        <ele>120</ele>
        <time>2021-03-28T08:35:36Z</time>
      </trkpt>
      <trkpt lat="45.1801" lon="4.84964">
        <ele>120</ele>
        <time>2021-03-28T08:35:40Z</time>
      </trkpt>
      <trkpt lat="45.17996" lon="4.8494">
        <ele>119.6</ele>
        <time>2021-03-28T08:35:44Z</time>
      </trkpt>
      <trkpt lat="45.17989" lon="4.84913">
        <ele>119.2</ele>
        <time>2021-03-28T08:35:48Z</time>
      </trkpt>
      <trkpt lat="45.1799" lon="4.84881">
        <ele>118.2</ele>
        <time>2021-03-28T08:35:52Z</time>
      </trkpt>
      <trkpt lat="45.17992" lon="4.84847">
        <ele>117.6</ele>
        <time>2021-03-28T08:35:56Z</time>
      </trkpt>
      <trkpt lat="45.17991" lon="4.84813">
        <ele>117.2</ele>
        <time>2021-03-28T08:36:00Z</time>
      </trkpt>
      <trkpt lat="45.17989" lon="4.84781">
        <ele>116.2</ele>
        <time>2021-03-28T08:36:04Z</time>
      </trkpt>
      <trkpt lat="45.17986" lon="4.84747">
        <ele>116</ele>
        <time>2021-03-28T08:36:08Z</time>
      </trkpt>
      <trkpt lat="45.17978" lon="4.84714">
        <ele>115.4</ele>
        <time>2021-03-28T08:36:12Z</time>
      </trkpt>
      <trkpt lat="45.17969" lon="4.84686">
        <ele>114.8</ele>
        <time>2021-03-28T08:36:16Z</time>
      </trkpt>
      <trkpt lat="45.17957" lon="4.84658">
        <ele>114.2</ele>
        <time>2021-03-28T08:36:20Z</time>
      </trkpt>
      <trkpt lat="45.17946" lon="4.84628">
        <ele>114.2</ele>
        <time>2021-03-28T08:36:24Z</time>
      </trkpt>
      <trkpt lat="45.17934" lon="4.84596">
        <ele>114</ele>
        <time>2021-03-28T08:36:28Z</time>
      </trkpt>
      <trkpt lat="45.17923" lon="4.84567">
        <ele>114.4</ele>
        <time>2021-03-28T08:36:32Z</time>
      </trkpt>
      <trkpt lat="45.17913" lon="4.8454">
        <ele>115.8</ele>
        <time>2021-03-28T08:36:36Z</time>
      </trkpt>
      <trkpt lat="45.17906" lon="4.84516">
        <ele>115.6</ele>
        <time>2021-03-28T08:36:40Z</time>
      </trkpt>
      <trkpt lat="45.17898" lon="4.84492">
        <ele>116</ele>
        <time>2021-03-28T08:36:44Z</time>
      </trkpt>
      <trkpt lat="45.17888" lon="4.84466">
        <ele>116.2</ele>
        <time>2021-03-28T08:36:48Z</time>
      </trkpt>
      <trkpt lat="45.17882" lon="4.84441">
        <ele>115.2</ele>
        <time>2021-03-28T08:36:52Z</time>
      </trkpt>
      <trkpt lat="45.17877" lon="4.84415">
        <ele>116.6</ele>
        <time>2021-03-28T08:36:56Z</time>
      </trkpt>
      <trkpt lat="45.17872" lon="4.84389">
        <ele>116.8</ele>
        <time>2021-03-28T08:37:00Z</time>
      </trkpt>
      <trkpt lat="45.1787" lon="4.84364">
        <ele>115.6</ele>
        <time>2021-03-28T08:37:04Z</time>
      </trkpt>
      <trkpt lat="45.17868" lon="4.84339">
        <ele>116.2</ele>
        <time>2021-03-28T08:37:08Z</time>
      </trkpt>
      <trkpt lat="45.17866" lon="4.84312">
        <ele>117</ele>
        <time>2021-03-28T08:37:12Z</time>
      </trkpt>
      <trkpt lat="45.17872" lon="4.84289">
        <ele>117.2</ele>
        <time>2021-03-28T08:37:16Z</time>
      </trkpt>
      <trkpt lat="45.17884" lon="4.84263">
        <ele>117.2</ele>
        <time>2021-03-28T08:37:20Z</time>
      </trkpt>
      <trkpt lat="45.17896" lon="4.84239">
        <ele>117</ele>
        <time>2021-03-28T08:37:24Z</time>
      </trkpt>
      <trkpt lat="45.17907" lon="4.84208">
        <ele>115.2</ele>
        <time>2021-03-28T08:37:28Z</time>
      </trkpt>
      <trkpt lat="45.17915" lon="4.84175">
        <ele>113.4</ele>
        <time>2021-03-28T08:37:32Z</time>
      </trkpt>
      <trkpt lat="45.17915" lon="4.84175">
        <ele>111.8</ele>
        <time>2021-03-28T08:37:36Z</time>
      </trkpt>
      <trkpt lat="45.17916" lon="4.84105">
        <ele>107</ele>
        <time>2021-03-28T08:37:40Z</time>
      </trkpt>
      <trkpt lat="45.1791" lon="4.84055">
        <ele>104.2</ele>
        <time>2021-03-28T08:37:44Z</time>
      </trkpt>
      <trkpt lat="45.17901" lon="4.84004">
        <ele>102.4</ele>
        <time>2021-03-28T08:37:48Z</time>
      </trkpt>
      <trkpt lat="45.17905" lon="4.83952">
        <ele>103.2</ele>
        <time>2021-03-28T08:37:52Z</time>
      </trkpt>
      <trkpt lat="45.17913" lon="4.83904">
        <ele>101.8</ele>
        <time>2021-03-28T08:37:56Z</time>
      </trkpt>
      <trkpt lat="45.17924" lon="4.83857">
        <ele>101.6</ele>
        <time>2021-03-28T08:38:00Z</time>
      </trkpt>
      <trkpt lat="45.17937" lon="4.83815">
        <ele>100.2</ele>
        <time>2021-03-28T08:38:04Z</time>
      </trkpt>
      <trkpt lat="45.17951" lon="4.83774">
        <ele>100.4</ele>
        <time>2021-03-28T08:38:08Z</time>
      </trkpt>
      <trkpt lat="45.17966" lon="4.83736">
        <ele>99.8</ele>
        <time>2021-03-28T08:38:12Z</time>
      </trkpt>
      <trkpt lat="45.17983" lon="4.83707">
        <ele>100.4</ele>
        <time>2021-03-28T08:38:16Z</time>
      </trkpt>
      <trkpt lat="45.18" lon="4.83681">
        <ele>100.2</ele>
        <time>2021-03-28T08:38:20Z</time>
      </trkpt>
      <trkpt lat="45.18018" lon="4.83658">
        <ele>100</ele>
        <time>2021-03-28T08:38:24Z</time>
      </trkpt>
      <trkpt lat="45.18038" lon="4.8363">
        <ele>99.6</ele>
        <time>2021-03-28T08:38:28Z</time>
      </trkpt>
      <trkpt lat="45.18059" lon="4.83601">
        <ele>100.4</ele>
        <time>2021-03-28T08:38:32Z</time>
      </trkpt>
      <trkpt lat="45.18078" lon="4.8357">
        <ele>99.4</ele>
        <time>2021-03-28T08:38:36Z</time>
      </trkpt>
      <trkpt lat="45.18092" lon="4.83533">
        <ele>100.4</ele>
        <time>2021-03-28T08:38:40Z</time>
      </trkpt>
      <trkpt lat="45.18103" lon="4.83503">
        <ele>99.6</ele>
        <time>2021-03-28T08:38:44Z</time>
      </trkpt>
      <trkpt lat="45.18101" lon="4.83465">
        <ele>100.8</ele>
        <time>2021-03-28T08:38:48Z</time>
      </trkpt>
      <trkpt lat="45.18091" lon="4.83439">
        <ele>101.8</ele>
        <time>2021-03-28T08:38:52Z</time>
      </trkpt>
      <trkpt lat="45.18078" lon="4.83421">
        <ele>102.6</ele>
        <time>2021-03-28T08:38:56Z</time>
      </trkpt>
      <trkpt lat="45.18066" lon="4.83407">
        <ele>103.4</ele>
        <time>2021-03-28T08:39:00Z</time>
      </trkpt>
      <trkpt lat="45.18054" lon="4.83394">
        <ele>104.4</ele>
        <time>2021-03-28T08:39:04Z</time>
      </trkpt>
      <trkpt lat="45.18043" lon="4.83381">
        <ele>103.6</ele>
        <time>2021-03-28T08:39:08Z</time>
      </trkpt>
      <trkpt lat="45.18032" lon="4.83367">
        <ele>104.8</ele>
        <time>2021-03-28T08:39:12Z</time>
      </trkpt>
      <trkpt lat="45.18024" lon="4.83353">
        <ele>105</ele>
        <time>2021-03-28T08:39:16Z</time>
      </trkpt>
      <trkpt lat="45.18014" lon="4.83336">
        <ele>104.4</ele>
        <time>2021-03-28T08:39:20Z</time>
      </trkpt>
      <trkpt lat="45.18001" lon="4.83318">
        <ele>104.6</ele>
        <time>2021-03-28T08:39:24Z</time>
      </trkpt>
      <trkpt lat="45.17983" lon="4.83304">
        <ele>103</ele>
        <time>2021-03-28T08:39:28Z</time>
      </trkpt>
      <trkpt lat="45.17963" lon="4.833">
        <ele>101.8</ele>
        <time>2021-03-28T08:39:32Z</time>
      </trkpt>
      <trkpt lat="45.17941" lon="4.8331">
        <ele>101.2</ele>
        <time>2021-03-28T08:39:36Z</time>
      </trkpt>
      <trkpt lat="45.17917" lon="4.83324">
        <ele>99</ele>
        <time>2021-03-28T08:39:40Z</time>
      </trkpt>
      <trkpt lat="45.1789" lon="4.83334">
        <ele>98.2</ele>
        <time>2021-03-28T08:39:44Z</time>
      </trkpt>
      <trkpt lat="45.17867" lon="4.83338">
        <ele>98.8</ele>
        <time>2021-03-28T08:39:48Z</time>
      </trkpt>
      <trkpt lat="45.17841" lon="4.83338">
        <ele>98</ele>
        <time>2021-03-28T08:39:52Z</time>
      </trkpt>
      <trkpt lat="45.17816" lon="4.83335">
        <ele>98.6</ele>
        <time>2021-03-28T08:39:56Z</time>
      </trkpt>
      <trkpt lat="45.17794" lon="4.83322">
        <ele>98.8</ele>
        <time>2021-03-28T08:40:00Z</time>
      </trkpt>
      <trkpt lat="45.17777" lon="4.83301">
        <ele>97</ele>
        <time>2021-03-28T08:40:04Z</time>
      </trkpt>
      <trkpt lat="45.17766" lon="4.83275">
        <ele>98.2</ele>
        <time>2021-03-28T08:40:08Z</time>
      </trkpt>
      <trkpt lat="45.17754" lon="4.83243">
        <ele>95.8</ele>
        <time>2021-03-28T08:40:12Z</time>
      </trkpt>
      <trkpt lat="45.17742" lon="4.8321">
        <ele>95.6</ele>
        <time>2021-03-28T08:40:16Z</time>
      </trkpt>
      <trkpt lat="45.17732" lon="4.83181">
        <ele>97</ele>
        <time>2021-03-28T08:40:20Z</time>
      </trkpt>
      <trkpt lat="45.17725" lon="4.83148">
        <ele>97.2</ele>
        <time>2021-03-28T08:40:24Z</time>
      </trkpt>
      <trkpt lat="45.17719" lon="4.83111">
        <ele>94.6</ele>
        <time>2021-03-28T08:40:28Z</time>
      </trkpt>
      <trkpt lat="45.17714" lon="4.83074">
        <ele>96.4</ele>
        <time>2021-03-28T08:40:32Z</time>
      </trkpt>
      <trkpt lat="45.17709" lon="4.83039">
        <ele>97</ele>
        <time>2021-03-28T08:40:36Z</time>
      </trkpt>
      <trkpt lat="45.17701" lon="4.83007">
        <ele>96</ele>
        <time>2021-03-28T08:40:40Z</time>
      </trkpt>
      <trkpt lat="45.17684" lon="4.82981">
        <ele>95.2</ele>
        <time>2021-03-28T08:40:44Z</time>
      </trkpt>
      <trkpt lat="45.17662" lon="4.82969">
        <ele>96.4</ele>
        <time>2021-03-28T08:40:48Z</time>
      </trkpt>
      <trkpt lat="45.1764" lon="4.82966">
        <ele>95.4</ele>
        <time>2021-03-28T08:40:52Z</time>
      </trkpt>
      <trkpt lat="45.17617" lon="4.82973">
        <ele>95.8</ele>
        <time>2021-03-28T08:40:56Z</time>
      </trkpt>
      <trkpt lat="45.17594" lon="4.82983">
        <ele>96.6</ele>
        <time>2021-03-28T08:41:00Z</time>
      </trkpt>
      <trkpt lat="45.17572" lon="4.82991">
        <ele>96</ele>
        <time>2021-03-28T08:41:04Z</time>
      </trkpt>
      <trkpt lat="45.17552" lon="4.82998">
        <ele>98</ele>
        <time>2021-03-28T08:41:08Z</time>
      </trkpt>
      <trkpt lat="45.17532" lon="4.83002">
        <ele>98</ele>
        <time>2021-03-28T08:41:12Z</time>
      </trkpt>
      <trkpt lat="45.17513" lon="4.83008">
        <ele>98</ele>
        <time>2021-03-28T08:41:16Z</time>
      </trkpt>
      <trkpt lat="45.17492" lon="4.83014">
        <ele>98</ele>
        <time>2021-03-28T08:41:20Z</time>
      </trkpt>
      <trkpt lat="45.17472" lon="4.83013">
        <ele>98</ele>
        <time>2021-03-28T08:41:24Z</time>
      </trkpt>
      <trkpt lat="45.17453" lon="4.83007">
        <ele>98.6</ele>
        <time>2021-03-28T08:41:28Z</time>
      </trkpt>
      <trkpt lat="45.17435" lon="4.82994">
        <ele>98.4</ele>
        <time>2021-03-28T08:41:32Z</time>
      </trkpt>
      <trkpt lat="45.1742" lon="4.82983">
        <ele>98.4</ele>
        <time>2021-03-28T08:41:36Z</time>
      </trkpt>
      <trkpt lat="45.17402" lon="4.82964">
        <ele>97.4</ele>
        <time>2021-03-28T08:41:40Z</time>
      </trkpt>
      <trkpt lat="45.17386" lon="4.8294">
        <ele>95.6</ele>
        <time>2021-03-28T08:41:44Z</time>
      </trkpt>
      <trkpt lat="45.17374" lon="4.82912">
        <ele>95.8</ele>
        <time>2021-03-28T08:41:48Z</time>
      </trkpt>
      <trkpt lat="45.1737" lon="4.8288">
        <ele>94.2</ele>
        <time>2021-03-28T08:41:52Z</time>
      </trkpt>
      <trkpt lat="45.17374" lon="4.82842">
        <ele>94</ele>
        <time>2021-03-28T08:41:56Z</time>
      </trkpt>
      <trkpt lat="45.17382" lon="4.82805">
        <ele>91.8</ele>
        <time>2021-03-28T08:42:00Z</time>
      </trkpt>
      <trkpt lat="45.17393" lon="4.82765">
        <ele>91.2</ele>
        <time>2021-03-28T08:42:04Z</time>
      </trkpt>
      <trkpt lat="45.17406" lon="4.82728">
        <ele>90.4</ele>
        <time>2021-03-28T08:42:08Z</time>
      </trkpt>
      <trkpt lat="45.17419" lon="4.82693">
        <ele>89.2</ele>
        <time>2021-03-28T08:42:12Z</time>
      </trkpt>
      <trkpt lat="45.17426" lon="4.82655">
        <ele>88.8</ele>
        <time>2021-03-28T08:42:16Z</time>
      </trkpt>
      <trkpt lat="45.17424" lon="4.82618">
        <ele>87.8</ele>
        <time>2021-03-28T08:42:20Z</time>
      </trkpt>
      <trkpt lat="45.17413" lon="4.82583">
        <ele>88.8</ele>
        <time>2021-03-28T08:42:24Z</time>
      </trkpt>
      <trkpt lat="45.17397" lon="4.82553">
        <ele>89.2</ele>
        <time>2021-03-28T08:42:28Z</time>
      </trkpt>
      <trkpt lat="45.17381" lon="4.82528">
        <ele>89.2</ele>
        <time>2021-03-28T08:42:32Z</time>
      </trkpt>
      <trkpt lat="45.17364" lon="4.82502">
        <ele>88</ele>
        <time>2021-03-28T08:42:36Z</time>
      </trkpt>
      <trkpt lat="45.17349" lon="4.82474">
        <ele>87.6</ele>
        <time>2021-03-28T08:42:40Z</time>
      </trkpt>
      <trkpt lat="45.17337" lon="4.82446">
        <ele>88.4</ele>
        <time>2021-03-28T08:42:44Z</time>
      </trkpt>
      <trkpt lat="45.17327" lon="4.82421">
        <ele>88.6</ele>
        <time>2021-03-28T08:42:48Z</time>
      </trkpt>
      <trkpt lat="45.17317" lon="4.82399">
        <ele>89</ele>
        <time>2021-03-28T08:42:52Z</time>
      </trkpt>
      <trkpt lat="45.17314" lon="4.82372">
        <ele>89.2</ele>
        <time>2021-03-28T08:42:56Z</time>
      </trkpt>
      <trkpt lat="45.17311" lon="4.82347">
        <ele>90.4</ele>
        <time>2021-03-28T08:43:00Z</time>
      </trkpt>
      <trkpt lat="45.17311" lon="4.82323">
        <ele>91.4</ele>
        <time>2021-03-28T08:43:04Z</time>
      </trkpt>
      <trkpt lat="45.17318" lon="4.82303">
        <ele>91.6</ele>
        <time>2021-03-28T08:43:08Z</time>
      </trkpt>
      <trkpt lat="45.1733" lon="4.82283">
        <ele>91.4</ele>
        <time>2021-03-28T08:43:12Z</time>
      </trkpt>
      <trkpt lat="45.17345" lon="4.82268">
        <ele>91.6</ele>
        <time>2021-03-28T08:43:16Z</time>
      </trkpt>
      <trkpt lat="45.17362" lon="4.82254">
        <ele>91</ele>
        <time>2021-03-28T08:43:20Z</time>
      </trkpt>
      <trkpt lat="45.17381" lon="4.82238">
        <ele>88</ele>
        <time>2021-03-28T08:43:24Z</time>
      </trkpt>
      <trkpt lat="45.17402" lon="4.82222">
        <ele>87</ele>
        <time>2021-03-28T08:43:28Z</time>
      </trkpt>
      <trkpt lat="45.17423" lon="4.82206">
        <ele>86</ele>
        <time>2021-03-28T08:43:32Z</time>
      </trkpt>
      <trkpt lat="45.17444" lon="4.8219">
        <ele>86.8</ele>
        <time>2021-03-28T08:43:36Z</time>
      </trkpt>
      <trkpt lat="45.17465" lon="4.82177">
        <ele>86.6</ele>
        <time>2021-03-28T08:43:40Z</time>
      </trkpt>
      <trkpt lat="45.17486" lon="4.8217">
        <ele>86.6</ele>
        <time>2021-03-28T08:43:44Z</time>
      </trkpt>
      <trkpt lat="45.17503" lon="4.82152">
        <ele>86.6</ele>
        <time>2021-03-28T08:43:48Z</time>
      </trkpt>
      <trkpt lat="45.1752" lon="4.82137">
        <ele>87.2</ele>
        <time>2021-03-28T08:43:52Z</time>
      </trkpt>
      <trkpt lat="45.17535" lon="4.82117">
        <ele>85.6</ele>
        <time>2021-03-28T08:43:56Z</time>
      </trkpt>
      <trkpt lat="45.17552" lon="4.82098">
        <ele>86</ele>
        <time>2021-03-28T08:44:00Z</time>
      </trkpt>
      <trkpt lat="45.17569" lon="4.82078">
        <ele>85.2</ele>
        <time>2021-03-28T08:44:04Z</time>
      </trkpt>
      <trkpt lat="45.17584" lon="4.82054">
        <ele>84.6</ele>
        <time>2021-03-28T08:44:08Z</time>
      </trkpt>
      <trkpt lat="45.17597" lon="4.82027">
        <ele>83.4</ele>
        <time>2021-03-28T08:44:12Z</time>
      </trkpt>
      <trkpt lat="45.17608" lon="4.82">
        <ele>84.2</ele>
        <time>2021-03-28T08:44:16Z</time>
      </trkpt>
      <trkpt lat="45.17622" lon="4.81977">
        <ele>83.6</ele>
        <time>2021-03-28T08:44:20Z</time>
      </trkpt>
      <trkpt lat="45.17638" lon="4.81955">
        <ele>83</ele>
        <time>2021-03-28T08:44:24Z</time>
      </trkpt>
      <trkpt lat="45.17654" lon="4.81935">
        <ele>83.4</ele>
        <time>2021-03-28T08:44:28Z</time>
      </trkpt>
      <trkpt lat="45.17672" lon="4.8192">
        <ele>82.6</ele>
        <time>2021-03-28T08:44:32Z</time>
      </trkpt>
      <trkpt lat="45.17686" lon="4.81904">
        <ele>83.4</ele>
        <time>2021-03-28T08:44:36Z</time>
      </trkpt>
      <trkpt lat="45.17683" lon="4.81876">
        <ele>83.4</ele>
        <time>2021-03-28T08:44:40Z</time>
      </trkpt>
      <trkpt lat="45.17691" lon="4.81846">
        <ele>82.8</ele>
        <time>2021-03-28T08:44:44Z</time>
      </trkpt>
      <trkpt lat="45.17699" lon="4.81817">
        <ele>82.2</ele>
        <time>2021-03-28T08:44:48Z</time>
      </trkpt>
      <trkpt lat="45.17706" lon="4.81788">
        <ele>82.4</ele>
        <time>2021-03-28T08:44:52Z</time>
      </trkpt>
      <trkpt lat="45.17716" lon="4.8176">
        <ele>82.2</ele>
        <time>2021-03-28T08:44:56Z</time>
      </trkpt>
      <trkpt lat="45.17717" lon="4.81731">
        <ele>80.8</ele>
        <time>2021-03-28T08:45:00Z</time>
      </trkpt>
      <trkpt lat="45.17719" lon="4.817">
        <ele>81.4</ele>
        <time>2021-03-28T08:45:04Z</time>
      </trkpt>
      <trkpt lat="45.17718" lon="4.81669">
        <ele>80.6</ele>
        <time>2021-03-28T08:45:08Z</time>
      </trkpt>
      <trkpt lat="45.17717" lon="4.81639">
        <ele>81</ele>
        <time>2021-03-28T08:45:12Z</time>
      </trkpt>
      <trkpt lat="45.17715" lon="4.8161">
        <ele>82</ele>
        <time>2021-03-28T08:45:16Z</time>
      </trkpt>
      <trkpt lat="45.17714" lon="4.81582">
        <ele>82</ele>
        <time>2021-03-28T08:45:20Z</time>
      </trkpt>
      <trkpt lat="45.17719" lon="4.8156">
        <ele>83.4</ele>
        <time>2021-03-28T08:45:24Z</time>
      </trkpt>
      <trkpt lat="45.17733" lon="4.81551">
        <ele>82.6</ele>
        <time>2021-03-28T08:45:28Z</time>
      </trkpt>
      <trkpt lat="45.17746" lon="4.81544">
        <ele>82.6</ele>
        <time>2021-03-28T08:45:32Z</time>
      </trkpt>
      <trkpt lat="45.17762" lon="4.81539">
        <ele>82.4</ele>
        <time>2021-03-28T08:45:36Z</time>
      </trkpt>
      <trkpt lat="45.17771" lon="4.81522">
        <ele>83</ele>
        <time>2021-03-28T08:45:40Z</time>
      </trkpt>
      <trkpt lat="45.17764" lon="4.815">
        <ele>83.8</ele>
        <time>2021-03-28T08:45:44Z</time>
      </trkpt>
      <trkpt lat="45.17757" lon="4.81481">
        <ele>83.8</ele>
        <time>2021-03-28T08:45:48Z</time>
      </trkpt>
      <trkpt lat="45.1775" lon="4.81464">
        <ele>84</ele>
        <time>2021-03-28T08:45:52Z</time>
      </trkpt>
      <trkpt lat="45.1775" lon="4.81443">
        <ele>83.6</ele>
        <time>2021-03-28T08:45:56Z</time>
      </trkpt>
      <trkpt lat="45.17763" lon="4.8143">
        <ele>83.8</ele>
        <time>2021-03-28T08:46:00Z</time>
      </trkpt>
      <trkpt lat="45.17776" lon="4.81419">
        <ele>83.2</ele>
        <time>2021-03-28T08:46:04Z</time>
      </trkpt>
      <trkpt lat="45.17789" lon="4.81423">
        <ele>82</ele>
        <time>2021-03-28T08:46:08Z</time>
      </trkpt>
      <trkpt lat="45.17798" lon="4.81441">
        <ele>82.2</ele>
        <time>2021-03-28T08:46:12Z</time>
      </trkpt>
      <trkpt lat="45.17815" lon="4.81437">
        <ele>82.8</ele>
        <time>2021-03-28T08:46:16Z</time>
      </trkpt>
      <trkpt lat="45.17831" lon="4.81434">
        <ele>83.2</ele>
        <time>2021-03-28T08:46:20Z</time>
      </trkpt>
      <trkpt lat="45.17846" lon="4.81433">
        <ele>83.8</ele>
        <time>2021-03-28T08:46:24Z</time>
      </trkpt>
      <trkpt lat="45.17858" lon="4.81431">
        <ele>84.2</ele>
        <time>2021-03-28T08:46:28Z</time>
      </trkpt>
      <trkpt lat="45.17861" lon="4.81438">
        <ele>83.6</ele>
        <time>2021-03-28T08:46:32Z</time>
      </trkpt>
      <trkpt lat="45.17873" lon="4.81442">
        <ele>84.6</ele>
        <time>2021-03-28T08:46:36Z</time>
      </trkpt>
      <trkpt lat="45.17882" lon="4.81445">
        <ele>85</ele>
        <time>2021-03-28T08:46:40Z</time>
      </trkpt>
      <trkpt lat="45.17894" lon="4.81443">
        <ele>86.2</ele>
        <time>2021-03-28T08:46:44Z</time>
      </trkpt>
      <trkpt lat="45.17906" lon="4.81452">
        <ele>86.4</ele>
        <time>2021-03-28T08:46:48Z</time>
      </trkpt>
      <trkpt lat="45.17908" lon="4.81462">
        <ele>87.6</ele>
        <time>2021-03-28T08:46:52Z</time>
      </trkpt>
      <trkpt lat="45.17916" lon="4.8147">
        <ele>87.2</ele>
        <time>2021-03-28T08:46:56Z</time>
      </trkpt>
      <trkpt lat="45.1793" lon="4.81473">
        <ele>87.4</ele>
        <time>2021-03-28T08:47:00Z</time>
      </trkpt>
      <trkpt lat="45.17944" lon="4.81475">
        <ele>88.4</ele>
        <time>2021-03-28T08:47:04Z</time>
      </trkpt>
      <trkpt lat="45.17957" lon="4.81476">
        <ele>87.8</ele>
        <time>2021-03-28T08:47:08Z</time>
      </trkpt>
      <trkpt lat="45.1797" lon="4.81473">
        <ele>88</ele>
        <time>2021-03-28T08:47:12Z</time>
      </trkpt>
      <trkpt lat="45.17981" lon="4.81465">
        <ele>88.8</ele>
        <time>2021-03-28T08:47:16Z</time>
      </trkpt>
      <trkpt lat="45.17986" lon="4.81473">
        <ele>89</ele>
        <time>2021-03-28T08:47:20Z</time>
      </trkpt>
      <trkpt lat="45.17988" lon="4.81486">
        <ele>89.6</ele>
        <time>2021-03-28T08:47:24Z</time>
      </trkpt>
      <trkpt lat="45.17992" lon="4.81502">
        <ele>90</ele>
        <time>2021-03-28T08:47:28Z</time>
      </trkpt>
      <trkpt lat="45.17996" lon="4.81511">
        <ele>89.8</ele>
        <time>2021-03-28T08:47:32Z</time>
      </trkpt>
      <trkpt lat="45.18004" lon="4.81518">
        <ele>89.4</ele>
        <time>2021-03-28T08:47:36Z</time>
      </trkpt>
      <trkpt lat="45.18014" lon="4.81517">
        <ele>89</ele>
        <time>2021-03-28T08:47:40Z</time>
      </trkpt>
      <trkpt lat="45.18027" lon="4.81516">
        <ele>88.4</ele>
        <time>2021-03-28T08:47:44Z</time>
      </trkpt>
      <trkpt lat="45.18039" lon="4.81508">
        <ele>87.8</ele>
        <time>2021-03-28T08:47:48Z</time>
      </trkpt>
      <trkpt lat="45.18052" lon="4.81506">
        <ele>88.8</ele>
        <time>2021-03-28T08:47:52Z</time>
      </trkpt>
      <trkpt lat="45.18062" lon="4.81497">
        <ele>88.8</ele>
        <time>2021-03-28T08:47:56Z</time>
      </trkpt>
      <trkpt lat="45.18072" lon="4.81496">
        <ele>88.4</ele>
        <time>2021-03-28T08:48:00Z</time>
      </trkpt>
      <trkpt lat="45.18082" lon="4.81497">
        <ele>88.8</ele>
        <time>2021-03-28T08:48:04Z</time>
      </trkpt>
      <trkpt lat="45.18091" lon="4.81494">
        <ele>88.8</ele>
        <time>2021-03-28T08:48:08Z</time>
      </trkpt>
      <trkpt lat="45.18097" lon="4.81488">
        <ele>89.4</ele>
        <time>2021-03-28T08:48:12Z</time>
      </trkpt>
      <trkpt lat="45.1809" lon="4.81483">
        <ele>89</ele>
        <time>2021-03-28T08:48:23Z</time>
      </trkpt>
      <trkpt lat="45.18081" lon="4.81483">
        <ele>88.8</ele>
        <time>2021-03-28T08:48:27Z</time>
      </trkpt>
      <trkpt lat="45.18069" lon="4.81488">
        <ele>88</ele>
        <time>2021-03-28T08:48:31Z</time>
      </trkpt>
      <trkpt lat="45.18066" lon="4.81502">
        <ele>88.8</ele>
        <time>2021-03-28T08:48:35Z</time>
      </trkpt>
      <trkpt lat="45.18064" lon="4.81516">
        <ele>89.4</ele>
        <time>2021-03-28T08:48:39Z</time>
      </trkpt>
      <trkpt lat="45.18064" lon="4.81527">
        <ele>90.2</ele>
        <time>2021-03-28T08:48:43Z</time>
      </trkpt>
      <trkpt lat="45.18062" lon="4.81537">
        <ele>91.4</ele>
        <time>2021-03-28T08:48:47Z</time>
      </trkpt>
      <trkpt lat="45.18061" lon="4.81546">
        <ele>92.2</ele>
        <time>2021-03-28T08:48:51Z</time>
      </trkpt>
      <trkpt lat="45.1806" lon="4.81556">
        <ele>92.6</ele>
        <time>2021-03-28T08:48:55Z</time>
      </trkpt>
      <trkpt lat="45.1806" lon="4.81556">
        <ele>93</ele>
        <time>2021-03-28T08:48:59Z</time>
      </trkpt>
      <trkpt lat="45.18055" lon="4.81569">
        <ele>93.4</ele>
        <time>2021-03-28T08:49:03Z</time>
      </trkpt>
      <trkpt lat="45.18048" lon="4.81584">
        <ele>94.6</ele>
        <time>2021-03-28T08:49:07Z</time>
      </trkpt>
      <trkpt lat="45.18047" lon="4.81599">
        <ele>95.2</ele>
        <time>2021-03-28T08:49:11Z</time>
      </trkpt>
      <trkpt lat="45.18044" lon="4.81617">
        <ele>95.4</ele>
        <time>2021-03-28T08:49:15Z</time>
      </trkpt>
      <trkpt lat="45.18039" lon="4.8163">
        <ele>96.6</ele>
        <time>2021-03-28T08:49:19Z</time>
      </trkpt>
      <trkpt lat="45.18032" lon="4.8164">
        <ele>97.8</ele>
        <time>2021-03-28T08:49:23Z</time>
      </trkpt>
      <trkpt lat="45.18025" lon="4.81648">
        <ele>98.2</ele>
        <time>2021-03-28T08:49:27Z</time>
      </trkpt>
      <trkpt lat="45.18017" lon="4.81654">
        <ele>98.6</ele>
        <time>2021-03-28T08:49:31Z</time>
      </trkpt>
      <trkpt lat="45.18011" lon="4.81663">
        <ele>99.2</ele>
        <time>2021-03-28T08:49:35Z</time>
      </trkpt>
      <trkpt lat="45.18004" lon="4.8167">
        <ele>100</ele>
        <time>2021-03-28T08:49:39Z</time>
      </trkpt>
      <trkpt lat="45.17995" lon="4.81675">
        <ele>100.6</ele>
        <time>2021-03-28T08:49:43Z</time>
      </trkpt>
      <trkpt lat="45.1799" lon="4.8169">
        <ele>100.8</ele>
        <time>2021-03-28T08:49:47Z</time>
      </trkpt>
      <trkpt lat="45.17989" lon="4.8171">
        <ele>100.4</ele>
        <time>2021-03-28T08:49:51Z</time>
      </trkpt>
      <trkpt lat="45.17993" lon="4.81726">
        <ele>100.6</ele>
        <time>2021-03-28T08:49:55Z</time>
      </trkpt>
      <trkpt lat="45.18005" lon="4.8173">
        <ele>100.4</ele>
        <time>2021-03-28T08:49:59Z</time>
      </trkpt>
      <trkpt lat="45.18018" lon="4.81727">
        <ele>100.4</ele>
        <time>2021-03-28T08:50:03Z</time>
      </trkpt>
      <trkpt lat="45.18032" lon="4.81722">
        <ele>100.4</ele>
        <time>2021-03-28T08:50:07Z</time>
      </trkpt>
      <trkpt lat="45.18046" lon="4.81718">
        <ele>100.6</ele>
        <time>2021-03-28T08:50:11Z</time>
      </trkpt>
      <trkpt lat="45.18061" lon="4.81713">
        <ele>100.8</ele>
        <time>2021-03-28T08:50:15Z</time>
      </trkpt>
      <trkpt lat="45.18076" lon="4.81708">
        <ele>100.8</ele>
        <time>2021-03-28T08:50:19Z</time>
      </trkpt>
      <trkpt lat="45.1809" lon="4.81703">
        <ele>100.8</ele>
        <time>2021-03-28T08:50:23Z</time>
      </trkpt>
      <trkpt lat="45.18104" lon="4.81698">
        <ele>100.6</ele>
        <time>2021-03-28T08:50:27Z</time>
      </trkpt>
      <trkpt lat="45.18119" lon="4.81692">
        <ele>100.6</ele>
        <time>2021-03-28T08:50:31Z</time>
      </trkpt>
      <trkpt lat="45.18133" lon="4.81687">
        <ele>101.2</ele>
        <time>2021-03-28T08:50:35Z</time>
      </trkpt>
      <trkpt lat="45.18148" lon="4.81682">
        <ele>101.4</ele>
        <time>2021-03-28T08:50:39Z</time>
      </trkpt>
      <trkpt lat="45.18161" lon="4.81676">
        <ele>101.8</ele>
        <time>2021-03-28T08:50:43Z</time>
      </trkpt>
      <trkpt lat="45.18173" lon="4.81667">
        <ele>101.4</ele>
        <time>2021-03-28T08:50:47Z</time>
      </trkpt>
      <trkpt lat="45.18186" lon="4.81656">
        <ele>100.4</ele>
        <time>2021-03-28T08:50:51Z</time>
      </trkpt>
      <trkpt lat="45.18198" lon="4.81645">
        <ele>100.2</ele>
        <time>2021-03-28T08:50:55Z</time>
      </trkpt>
      <trkpt lat="45.18212" lon="4.81634">
        <ele>99.6</ele>
        <time>2021-03-28T08:50:59Z</time>
      </trkpt>
      <trkpt lat="45.18226" lon="4.81622">
        <ele>99.4</ele>
        <time>2021-03-28T08:51:03Z</time>
      </trkpt>
      <trkpt lat="45.18241" lon="4.81607">
        <ele>99.6</ele>
        <time>2021-03-28T08:51:07Z</time>
      </trkpt>
      <trkpt lat="45.18255" lon="4.81594">
        <ele>99</ele>
        <time>2021-03-28T08:51:11Z</time>
      </trkpt>
      <trkpt lat="45.1827" lon="4.81583">
        <ele>98.6</ele>
        <time>2021-03-28T08:51:15Z</time>
      </trkpt>
      <trkpt lat="45.18287" lon="4.81567">
        <ele>98.2</ele>
        <time>2021-03-28T08:51:19Z</time>
      </trkpt>
      <trkpt lat="45.18304" lon="4.81554">
        <ele>97.2</ele>
        <time>2021-03-28T08:51:23Z</time>
      </trkpt>
      <trkpt lat="45.18322" lon="4.81543">
        <ele>97</ele>
        <time>2021-03-28T08:51:27Z</time>
      </trkpt>
      <trkpt lat="45.18336" lon="4.81532">
        <ele>97.2</ele>
        <time>2021-03-28T08:51:31Z</time>
      </trkpt>
      <trkpt lat="45.18343" lon="4.81521">
        <ele>97.2</ele>
        <time>2021-03-28T08:51:35Z</time>
      </trkpt>
      <trkpt lat="45.18353" lon="4.81516">
        <ele>96.6</ele>
        <time>2021-03-28T08:51:39Z</time>
      </trkpt>
      <trkpt lat="45.18366" lon="4.81509">
        <ele>97.8</ele>
        <time>2021-03-28T08:51:43Z</time>
      </trkpt>
      <trkpt lat="45.18379" lon="4.81507">
        <ele>98.2</ele>
        <time>2021-03-28T08:51:47Z</time>
      </trkpt>
      <trkpt lat="45.18393" lon="4.81502">
        <ele>98.4</ele>
        <time>2021-03-28T08:51:51Z</time>
      </trkpt>
      <trkpt lat="45.18408" lon="4.81498">
        <ele>98.2</ele>
        <time>2021-03-28T08:51:55Z</time>
      </trkpt>
      <trkpt lat="45.18424" lon="4.81496">
        <ele>98</ele>
        <time>2021-03-28T08:51:59Z</time>
      </trkpt>
      <trkpt lat="45.1844" lon="4.81492">
        <ele>96</ele>
        <time>2021-03-28T08:52:03Z</time>
      </trkpt>
      <trkpt lat="45.18461" lon="4.81486">
        <ele>94.6</ele>
        <time>2021-03-28T08:52:07Z</time>
      </trkpt>
      <trkpt lat="45.18484" lon="4.81479">
        <ele>93.2</ele>
        <time>2021-03-28T08:52:11Z</time>
      </trkpt>
      <trkpt lat="45.18507" lon="4.81475">
        <ele>92.8</ele>
        <time>2021-03-28T08:52:15Z</time>
      </trkpt>
      <trkpt lat="45.18529" lon="4.81474">
        <ele>93</ele>
        <time>2021-03-28T08:52:19Z</time>
      </trkpt>
      <trkpt lat="45.18549" lon="4.81477">
        <ele>93.6</ele>
        <time>2021-03-28T08:52:23Z</time>
      </trkpt>
      <trkpt lat="45.18567" lon="4.81478">
        <ele>92.6</ele>
        <time>2021-03-28T08:52:27Z</time>
      </trkpt>
      <trkpt lat="45.18584" lon="4.81478">
        <ele>92.4</ele>
        <time>2021-03-28T08:52:31Z</time>
      </trkpt>
      <trkpt lat="45.186" lon="4.81478">
        <ele>92.8</ele>
        <time>2021-03-28T08:52:35Z</time>
      </trkpt>
      <trkpt lat="45.18615" lon="4.81478">
        <ele>92</ele>
        <time>2021-03-28T08:52:39Z</time>
      </trkpt>
      <trkpt lat="45.18631" lon="4.81478">
        <ele>92.6</ele>
        <time>2021-03-28T08:52:43Z</time>
      </trkpt>
      <trkpt lat="45.18649" lon="4.81479">
        <ele>93.2</ele>
        <time>2021-03-28T08:52:47Z</time>
      </trkpt>
      <trkpt lat="45.18666" lon="4.81478">
        <ele>92.2</ele>
        <time>2021-03-28T08:52:51Z</time>
      </trkpt>
      <trkpt lat="45.18683" lon="4.81477">
        <ele>92.2</ele>
        <time>2021-03-28T08:52:55Z</time>
      </trkpt>
      <trkpt lat="45.18697" lon="4.81479">
        <ele>92.6</ele>
        <time>2021-03-28T08:52:59Z</time>
      </trkpt>
      <trkpt lat="45.1871" lon="4.8148">
        <ele>93</ele>
        <time>2021-03-28T08:53:03Z</time>
      </trkpt>
      <trkpt lat="45.18714" lon="4.81476">
        <ele>92.6</ele>
        <time>2021-03-28T08:53:22Z</time>
      </trkpt>
      <trkpt lat="45.18701" lon="4.81476">
        <ele>93.2</ele>
        <time>2021-03-28T08:53:26Z</time>
      </trkpt>
      <trkpt lat="45.18685" lon="4.81475">
        <ele>92.4</ele>
        <time>2021-03-28T08:53:30Z</time>
      </trkpt>
      <trkpt lat="45.18668" lon="4.81475">
        <ele>91.8</ele>
        <time>2021-03-28T08:53:34Z</time>
      </trkpt>
      <trkpt lat="45.1865" lon="4.81474">
        <ele>92</ele>
        <time>2021-03-28T08:53:38Z</time>
      </trkpt>
      <trkpt lat="45.18632" lon="4.81473">
        <ele>92.2</ele>
        <time>2021-03-28T08:53:42Z</time>
      </trkpt>
      <trkpt lat="45.18615" lon="4.81472">
        <ele>92.6</ele>
        <time>2021-03-28T08:53:46Z</time>
      </trkpt>
      <trkpt lat="45.18597" lon="4.81472">
        <ele>92.8</ele>
        <time>2021-03-28T08:53:50Z</time>
      </trkpt>
      <trkpt lat="45.18578" lon="4.81472">
        <ele>93.4</ele>
        <time>2021-03-28T08:53:54Z</time>
      </trkpt>
      <trkpt lat="45.18561" lon="4.81471">
        <ele>93.8</ele>
        <time>2021-03-28T08:53:58Z</time>
      </trkpt>
      <trkpt lat="45.18544" lon="4.81469">
        <ele>94.2</ele>
        <time>2021-03-28T08:54:02Z</time>
      </trkpt>
      <trkpt lat="45.18528" lon="4.81469">
        <ele>95.6</ele>
        <time>2021-03-28T08:54:06Z</time>
      </trkpt>
      <trkpt lat="45.1851" lon="4.81469">
        <ele>94.2</ele>
        <time>2021-03-28T08:54:10Z</time>
      </trkpt>
      <trkpt lat="45.18493" lon="4.8147">
        <ele>94.6</ele>
        <time>2021-03-28T08:54:14Z</time>
      </trkpt>
      <trkpt lat="45.18476" lon="4.81472">
        <ele>95.6</ele>
        <time>2021-03-28T08:54:18Z</time>
      </trkpt>
      <trkpt lat="45.18461" lon="4.81476">
        <ele>96</ele>
        <time>2021-03-28T08:54:22Z</time>
      </trkpt>
      <trkpt lat="45.18446" lon="4.81479">
        <ele>96.8</ele>
        <time>2021-03-28T08:54:26Z</time>
      </trkpt>
      <trkpt lat="45.18433" lon="4.81482">
        <ele>97.2</ele>
        <time>2021-03-28T08:54:30Z</time>
      </trkpt>
      <trkpt lat="45.18419" lon="4.81486">
        <ele>98</ele>
        <time>2021-03-28T08:54:34Z</time>
      </trkpt>
      <trkpt lat="45.18404" lon="4.8149">
        <ele>97.6</ele>
        <time>2021-03-28T08:54:38Z</time>
      </trkpt>
      <trkpt lat="45.18388" lon="4.81496">
        <ele>98.2</ele>
        <time>2021-03-28T08:54:42Z</time>
      </trkpt>
      <trkpt lat="45.18372" lon="4.81502">
        <ele>98.2</ele>
        <time>2021-03-28T08:54:46Z</time>
      </trkpt>
      <trkpt lat="45.18354" lon="4.81509">
        <ele>97</ele>
        <time>2021-03-28T08:54:50Z</time>
      </trkpt>
      <trkpt lat="45.18338" lon="4.81509">
        <ele>97</ele>
        <time>2021-03-28T08:54:54Z</time>
      </trkpt>
      <trkpt lat="45.18335" lon="4.81487">
        <ele>94.4</ele>
        <time>2021-03-28T08:54:58Z</time>
      </trkpt>
      <trkpt lat="45.18335" lon="4.81463">
        <ele>91.6</ele>
        <time>2021-03-28T08:55:02Z</time>
      </trkpt>
      <trkpt lat="45.1833" lon="4.8145">
        <ele>90.6</ele>
        <time>2021-03-28T08:55:06Z</time>
      </trkpt>
      <trkpt lat="45.18334" lon="4.81442">
        <ele>90.2</ele>
        <time>2021-03-28T08:55:10Z</time>
      </trkpt>
      <trkpt lat="45.18327" lon="4.81425">
        <ele>89.8</ele>
        <time>2021-03-28T08:55:24Z</time>
      </trkpt>
      <trkpt lat="45.18318" lon="4.81425">
        <ele>89.6</ele>
        <time>2021-03-28T08:55:28Z</time>
      </trkpt>
      <trkpt lat="45.18309" lon="4.81427">
        <ele>89.6</ele>
        <time>2021-03-28T08:55:32Z</time>
      </trkpt>
      <trkpt lat="45.18307" lon="4.81425">
        <ele>89.4</ele>
        <time>2021-03-28T08:55:36Z</time>
      </trkpt>
      <trkpt lat="45.18312" lon="4.81424">
        <ele>89.2</ele>
        <time>2021-03-28T08:55:40Z</time>
      </trkpt>
      <trkpt lat="45.18321" lon="4.81422">
        <ele>89.4</ele>
        <time>2021-03-28T08:55:44Z</time>
      </trkpt>
      <trkpt lat="45.18334" lon="4.81422">
        <ele>89.4</ele>
        <time>2021-03-28T08:55:48Z</time>
      </trkpt>
      <trkpt lat="45.18348" lon="4.81417">
        <ele>88.8</ele>
        <time>2021-03-28T08:55:52Z</time>
      </trkpt>
      <trkpt lat="45.18365" lon="4.81414">
        <ele>88.8</ele>
        <time>2021-03-28T08:55:56Z</time>
      </trkpt>
      <trkpt lat="45.18382" lon="4.81412">
        <ele>89</ele>
        <time>2021-03-28T08:56:00Z</time>
      </trkpt>
      <trkpt lat="45.184" lon="4.81412">
        <ele>88.6</ele>
        <time>2021-03-28T08:56:04Z</time>
      </trkpt>
      <trkpt lat="45.18417" lon="4.81411">
        <ele>88.6</ele>
        <time>2021-03-28T08:56:08Z</time>
      </trkpt>
      <trkpt lat="45.1843" lon="4.8141">
        <ele>88.4</ele>
        <time>2021-03-28T08:56:12Z</time>
      </trkpt>
      <trkpt lat="45.18439" lon="4.81403">
        <ele>88</ele>
        <time>2021-03-28T08:56:16Z</time>
      </trkpt>
      <trkpt lat="45.18444" lon="4.8138">
        <ele>88</ele>
        <time>2021-03-28T08:56:20Z</time>
      </trkpt>
      <trkpt lat="45.18438" lon="4.81354">
        <ele>89.4</ele>
        <time>2021-03-28T08:56:24Z</time>
      </trkpt>
      <trkpt lat="45.18438" lon="4.81349">
        <ele>89</ele>
        <time>2021-03-28T08:56:28Z</time>
      </trkpt>
      <trkpt lat="45.18436" lon="4.81338">
        <ele>90</ele>
        <time>2021-03-28T08:56:32Z</time>
      </trkpt>
      <trkpt lat="45.18433" lon="4.81321">
        <ele>89.4</ele>
        <time>2021-03-28T08:56:36Z</time>
      </trkpt>
      <trkpt lat="45.1843" lon="4.81302">
        <ele>90.6</ele>
        <time>2021-03-28T08:56:40Z</time>
      </trkpt>
      <trkpt lat="45.18426" lon="4.81283">
        <ele>91</ele>
        <time>2021-03-28T08:56:44Z</time>
      </trkpt>
      <trkpt lat="45.18423" lon="4.81264">
        <ele>91.4</ele>
        <time>2021-03-28T08:56:48Z</time>
      </trkpt>
      <trkpt lat="45.18419" lon="4.81244">
        <ele>91.2</ele>
        <time>2021-03-28T08:56:52Z</time>
      </trkpt>
      <trkpt lat="45.18415" lon="4.81223">
        <ele>91.2</ele>
        <time>2021-03-28T08:56:56Z</time>
      </trkpt>
      <trkpt lat="45.18411" lon="4.81201">
        <ele>91.2</ele>
        <time>2021-03-28T08:57:00Z</time>
      </trkpt>
      <trkpt lat="45.18408" lon="4.81179">
        <ele>90.8</ele>
        <time>2021-03-28T08:57:04Z</time>
      </trkpt>
      <trkpt lat="45.18403" lon="4.81155">
        <ele>90.4</ele>
        <time>2021-03-28T08:57:08Z</time>
      </trkpt>
      <trkpt lat="45.18398" lon="4.81129">
        <ele>89.2</ele>
        <time>2021-03-28T08:57:12Z</time>
      </trkpt>
      <trkpt lat="45.18393" lon="4.81101">
        <ele>89</ele>
        <time>2021-03-28T08:57:16Z</time>
      </trkpt>
      <trkpt lat="45.18388" lon="4.81071">
        <ele>88</ele>
        <time>2021-03-28T08:57:20Z</time>
      </trkpt>
      <trkpt lat="45.18383" lon="4.81041">
        <ele>86</ele>
        <time>2021-03-28T08:57:24Z</time>
      </trkpt>
      <trkpt lat="45.18376" lon="4.81007">
        <ele>85</ele>
        <time>2021-03-28T08:57:28Z</time>
      </trkpt>
      <trkpt lat="45.18372" lon="4.80971">
        <ele>83.2</ele>
        <time>2021-03-28T08:57:32Z</time>
      </trkpt>
      <trkpt lat="45.18371" lon="4.80934">
        <ele>83.2</ele>
        <time>2021-03-28T08:57:36Z</time>
      </trkpt>
      <trkpt lat="45.18373" lon="4.80895">
        <ele>81.4</ele>
        <time>2021-03-28T08:57:40Z</time>
      </trkpt>
      <trkpt lat="45.18378" lon="4.80857">
        <ele>81.4</ele>
        <time>2021-03-28T08:57:44Z</time>
      </trkpt>
      <trkpt lat="45.18388" lon="4.8082">
        <ele>80</ele>
        <time>2021-03-28T08:57:48Z</time>
      </trkpt>
      <trkpt lat="45.18404" lon="4.80793">
        <ele>81.2</ele>
        <time>2021-03-28T08:57:52Z</time>
      </trkpt>
      <trkpt lat="45.18416" lon="4.80763">
        <ele>80.8</ele>
        <time>2021-03-28T08:57:56Z</time>
      </trkpt>
      <trkpt lat="45.18422" lon="4.80732">
        <ele>80.6</ele>
        <time>2021-03-28T08:58:00Z</time>
      </trkpt>
      <trkpt lat="45.18433" lon="4.80707">
        <ele>80.8</ele>
        <time>2021-03-28T08:58:04Z</time>
      </trkpt>
      <trkpt lat="45.18444" lon="4.80682">
        <ele>81.6</ele>
        <time>2021-03-28T08:58:08Z</time>
      </trkpt>
      <trkpt lat="45.18455" lon="4.80656">
        <ele>80.8</ele>
        <time>2021-03-28T08:58:12Z</time>
      </trkpt>
      <trkpt lat="45.18466" lon="4.80634">
        <ele>80.4</ele>
        <time>2021-03-28T08:58:16Z</time>
      </trkpt>
      <trkpt lat="45.18477" lon="4.80608">
        <ele>80.4</ele>
        <time>2021-03-28T08:58:20Z</time>
      </trkpt>
      <trkpt lat="45.18486" lon="4.80586">
        <ele>80.4</ele>
        <time>2021-03-28T08:58:24Z</time>
      </trkpt>
      <trkpt lat="45.18495" lon="4.8056">
        <ele>81</ele>
        <time>2021-03-28T08:58:28Z</time>
      </trkpt>
      <trkpt lat="45.18503" lon="4.80534">
        <ele>81</ele>
        <time>2021-03-28T08:58:32Z</time>
      </trkpt>
      <trkpt lat="45.18514" lon="4.80507">
        <ele>81.8</ele>
        <time>2021-03-28T08:58:36Z</time>
      </trkpt>
      <trkpt lat="45.18523" lon="4.80484">
        <ele>81.4</ele>
        <time>2021-03-28T08:58:40Z</time>
      </trkpt>
      <trkpt lat="45.18534" lon="4.80459">
        <ele>81.2</ele>
        <time>2021-03-28T08:58:44Z</time>
      </trkpt>
      <trkpt lat="45.18547" lon="4.80437">
        <ele>81.4</ele>
        <time>2021-03-28T08:58:48Z</time>
      </trkpt>
      <trkpt lat="45.18557" lon="4.8041">
        <ele>82.4</ele>
        <time>2021-03-28T08:58:52Z</time>
      </trkpt>
      <trkpt lat="45.18567" lon="4.80381">
        <ele>82.8</ele>
        <time>2021-03-28T08:58:56Z</time>
      </trkpt>
      <trkpt lat="45.18576" lon="4.80355">
        <ele>84</ele>
        <time>2021-03-28T08:59:00Z</time>
      </trkpt>
      <trkpt lat="45.18585" lon="4.80329">
        <ele>84.6</ele>
        <time>2021-03-28T08:59:04Z</time>
      </trkpt>
      <trkpt lat="45.18594" lon="4.80306">
        <ele>84.6</ele>
        <time>2021-03-28T08:59:08Z</time>
      </trkpt>
      <trkpt lat="45.18603" lon="4.80283">
        <ele>84.6</ele>
        <time>2021-03-28T08:59:12Z</time>
      </trkpt>
      <trkpt lat="45.18611" lon="4.8026">
        <ele>85</ele>
        <time>2021-03-28T08:59:16Z</time>
      </trkpt>
      <trkpt lat="45.1862" lon="4.80239">
        <ele>85</ele>
        <time>2021-03-28T08:59:20Z</time>
      </trkpt>
      <trkpt lat="45.18628" lon="4.80219">
        <ele>85.6</ele>
        <time>2021-03-28T08:59:24Z</time>
      </trkpt>
      <trkpt lat="45.18635" lon="4.80203">
        <ele>85</ele>
        <time>2021-03-28T08:59:28Z</time>
      </trkpt>
      <trkpt lat="45.18642" lon="4.80184">
        <ele>83.8</ele>
        <time>2021-03-28T08:59:32Z</time>
      </trkpt>
      <trkpt lat="45.18653" lon="4.80159">
        <ele>82.8</ele>
        <time>2021-03-28T08:59:36Z</time>
      </trkpt>
      <trkpt lat="45.18665" lon="4.80133">
        <ele>83.2</ele>
        <time>2021-03-28T08:59:40Z</time>
      </trkpt>
      <trkpt lat="45.18673" lon="4.80102">
        <ele>83.2</ele>
        <time>2021-03-28T08:59:44Z</time>
      </trkpt>
      <trkpt lat="45.18671" lon="4.80071">
        <ele>84.2</ele>
        <time>2021-03-28T08:59:48Z</time>
      </trkpt>
      <trkpt lat="45.18669" lon="4.80043">
        <ele>84.6</ele>
        <time>2021-03-28T08:59:52Z</time>
      </trkpt>
      <trkpt lat="45.18669" lon="4.80015">
        <ele>85</ele>
        <time>2021-03-28T08:59:56Z</time>
      </trkpt>
      <trkpt lat="45.18669" lon="4.79989">
        <ele>85.6</ele>
        <time>2021-03-28T09:00:00Z</time>
      </trkpt>
      <trkpt lat="45.18671" lon="4.79966">
        <ele>86.4</ele>
        <time>2021-03-28T09:00:04Z</time>
      </trkpt>
      <trkpt lat="45.18672" lon="4.79934">
        <ele>87</ele>
        <time>2021-03-28T09:00:27Z</time>
      </trkpt>
      <trkpt lat="45.18678" lon="4.79916">
        <ele>86.2</ele>
        <time>2021-03-28T09:00:31Z</time>
      </trkpt>
      <trkpt lat="45.18693" lon="4.79907">
        <ele>85.6</ele>
        <time>2021-03-28T09:00:35Z</time>
      </trkpt>
      <trkpt lat="45.18712" lon="4.79903">
        <ele>85.4</ele>
        <time>2021-03-28T09:00:39Z</time>
      </trkpt>
      <trkpt lat="45.18729" lon="4.799">
        <ele>85.6</ele>
        <time>2021-03-28T09:00:43Z</time>
      </trkpt>
      <trkpt lat="45.18741" lon="4.799">
        <ele>86.6</ele>
        <time>2021-03-28T09:00:47Z</time>
      </trkpt>
      <trkpt lat="45.1874" lon="4.79907">
        <ele>86.6</ele>
        <time>2021-03-28T09:00:51Z</time>
      </trkpt>
      <trkpt lat="45.1875" lon="4.79909">
        <ele>86</ele>
        <time>2021-03-28T09:00:55Z</time>
      </trkpt>
      <trkpt lat="45.18759" lon="4.7991">
        <ele>86.6</ele>
        <time>2021-03-28T09:00:59Z</time>
      </trkpt>
      <trkpt lat="45.18755" lon="4.79914">
        <ele>86.2</ele>
        <time>2021-03-28T09:01:03Z</time>
      </trkpt>
      <trkpt lat="45.18751" lon="4.7991">
        <ele>86.6</ele>
        <time>2021-03-28T09:01:07Z</time>
      </trkpt>
      <trkpt lat="45.18749" lon="4.79918">
        <ele>86.6</ele>
        <time>2021-03-28T09:01:11Z</time>
      </trkpt>
      <trkpt lat="45.18747" lon="4.7993">
        <ele>85.8</ele>
        <time>2021-03-28T09:01:15Z</time>
      </trkpt>
      <trkpt lat="45.1875" lon="4.79937">
        <ele>87.6</ele>
        <time>2021-03-28T09:13:49Z</time>
      </trkpt>
      <trkpt lat="45.18755" lon="4.79936">
        <ele>87.2</ele>
        <time>2021-03-28T09:13:53Z</time>
      </trkpt>
      <trkpt lat="45.18755" lon="4.79936">
        <ele>87</ele>
        <time>2021-03-28T09:13:57Z</time>
      </trkpt>
      <trkpt lat="45.18757" lon="4.79933">
        <ele>87</ele>
        <time>2021-03-28T09:14:01Z</time>
      </trkpt>
      <trkpt lat="45.1876" lon="4.79925">
        <ele>87.2</ele>
        <time>2021-03-28T09:14:05Z</time>
      </trkpt>
      <trkpt lat="45.18763" lon="4.79913">
        <ele>87.2</ele>
        <time>2021-03-28T09:14:09Z</time>
      </trkpt>
      <trkpt lat="45.18764" lon="4.79901">
        <ele>87.6</ele>
        <time>2021-03-28T09:14:13Z</time>
      </trkpt>
      <trkpt lat="45.18764" lon="4.79894">
        <ele>86.6</ele>
        <time>2021-03-28T09:14:17Z</time>
      </trkpt>
      <trkpt lat="45.18766" lon="4.79885">
        <ele>87.4</ele>
        <time>2021-03-28T09:14:21Z</time>
      </trkpt>
      <trkpt lat="45.18755" lon="4.79886">
        <ele>87.2</ele>
        <time>2021-03-28T09:14:25Z</time>
      </trkpt>
      <trkpt lat="45.18742" lon="4.79886">
        <ele>87.6</ele>
        <time>2021-03-28T09:14:29Z</time>
      </trkpt>
      <trkpt lat="45.18727" lon="4.79888">
        <ele>87.6</ele>
        <time>2021-03-28T09:14:33Z</time>
      </trkpt>
      <trkpt lat="45.18712" lon="4.79891">
        <ele>87.6</ele>
        <time>2021-03-28T09:14:37Z</time>
      </trkpt>
      <trkpt lat="45.18698" lon="4.79893">
        <ele>88</ele>
        <time>2021-03-28T09:14:41Z</time>
      </trkpt>
      <trkpt lat="45.18685" lon="4.79896">
        <ele>88.6</ele>
        <time>2021-03-28T09:14:45Z</time>
      </trkpt>
      <trkpt lat="45.1867" lon="4.79884">
        <ele>89</ele>
        <time>2021-03-28T09:15:16Z</time>
      </trkpt>
      <trkpt lat="45.18667" lon="4.79866">
        <ele>89</ele>
        <time>2021-03-28T09:15:20Z</time>
      </trkpt>
      <trkpt lat="45.18664" lon="4.79849">
        <ele>89.6</ele>
        <time>2021-03-28T09:15:24Z</time>
      </trkpt>
      <trkpt lat="45.18662" lon="4.79828">
        <ele>90</ele>
        <time>2021-03-28T09:15:28Z</time>
      </trkpt>
      <trkpt lat="45.18661" lon="4.79812">
        <ele>90.4</ele>
        <time>2021-03-28T09:15:32Z</time>
      </trkpt>
      <trkpt lat="45.18662" lon="4.79793">
        <ele>91.4</ele>
        <time>2021-03-28T09:15:36Z</time>
      </trkpt>
      <trkpt lat="45.18665" lon="4.79774">
        <ele>91</ele>
        <time>2021-03-28T09:15:40Z</time>
      </trkpt>
      <trkpt lat="45.18666" lon="4.79754">
        <ele>91.8</ele>
        <time>2021-03-28T09:15:44Z</time>
      </trkpt>
      <trkpt lat="45.18668" lon="4.79734">
        <ele>91.8</ele>
        <time>2021-03-28T09:15:48Z</time>
      </trkpt>
      <trkpt lat="45.18671" lon="4.79718">
        <ele>93</ele>
        <time>2021-03-28T09:15:52Z</time>
      </trkpt>
      <trkpt lat="45.18673" lon="4.79697">
        <ele>92.8</ele>
        <time>2021-03-28T09:15:56Z</time>
      </trkpt>
      <trkpt lat="45.18674" lon="4.79678">
        <ele>93.4</ele>
        <time>2021-03-28T09:16:00Z</time>
      </trkpt>
      <trkpt lat="45.18675" lon="4.79661">
        <ele>94.2</ele>
        <time>2021-03-28T09:16:04Z</time>
      </trkpt>
      <trkpt lat="45.18676" lon="4.79643">
        <ele>95.2</ele>
        <time>2021-03-28T09:16:08Z</time>
      </trkpt>
      <trkpt lat="45.18678" lon="4.79624">
        <ele>94.8</ele>
        <time>2021-03-28T09:16:12Z</time>
      </trkpt>
      <trkpt lat="45.18679" lon="4.79607">
        <ele>96.2</ele>
        <time>2021-03-28T09:16:16Z</time>
      </trkpt>
      <trkpt lat="45.1868" lon="4.79593">
        <ele>97</ele>
        <time>2021-03-28T09:16:20Z</time>
      </trkpt>
      <trkpt lat="45.18681" lon="4.79577">
        <ele>97.2</ele>
        <time>2021-03-28T09:16:24Z</time>
      </trkpt>
      <trkpt lat="45.18681" lon="4.79561">
        <ele>98.4</ele>
        <time>2021-03-28T09:16:28Z</time>
      </trkpt>
      <trkpt lat="45.18681" lon="4.79544">
        <ele>99</ele>
        <time>2021-03-28T09:16:32Z</time>
      </trkpt>
      <trkpt lat="45.18681" lon="4.7953">
        <ele>99.2</ele>
        <time>2021-03-28T09:16:36Z</time>
      </trkpt>
      <trkpt lat="45.18677" lon="4.79516">
        <ele>99.8</ele>
        <time>2021-03-28T09:16:40Z</time>
      </trkpt>
      <trkpt lat="45.18668" lon="4.79502">
        <ele>100.8</ele>
        <time>2021-03-28T09:16:44Z</time>
      </trkpt>
      <trkpt lat="45.18657" lon="4.7949">
        <ele>101.2</ele>
        <time>2021-03-28T09:16:48Z</time>
      </trkpt>
      <trkpt lat="45.18646" lon="4.79481">
        <ele>101.8</ele>
        <time>2021-03-28T09:16:52Z</time>
      </trkpt>
      <trkpt lat="45.18635" lon="4.7947">
        <ele>101.6</ele>
        <time>2021-03-28T09:16:56Z</time>
      </trkpt>
      <trkpt lat="45.18624" lon="4.79459">
        <ele>103.2</ele>
        <time>2021-03-28T09:17:00Z</time>
      </trkpt>
      <trkpt lat="45.18615" lon="4.79451">
        <ele>103.6</ele>
        <time>2021-03-28T09:17:04Z</time>
      </trkpt>
      <trkpt lat="45.18606" lon="4.79443">
        <ele>104.6</ele>
        <time>2021-03-28T09:17:08Z</time>
      </trkpt>
      <trkpt lat="45.18598" lon="4.79435">
        <ele>105</ele>
        <time>2021-03-28T09:17:12Z</time>
      </trkpt>
      <trkpt lat="45.18591" lon="4.79427">
        <ele>105.6</ele>
        <time>2021-03-28T09:17:16Z</time>
      </trkpt>
      <trkpt lat="45.18583" lon="4.79419">
        <ele>106</ele>
        <time>2021-03-28T09:17:20Z</time>
      </trkpt>
      <trkpt lat="45.18575" lon="4.79411">
        <ele>106.4</ele>
        <time>2021-03-28T09:17:24Z</time>
      </trkpt>
      <trkpt lat="45.18567" lon="4.79403">
        <ele>107.6</ele>
        <time>2021-03-28T09:17:28Z</time>
      </trkpt>
      <trkpt lat="45.1856" lon="4.79396">
        <ele>108.4</ele>
        <time>2021-03-28T09:17:32Z</time>
      </trkpt>
      <trkpt lat="45.18552" lon="4.79389">
        <ele>108.6</ele>
        <time>2021-03-28T09:17:36Z</time>
      </trkpt>
      <trkpt lat="45.18544" lon="4.7938">
        <ele>109.2</ele>
        <time>2021-03-28T09:17:40Z</time>
      </trkpt>
      <trkpt lat="45.18537" lon="4.79373">
        <ele>109.6</ele>
        <time>2021-03-28T09:17:44Z</time>
      </trkpt>
      <trkpt lat="45.18528" lon="4.79366">
        <ele>110</ele>
        <time>2021-03-28T09:17:48Z</time>
      </trkpt>
      <trkpt lat="45.1852" lon="4.79359">
        <ele>110.6</ele>
        <time>2021-03-28T09:17:52Z</time>
      </trkpt>
      <trkpt lat="45.18513" lon="4.79351">
        <ele>111.2</ele>
        <time>2021-03-28T09:17:56Z</time>
      </trkpt>
      <trkpt lat="45.18504" lon="4.79344">
        <ele>111.4</ele>
        <time>2021-03-28T09:18:00Z</time>
      </trkpt>
      <trkpt lat="45.18496" lon="4.79338">
        <ele>112.2</ele>
        <time>2021-03-28T09:18:04Z</time>
      </trkpt>
      <trkpt lat="45.18488" lon="4.79332">
        <ele>113.4</ele>
        <time>2021-03-28T09:18:08Z</time>
      </trkpt>
      <trkpt lat="45.1848" lon="4.79326">
        <ele>113.6</ele>
        <time>2021-03-28T09:18:12Z</time>
      </trkpt>
      <trkpt lat="45.18472" lon="4.79321">
        <ele>114</ele>
        <time>2021-03-28T09:18:16Z</time>
      </trkpt>
      <trkpt lat="45.18463" lon="4.79316">
        <ele>114.4</ele>
        <time>2021-03-28T09:18:20Z</time>
      </trkpt>
      <trkpt lat="45.18454" lon="4.79311">
        <ele>114.8</ele>
        <time>2021-03-28T09:18:24Z</time>
      </trkpt>
      <trkpt lat="45.18445" lon="4.79305">
        <ele>115.8</ele>
        <time>2021-03-28T09:18:28Z</time>
      </trkpt>
      <trkpt lat="45.18437" lon="4.79298">
        <ele>116.2</ele>
        <time>2021-03-28T09:18:32Z</time>
      </trkpt>
      <trkpt lat="45.1843" lon="4.79288">
        <ele>116.6</ele>
        <time>2021-03-28T09:18:36Z</time>
      </trkpt>
      <trkpt lat="45.18423" lon="4.79278">
        <ele>117.6</ele>
        <time>2021-03-28T09:18:40Z</time>
      </trkpt>
      <trkpt lat="45.18416" lon="4.79269">
        <ele>118.6</ele>
        <time>2021-03-28T09:18:44Z</time>
      </trkpt>
      <trkpt lat="45.1841" lon="4.79258">
        <ele>118.8</ele>
        <time>2021-03-28T09:18:48Z</time>
      </trkpt>
      <trkpt lat="45.18404" lon="4.79247">
        <ele>119.6</ele>
        <time>2021-03-28T09:18:52Z</time>
      </trkpt>
      <trkpt lat="45.18396" lon="4.79237">
        <ele>120</ele>
        <time>2021-03-28T09:18:56Z</time>
      </trkpt>
      <trkpt lat="45.18389" lon="4.79227">
        <ele>120.6</ele>
        <time>2021-03-28T09:19:00Z</time>
      </trkpt>
      <trkpt lat="45.1838" lon="4.79221">
        <ele>121.2</ele>
        <time>2021-03-28T09:19:04Z</time>
      </trkpt>
      <trkpt lat="45.18373" lon="4.79213">
        <ele>122</ele>
        <time>2021-03-28T09:19:08Z</time>
      </trkpt>
      <trkpt lat="45.18366" lon="4.79204">
        <ele>122.4</ele>
        <time>2021-03-28T09:19:12Z</time>
      </trkpt>
      <trkpt lat="45.18357" lon="4.79199">
        <ele>123.4</ele>
        <time>2021-03-28T09:19:16Z</time>
      </trkpt>
      <trkpt lat="45.18349" lon="4.7919">
        <ele>124</ele>
        <time>2021-03-28T09:19:20Z</time>
      </trkpt>
      <trkpt lat="45.18339" lon="4.79183">
        <ele>124</ele>
        <time>2021-03-28T09:19:24Z</time>
      </trkpt>
      <trkpt lat="45.1833" lon="4.79176">
        <ele>124.4</ele>
        <time>2021-03-28T09:19:28Z</time>
      </trkpt>
      <trkpt lat="45.18322" lon="4.79168">
        <ele>125.4</ele>
        <time>2021-03-28T09:19:32Z</time>
      </trkpt>
      <trkpt lat="45.18316" lon="4.79158">
        <ele>125.8</ele>
        <time>2021-03-28T09:19:36Z</time>
      </trkpt>
      <trkpt lat="45.18309" lon="4.79149">
        <ele>126.6</ele>
        <time>2021-03-28T09:19:40Z</time>
      </trkpt>
      <trkpt lat="45.18303" lon="4.79139">
        <ele>127.2</ele>
        <time>2021-03-28T09:19:44Z</time>
      </trkpt>
      <trkpt lat="45.18297" lon="4.7913">
        <ele>128</ele>
        <time>2021-03-28T09:19:48Z</time>
      </trkpt>
      <trkpt lat="45.18293" lon="4.7912">
        <ele>128.6</ele>
        <time>2021-03-28T09:19:52Z</time>
      </trkpt>
      <trkpt lat="45.18289" lon="4.79111">
        <ele>128.8</ele>
        <time>2021-03-28T09:19:56Z</time>
      </trkpt>
      <trkpt lat="45.18284" lon="4.79103">
        <ele>129.8</ele>
        <time>2021-03-28T09:20:00Z</time>
      </trkpt>
      <trkpt lat="45.18279" lon="4.79092">
        <ele>130</ele>
        <time>2021-03-28T09:20:04Z</time>
      </trkpt>
      <trkpt lat="45.18274" lon="4.79083">
        <ele>130.6</ele>
        <time>2021-03-28T09:20:08Z</time>
      </trkpt>
      <trkpt lat="45.18269" lon="4.79074">
        <ele>131</ele>
        <time>2021-03-28T09:20:12Z</time>
      </trkpt>
      <trkpt lat="45.18264" lon="4.79065">
        <ele>131.4</ele>
        <time>2021-03-28T09:20:16Z</time>
      </trkpt>
      <trkpt lat="45.18259" lon="4.79055">
        <ele>132</ele>
        <time>2021-03-28T09:20:20Z</time>
      </trkpt>
      <trkpt lat="45.18253" lon="4.79041">
        <ele>133.2</ele>
        <time>2021-03-28T09:20:24Z</time>
      </trkpt>
      <trkpt lat="45.18245" lon="4.79027">
        <ele>133.4</ele>
        <time>2021-03-28T09:20:28Z</time>
      </trkpt>
      <trkpt lat="45.18235" lon="4.79019">
        <ele>133.4</ele>
        <time>2021-03-28T09:20:32Z</time>
      </trkpt>
      <trkpt lat="45.18224" lon="4.79019">
        <ele>133.6</ele>
        <time>2021-03-28T09:20:36Z</time>
      </trkpt>
      <trkpt lat="45.18214" lon="4.79023">
        <ele>134.2</ele>
        <time>2021-03-28T09:20:40Z</time>
      </trkpt>
      <trkpt lat="45.18208" lon="4.79031">
        <ele>135</ele>
        <time>2021-03-28T09:20:44Z</time>
      </trkpt>
      <trkpt lat="45.18204" lon="4.79041">
        <ele>135.2</ele>
        <time>2021-03-28T09:20:48Z</time>
      </trkpt>
      <trkpt lat="45.18203" lon="4.79053">
        <ele>136</ele>
        <time>2021-03-28T09:20:52Z</time>
      </trkpt>
      <trkpt lat="45.18206" lon="4.79065">
        <ele>136.8</ele>
        <time>2021-03-28T09:20:56Z</time>
      </trkpt>
      <trkpt lat="45.18211" lon="4.79077">
        <ele>137.4</ele>
        <time>2021-03-28T09:21:00Z</time>
      </trkpt>
      <trkpt lat="45.18216" lon="4.79088">
        <ele>138.6</ele>
        <time>2021-03-28T09:21:04Z</time>
      </trkpt>
      <trkpt lat="45.18219" lon="4.79099">
        <ele>138.8</ele>
        <time>2021-03-28T09:21:08Z</time>
      </trkpt>
      <trkpt lat="45.18223" lon="4.7911">
        <ele>139.4</ele>
        <time>2021-03-28T09:21:12Z</time>
      </trkpt>
      <trkpt lat="45.18227" lon="4.79122">
        <ele>140.4</ele>
        <time>2021-03-28T09:21:16Z</time>
      </trkpt>
      <trkpt lat="45.18231" lon="4.79132">
        <ele>141</ele>
        <time>2021-03-28T09:21:20Z</time>
      </trkpt>
      <trkpt lat="45.18234" lon="4.79144">
        <ele>141.4</ele>
        <time>2021-03-28T09:21:24Z</time>
      </trkpt>
      <trkpt lat="45.18236" lon="4.79157">
        <ele>142.4</ele>
        <time>2021-03-28T09:21:28Z</time>
      </trkpt>
      <trkpt lat="45.18237" lon="4.7917">
        <ele>143.2</ele>
        <time>2021-03-28T09:21:32Z</time>
      </trkpt>
      <trkpt lat="45.18241" lon="4.79181">
        <ele>142.6</ele>
        <time>2021-03-28T09:21:36Z</time>
      </trkpt>
      <trkpt lat="45.18244" lon="4.79196">
        <ele>143.2</ele>
        <time>2021-03-28T09:21:40Z</time>
      </trkpt>
      <trkpt lat="45.1825" lon="4.79208">
        <ele>143.6</ele>
        <time>2021-03-28T09:21:44Z</time>
      </trkpt>
      <trkpt lat="45.18256" lon="4.79221">
        <ele>144.2</ele>
        <time>2021-03-28T09:21:48Z</time>
      </trkpt>
      <trkpt lat="45.18265" lon="4.79233">
        <ele>144.8</ele>
        <time>2021-03-28T09:21:52Z</time>
      </trkpt>
      <trkpt lat="45.18272" lon="4.79244">
        <ele>145.8</ele>
        <time>2021-03-28T09:21:56Z</time>
      </trkpt>
      <trkpt lat="45.18279" lon="4.79255">
        <ele>145.6</ele>
        <time>2021-03-28T09:22:00Z</time>
      </trkpt>
      <trkpt lat="45.18284" lon="4.79267">
        <ele>146.2</ele>
        <time>2021-03-28T09:22:04Z</time>
      </trkpt>
      <trkpt lat="45.18288" lon="4.79279">
        <ele>146.8</ele>
        <time>2021-03-28T09:22:08Z</time>
      </trkpt>
      <trkpt lat="45.18291" lon="4.79289">
        <ele>146.8</ele>
        <time>2021-03-28T09:22:12Z</time>
      </trkpt>
      <trkpt lat="45.18294" lon="4.79301">
        <ele>147.2</ele>
        <time>2021-03-28T09:22:16Z</time>
      </trkpt>
      <trkpt lat="45.18295" lon="4.79313">
        <ele>148.2</ele>
        <time>2021-03-28T09:22:20Z</time>
      </trkpt>
      <trkpt lat="45.18295" lon="4.79325">
        <ele>149</ele>
        <time>2021-03-28T09:22:24Z</time>
      </trkpt>
      <trkpt lat="45.18295" lon="4.79335">
        <ele>148.8</ele>
        <time>2021-03-28T09:22:28Z</time>
      </trkpt>
      <trkpt lat="45.18293" lon="4.79346">
        <ele>150</ele>
        <time>2021-03-28T09:22:32Z</time>
      </trkpt>
      <trkpt lat="45.18288" lon="4.79358">
        <ele>151</ele>
        <time>2021-03-28T09:22:36Z</time>
      </trkpt>
      <trkpt lat="45.18283" lon="4.79367">
        <ele>151.2</ele>
        <time>2021-03-28T09:22:40Z</time>
      </trkpt>
      <trkpt lat="45.18277" lon="4.79378">
        <ele>152.4</ele>
        <time>2021-03-28T09:22:44Z</time>
      </trkpt>
      <trkpt lat="45.18271" lon="4.79389">
        <ele>153.6</ele>
        <time>2021-03-28T09:22:48Z</time>
      </trkpt>
      <trkpt lat="45.18268" lon="4.79399">
        <ele>153.6</ele>
        <time>2021-03-28T09:22:52Z</time>
      </trkpt>
      <trkpt lat="45.18266" lon="4.79411">
        <ele>154.2</ele>
        <time>2021-03-28T09:22:56Z</time>
      </trkpt>
      <trkpt lat="45.18267" lon="4.79429">
        <ele>155</ele>
        <time>2021-03-28T09:23:00Z</time>
      </trkpt>
      <trkpt lat="45.18274" lon="4.7944">
        <ele>155.4</ele>
        <time>2021-03-28T09:23:04Z</time>
      </trkpt>
      <trkpt lat="45.18284" lon="4.79443">
        <ele>156.4</ele>
        <time>2021-03-28T09:23:08Z</time>
      </trkpt>
      <trkpt lat="45.18295" lon="4.79443">
        <ele>156.4</ele>
        <time>2021-03-28T09:23:12Z</time>
      </trkpt>
      <trkpt lat="45.18305" lon="4.79442">
        <ele>157</ele>
        <time>2021-03-28T09:23:16Z</time>
      </trkpt>
      <trkpt lat="45.18315" lon="4.79441">
        <ele>157.6</ele>
        <time>2021-03-28T09:23:20Z</time>
      </trkpt>
      <trkpt lat="45.18324" lon="4.79442">
        <ele>158</ele>
        <time>2021-03-28T09:23:24Z</time>
      </trkpt>
      <trkpt lat="45.18334" lon="4.79444">
        <ele>158.2</ele>
        <time>2021-03-28T09:23:28Z</time>
      </trkpt>
      <trkpt lat="45.18343" lon="4.79449">
        <ele>159.6</ele>
        <time>2021-03-28T09:23:32Z</time>
      </trkpt>
      <trkpt lat="45.1835" lon="4.79457">
        <ele>160.6</ele>
        <time>2021-03-28T09:23:36Z</time>
      </trkpt>
      <trkpt lat="45.18356" lon="4.79464">
        <ele>160.4</ele>
        <time>2021-03-28T09:23:40Z</time>
      </trkpt>
      <trkpt lat="45.18362" lon="4.79474">
        <ele>161.2</ele>
        <time>2021-03-28T09:23:44Z</time>
      </trkpt>
      <trkpt lat="45.18368" lon="4.79484">
        <ele>161.8</ele>
        <time>2021-03-28T09:23:48Z</time>
      </trkpt>
      <trkpt lat="45.18373" lon="4.79493">
        <ele>162.2</ele>
        <time>2021-03-28T09:23:52Z</time>
      </trkpt>
      <trkpt lat="45.18379" lon="4.79502">
        <ele>162.8</ele>
        <time>2021-03-28T09:23:56Z</time>
      </trkpt>
      <trkpt lat="45.18384" lon="4.79512">
        <ele>162.6</ele>
        <time>2021-03-28T09:24:00Z</time>
      </trkpt>
      <trkpt lat="45.18386" lon="4.79523">
        <ele>164.2</ele>
        <time>2021-03-28T09:24:04Z</time>
      </trkpt>
      <trkpt lat="45.18387" lon="4.79534">
        <ele>164.6</ele>
        <time>2021-03-28T09:24:08Z</time>
      </trkpt>
      <trkpt lat="45.18386" lon="4.79543">
        <ele>164.6</ele>
        <time>2021-03-28T09:24:12Z</time>
      </trkpt>
      <trkpt lat="45.18383" lon="4.79553">
        <ele>165.4</ele>
        <time>2021-03-28T09:24:16Z</time>
      </trkpt>
      <trkpt lat="45.1838" lon="4.79562">
        <ele>166.4</ele>
        <time>2021-03-28T09:24:20Z</time>
      </trkpt>
      <trkpt lat="45.18377" lon="4.79569">
        <ele>166.6</ele>
        <time>2021-03-28T09:24:24Z</time>
      </trkpt>
      <trkpt lat="45.18374" lon="4.79578">
        <ele>167</ele>
        <time>2021-03-28T09:24:28Z</time>
      </trkpt>
      <trkpt lat="45.1837" lon="4.79589">
        <ele>167.4</ele>
        <time>2021-03-28T09:24:32Z</time>
      </trkpt>
      <trkpt lat="45.18367" lon="4.796">
        <ele>168.4</ele>
        <time>2021-03-28T09:24:36Z</time>
      </trkpt>
      <trkpt lat="45.18364" lon="4.79612">
        <ele>168</ele>
        <time>2021-03-28T09:24:40Z</time>
      </trkpt>
      <trkpt lat="45.18361" lon="4.79622">
        <ele>169.2</ele>
        <time>2021-03-28T09:24:44Z</time>
      </trkpt>
      <trkpt lat="45.18357" lon="4.79633">
        <ele>169.4</ele>
        <time>2021-03-28T09:24:48Z</time>
      </trkpt>
      <trkpt lat="45.18351" lon="4.79643">
        <ele>169.6</ele>
        <time>2021-03-28T09:24:52Z</time>
      </trkpt>
      <trkpt lat="45.18345" lon="4.79652">
        <ele>170.2</ele>
        <time>2021-03-28T09:24:56Z</time>
      </trkpt>
      <trkpt lat="45.18338" lon="4.7966">
        <ele>171</ele>
        <time>2021-03-28T09:25:00Z</time>
      </trkpt>
      <trkpt lat="45.18331" lon="4.79666">
        <ele>171.8</ele>
        <time>2021-03-28T09:25:04Z</time>
      </trkpt>
      <trkpt lat="45.18322" lon="4.79674">
        <ele>172.6</ele>
        <time>2021-03-28T09:25:08Z</time>
      </trkpt>
      <trkpt lat="45.18314" lon="4.79679">
        <ele>173.4</ele>
        <time>2021-03-28T09:25:12Z</time>
      </trkpt>
      <trkpt lat="45.18306" lon="4.79684">
        <ele>173.6</ele>
        <time>2021-03-28T09:25:16Z</time>
      </trkpt>
      <trkpt lat="45.18297" lon="4.79689">
        <ele>174</ele>
        <time>2021-03-28T09:25:20Z</time>
      </trkpt>
      <trkpt lat="45.18287" lon="4.79692">
        <ele>174.8</ele>
        <time>2021-03-28T09:25:24Z</time>
      </trkpt>
      <trkpt lat="45.18279" lon="4.79695">
        <ele>175.4</ele>
        <time>2021-03-28T09:25:28Z</time>
      </trkpt>
      <trkpt lat="45.1827" lon="4.79698">
        <ele>176.2</ele>
        <time>2021-03-28T09:25:32Z</time>
      </trkpt>
      <trkpt lat="45.18261" lon="4.79698">
        <ele>176.8</ele>
        <time>2021-03-28T09:25:36Z</time>
      </trkpt>
      <trkpt lat="45.18251" lon="4.79701">
        <ele>177.4</ele>
        <time>2021-03-28T09:25:40Z</time>
      </trkpt>
      <trkpt lat="45.18242" lon="4.79701">
        <ele>178</ele>
        <time>2021-03-28T09:25:44Z</time>
      </trkpt>
      <trkpt lat="45.18232" lon="4.79701">
        <ele>178.4</ele>
        <time>2021-03-28T09:25:48Z</time>
      </trkpt>
      <trkpt lat="45.18224" lon="4.797">
        <ele>178.4</ele>
        <time>2021-03-28T09:25:52Z</time>
      </trkpt>
      <trkpt lat="45.18214" lon="4.79701">
        <ele>179.4</ele>
        <time>2021-03-28T09:25:56Z</time>
      </trkpt>
      <trkpt lat="45.18205" lon="4.79699">
        <ele>179.4</ele>
        <time>2021-03-28T09:26:00Z</time>
      </trkpt>
      <trkpt lat="45.18195" lon="4.79696">
        <ele>180.4</ele>
        <time>2021-03-28T09:26:04Z</time>
      </trkpt>
      <trkpt lat="45.18189" lon="4.79687">
        <ele>181.4</ele>
        <time>2021-03-28T09:26:08Z</time>
      </trkpt>
      <trkpt lat="45.18187" lon="4.79675">
        <ele>182.4</ele>
        <time>2021-03-28T09:26:12Z</time>
      </trkpt>
      <trkpt lat="45.18187" lon="4.79662">
        <ele>182.4</ele>
        <time>2021-03-28T09:26:16Z</time>
      </trkpt>
      <trkpt lat="45.18186" lon="4.79648">
        <ele>182.4</ele>
        <time>2021-03-28T09:26:20Z</time>
      </trkpt>
      <trkpt lat="45.18184" lon="4.79635">
        <ele>183.6</ele>
        <time>2021-03-28T09:26:24Z</time>
      </trkpt>
      <trkpt lat="45.18181" lon="4.79623">
        <ele>184.4</ele>
        <time>2021-03-28T09:26:28Z</time>
      </trkpt>
      <trkpt lat="45.18177" lon="4.79612">
        <ele>184.8</ele>
        <time>2021-03-28T09:26:32Z</time>
      </trkpt>
      <trkpt lat="45.18172" lon="4.79601">
        <ele>185.8</ele>
        <time>2021-03-28T09:26:36Z</time>
      </trkpt>
      <trkpt lat="45.18165" lon="4.79593">
        <ele>186.2</ele>
        <time>2021-03-28T09:26:40Z</time>
      </trkpt>
      <trkpt lat="45.18159" lon="4.79584">
        <ele>186.4</ele>
        <time>2021-03-28T09:26:44Z</time>
      </trkpt>
      <trkpt lat="45.18152" lon="4.79576">
        <ele>187.2</ele>
        <time>2021-03-28T09:26:48Z</time>
      </trkpt>
      <trkpt lat="45.18145" lon="4.79568">
        <ele>187.4</ele>
        <time>2021-03-28T09:26:52Z</time>
      </trkpt>
      <trkpt lat="45.18138" lon="4.7956">
        <ele>188.4</ele>
        <time>2021-03-28T09:26:56Z</time>
      </trkpt>
      <trkpt lat="45.18131" lon="4.79553">
        <ele>188.4</ele>
        <time>2021-03-28T09:27:00Z</time>
      </trkpt>
      <trkpt lat="45.18123" lon="4.79545">
        <ele>189.8</ele>
        <time>2021-03-28T09:27:04Z</time>
      </trkpt>
      <trkpt lat="45.18116" lon="4.79539">
        <ele>190</ele>
        <time>2021-03-28T09:27:08Z</time>
      </trkpt>
      <trkpt lat="45.18108" lon="4.79533">
        <ele>190.4</ele>
        <time>2021-03-28T09:27:12Z</time>
      </trkpt>
      <trkpt lat="45.181" lon="4.79527">
        <ele>190.8</ele>
        <time>2021-03-28T09:27:16Z</time>
      </trkpt>
      <trkpt lat="45.18093" lon="4.79521">
        <ele>191.4</ele>
        <time>2021-03-28T09:27:20Z</time>
      </trkpt>
      <trkpt lat="45.18085" lon="4.79516">
        <ele>192</ele>
        <time>2021-03-28T09:27:24Z</time>
      </trkpt>
      <trkpt lat="45.18077" lon="4.7951">
        <ele>192</ele>
        <time>2021-03-28T09:27:28Z</time>
      </trkpt>
      <trkpt lat="45.18068" lon="4.79506">
        <ele>193</ele>
        <time>2021-03-28T09:27:32Z</time>
      </trkpt>
      <trkpt lat="45.18058" lon="4.79501">
        <ele>193.6</ele>
        <time>2021-03-28T09:27:36Z</time>
      </trkpt>
      <trkpt lat="45.18049" lon="4.79499">
        <ele>194.6</ele>
        <time>2021-03-28T09:27:40Z</time>
      </trkpt>
      <trkpt lat="45.18041" lon="4.79498">
        <ele>195.6</ele>
        <time>2021-03-28T09:27:44Z</time>
      </trkpt>
      <trkpt lat="45.18032" lon="4.79496">
        <ele>196</ele>
        <time>2021-03-28T09:27:48Z</time>
      </trkpt>
      <trkpt lat="45.18022" lon="4.79494">
        <ele>196.2</ele>
        <time>2021-03-28T09:27:52Z</time>
      </trkpt>
      <trkpt lat="45.18012" lon="4.79494">
        <ele>197</ele>
        <time>2021-03-28T09:27:56Z</time>
      </trkpt>
      <trkpt lat="45.18002" lon="4.79493">
        <ele>197.6</ele>
        <time>2021-03-28T09:28:00Z</time>
      </trkpt>
      <trkpt lat="45.17992" lon="4.79492">
        <ele>198.6</ele>
        <time>2021-03-28T09:28:04Z</time>
      </trkpt>
      <trkpt lat="45.17983" lon="4.79491">
        <ele>199</ele>
        <time>2021-03-28T09:28:08Z</time>
      </trkpt>
      <trkpt lat="45.17974" lon="4.79493">
        <ele>200</ele>
        <time>2021-03-28T09:28:12Z</time>
      </trkpt>
      <trkpt lat="45.17965" lon="4.79495">
        <ele>199.8</ele>
        <time>2021-03-28T09:28:16Z</time>
      </trkpt>
      <trkpt lat="45.17955" lon="4.79495">
        <ele>200.8</ele>
        <time>2021-03-28T09:28:20Z</time>
      </trkpt>
      <trkpt lat="45.17945" lon="4.79493">
        <ele>201.2</ele>
        <time>2021-03-28T09:28:24Z</time>
      </trkpt>
      <trkpt lat="45.17935" lon="4.79489">
        <ele>201.2</ele>
        <time>2021-03-28T09:28:28Z</time>
      </trkpt>
      <trkpt lat="45.17926" lon="4.79483">
        <ele>202</ele>
        <time>2021-03-28T09:28:32Z</time>
      </trkpt>
      <trkpt lat="45.17919" lon="4.79473">
        <ele>202.8</ele>
        <time>2021-03-28T09:28:36Z</time>
      </trkpt>
      <trkpt lat="45.17913" lon="4.79464">
        <ele>203.2</ele>
        <time>2021-03-28T09:28:40Z</time>
      </trkpt>
      <trkpt lat="45.17907" lon="4.79455">
        <ele>203.6</ele>
        <time>2021-03-28T09:28:44Z</time>
      </trkpt>
      <trkpt lat="45.179" lon="4.79444">
        <ele>204.6</ele>
        <time>2021-03-28T09:28:48Z</time>
      </trkpt>
      <trkpt lat="45.17895" lon="4.79434">
        <ele>204.8</ele>
        <time>2021-03-28T09:28:52Z</time>
      </trkpt>
      <trkpt lat="45.17889" lon="4.79423">
        <ele>205.6</ele>
        <time>2021-03-28T09:28:56Z</time>
      </trkpt>
      <trkpt lat="45.17882" lon="4.79414">
        <ele>206</ele>
        <time>2021-03-28T09:29:00Z</time>
      </trkpt>
      <trkpt lat="45.17877" lon="4.79404">
        <ele>206.6</ele>
        <time>2021-03-28T09:29:04Z</time>
      </trkpt>
      <trkpt lat="45.1787" lon="4.79393">
        <ele>207.6</ele>
        <time>2021-03-28T09:29:08Z</time>
      </trkpt>
      <trkpt lat="45.17864" lon="4.79382">
        <ele>208.4</ele>
        <time>2021-03-28T09:29:12Z</time>
      </trkpt>
      <trkpt lat="45.17857" lon="4.79371">
        <ele>208.8</ele>
        <time>2021-03-28T09:29:16Z</time>
      </trkpt>
      <trkpt lat="45.1785" lon="4.79361">
        <ele>209.6</ele>
        <time>2021-03-28T09:29:20Z</time>
      </trkpt>
      <trkpt lat="45.17844" lon="4.79349">
        <ele>210.2</ele>
        <time>2021-03-28T09:29:24Z</time>
      </trkpt>
      <trkpt lat="45.17838" lon="4.79339">
        <ele>210.8</ele>
        <time>2021-03-28T09:29:28Z</time>
      </trkpt>
      <trkpt lat="45.17834" lon="4.79326">
        <ele>211.4</ele>
        <time>2021-03-28T09:29:32Z</time>
      </trkpt>
      <trkpt lat="45.17833" lon="4.79313">
        <ele>211.6</ele>
        <time>2021-03-28T09:29:36Z</time>
      </trkpt>
      <trkpt lat="45.17833" lon="4.793">
        <ele>212.2</ele>
        <time>2021-03-28T09:29:40Z</time>
      </trkpt>
      <trkpt lat="45.17832" lon="4.79286">
        <ele>213</ele>
        <time>2021-03-28T09:29:44Z</time>
      </trkpt>
      <trkpt lat="45.17831" lon="4.79271">
        <ele>213.4</ele>
        <time>2021-03-28T09:29:48Z</time>
      </trkpt>
      <trkpt lat="45.17828" lon="4.79257">
        <ele>214.4</ele>
        <time>2021-03-28T09:29:52Z</time>
      </trkpt>
      <trkpt lat="45.17824" lon="4.79244">
        <ele>215</ele>
        <time>2021-03-28T09:29:56Z</time>
      </trkpt>
      <trkpt lat="45.17817" lon="4.79232">
        <ele>215.2</ele>
        <time>2021-03-28T09:30:00Z</time>
      </trkpt>
      <trkpt lat="45.17808" lon="4.79222">
        <ele>216</ele>
        <time>2021-03-28T09:30:04Z</time>
      </trkpt>
      <trkpt lat="45.178" lon="4.79214">
        <ele>216.4</ele>
        <time>2021-03-28T09:30:08Z</time>
      </trkpt>
      <trkpt lat="45.17793" lon="4.79204">
        <ele>217.4</ele>
        <time>2021-03-28T09:30:12Z</time>
      </trkpt>
      <trkpt lat="45.17786" lon="4.79192">
        <ele>218.2</ele>
        <time>2021-03-28T09:30:16Z</time>
      </trkpt>
      <trkpt lat="45.17781" lon="4.7918">
        <ele>218.8</ele>
        <time>2021-03-28T09:30:20Z</time>
      </trkpt>
      <trkpt lat="45.17774" lon="4.79168">
        <ele>219.2</ele>
        <time>2021-03-28T09:30:24Z</time>
      </trkpt>
      <trkpt lat="45.17768" lon="4.79156">
        <ele>219.8</ele>
        <time>2021-03-28T09:30:28Z</time>
      </trkpt>
      <trkpt lat="45.17762" lon="4.79145">
        <ele>220.4</ele>
        <time>2021-03-28T09:30:32Z</time>
      </trkpt>
      <trkpt lat="45.17756" lon="4.79134">
        <ele>221.2</ele>
        <time>2021-03-28T09:30:36Z</time>
      </trkpt>
      <trkpt lat="45.17751" lon="4.79123">
        <ele>222</ele>
        <time>2021-03-28T09:30:40Z</time>
      </trkpt>
      <trkpt lat="45.17747" lon="4.79111">
        <ele>222.4</ele>
        <time>2021-03-28T09:30:44Z</time>
      </trkpt>
      <trkpt lat="45.17744" lon="4.79098">
        <ele>223</ele>
        <time>2021-03-28T09:30:48Z</time>
      </trkpt>
      <trkpt lat="45.17742" lon="4.79084">
        <ele>223.4</ele>
        <time>2021-03-28T09:30:52Z</time>
      </trkpt>
      <trkpt lat="45.17739" lon="4.79071">
        <ele>223.6</ele>
        <time>2021-03-28T09:30:56Z</time>
      </trkpt>
      <trkpt lat="45.17736" lon="4.79058">
        <ele>224.6</ele>
        <time>2021-03-28T09:31:00Z</time>
      </trkpt>
      <trkpt lat="45.17734" lon="4.79045">
        <ele>225.2</ele>
        <time>2021-03-28T09:31:04Z</time>
      </trkpt>
      <trkpt lat="45.17732" lon="4.79032">
        <ele>225.6</ele>
        <time>2021-03-28T09:31:08Z</time>
      </trkpt>
      <trkpt lat="45.17729" lon="4.79018">
        <ele>226</ele>
        <time>2021-03-28T09:31:12Z</time>
      </trkpt>
      <trkpt lat="45.17726" lon="4.79004">
        <ele>226.6</ele>
        <time>2021-03-28T09:31:16Z</time>
      </trkpt>
      <trkpt lat="45.17724" lon="4.78989">
        <ele>227</ele>
        <time>2021-03-28T09:31:20Z</time>
      </trkpt>
      <trkpt lat="45.17725" lon="4.78975">
        <ele>227.2</ele>
        <time>2021-03-28T09:31:24Z</time>
      </trkpt>
      <trkpt lat="45.17727" lon="4.78962">
        <ele>227.6</ele>
        <time>2021-03-28T09:31:28Z</time>
      </trkpt>
      <trkpt lat="45.17729" lon="4.78948">
        <ele>228.2</ele>
        <time>2021-03-28T09:31:32Z</time>
      </trkpt>
      <trkpt lat="45.17731" lon="4.78933">
        <ele>228.8</ele>
        <time>2021-03-28T09:31:36Z</time>
      </trkpt>
      <trkpt lat="45.1773" lon="4.78918">
        <ele>230.2</ele>
        <time>2021-03-28T09:31:40Z</time>
      </trkpt>
      <trkpt lat="45.17727" lon="4.78904">
        <ele>231</ele>
        <time>2021-03-28T09:31:44Z</time>
      </trkpt>
      <trkpt lat="45.17724" lon="4.7889">
        <ele>231.2</ele>
        <time>2021-03-28T09:31:48Z</time>
      </trkpt>
      <trkpt lat="45.17721" lon="4.78876">
        <ele>231.4</ele>
        <time>2021-03-28T09:31:52Z</time>
      </trkpt>
      <trkpt lat="45.17717" lon="4.78862">
        <ele>232.4</ele>
        <time>2021-03-28T09:31:56Z</time>
      </trkpt>
      <trkpt lat="45.17714" lon="4.78848">
        <ele>232.8</ele>
        <time>2021-03-28T09:32:00Z</time>
      </trkpt>
      <trkpt lat="45.1771" lon="4.78834">
        <ele>233.4</ele>
        <time>2021-03-28T09:32:04Z</time>
      </trkpt>
      <trkpt lat="45.17707" lon="4.78821">
        <ele>234.2</ele>
        <time>2021-03-28T09:32:08Z</time>
      </trkpt>
      <trkpt lat="45.17704" lon="4.78809">
        <ele>234.8</ele>
        <time>2021-03-28T09:32:12Z</time>
      </trkpt>
      <trkpt lat="45.177" lon="4.78796">
        <ele>235</ele>
        <time>2021-03-28T09:32:16Z</time>
      </trkpt>
      <trkpt lat="45.17697" lon="4.78783">
        <ele>235.6</ele>
        <time>2021-03-28T09:32:20Z</time>
      </trkpt>
      <trkpt lat="45.17693" lon="4.7877">
        <ele>236.4</ele>
        <time>2021-03-28T09:32:24Z</time>
      </trkpt>
      <trkpt lat="45.1769" lon="4.78757">
        <ele>237</ele>
        <time>2021-03-28T09:32:28Z</time>
      </trkpt>
      <trkpt lat="45.17687" lon="4.78744">
        <ele>237.8</ele>
        <time>2021-03-28T09:32:32Z</time>
      </trkpt>
      <trkpt lat="45.17684" lon="4.78732">
        <ele>238.4</ele>
        <time>2021-03-28T09:32:36Z</time>
      </trkpt>
      <trkpt lat="45.1768" lon="4.78719">
        <ele>238.4</ele>
        <time>2021-03-28T09:32:40Z</time>
      </trkpt>
      <trkpt lat="45.17678" lon="4.78705">
        <ele>239.2</ele>
        <time>2021-03-28T09:32:44Z</time>
      </trkpt>
      <trkpt lat="45.17674" lon="4.78691">
        <ele>240.2</ele>
        <time>2021-03-28T09:32:48Z</time>
      </trkpt>
      <trkpt lat="45.17671" lon="4.78678">
        <ele>240.2</ele>
        <time>2021-03-28T09:32:52Z</time>
      </trkpt>
      <trkpt lat="45.17668" lon="4.78664">
        <ele>240</ele>
        <time>2021-03-28T09:32:56Z</time>
      </trkpt>
      <trkpt lat="45.17665" lon="4.78651">
        <ele>241.4</ele>
        <time>2021-03-28T09:33:00Z</time>
      </trkpt>
      <trkpt lat="45.17661" lon="4.78636">
        <ele>241.8</ele>
        <time>2021-03-28T09:33:04Z</time>
      </trkpt>
      <trkpt lat="45.17658" lon="4.78623">
        <ele>242.2</ele>
        <time>2021-03-28T09:33:08Z</time>
      </trkpt>
      <trkpt lat="45.17657" lon="4.78609">
        <ele>242.4</ele>
        <time>2021-03-28T09:33:12Z</time>
      </trkpt>
      <trkpt lat="45.17656" lon="4.78595">
        <ele>243.6</ele>
        <time>2021-03-28T09:33:16Z</time>
      </trkpt>
      <trkpt lat="45.17657" lon="4.78581">
        <ele>244.8</ele>
        <time>2021-03-28T09:33:20Z</time>
      </trkpt>
      <trkpt lat="45.17658" lon="4.78567">
        <ele>245</ele>
        <time>2021-03-28T09:33:24Z</time>
      </trkpt>
      <trkpt lat="45.17659" lon="4.78553">
        <ele>245</ele>
        <time>2021-03-28T09:33:28Z</time>
      </trkpt>
      <trkpt lat="45.17661" lon="4.78538">
        <ele>246</ele>
        <time>2021-03-28T09:33:32Z</time>
      </trkpt>
      <trkpt lat="45.17663" lon="4.78524">
        <ele>246</ele>
        <time>2021-03-28T09:33:36Z</time>
      </trkpt>
      <trkpt lat="45.17666" lon="4.7851">
        <ele>247.4</ele>
        <time>2021-03-28T09:33:40Z</time>
      </trkpt>
      <trkpt lat="45.17669" lon="4.78497">
        <ele>247.6</ele>
        <time>2021-03-28T09:33:44Z</time>
      </trkpt>
      <trkpt lat="45.17672" lon="4.78484">
        <ele>248.2</ele>
        <time>2021-03-28T09:33:48Z</time>
      </trkpt>
      <trkpt lat="45.17674" lon="4.78471">
        <ele>248.6</ele>
        <time>2021-03-28T09:33:52Z</time>
      </trkpt>
      <trkpt lat="45.17676" lon="4.78456">
        <ele>249</ele>
        <time>2021-03-28T09:33:56Z</time>
      </trkpt>
      <trkpt lat="45.17677" lon="4.78443">
        <ele>249.8</ele>
        <time>2021-03-28T09:34:00Z</time>
      </trkpt>
      <trkpt lat="45.17678" lon="4.78429">
        <ele>249.8</ele>
        <time>2021-03-28T09:34:04Z</time>
      </trkpt>
      <trkpt lat="45.17679" lon="4.78415">
        <ele>250.8</ele>
        <time>2021-03-28T09:34:08Z</time>
      </trkpt>
      <trkpt lat="45.17681" lon="4.78401">
        <ele>251.4</ele>
        <time>2021-03-28T09:34:12Z</time>
      </trkpt>
      <trkpt lat="45.17683" lon="4.78387">
        <ele>251.6</ele>
        <time>2021-03-28T09:34:16Z</time>
      </trkpt>
      <trkpt lat="45.17685" lon="4.78374">
        <ele>252.2</ele>
        <time>2021-03-28T09:34:20Z</time>
      </trkpt>
      <trkpt lat="45.17687" lon="4.78362">
        <ele>252.6</ele>
        <time>2021-03-28T09:34:24Z</time>
      </trkpt>
      <trkpt lat="45.17689" lon="4.78345">
        <ele>253.2</ele>
        <time>2021-03-28T09:34:28Z</time>
      </trkpt>
      <trkpt lat="45.1769" lon="4.78331">
        <ele>254</ele>
        <time>2021-03-28T09:34:32Z</time>
      </trkpt>
      <trkpt lat="45.17692" lon="4.78317">
        <ele>254.2</ele>
        <time>2021-03-28T09:34:36Z</time>
      </trkpt>
      <trkpt lat="45.17693" lon="4.78301">
        <ele>254.8</ele>
        <time>2021-03-28T09:34:40Z</time>
      </trkpt>
      <trkpt lat="45.17693" lon="4.78285">
        <ele>255.2</ele>
        <time>2021-03-28T09:34:44Z</time>
      </trkpt>
      <trkpt lat="45.17694" lon="4.7827">
        <ele>255.4</ele>
        <time>2021-03-28T09:34:48Z</time>
      </trkpt>
      <trkpt lat="45.17693" lon="4.78253">
        <ele>255.8</ele>
        <time>2021-03-28T09:34:52Z</time>
      </trkpt>
      <trkpt lat="45.17692" lon="4.78237">
        <ele>256.6</ele>
        <time>2021-03-28T09:34:56Z</time>
      </trkpt>
      <trkpt lat="45.17689" lon="4.78221">
        <ele>257</ele>
        <time>2021-03-28T09:35:00Z</time>
      </trkpt>
      <trkpt lat="45.17685" lon="4.78207">
        <ele>257.2</ele>
        <time>2021-03-28T09:35:04Z</time>
      </trkpt>
      <trkpt lat="45.17679" lon="4.78192">
        <ele>257.6</ele>
        <time>2021-03-28T09:35:08Z</time>
      </trkpt>
      <trkpt lat="45.17673" lon="4.78178">
        <ele>258.6</ele>
        <time>2021-03-28T09:35:12Z</time>
      </trkpt>
      <trkpt lat="45.17668" lon="4.78164">
        <ele>257.8</ele>
        <time>2021-03-28T09:35:16Z</time>
      </trkpt>
      <trkpt lat="45.17666" lon="4.78147">
        <ele>258.8</ele>
        <time>2021-03-28T09:35:20Z</time>
      </trkpt>
      <trkpt lat="45.17666" lon="4.78133">
        <ele>259.4</ele>
        <time>2021-03-28T09:35:24Z</time>
      </trkpt>
      <trkpt lat="45.17667" lon="4.78121">
        <ele>260</ele>
        <time>2021-03-28T09:35:28Z</time>
      </trkpt>
      <trkpt lat="45.17663" lon="4.78107">
        <ele>260.2</ele>
        <time>2021-03-28T09:35:32Z</time>
      </trkpt>
      <trkpt lat="45.17655" lon="4.78093">
        <ele>260.8</ele>
        <time>2021-03-28T09:35:36Z</time>
      </trkpt>
      <trkpt lat="45.17645" lon="4.78083">
        <ele>261</ele>
        <time>2021-03-28T09:35:40Z</time>
      </trkpt>
      <trkpt lat="45.17634" lon="4.78083">
        <ele>261.6</ele>
        <time>2021-03-28T09:35:44Z</time>
      </trkpt>
      <trkpt lat="45.17627" lon="4.78086">
        <ele>262.4</ele>
        <time>2021-03-28T09:35:48Z</time>
      </trkpt>
      <trkpt lat="45.17621" lon="4.78093">
        <ele>262.8</ele>
        <time>2021-03-28T09:35:52Z</time>
      </trkpt>
      <trkpt lat="45.17617" lon="4.78102">
        <ele>263.6</ele>
        <time>2021-03-28T09:35:56Z</time>
      </trkpt>
      <trkpt lat="45.17614" lon="4.78116">
        <ele>263.8</ele>
        <time>2021-03-28T09:36:00Z</time>
      </trkpt>
      <trkpt lat="45.17611" lon="4.78129">
        <ele>264</ele>
        <time>2021-03-28T09:36:04Z</time>
      </trkpt>
      <trkpt lat="45.17609" lon="4.78142">
        <ele>265</ele>
        <time>2021-03-28T09:36:08Z</time>
      </trkpt>
      <trkpt lat="45.17607" lon="4.78157">
        <ele>265.2</ele>
        <time>2021-03-28T09:36:12Z</time>
      </trkpt>
      <trkpt lat="45.17607" lon="4.7817">
        <ele>266.4</ele>
        <time>2021-03-28T09:36:16Z</time>
      </trkpt>
      <trkpt lat="45.17606" lon="4.78181">
        <ele>266.6</ele>
        <time>2021-03-28T09:36:20Z</time>
      </trkpt>
      <trkpt lat="45.17606" lon="4.78193">
        <ele>267.6</ele>
        <time>2021-03-28T09:36:24Z</time>
      </trkpt>
      <trkpt lat="45.17606" lon="4.78206">
        <ele>267.6</ele>
        <time>2021-03-28T09:36:28Z</time>
      </trkpt>
      <trkpt lat="45.17608" lon="4.7822">
        <ele>268.6</ele>
        <time>2021-03-28T09:36:32Z</time>
      </trkpt>
      <trkpt lat="45.17606" lon="4.78235">
        <ele>268.8</ele>
        <time>2021-03-28T09:36:36Z</time>
      </trkpt>
      <trkpt lat="45.17611" lon="4.78251">
        <ele>269.6</ele>
        <time>2021-03-28T09:36:40Z</time>
      </trkpt>
      <trkpt lat="45.17614" lon="4.78264">
        <ele>270.4</ele>
        <time>2021-03-28T09:36:44Z</time>
      </trkpt>
      <trkpt lat="45.17616" lon="4.78277">
        <ele>270.2</ele>
        <time>2021-03-28T09:36:48Z</time>
      </trkpt>
      <trkpt lat="45.17618" lon="4.78291">
        <ele>270.8</ele>
        <time>2021-03-28T09:36:52Z</time>
      </trkpt>
      <trkpt lat="45.17617" lon="4.78302">
        <ele>271.4</ele>
        <time>2021-03-28T09:36:56Z</time>
      </trkpt>
      <trkpt lat="45.17615" lon="4.78314">
        <ele>272.6</ele>
        <time>2021-03-28T09:37:00Z</time>
      </trkpt>
      <trkpt lat="45.17614" lon="4.78322">
        <ele>272.8</ele>
        <time>2021-03-28T09:37:04Z</time>
      </trkpt>
      <trkpt lat="45.17611" lon="4.78331">
        <ele>273.6</ele>
        <time>2021-03-28T09:37:08Z</time>
      </trkpt>
      <trkpt lat="45.17611" lon="4.78338">
        <ele>273.4</ele>
        <time>2021-03-28T09:37:12Z</time>
      </trkpt>
      <trkpt lat="45.17607" lon="4.78346">
        <ele>274</ele>
        <time>2021-03-28T09:37:16Z</time>
      </trkpt>
      <trkpt lat="45.17605" lon="4.78356">
        <ele>274.6</ele>
        <time>2021-03-28T09:37:20Z</time>
      </trkpt>
      <trkpt lat="45.17602" lon="4.78367">
        <ele>275.2</ele>
        <time>2021-03-28T09:37:24Z</time>
      </trkpt>
      <trkpt lat="45.17601" lon="4.78377">
        <ele>275.6</ele>
        <time>2021-03-28T09:37:28Z</time>
      </trkpt>
      <trkpt lat="45.17596" lon="4.78391">
        <ele>276.6</ele>
        <time>2021-03-28T09:37:32Z</time>
      </trkpt>
      <trkpt lat="45.17591" lon="4.78404">
        <ele>276.2</ele>
        <time>2021-03-28T09:37:36Z</time>
      </trkpt>
      <trkpt lat="45.17585" lon="4.78418">
        <ele>277</ele>
        <time>2021-03-28T09:37:40Z</time>
      </trkpt>
      <trkpt lat="45.17576" lon="4.7843">
        <ele>277.8</ele>
        <time>2021-03-28T09:37:44Z</time>
      </trkpt>
      <trkpt lat="45.17566" lon="4.7844">
        <ele>278.4</ele>
        <time>2021-03-28T09:37:48Z</time>
      </trkpt>
      <trkpt lat="45.17555" lon="4.78447">
        <ele>278.2</ele>
        <time>2021-03-28T09:37:52Z</time>
      </trkpt>
      <trkpt lat="45.17545" lon="4.78448">
        <ele>279.8</ele>
        <time>2021-03-28T09:37:56Z</time>
      </trkpt>
      <trkpt lat="45.17535" lon="4.78447">
        <ele>280.4</ele>
        <time>2021-03-28T09:38:00Z</time>
      </trkpt>
      <trkpt lat="45.17526" lon="4.78446">
        <ele>281</ele>
        <time>2021-03-28T09:38:04Z</time>
      </trkpt>
      <trkpt lat="45.17516" lon="4.78442">
        <ele>281.4</ele>
        <time>2021-03-28T09:38:08Z</time>
      </trkpt>
      <trkpt lat="45.17507" lon="4.78436">
        <ele>282.2</ele>
        <time>2021-03-28T09:38:12Z</time>
      </trkpt>
      <trkpt lat="45.17501" lon="4.78425">
        <ele>282.8</ele>
        <time>2021-03-28T09:38:16Z</time>
      </trkpt>
      <trkpt lat="45.17496" lon="4.78414">
        <ele>283.4</ele>
        <time>2021-03-28T09:38:20Z</time>
      </trkpt>
      <trkpt lat="45.17492" lon="4.78401">
        <ele>284</ele>
        <time>2021-03-28T09:38:24Z</time>
      </trkpt>
      <trkpt lat="45.17489" lon="4.78389">
        <ele>284.6</ele>
        <time>2021-03-28T09:38:28Z</time>
      </trkpt>
      <trkpt lat="45.17486" lon="4.78375">
        <ele>285</ele>
        <time>2021-03-28T09:38:32Z</time>
      </trkpt>
      <trkpt lat="45.17484" lon="4.78362">
        <ele>285.6</ele>
        <time>2021-03-28T09:38:36Z</time>
      </trkpt>
      <trkpt lat="45.17481" lon="4.78349">
        <ele>286.4</ele>
        <time>2021-03-28T09:38:40Z</time>
      </trkpt>
      <trkpt lat="45.17477" lon="4.78335">
        <ele>286.8</ele>
        <time>2021-03-28T09:38:44Z</time>
      </trkpt>
      <trkpt lat="45.17474" lon="4.78323">
        <ele>287.2</ele>
        <time>2021-03-28T09:38:48Z</time>
      </trkpt>
      <trkpt lat="45.1747" lon="4.78311">
        <ele>287.6</ele>
        <time>2021-03-28T09:38:52Z</time>
      </trkpt>
      <trkpt lat="45.17466" lon="4.783">
        <ele>288.2</ele>
        <time>2021-03-28T09:38:56Z</time>
      </trkpt>
      <trkpt lat="45.17461" lon="4.7829">
        <ele>288.6</ele>
        <time>2021-03-28T09:39:00Z</time>
      </trkpt>
      <trkpt lat="45.17456" lon="4.78279">
        <ele>289.4</ele>
        <time>2021-03-28T09:39:04Z</time>
      </trkpt>
      <trkpt lat="45.17451" lon="4.7827">
        <ele>289.8</ele>
        <time>2021-03-28T09:39:08Z</time>
      </trkpt>
      <trkpt lat="45.17443" lon="4.78259">
        <ele>290.2</ele>
        <time>2021-03-28T09:39:12Z</time>
      </trkpt>
      <trkpt lat="45.17436" lon="4.78249">
        <ele>290.6</ele>
        <time>2021-03-28T09:39:16Z</time>
      </trkpt>
      <trkpt lat="45.17427" lon="4.78239">
        <ele>291.4</ele>
        <time>2021-03-28T09:39:20Z</time>
      </trkpt>
      <trkpt lat="45.17418" lon="4.78231">
        <ele>292</ele>
        <time>2021-03-28T09:39:24Z</time>
      </trkpt>
      <trkpt lat="45.1741" lon="4.78223">
        <ele>292.6</ele>
        <time>2021-03-28T09:39:28Z</time>
      </trkpt>
      <trkpt lat="45.17402" lon="4.78214">
        <ele>292.8</ele>
        <time>2021-03-28T09:39:32Z</time>
      </trkpt>
      <trkpt lat="45.17395" lon="4.78205">
        <ele>293.8</ele>
        <time>2021-03-28T09:39:36Z</time>
      </trkpt>
      <trkpt lat="45.1739" lon="4.78193">
        <ele>294</ele>
        <time>2021-03-28T09:39:40Z</time>
      </trkpt>
      <trkpt lat="45.17387" lon="4.78179">
        <ele>295</ele>
        <time>2021-03-28T09:39:44Z</time>
      </trkpt>
      <trkpt lat="45.17384" lon="4.78164">
        <ele>295.6</ele>
        <time>2021-03-28T09:39:48Z</time>
      </trkpt>
      <trkpt lat="45.17382" lon="4.78149">
        <ele>295.8</ele>
        <time>2021-03-28T09:39:52Z</time>
      </trkpt>
      <trkpt lat="45.17381" lon="4.78134">
        <ele>296.2</ele>
        <time>2021-03-28T09:39:56Z</time>
      </trkpt>
      <trkpt lat="45.1738" lon="4.78118">
        <ele>296.8</ele>
        <time>2021-03-28T09:40:00Z</time>
      </trkpt>
      <trkpt lat="45.17377" lon="4.78103">
        <ele>297.4</ele>
        <time>2021-03-28T09:40:04Z</time>
      </trkpt>
      <trkpt lat="45.17371" lon="4.7809">
        <ele>297.6</ele>
        <time>2021-03-28T09:40:08Z</time>
      </trkpt>
      <trkpt lat="45.17364" lon="4.78079">
        <ele>298</ele>
        <time>2021-03-28T09:40:12Z</time>
      </trkpt>
      <trkpt lat="45.17356" lon="4.78068">
        <ele>298.4</ele>
        <time>2021-03-28T09:40:16Z</time>
      </trkpt>
      <trkpt lat="45.17348" lon="4.78057">
        <ele>299.2</ele>
        <time>2021-03-28T09:40:20Z</time>
      </trkpt>
      <trkpt lat="45.17341" lon="4.78047">
        <ele>299.8</ele>
        <time>2021-03-28T09:40:24Z</time>
      </trkpt>
      <trkpt lat="45.17336" lon="4.78036">
        <ele>300.4</ele>
        <time>2021-03-28T09:40:28Z</time>
      </trkpt>
      <trkpt lat="45.17331" lon="4.78025">
        <ele>301</ele>
        <time>2021-03-28T09:40:32Z</time>
      </trkpt>
      <trkpt lat="45.17326" lon="4.78015">
        <ele>301</ele>
        <time>2021-03-28T09:40:36Z</time>
      </trkpt>
      <trkpt lat="45.17322" lon="4.78002">
        <ele>301.6</ele>
        <time>2021-03-28T09:40:40Z</time>
      </trkpt>
      <trkpt lat="45.17318" lon="4.7799">
        <ele>302.4</ele>
        <time>2021-03-28T09:40:44Z</time>
      </trkpt>
      <trkpt lat="45.17314" lon="4.77976">
        <ele>303</ele>
        <time>2021-03-28T09:40:48Z</time>
      </trkpt>
      <trkpt lat="45.17313" lon="4.77962">
        <ele>303.8</ele>
        <time>2021-03-28T09:40:52Z</time>
      </trkpt>
      <trkpt lat="45.17311" lon="4.77948">
        <ele>304.2</ele>
        <time>2021-03-28T09:40:56Z</time>
      </trkpt>
      <trkpt lat="45.17308" lon="4.77935">
        <ele>304.4</ele>
        <time>2021-03-28T09:41:00Z</time>
      </trkpt>
      <trkpt lat="45.17305" lon="4.77922">
        <ele>305.2</ele>
        <time>2021-03-28T09:41:04Z</time>
      </trkpt>
      <trkpt lat="45.17301" lon="4.77909">
        <ele>306.4</ele>
        <time>2021-03-28T09:41:08Z</time>
      </trkpt>
      <trkpt lat="45.17296" lon="4.77898">
        <ele>306.6</ele>
        <time>2021-03-28T09:41:12Z</time>
      </trkpt>
      <trkpt lat="45.17291" lon="4.77887">
        <ele>306.8</ele>
        <time>2021-03-28T09:41:16Z</time>
      </trkpt>
      <trkpt lat="45.17287" lon="4.77875">
        <ele>307.8</ele>
        <time>2021-03-28T09:41:20Z</time>
      </trkpt>
      <trkpt lat="45.17284" lon="4.77863">
        <ele>308.4</ele>
        <time>2021-03-28T09:41:24Z</time>
      </trkpt>
      <trkpt lat="45.17281" lon="4.77849">
        <ele>308.8</ele>
        <time>2021-03-28T09:41:28Z</time>
      </trkpt>
      <trkpt lat="45.17281" lon="4.77834">
        <ele>309.6</ele>
        <time>2021-03-28T09:41:32Z</time>
      </trkpt>
      <trkpt lat="45.17281" lon="4.7782">
        <ele>310.4</ele>
        <time>2021-03-28T09:41:36Z</time>
      </trkpt>
      <trkpt lat="45.17282" lon="4.77807">
        <ele>311.2</ele>
        <time>2021-03-28T09:41:40Z</time>
      </trkpt>
      <trkpt lat="45.17281" lon="4.77793">
        <ele>311.8</ele>
        <time>2021-03-28T09:41:44Z</time>
      </trkpt>
      <trkpt lat="45.1728" lon="4.7778">
        <ele>311.8</ele>
        <time>2021-03-28T09:41:48Z</time>
      </trkpt>
      <trkpt lat="45.17278" lon="4.77767">
        <ele>312.6</ele>
        <time>2021-03-28T09:41:52Z</time>
      </trkpt>
      <trkpt lat="45.17275" lon="4.77753">
        <ele>313</ele>
        <time>2021-03-28T09:41:56Z</time>
      </trkpt>
      <trkpt lat="45.17271" lon="4.77741">
        <ele>313.8</ele>
        <time>2021-03-28T09:42:00Z</time>
      </trkpt>
      <trkpt lat="45.17267" lon="4.77729">
        <ele>314.2</ele>
        <time>2021-03-28T09:42:04Z</time>
      </trkpt>
      <trkpt lat="45.17262" lon="4.77717">
        <ele>315</ele>
        <time>2021-03-28T09:42:08Z</time>
      </trkpt>
      <trkpt lat="45.17258" lon="4.77705">
        <ele>315.2</ele>
        <time>2021-03-28T09:42:12Z</time>
      </trkpt>
      <trkpt lat="45.17254" lon="4.77692">
        <ele>316</ele>
        <time>2021-03-28T09:42:16Z</time>
      </trkpt>
      <trkpt lat="45.17249" lon="4.7768">
        <ele>315.8</ele>
        <time>2021-03-28T09:42:20Z</time>
      </trkpt>
      <trkpt lat="45.17244" lon="4.77668">
        <ele>316.8</ele>
        <time>2021-03-28T09:42:24Z</time>
      </trkpt>
      <trkpt lat="45.1724" lon="4.77656">
        <ele>317.6</ele>
        <time>2021-03-28T09:42:28Z</time>
      </trkpt>
      <trkpt lat="45.17235" lon="4.77645">
        <ele>318</ele>
        <time>2021-03-28T09:42:32Z</time>
      </trkpt>
      <trkpt lat="45.1723" lon="4.77633">
        <ele>318.2</ele>
        <time>2021-03-28T09:42:36Z</time>
      </trkpt>
      <trkpt lat="45.17227" lon="4.77621">
        <ele>319.2</ele>
        <time>2021-03-28T09:42:40Z</time>
      </trkpt>
      <trkpt lat="45.17224" lon="4.77607">
        <ele>320.2</ele>
        <time>2021-03-28T09:42:44Z</time>
      </trkpt>
      <trkpt lat="45.17223" lon="4.77593">
        <ele>320.4</ele>
        <time>2021-03-28T09:42:48Z</time>
      </trkpt>
      <trkpt lat="45.17221" lon="4.77579">
        <ele>320.4</ele>
        <time>2021-03-28T09:42:52Z</time>
      </trkpt>
      <trkpt lat="45.17217" lon="4.77565">
        <ele>321.2</ele>
        <time>2021-03-28T09:42:56Z</time>
      </trkpt>
      <trkpt lat="45.17213" lon="4.77552">
        <ele>321.6</ele>
        <time>2021-03-28T09:43:00Z</time>
      </trkpt>
      <trkpt lat="45.17209" lon="4.77539">
        <ele>322.4</ele>
        <time>2021-03-28T09:43:04Z</time>
      </trkpt>
      <trkpt lat="45.17203" lon="4.77528">
        <ele>323.2</ele>
        <time>2021-03-28T09:43:08Z</time>
      </trkpt>
      <trkpt lat="45.17196" lon="4.77518">
        <ele>324</ele>
        <time>2021-03-28T09:43:12Z</time>
      </trkpt>
      <trkpt lat="45.17188" lon="4.7751">
        <ele>324.8</ele>
        <time>2021-03-28T09:43:16Z</time>
      </trkpt>
      <trkpt lat="45.1718" lon="4.77502">
        <ele>325.2</ele>
        <time>2021-03-28T09:43:20Z</time>
      </trkpt>
      <trkpt lat="45.17172" lon="4.77495">
        <ele>325.6</ele>
        <time>2021-03-28T09:43:24Z</time>
      </trkpt>
      <trkpt lat="45.17164" lon="4.77487">
        <ele>325.6</ele>
        <time>2021-03-28T09:43:28Z</time>
      </trkpt>
      <trkpt lat="45.17156" lon="4.7748">
        <ele>326.6</ele>
        <time>2021-03-28T09:43:32Z</time>
      </trkpt>
      <trkpt lat="45.17147" lon="4.77471">
        <ele>327</ele>
        <time>2021-03-28T09:43:36Z</time>
      </trkpt>
      <trkpt lat="45.17139" lon="4.77464">
        <ele>328.2</ele>
        <time>2021-03-28T09:43:40Z</time>
      </trkpt>
      <trkpt lat="45.17131" lon="4.77456">
        <ele>328.4</ele>
        <time>2021-03-28T09:43:44Z</time>
      </trkpt>
      <trkpt lat="45.17123" lon="4.77449">
        <ele>328.8</ele>
        <time>2021-03-28T09:43:48Z</time>
      </trkpt>
      <trkpt lat="45.17116" lon="4.7744">
        <ele>329.2</ele>
        <time>2021-03-28T09:43:52Z</time>
      </trkpt>
      <trkpt lat="45.17109" lon="4.77429">
        <ele>329.4</ele>
        <time>2021-03-28T09:43:56Z</time>
      </trkpt>
      <trkpt lat="45.17104" lon="4.77416">
        <ele>330.2</ele>
        <time>2021-03-28T09:44:00Z</time>
      </trkpt>
      <trkpt lat="45.17102" lon="4.77401">
        <ele>331.4</ele>
        <time>2021-03-28T09:44:04Z</time>
      </trkpt>
      <trkpt lat="45.17102" lon="4.77387">
        <ele>331.8</ele>
        <time>2021-03-28T09:44:08Z</time>
      </trkpt>
      <trkpt lat="45.17104" lon="4.77373">
        <ele>332.2</ele>
        <time>2021-03-28T09:44:12Z</time>
      </trkpt>
      <trkpt lat="45.17107" lon="4.77359">
        <ele>332.6</ele>
        <time>2021-03-28T09:44:16Z</time>
      </trkpt>
      <trkpt lat="45.17109" lon="4.77345">
        <ele>333</ele>
        <time>2021-03-28T09:44:20Z</time>
      </trkpt>
      <trkpt lat="45.17111" lon="4.7733">
        <ele>333.6</ele>
        <time>2021-03-28T09:44:24Z</time>
      </trkpt>
      <trkpt lat="45.17113" lon="4.77316">
        <ele>334.8</ele>
        <time>2021-03-28T09:44:28Z</time>
      </trkpt>
      <trkpt lat="45.17113" lon="4.77302">
        <ele>334.6</ele>
        <time>2021-03-28T09:44:32Z</time>
      </trkpt>
      <trkpt lat="45.17112" lon="4.77288">
        <ele>335.6</ele>
        <time>2021-03-28T09:44:36Z</time>
      </trkpt>
      <trkpt lat="45.17109" lon="4.77275">
        <ele>335.8</ele>
        <time>2021-03-28T09:44:40Z</time>
      </trkpt>
      <trkpt lat="45.17104" lon="4.77263">
        <ele>336.4</ele>
        <time>2021-03-28T09:44:44Z</time>
      </trkpt>
      <trkpt lat="45.17098" lon="4.77251">
        <ele>336.8</ele>
        <time>2021-03-28T09:44:48Z</time>
      </trkpt>
      <trkpt lat="45.17091" lon="4.7724">
        <ele>337.4</ele>
        <time>2021-03-28T09:44:52Z</time>
      </trkpt>
      <trkpt lat="45.17083" lon="4.77231">
        <ele>338</ele>
        <time>2021-03-28T09:44:56Z</time>
      </trkpt>
      <trkpt lat="45.17075" lon="4.77224">
        <ele>338.8</ele>
        <time>2021-03-28T09:45:00Z</time>
      </trkpt>
      <trkpt lat="45.17066" lon="4.77219">
        <ele>339.4</ele>
        <time>2021-03-28T09:45:04Z</time>
      </trkpt>
      <trkpt lat="45.17056" lon="4.77215">
        <ele>340</ele>
        <time>2021-03-28T09:45:08Z</time>
      </trkpt>
      <trkpt lat="45.17046" lon="4.77211">
        <ele>340</ele>
        <time>2021-03-28T09:45:12Z</time>
      </trkpt>
      <trkpt lat="45.17037" lon="4.77206">
        <ele>340.6</ele>
        <time>2021-03-28T09:45:16Z</time>
      </trkpt>
      <trkpt lat="45.17027" lon="4.77201">
        <ele>341.6</ele>
        <time>2021-03-28T09:45:20Z</time>
      </trkpt>
      <trkpt lat="45.17019" lon="4.77194">
        <ele>342.4</ele>
        <time>2021-03-28T09:45:24Z</time>
      </trkpt>
      <trkpt lat="45.1701" lon="4.77186">
        <ele>343</ele>
        <time>2021-03-28T09:45:28Z</time>
      </trkpt>
      <trkpt lat="45.17003" lon="4.77176">
        <ele>343.6</ele>
        <time>2021-03-28T09:45:32Z</time>
      </trkpt>
      <trkpt lat="45.16998" lon="4.77165">
        <ele>344.2</ele>
        <time>2021-03-28T09:45:36Z</time>
      </trkpt>
      <trkpt lat="45.16993" lon="4.77153">
        <ele>344.6</ele>
        <time>2021-03-28T09:45:40Z</time>
      </trkpt>
      <trkpt lat="45.16988" lon="4.7714">
        <ele>345.2</ele>
        <time>2021-03-28T09:45:44Z</time>
      </trkpt>
      <trkpt lat="45.16984" lon="4.77128">
        <ele>346.2</ele>
        <time>2021-03-28T09:45:48Z</time>
      </trkpt>
      <trkpt lat="45.16979" lon="4.77115">
        <ele>346.6</ele>
        <time>2021-03-28T09:45:52Z</time>
      </trkpt>
      <trkpt lat="45.16974" lon="4.77103">
        <ele>346.8</ele>
        <time>2021-03-28T09:45:56Z</time>
      </trkpt>
      <trkpt lat="45.1697" lon="4.77091">
        <ele>347.4</ele>
        <time>2021-03-28T09:46:00Z</time>
      </trkpt>
      <trkpt lat="45.16965" lon="4.77079">
        <ele>348</ele>
        <time>2021-03-28T09:46:04Z</time>
      </trkpt>
      <trkpt lat="45.16961" lon="4.77066">
        <ele>348.4</ele>
        <time>2021-03-28T09:46:08Z</time>
      </trkpt>
      <trkpt lat="45.16956" lon="4.77054">
        <ele>349.4</ele>
        <time>2021-03-28T09:46:12Z</time>
      </trkpt>
      <trkpt lat="45.16951" lon="4.77041">
        <ele>350</ele>
        <time>2021-03-28T09:46:16Z</time>
      </trkpt>
      <trkpt lat="45.16946" lon="4.77029">
        <ele>350.4</ele>
        <time>2021-03-28T09:46:20Z</time>
      </trkpt>
      <trkpt lat="45.16942" lon="4.77017">
        <ele>351</ele>
        <time>2021-03-28T09:46:24Z</time>
      </trkpt>
      <trkpt lat="45.16937" lon="4.77003">
        <ele>352</ele>
        <time>2021-03-28T09:46:28Z</time>
      </trkpt>
      <trkpt lat="45.16931" lon="4.7699">
        <ele>352.2</ele>
        <time>2021-03-28T09:46:32Z</time>
      </trkpt>
      <trkpt lat="45.16927" lon="4.76977">
        <ele>352.4</ele>
        <time>2021-03-28T09:46:36Z</time>
      </trkpt>
      <trkpt lat="45.16922" lon="4.76964">
        <ele>353.2</ele>
        <time>2021-03-28T09:46:40Z</time>
      </trkpt>
      <trkpt lat="45.16917" lon="4.7695">
        <ele>353.6</ele>
        <time>2021-03-28T09:46:44Z</time>
      </trkpt>
      <trkpt lat="45.16914" lon="4.76935">
        <ele>354.4</ele>
        <time>2021-03-28T09:46:48Z</time>
      </trkpt>
      <trkpt lat="45.16914" lon="4.7692">
        <ele>354.8</ele>
        <time>2021-03-28T09:46:52Z</time>
      </trkpt>
      <trkpt lat="45.16915" lon="4.76905">
        <ele>355.2</ele>
        <time>2021-03-28T09:46:56Z</time>
      </trkpt>
      <trkpt lat="45.16919" lon="4.76891">
        <ele>356</ele>
        <time>2021-03-28T09:47:00Z</time>
      </trkpt>
      <trkpt lat="45.16923" lon="4.76877">
        <ele>356.2</ele>
        <time>2021-03-28T09:47:04Z</time>
      </trkpt>
      <trkpt lat="45.16929" lon="4.76865">
        <ele>356.6</ele>
        <time>2021-03-28T09:47:08Z</time>
      </trkpt>
      <trkpt lat="45.16936" lon="4.76853">
        <ele>357.6</ele>
        <time>2021-03-28T09:47:12Z</time>
      </trkpt>
      <trkpt lat="45.16945" lon="4.76842">
        <ele>358.2</ele>
        <time>2021-03-28T09:47:16Z</time>
      </trkpt>
      <trkpt lat="45.16955" lon="4.76833">
        <ele>358</ele>
        <time>2021-03-28T09:47:20Z</time>
      </trkpt>
      <trkpt lat="45.16965" lon="4.76825">
        <ele>357.6</ele>
        <time>2021-03-28T09:47:24Z</time>
      </trkpt>
      <trkpt lat="45.16975" lon="4.76817">
        <ele>358.4</ele>
        <time>2021-03-28T09:47:28Z</time>
      </trkpt>
      <trkpt lat="45.16986" lon="4.76808">
        <ele>358.2</ele>
        <time>2021-03-28T09:47:32Z</time>
      </trkpt>
      <trkpt lat="45.16997" lon="4.76799">
        <ele>358</ele>
        <time>2021-03-28T09:47:36Z</time>
      </trkpt>
      <trkpt lat="45.17009" lon="4.7679">
        <ele>358</ele>
        <time>2021-03-28T09:47:40Z</time>
      </trkpt>
      <trkpt lat="45.1702" lon="4.76781">
        <ele>358.4</ele>
        <time>2021-03-28T09:47:44Z</time>
      </trkpt>
      <trkpt lat="45.17034" lon="4.76771">
        <ele>359.4</ele>
        <time>2021-03-28T09:47:48Z</time>
      </trkpt>
      <trkpt lat="45.17046" lon="4.76761">
        <ele>358.4</ele>
        <time>2021-03-28T09:47:52Z</time>
      </trkpt>
      <trkpt lat="45.17058" lon="4.76751">
        <ele>358.8</ele>
        <time>2021-03-28T09:47:56Z</time>
      </trkpt>
      <trkpt lat="45.17071" lon="4.76741">
        <ele>359.6</ele>
        <time>2021-03-28T09:48:00Z</time>
      </trkpt>
      <trkpt lat="45.17082" lon="4.76729">
        <ele>359.8</ele>
        <time>2021-03-28T09:48:04Z</time>
      </trkpt>
      <trkpt lat="45.17092" lon="4.76716">
        <ele>360.2</ele>
        <time>2021-03-28T09:48:08Z</time>
      </trkpt>
      <trkpt lat="45.17103" lon="4.76701">
        <ele>359.6</ele>
        <time>2021-03-28T09:48:12Z</time>
      </trkpt>
      <trkpt lat="45.17111" lon="4.76684">
        <ele>360.4</ele>
        <time>2021-03-28T09:48:16Z</time>
      </trkpt>
      <trkpt lat="45.17118" lon="4.76667">
        <ele>359.4</ele>
        <time>2021-03-28T09:48:20Z</time>
      </trkpt>
      <trkpt lat="45.17123" lon="4.76648">
        <ele>360.4</ele>
        <time>2021-03-28T09:48:24Z</time>
      </trkpt>
      <trkpt lat="45.17128" lon="4.7663">
        <ele>360.4</ele>
        <time>2021-03-28T09:48:28Z</time>
      </trkpt>
      <trkpt lat="45.1713" lon="4.7661">
        <ele>360.2</ele>
        <time>2021-03-28T09:48:32Z</time>
      </trkpt>
      <trkpt lat="45.17132" lon="4.7659">
        <ele>360.8</ele>
        <time>2021-03-28T09:48:36Z</time>
      </trkpt>
      <trkpt lat="45.17133" lon="4.76569">
        <ele>360.8</ele>
        <time>2021-03-28T09:48:40Z</time>
      </trkpt>
      <trkpt lat="45.17133" lon="4.76549">
        <ele>361.4</ele>
        <time>2021-03-28T09:48:44Z</time>
      </trkpt>
      <trkpt lat="45.1713" lon="4.76529">
        <ele>361.6</ele>
        <time>2021-03-28T09:48:48Z</time>
      </trkpt>
      <trkpt lat="45.17125" lon="4.76508">
        <ele>360.8</ele>
        <time>2021-03-28T09:48:52Z</time>
      </trkpt>
      <trkpt lat="45.1712" lon="4.76486">
        <ele>361</ele>
        <time>2021-03-28T09:48:56Z</time>
      </trkpt>
      <trkpt lat="45.17116" lon="4.76467">
        <ele>362.4</ele>
        <time>2021-03-28T09:49:00Z</time>
      </trkpt>
      <trkpt lat="45.17112" lon="4.76449">
        <ele>363</ele>
        <time>2021-03-28T09:49:04Z</time>
      </trkpt>
      <trkpt lat="45.17106" lon="4.7643">
        <ele>364.2</ele>
        <time>2021-03-28T09:49:08Z</time>
      </trkpt>
      <trkpt lat="45.17099" lon="4.76412">
        <ele>363.4</ele>
        <time>2021-03-28T09:49:12Z</time>
      </trkpt>
      <trkpt lat="45.17092" lon="4.76393">
        <ele>364.8</ele>
        <time>2021-03-28T09:49:16Z</time>
      </trkpt>
      <trkpt lat="45.17086" lon="4.76375">
        <ele>365.2</ele>
        <time>2021-03-28T09:49:20Z</time>
      </trkpt>
      <trkpt lat="45.1708" lon="4.76358">
        <ele>366.4</ele>
        <time>2021-03-28T09:49:24Z</time>
      </trkpt>
      <trkpt lat="45.17075" lon="4.76343">
        <ele>366.8</ele>
        <time>2021-03-28T09:49:28Z</time>
      </trkpt>
      <trkpt lat="45.17071" lon="4.76327">
        <ele>366.8</ele>
        <time>2021-03-28T09:49:32Z</time>
      </trkpt>
      <trkpt lat="45.17067" lon="4.7631">
        <ele>367.4</ele>
        <time>2021-03-28T09:49:36Z</time>
      </trkpt>
      <trkpt lat="45.17062" lon="4.76292">
        <ele>367.4</ele>
        <time>2021-03-28T09:49:40Z</time>
      </trkpt>
      <trkpt lat="45.17056" lon="4.76274">
        <ele>367.6</ele>
        <time>2021-03-28T09:49:44Z</time>
      </trkpt>
      <trkpt lat="45.17049" lon="4.76256">
        <ele>368.2</ele>
        <time>2021-03-28T09:49:48Z</time>
      </trkpt>
      <trkpt lat="45.17041" lon="4.76239">
        <ele>368.4</ele>
        <time>2021-03-28T09:49:52Z</time>
      </trkpt>
      <trkpt lat="45.17033" lon="4.76224">
        <ele>368.4</ele>
        <time>2021-03-28T09:49:56Z</time>
      </trkpt>
      <trkpt lat="45.17025" lon="4.7621">
        <ele>369.4</ele>
        <time>2021-03-28T09:50:00Z</time>
      </trkpt>
      <trkpt lat="45.17018" lon="4.76199">
        <ele>370.4</ele>
        <time>2021-03-28T09:50:04Z</time>
      </trkpt>
      <trkpt lat="45.17009" lon="4.76189">
        <ele>370.6</ele>
        <time>2021-03-28T09:50:08Z</time>
      </trkpt>
      <trkpt lat="45.17" lon="4.7618">
        <ele>371.4</ele>
        <time>2021-03-28T09:50:12Z</time>
      </trkpt>
      <trkpt lat="45.16991" lon="4.76171">
        <ele>372.4</ele>
        <time>2021-03-28T09:50:16Z</time>
      </trkpt>
      <trkpt lat="45.16981" lon="4.76164">
        <ele>373</ele>
        <time>2021-03-28T09:50:20Z</time>
      </trkpt>
      <trkpt lat="45.16971" lon="4.76158">
        <ele>373</ele>
        <time>2021-03-28T09:50:24Z</time>
      </trkpt>
      <trkpt lat="45.1696" lon="4.76153">
        <ele>373.4</ele>
        <time>2021-03-28T09:50:28Z</time>
      </trkpt>
      <trkpt lat="45.1695" lon="4.76149">
        <ele>373.8</ele>
        <time>2021-03-28T09:50:32Z</time>
      </trkpt>
      <trkpt lat="45.1694" lon="4.76147">
        <ele>374.8</ele>
        <time>2021-03-28T09:50:36Z</time>
      </trkpt>
      <trkpt lat="45.1693" lon="4.76143">
        <ele>375.2</ele>
        <time>2021-03-28T09:50:40Z</time>
      </trkpt>
      <trkpt lat="45.16921" lon="4.76139">
        <ele>375.8</ele>
        <time>2021-03-28T09:50:44Z</time>
      </trkpt>
      <trkpt lat="45.1691" lon="4.76136">
        <ele>377.2</ele>
        <time>2021-03-28T09:50:48Z</time>
      </trkpt>
      <trkpt lat="45.169" lon="4.76133">
        <ele>377.4</ele>
        <time>2021-03-28T09:50:52Z</time>
      </trkpt>
      <trkpt lat="45.1689" lon="4.76128">
        <ele>377.8</ele>
        <time>2021-03-28T09:50:56Z</time>
      </trkpt>
      <trkpt lat="45.16879" lon="4.76125">
        <ele>378.2</ele>
        <time>2021-03-28T09:51:00Z</time>
      </trkpt>
      <trkpt lat="45.16867" lon="4.76119">
        <ele>378.2</ele>
        <time>2021-03-28T09:51:04Z</time>
      </trkpt>
      <trkpt lat="45.16857" lon="4.76113">
        <ele>379</ele>
        <time>2021-03-28T09:51:08Z</time>
      </trkpt>
      <trkpt lat="45.16846" lon="4.76104">
        <ele>379.2</ele>
        <time>2021-03-28T09:51:12Z</time>
      </trkpt>
      <trkpt lat="45.16836" lon="4.76096">
        <ele>379.4</ele>
        <time>2021-03-28T09:51:16Z</time>
      </trkpt>
      <trkpt lat="45.16825" lon="4.76087">
        <ele>380.4</ele>
        <time>2021-03-28T09:51:20Z</time>
      </trkpt>
      <trkpt lat="45.16815" lon="4.76077">
        <ele>380.4</ele>
        <time>2021-03-28T09:51:24Z</time>
      </trkpt>
      <trkpt lat="45.16804" lon="4.76066">
        <ele>381</ele>
        <time>2021-03-28T09:51:28Z</time>
      </trkpt>
      <trkpt lat="45.16792" lon="4.76056">
        <ele>380.8</ele>
        <time>2021-03-28T09:51:32Z</time>
      </trkpt>
      <trkpt lat="45.16781" lon="4.76046">
        <ele>381.2</ele>
        <time>2021-03-28T09:51:36Z</time>
      </trkpt>
      <trkpt lat="45.16769" lon="4.76035">
        <ele>381.4</ele>
        <time>2021-03-28T09:51:40Z</time>
      </trkpt>
      <trkpt lat="45.16757" lon="4.76023">
        <ele>382</ele>
        <time>2021-03-28T09:51:44Z</time>
      </trkpt>
      <trkpt lat="45.16744" lon="4.7601">
        <ele>381.2</ele>
        <time>2021-03-28T09:51:48Z</time>
      </trkpt>
      <trkpt lat="45.16731" lon="4.75995">
        <ele>381</ele>
        <time>2021-03-28T09:51:52Z</time>
      </trkpt>
      <trkpt lat="45.16718" lon="4.75981">
        <ele>381.8</ele>
        <time>2021-03-28T09:51:56Z</time>
      </trkpt>
      <trkpt lat="45.16706" lon="4.75966">
        <ele>380.8</ele>
        <time>2021-03-28T09:52:00Z</time>
      </trkpt>
      <trkpt lat="45.16697" lon="4.75951">
        <ele>382</ele>
        <time>2021-03-28T09:52:04Z</time>
      </trkpt>
      <trkpt lat="45.16685" lon="4.75944">
        <ele>383</ele>
        <time>2021-03-28T09:52:08Z</time>
      </trkpt>
      <trkpt lat="45.16674" lon="4.75947">
        <ele>383.4</ele>
        <time>2021-03-28T09:52:12Z</time>
      </trkpt>
      <trkpt lat="45.16674" lon="4.75947">
        <ele>383.2</ele>
        <time>2021-03-28T09:52:16Z</time>
      </trkpt>
      <trkpt lat="45.16658" lon="4.75954">
        <ele>382.6</ele>
        <time>2021-03-28T09:52:47Z</time>
      </trkpt>
      <trkpt lat="45.1664" lon="4.75956">
        <ele>381</ele>
        <time>2021-03-28T09:52:51Z</time>
      </trkpt>
      <trkpt lat="45.16622" lon="4.7595">
        <ele>380.4</ele>
        <time>2021-03-28T09:52:55Z</time>
      </trkpt>
      <trkpt lat="45.16605" lon="4.75945">
        <ele>380.2</ele>
        <time>2021-03-28T09:52:59Z</time>
      </trkpt>
      <trkpt lat="45.16589" lon="4.75939">
        <ele>380.8</ele>
        <time>2021-03-28T09:53:03Z</time>
      </trkpt>
      <trkpt lat="45.16573" lon="4.75933">
        <ele>380.8</ele>
        <time>2021-03-28T09:53:07Z</time>
      </trkpt>
      <trkpt lat="45.16557" lon="4.75927">
        <ele>381.2</ele>
        <time>2021-03-28T09:53:11Z</time>
      </trkpt>
      <trkpt lat="45.16544" lon="4.7592">
        <ele>381.6</ele>
        <time>2021-03-28T09:53:15Z</time>
      </trkpt>
      <trkpt lat="45.16529" lon="4.75912">
        <ele>382</ele>
        <time>2021-03-28T09:53:19Z</time>
      </trkpt>
      <trkpt lat="45.16509" lon="4.75902">
        <ele>380.6</ele>
        <time>2021-03-28T09:53:23Z</time>
      </trkpt>
      <trkpt lat="45.16484" lon="4.7589">
        <ele>378.2</ele>
        <time>2021-03-28T09:53:27Z</time>
      </trkpt>
      <trkpt lat="45.16452" lon="4.75877">
        <ele>375.6</ele>
        <time>2021-03-28T09:53:31Z</time>
      </trkpt>
      <trkpt lat="45.16418" lon="4.75865">
        <ele>374.4</ele>
        <time>2021-03-28T09:53:35Z</time>
      </trkpt>
      <trkpt lat="45.16385" lon="4.75857">
        <ele>373</ele>
        <time>2021-03-28T09:53:39Z</time>
      </trkpt>
      <trkpt lat="45.16357" lon="4.75861">
        <ele>373.2</ele>
        <time>2021-03-28T09:53:43Z</time>
      </trkpt>
      <trkpt lat="45.16338" lon="4.75868">
        <ele>375.4</ele>
        <time>2021-03-28T09:53:47Z</time>
      </trkpt>
      <trkpt lat="45.16326" lon="4.75875">
        <ele>377.2</ele>
        <time>2021-03-28T09:53:51Z</time>
      </trkpt>
      <trkpt lat="45.16316" lon="4.7588">
        <ele>378.2</ele>
        <time>2021-03-28T09:53:55Z</time>
      </trkpt>
      <trkpt lat="45.16307" lon="4.75885">
        <ele>380</ele>
        <time>2021-03-28T09:53:59Z</time>
      </trkpt>
      <trkpt lat="45.16299" lon="4.75889">
        <ele>381.2</ele>
        <time>2021-03-28T09:54:03Z</time>
      </trkpt>
      <trkpt lat="45.1629" lon="4.75894">
        <ele>381.8</ele>
        <time>2021-03-28T09:54:07Z</time>
      </trkpt>
      <trkpt lat="45.16282" lon="4.75899">
        <ele>383</ele>
        <time>2021-03-28T09:54:11Z</time>
      </trkpt>
      <trkpt lat="45.16274" lon="4.75904">
        <ele>383</ele>
        <time>2021-03-28T09:54:15Z</time>
      </trkpt>
      <trkpt lat="45.16265" lon="4.7591">
        <ele>383.2</ele>
        <time>2021-03-28T09:54:19Z</time>
      </trkpt>
      <trkpt lat="45.16256" lon="4.75916">
        <ele>384</ele>
        <time>2021-03-28T09:54:23Z</time>
      </trkpt>
      <trkpt lat="45.16246" lon="4.75923">
        <ele>384.8</ele>
        <time>2021-03-28T09:54:27Z</time>
      </trkpt>
      <trkpt lat="45.16236" lon="4.7593">
        <ele>384.8</ele>
        <time>2021-03-28T09:54:31Z</time>
      </trkpt>
      <trkpt lat="45.16224" lon="4.75939">
        <ele>385</ele>
        <time>2021-03-28T09:54:35Z</time>
      </trkpt>
      <trkpt lat="45.16212" lon="4.75948">
        <ele>385</ele>
        <time>2021-03-28T09:54:39Z</time>
      </trkpt>
      <trkpt lat="45.16199" lon="4.75957">
        <ele>385.4</ele>
        <time>2021-03-28T09:54:43Z</time>
      </trkpt>
      <trkpt lat="45.16185" lon="4.75967">
        <ele>385.2</ele>
        <time>2021-03-28T09:54:47Z</time>
      </trkpt>
      <trkpt lat="45.16172" lon="4.75979">
        <ele>385.4</ele>
        <time>2021-03-28T09:54:51Z</time>
      </trkpt>
      <trkpt lat="45.16158" lon="4.7599">
        <ele>385.8</ele>
        <time>2021-03-28T09:54:55Z</time>
      </trkpt>
      <trkpt lat="45.16145" lon="4.76001">
        <ele>386</ele>
        <time>2021-03-28T09:54:59Z</time>
      </trkpt>
      <trkpt lat="45.16132" lon="4.76012">
        <ele>386.2</ele>
        <time>2021-03-28T09:55:03Z</time>
      </trkpt>
      <trkpt lat="45.16119" lon="4.76022">
        <ele>386.2</ele>
        <time>2021-03-28T09:55:07Z</time>
      </trkpt>
      <trkpt lat="45.16107" lon="4.76031">
        <ele>387.2</ele>
        <time>2021-03-28T09:55:11Z</time>
      </trkpt>
      <trkpt lat="45.16096" lon="4.76039">
        <ele>387.4</ele>
        <time>2021-03-28T09:55:15Z</time>
      </trkpt>
      <trkpt lat="45.16085" lon="4.76046">
        <ele>388.2</ele>
        <time>2021-03-28T09:55:19Z</time>
      </trkpt>
      <trkpt lat="45.16073" lon="4.76053">
        <ele>389</ele>
        <time>2021-03-28T09:55:23Z</time>
      </trkpt>
      <trkpt lat="45.16063" lon="4.76058">
        <ele>389.4</ele>
        <time>2021-03-28T09:55:27Z</time>
      </trkpt>
      <trkpt lat="45.16053" lon="4.76061">
        <ele>390.4</ele>
        <time>2021-03-28T09:55:31Z</time>
      </trkpt>
      <trkpt lat="45.16043" lon="4.76064">
        <ele>390.6</ele>
        <time>2021-03-28T09:55:35Z</time>
      </trkpt>
      <trkpt lat="45.16034" lon="4.76064">
        <ele>391.6</ele>
        <time>2021-03-28T09:55:39Z</time>
      </trkpt>
      <trkpt lat="45.16023" lon="4.76062">
        <ele>392.2</ele>
        <time>2021-03-28T09:55:43Z</time>
      </trkpt>
      <trkpt lat="45.16012" lon="4.76062">
        <ele>392.6</ele>
        <time>2021-03-28T09:55:47Z</time>
      </trkpt>
      <trkpt lat="45.15999" lon="4.7606">
        <ele>392.8</ele>
        <time>2021-03-28T09:55:51Z</time>
      </trkpt>
      <trkpt lat="45.15985" lon="4.76058">
        <ele>392.6</ele>
        <time>2021-03-28T09:55:55Z</time>
      </trkpt>
      <trkpt lat="45.1597" lon="4.76055">
        <ele>392.6</ele>
        <time>2021-03-28T09:55:59Z</time>
      </trkpt>
      <trkpt lat="45.15954" lon="4.76053">
        <ele>392.8</ele>
        <time>2021-03-28T09:56:03Z</time>
      </trkpt>
      <trkpt lat="45.15939" lon="4.76051">
        <ele>392.2</ele>
        <time>2021-03-28T09:56:07Z</time>
      </trkpt>
      <trkpt lat="45.15923" lon="4.76053">
        <ele>393</ele>
        <time>2021-03-28T09:56:11Z</time>
      </trkpt>
      <trkpt lat="45.15909" lon="4.76059">
        <ele>392.8</ele>
        <time>2021-03-28T09:56:15Z</time>
      </trkpt>
      <trkpt lat="45.15899" lon="4.76071">
        <ele>393</ele>
        <time>2021-03-28T09:56:19Z</time>
      </trkpt>
      <trkpt lat="45.15888" lon="4.7608">
        <ele>393.2</ele>
        <time>2021-03-28T09:56:23Z</time>
      </trkpt>
      <trkpt lat="45.15875" lon="4.76085">
        <ele>394</ele>
        <time>2021-03-28T09:56:27Z</time>
      </trkpt>
      <trkpt lat="45.15861" lon="4.76088">
        <ele>393.4</ele>
        <time>2021-03-28T09:56:31Z</time>
      </trkpt>
      <trkpt lat="45.1585" lon="4.76089">
        <ele>393.4</ele>
        <time>2021-03-28T09:56:35Z</time>
      </trkpt>
      <trkpt lat="45.1585" lon="4.76094">
        <ele>392.8</ele>
        <time>2021-03-28T09:56:39Z</time>
      </trkpt>
      <trkpt lat="45.15854" lon="4.76096">
        <ele>392.4</ele>
        <time>2021-03-28T09:56:43Z</time>
      </trkpt>
      <trkpt lat="45.15872" lon="4.76089">
        <ele>391.6</ele>
        <time>2021-03-28T10:01:59Z</time>
      </trkpt>
      <trkpt lat="45.15873" lon="4.76078">
        <ele>392.6</ele>
        <time>2021-03-28T10:02:03Z</time>
      </trkpt>
      <trkpt lat="45.15877" lon="4.76069">
        <ele>392.4</ele>
        <time>2021-03-28T10:02:07Z</time>
      </trkpt>
      <trkpt lat="45.15865" lon="4.76072">
        <ele>397.4</ele>
        <time>2021-03-28T10:36:44Z</time>
      </trkpt>
      <trkpt lat="45.15858" lon="4.76074">
        <ele>398</ele>
        <time>2021-03-28T10:36:48Z</time>
      </trkpt>
      <trkpt lat="45.15853" lon="4.76073">
        <ele>397.8</ele>
        <time>2021-03-28T10:36:52Z</time>
      </trkpt>
      <trkpt lat="45.15847" lon="4.76073">
        <ele>398</ele>
        <time>2021-03-28T10:36:56Z</time>
      </trkpt>
      <trkpt lat="45.15846" lon="4.76061">
        <ele>398</ele>
        <time>2021-03-28T10:37:00Z</time>
      </trkpt>
      <trkpt lat="45.15846" lon="4.76046">
        <ele>398</ele>
        <time>2021-03-28T10:37:04Z</time>
      </trkpt>
      <trkpt lat="45.15847" lon="4.7603">
        <ele>397.4</ele>
        <time>2021-03-28T10:37:08Z</time>
      </trkpt>
      <trkpt lat="45.15846" lon="4.76011">
        <ele>397.8</ele>
        <time>2021-03-28T10:37:12Z</time>
      </trkpt>
      <trkpt lat="45.15846" lon="4.75993">
        <ele>398</ele>
        <time>2021-03-28T10:37:16Z</time>
      </trkpt>
      <trkpt lat="45.15847" lon="4.75974">
        <ele>398.8</ele>
        <time>2021-03-28T10:37:20Z</time>
      </trkpt>
      <trkpt lat="45.15848" lon="4.75956">
        <ele>398</ele>
        <time>2021-03-28T10:37:24Z</time>
      </trkpt>
      <trkpt lat="45.15848" lon="4.75939">
        <ele>398.2</ele>
        <time>2021-03-28T10:37:28Z</time>
      </trkpt>
      <trkpt lat="45.1585" lon="4.75923">
        <ele>399</ele>
        <time>2021-03-28T10:37:32Z</time>
      </trkpt>
      <trkpt lat="45.15843" lon="4.75912">
        <ele>399.8</ele>
        <time>2021-03-28T10:37:36Z</time>
      </trkpt>
      <trkpt lat="45.15836" lon="4.75904">
        <ele>400.2</ele>
        <time>2021-03-28T10:37:40Z</time>
      </trkpt>
      <trkpt lat="45.15829" lon="4.75895">
        <ele>401.2</ele>
        <time>2021-03-28T10:37:44Z</time>
      </trkpt>
      <trkpt lat="45.15821" lon="4.75889">
        <ele>401.4</ele>
        <time>2021-03-28T10:37:48Z</time>
      </trkpt>
      <trkpt lat="45.15812" lon="4.75889">
        <ele>402.4</ele>
        <time>2021-03-28T10:37:52Z</time>
      </trkpt>
      <trkpt lat="45.158" lon="4.75891">
        <ele>401.4</ele>
        <time>2021-03-28T10:37:56Z</time>
      </trkpt>
      <trkpt lat="45.15787" lon="4.75897">
        <ele>401.4</ele>
        <time>2021-03-28T10:38:00Z</time>
      </trkpt>
      <trkpt lat="45.15774" lon="4.75903">
        <ele>401.2</ele>
        <time>2021-03-28T10:38:04Z</time>
      </trkpt>
      <trkpt lat="45.15759" lon="4.7591">
        <ele>400.8</ele>
        <time>2021-03-28T10:38:08Z</time>
      </trkpt>
      <trkpt lat="45.15744" lon="4.75916">
        <ele>400.2</ele>
        <time>2021-03-28T10:38:12Z</time>
      </trkpt>
      <trkpt lat="45.1573" lon="4.75928">
        <ele>399.6</ele>
        <time>2021-03-28T10:38:16Z</time>
      </trkpt>
      <trkpt lat="45.1572" lon="4.75949">
        <ele>397.8</ele>
        <time>2021-03-28T10:38:20Z</time>
      </trkpt>
      <trkpt lat="45.15708" lon="4.75963">
        <ele>396.8</ele>
        <time>2021-03-28T10:38:24Z</time>
      </trkpt>
      <trkpt lat="45.15694" lon="4.75956">
        <ele>397.2</ele>
        <time>2021-03-28T10:38:28Z</time>
      </trkpt>
      <trkpt lat="45.1568" lon="4.7595">
        <ele>397.8</ele>
        <time>2021-03-28T10:38:32Z</time>
      </trkpt>
      <trkpt lat="45.15664" lon="4.75947">
        <ele>397.6</ele>
        <time>2021-03-28T10:38:36Z</time>
      </trkpt>
      <trkpt lat="45.1565" lon="4.75945">
        <ele>398.2</ele>
        <time>2021-03-28T10:38:40Z</time>
      </trkpt>
      <trkpt lat="45.15636" lon="4.75944">
        <ele>398.8</ele>
        <time>2021-03-28T10:38:44Z</time>
      </trkpt>
      <trkpt lat="45.15625" lon="4.75945">
        <ele>399.2</ele>
        <time>2021-03-28T10:38:48Z</time>
      </trkpt>
      <trkpt lat="45.15614" lon="4.75945">
        <ele>399.8</ele>
        <time>2021-03-28T10:38:52Z</time>
      </trkpt>
      <trkpt lat="45.15604" lon="4.75945">
        <ele>400.4</ele>
        <time>2021-03-28T10:38:56Z</time>
      </trkpt>
      <trkpt lat="45.15594" lon="4.75944">
        <ele>401.2</ele>
        <time>2021-03-28T10:39:00Z</time>
      </trkpt>
      <trkpt lat="45.15584" lon="4.75944">
        <ele>401.2</ele>
        <time>2021-03-28T10:39:04Z</time>
      </trkpt>
      <trkpt lat="45.15573" lon="4.75943">
        <ele>401.4</ele>
        <time>2021-03-28T10:39:08Z</time>
      </trkpt>
      <trkpt lat="45.15562" lon="4.75942">
        <ele>402</ele>
        <time>2021-03-28T10:39:12Z</time>
      </trkpt>
      <trkpt lat="45.15551" lon="4.75941">
        <ele>402.4</ele>
        <time>2021-03-28T10:39:16Z</time>
      </trkpt>
      <trkpt lat="45.1554" lon="4.75939">
        <ele>403.2</ele>
        <time>2021-03-28T10:39:20Z</time>
      </trkpt>
      <trkpt lat="45.1553" lon="4.75936">
        <ele>403.8</ele>
        <time>2021-03-28T10:39:24Z</time>
      </trkpt>
      <trkpt lat="45.15522" lon="4.75934">
        <ele>404.4</ele>
        <time>2021-03-28T10:39:28Z</time>
      </trkpt>
      <trkpt lat="45.15514" lon="4.75931">
        <ele>405.6</ele>
        <time>2021-03-28T10:39:32Z</time>
      </trkpt>
      <trkpt lat="45.15506" lon="4.75927">
        <ele>406.6</ele>
        <time>2021-03-28T10:39:36Z</time>
      </trkpt>
      <trkpt lat="45.15498" lon="4.75923">
        <ele>407.2</ele>
        <time>2021-03-28T10:39:40Z</time>
      </trkpt>
      <trkpt lat="45.15489" lon="4.75919">
        <ele>407.6</ele>
        <time>2021-03-28T10:39:44Z</time>
      </trkpt>
      <trkpt lat="45.15481" lon="4.75914">
        <ele>407.8</ele>
        <time>2021-03-28T10:39:48Z</time>
      </trkpt>
      <trkpt lat="45.15475" lon="4.75906">
        <ele>408.2</ele>
        <time>2021-03-28T10:39:52Z</time>
      </trkpt>
      <trkpt lat="45.15471" lon="4.75899">
        <ele>409</ele>
        <time>2021-03-28T10:39:56Z</time>
      </trkpt>
      <trkpt lat="45.15467" lon="4.75892">
        <ele>409.4</ele>
        <time>2021-03-28T10:40:28Z</time>
      </trkpt>
      <trkpt lat="45.15464" lon="4.75885">
        <ele>409</ele>
        <time>2021-03-28T10:40:32Z</time>
      </trkpt>
      <trkpt lat="45.15456" lon="4.75872">
        <ele>408.2</ele>
        <time>2021-03-28T10:40:43Z</time>
      </trkpt>
      <trkpt lat="45.15453" lon="4.75867">
        <ele>407.6</ele>
        <time>2021-03-28T10:40:47Z</time>
      </trkpt>
      <trkpt lat="45.1545" lon="4.75859">
        <ele>406.8</ele>
        <time>2021-03-28T10:40:51Z</time>
      </trkpt>
      <trkpt lat="45.15446" lon="4.75848">
        <ele>404.4</ele>
        <time>2021-03-28T10:40:55Z</time>
      </trkpt>
      <trkpt lat="45.15438" lon="4.75825">
        <ele>402</ele>
        <time>2021-03-28T10:40:59Z</time>
      </trkpt>
      <trkpt lat="45.15427" lon="4.75791">
        <ele>400</ele>
        <time>2021-03-28T10:41:03Z</time>
      </trkpt>
      <trkpt lat="45.15416" lon="4.75753">
        <ele>399.2</ele>
        <time>2021-03-28T10:41:07Z</time>
      </trkpt>
      <trkpt lat="45.15412" lon="4.75717">
        <ele>397</ele>
        <time>2021-03-28T10:41:11Z</time>
      </trkpt>
      <trkpt lat="45.15418" lon="4.75678">
        <ele>395</ele>
        <time>2021-03-28T10:41:15Z</time>
      </trkpt>
      <trkpt lat="45.15422" lon="4.75637">
        <ele>392.2</ele>
        <time>2021-03-28T10:41:19Z</time>
      </trkpt>
      <trkpt lat="45.15415" lon="4.75591">
        <ele>388.2</ele>
        <time>2021-03-28T10:41:23Z</time>
      </trkpt>
      <trkpt lat="45.15398" lon="4.75546">
        <ele>388.8</ele>
        <time>2021-03-28T10:41:27Z</time>
      </trkpt>
      <trkpt lat="45.15378" lon="4.75507">
        <ele>389.8</ele>
        <time>2021-03-28T10:41:31Z</time>
      </trkpt>
      <trkpt lat="45.15359" lon="4.75473">
        <ele>391.4</ele>
        <time>2021-03-28T10:41:35Z</time>
      </trkpt>
      <trkpt lat="45.15343" lon="4.75446">
        <ele>391.2</ele>
        <time>2021-03-28T10:41:39Z</time>
      </trkpt>
      <trkpt lat="45.15328" lon="4.75421">
        <ele>391.6</ele>
        <time>2021-03-28T10:41:43Z</time>
      </trkpt>
      <trkpt lat="45.15313" lon="4.754">
        <ele>392.4</ele>
        <time>2021-03-28T10:41:47Z</time>
      </trkpt>
      <trkpt lat="45.15299" lon="4.7538">
        <ele>392.4</ele>
        <time>2021-03-28T10:41:51Z</time>
      </trkpt>
      <trkpt lat="45.15285" lon="4.75362">
        <ele>392.8</ele>
        <time>2021-03-28T10:41:55Z</time>
      </trkpt>
      <trkpt lat="45.15272" lon="4.75343">
        <ele>393.6</ele>
        <time>2021-03-28T10:41:59Z</time>
      </trkpt>
      <trkpt lat="45.15259" lon="4.75327">
        <ele>394.4</ele>
        <time>2021-03-28T10:42:03Z</time>
      </trkpt>
      <trkpt lat="45.15247" lon="4.75311">
        <ele>394.6</ele>
        <time>2021-03-28T10:42:07Z</time>
      </trkpt>
      <trkpt lat="45.15236" lon="4.75297">
        <ele>395</ele>
        <time>2021-03-28T10:42:11Z</time>
      </trkpt>
      <trkpt lat="45.15226" lon="4.75283">
        <ele>393.8</ele>
        <time>2021-03-28T10:42:15Z</time>
      </trkpt>
      <trkpt lat="45.15216" lon="4.75266">
        <ele>392</ele>
        <time>2021-03-28T10:42:19Z</time>
      </trkpt>
      <trkpt lat="45.15205" lon="4.7524">
        <ele>390.2</ele>
        <time>2021-03-28T10:42:23Z</time>
      </trkpt>
      <trkpt lat="45.15194" lon="4.75205">
        <ele>388.8</ele>
        <time>2021-03-28T10:42:27Z</time>
      </trkpt>
      <trkpt lat="45.15178" lon="4.75171">
        <ele>387.6</ele>
        <time>2021-03-28T10:42:31Z</time>
      </trkpt>
      <trkpt lat="45.15151" lon="4.75149">
        <ele>386</ele>
        <time>2021-03-28T10:42:35Z</time>
      </trkpt>
      <trkpt lat="45.15121" lon="4.7513">
        <ele>384.4</ele>
        <time>2021-03-28T10:42:39Z</time>
      </trkpt>
      <trkpt lat="45.1509" lon="4.75111">
        <ele>382</ele>
        <time>2021-03-28T10:42:43Z</time>
      </trkpt>
      <trkpt lat="45.15059" lon="4.75091">
        <ele>382.6</ele>
        <time>2021-03-28T10:42:47Z</time>
      </trkpt>
      <trkpt lat="45.15028" lon="4.75072">
        <ele>382</ele>
        <time>2021-03-28T10:42:51Z</time>
      </trkpt>
      <trkpt lat="45.14998" lon="4.75051">
        <ele>379.8</ele>
        <time>2021-03-28T10:42:55Z</time>
      </trkpt>
      <trkpt lat="45.14966" lon="4.7503">
        <ele>379</ele>
        <time>2021-03-28T10:42:59Z</time>
      </trkpt>
      <trkpt lat="45.14932" lon="4.75009">
        <ele>376</ele>
        <time>2021-03-28T10:43:03Z</time>
      </trkpt>
      <trkpt lat="45.14897" lon="4.74991">
        <ele>374</ele>
        <time>2021-03-28T10:43:07Z</time>
      </trkpt>
      <trkpt lat="45.14861" lon="4.74971">
        <ele>370.6</ele>
        <time>2021-03-28T10:43:11Z</time>
      </trkpt>
      <trkpt lat="45.14825" lon="4.74951">
        <ele>367</ele>
        <time>2021-03-28T10:43:15Z</time>
      </trkpt>
      <trkpt lat="45.14787" lon="4.74929">
        <ele>362.8</ele>
        <time>2021-03-28T10:43:19Z</time>
      </trkpt>
      <trkpt lat="45.14747" lon="4.7491">
        <ele>360</ele>
        <time>2021-03-28T10:43:23Z</time>
      </trkpt>
      <trkpt lat="45.14703" lon="4.74906">
        <ele>354</ele>
        <time>2021-03-28T10:43:27Z</time>
      </trkpt>
      <trkpt lat="45.14661" lon="4.74903">
        <ele>349.6</ele>
        <time>2021-03-28T10:43:31Z</time>
      </trkpt>
      <trkpt lat="45.14619" lon="4.74897">
        <ele>342.8</ele>
        <time>2021-03-28T10:43:35Z</time>
      </trkpt>
      <trkpt lat="45.14577" lon="4.74893">
        <ele>343.8</ele>
        <time>2021-03-28T10:43:39Z</time>
      </trkpt>
      <trkpt lat="45.14539" lon="4.74895">
        <ele>341.2</ele>
        <time>2021-03-28T10:43:43Z</time>
      </trkpt>
      <trkpt lat="45.14509" lon="4.7491">
        <ele>338.4</ele>
        <time>2021-03-28T10:43:47Z</time>
      </trkpt>
      <trkpt lat="45.14484" lon="4.74912">
        <ele>334.6</ele>
        <time>2021-03-28T10:43:51Z</time>
      </trkpt>
      <trkpt lat="45.14466" lon="4.7488">
        <ele>332.4</ele>
        <time>2021-03-28T10:43:55Z</time>
      </trkpt>
      <trkpt lat="45.14464" lon="4.74843">
        <ele>331.4</ele>
        <time>2021-03-28T10:43:59Z</time>
      </trkpt>
      <trkpt lat="45.14469" lon="4.7482">
        <ele>329.2</ele>
        <time>2021-03-28T10:44:03Z</time>
      </trkpt>
      <trkpt lat="45.1448" lon="4.74796">
        <ele>325.2</ele>
        <time>2021-03-28T10:44:07Z</time>
      </trkpt>
      <trkpt lat="45.14502" lon="4.74777">
        <ele>320.6</ele>
        <time>2021-03-28T10:44:11Z</time>
      </trkpt>
      <trkpt lat="45.14528" lon="4.74756">
        <ele>319.4</ele>
        <time>2021-03-28T10:44:15Z</time>
      </trkpt>
      <trkpt lat="45.14544" lon="4.74736">
        <ele>315.6</ele>
        <time>2021-03-28T10:44:19Z</time>
      </trkpt>
      <trkpt lat="45.14528" lon="4.74719">
        <ele>313.6</ele>
        <time>2021-03-28T10:44:23Z</time>
      </trkpt>
      <trkpt lat="45.14506" lon="4.74696">
        <ele>311</ele>
        <time>2021-03-28T10:44:27Z</time>
      </trkpt>
      <trkpt lat="45.14488" lon="4.74672">
        <ele>312.4</ele>
        <time>2021-03-28T10:44:31Z</time>
      </trkpt>
      <trkpt lat="45.14462" lon="4.74663">
        <ele>316.4</ele>
        <time>2021-03-28T10:44:35Z</time>
      </trkpt>
      <trkpt lat="45.14446" lon="4.74658">
        <ele>317.4</ele>
        <time>2021-03-28T10:44:39Z</time>
      </trkpt>
      <trkpt lat="45.14438" lon="4.74655">
        <ele>318.4</ele>
        <time>2021-03-28T10:44:43Z</time>
      </trkpt>
      <trkpt lat="45.14431" lon="4.74653">
        <ele>319</ele>
        <time>2021-03-28T10:44:47Z</time>
      </trkpt>
      <trkpt lat="45.14425" lon="4.74651">
        <ele>320</ele>
        <time>2021-03-28T10:44:51Z</time>
      </trkpt>
      <trkpt lat="45.1442" lon="4.74648">
        <ele>320.6</ele>
        <time>2021-03-28T10:44:55Z</time>
      </trkpt>
      <trkpt lat="45.14414" lon="4.74646">
        <ele>321.4</ele>
        <time>2021-03-28T10:44:59Z</time>
      </trkpt>
      <trkpt lat="45.14409" lon="4.74644">
        <ele>322.2</ele>
        <time>2021-03-28T10:45:03Z</time>
      </trkpt>
      <trkpt lat="45.14403" lon="4.74644">
        <ele>323.2</ele>
        <time>2021-03-28T10:45:07Z</time>
      </trkpt>
      <trkpt lat="45.14397" lon="4.74643">
        <ele>323.8</ele>
        <time>2021-03-28T10:45:11Z</time>
      </trkpt>
      <trkpt lat="45.14393" lon="4.7464">
        <ele>324.4</ele>
        <time>2021-03-28T10:45:15Z</time>
      </trkpt>
      <trkpt lat="45.14389" lon="4.74636">
        <ele>325.4</ele>
        <time>2021-03-28T10:45:19Z</time>
      </trkpt>
      <trkpt lat="45.14386" lon="4.74632">
        <ele>326</ele>
        <time>2021-03-28T10:45:23Z</time>
      </trkpt>
      <trkpt lat="45.14382" lon="4.74629">
        <ele>326.6</ele>
        <time>2021-03-28T10:45:27Z</time>
      </trkpt>
      <trkpt lat="45.14379" lon="4.74624">
        <ele>327</ele>
        <time>2021-03-28T10:45:31Z</time>
      </trkpt>
      <trkpt lat="45.14376" lon="4.74618">
        <ele>327.4</ele>
        <time>2021-03-28T10:45:35Z</time>
      </trkpt>
      <trkpt lat="45.14373" lon="4.74611">
        <ele>328.4</ele>
        <time>2021-03-28T10:45:39Z</time>
      </trkpt>
      <trkpt lat="45.14371" lon="4.74603">
        <ele>328.8</ele>
        <time>2021-03-28T10:45:43Z</time>
      </trkpt>
      <trkpt lat="45.14368" lon="4.74596">
        <ele>329</ele>
        <time>2021-03-28T10:45:47Z</time>
      </trkpt>
      <trkpt lat="45.14367" lon="4.74589">
        <ele>330</ele>
        <time>2021-03-28T10:45:51Z</time>
      </trkpt>
      <trkpt lat="45.14363" lon="4.74581">
        <ele>330.8</ele>
        <time>2021-03-28T10:45:55Z</time>
      </trkpt>
      <trkpt lat="45.1436" lon="4.74573">
        <ele>331.2</ele>
        <time>2021-03-28T10:45:59Z</time>
      </trkpt>
      <trkpt lat="45.14357" lon="4.74567">
        <ele>331.8</ele>
        <time>2021-03-28T10:46:03Z</time>
      </trkpt>
      <trkpt lat="45.14354" lon="4.74561">
        <ele>333</ele>
        <time>2021-03-28T10:46:07Z</time>
      </trkpt>
      <trkpt lat="45.14352" lon="4.74556">
        <ele>332.8</ele>
        <time>2021-03-28T10:46:11Z</time>
      </trkpt>
      <trkpt lat="45.14349" lon="4.74549">
        <ele>334.2</ele>
        <time>2021-03-28T10:46:15Z</time>
      </trkpt>
      <trkpt lat="45.14345" lon="4.74542">
        <ele>334.4</ele>
        <time>2021-03-28T10:46:19Z</time>
      </trkpt>
      <trkpt lat="45.14321" lon="4.74481">
        <ele>340.6</ele>
        <time>2021-03-28T10:46:53Z</time>
      </trkpt>
      <trkpt lat="45.14326" lon="4.74481">
        <ele>341.4</ele>
        <time>2021-03-28T10:46:57Z</time>
      </trkpt>
      <trkpt lat="45.1433" lon="4.74481">
        <ele>342</ele>
        <time>2021-03-28T10:47:01Z</time>
      </trkpt>
      <trkpt lat="45.14335" lon="4.74482">
        <ele>342.6</ele>
        <time>2021-03-28T10:47:05Z</time>
      </trkpt>
      <trkpt lat="45.14341" lon="4.7448">
        <ele>343.2</ele>
        <time>2021-03-28T10:47:09Z</time>
      </trkpt>
      <trkpt lat="45.14347" lon="4.74479">
        <ele>343.6</ele>
        <time>2021-03-28T10:47:13Z</time>
      </trkpt>
      <trkpt lat="45.14354" lon="4.74476">
        <ele>345</ele>
        <time>2021-03-28T10:47:17Z</time>
      </trkpt>
      <trkpt lat="45.1436" lon="4.74473">
        <ele>345.2</ele>
        <time>2021-03-28T10:47:21Z</time>
      </trkpt>
      <trkpt lat="45.14366" lon="4.74469">
        <ele>345.4</ele>
        <time>2021-03-28T10:47:25Z</time>
      </trkpt>
      <trkpt lat="45.14372" lon="4.74463">
        <ele>346.6</ele>
        <time>2021-03-28T10:47:29Z</time>
      </trkpt>
      <trkpt lat="45.14378" lon="4.74457">
        <ele>346.8</ele>
        <time>2021-03-28T10:47:33Z</time>
      </trkpt>
      <trkpt lat="45.14382" lon="4.74447">
        <ele>347.4</ele>
        <time>2021-03-28T10:47:37Z</time>
      </trkpt>
      <trkpt lat="45.14384" lon="4.74437">
        <ele>347.6</ele>
        <time>2021-03-28T10:47:41Z</time>
      </trkpt>
      <trkpt lat="45.14385" lon="4.74427">
        <ele>349</ele>
        <time>2021-03-28T10:47:45Z</time>
      </trkpt>
      <trkpt lat="45.14384" lon="4.74417">
        <ele>348.4</ele>
        <time>2021-03-28T10:47:49Z</time>
      </trkpt>
      <trkpt lat="45.14382" lon="4.74408">
        <ele>349.6</ele>
        <time>2021-03-28T10:47:53Z</time>
      </trkpt>
      <trkpt lat="45.14379" lon="4.74397">
        <ele>349.4</ele>
        <time>2021-03-28T10:47:57Z</time>
      </trkpt>
      <trkpt lat="45.14376" lon="4.74388">
        <ele>350.6</ele>
        <time>2021-03-28T10:48:01Z</time>
      </trkpt>
      <trkpt lat="45.14373" lon="4.74379">
        <ele>351.2</ele>
        <time>2021-03-28T10:48:05Z</time>
      </trkpt>
      <trkpt lat="45.14369" lon="4.7437">
        <ele>351.8</ele>
        <time>2021-03-28T10:48:09Z</time>
      </trkpt>
      <trkpt lat="45.14365" lon="4.74362">
        <ele>352.4</ele>
        <time>2021-03-28T10:48:13Z</time>
      </trkpt>
      <trkpt lat="45.14362" lon="4.74355">
        <ele>353.4</ele>
        <time>2021-03-28T10:48:17Z</time>
      </trkpt>
      <trkpt lat="45.14358" lon="4.74347">
        <ele>353.8</ele>
        <time>2021-03-28T10:48:21Z</time>
      </trkpt>
      <trkpt lat="45.14354" lon="4.74338">
        <ele>354.4</ele>
        <time>2021-03-28T10:48:25Z</time>
      </trkpt>
      <trkpt lat="45.1435" lon="4.74329">
        <ele>355</ele>
        <time>2021-03-28T10:48:29Z</time>
      </trkpt>
      <trkpt lat="45.14347" lon="4.7432">
        <ele>355.4</ele>
        <time>2021-03-28T10:48:33Z</time>
      </trkpt>
      <trkpt lat="45.14343" lon="4.74311">
        <ele>355.4</ele>
        <time>2021-03-28T10:48:37Z</time>
      </trkpt>
      <trkpt lat="45.14339" lon="4.74303">
        <ele>356</ele>
        <time>2021-03-28T10:48:41Z</time>
      </trkpt>
      <trkpt lat="45.14335" lon="4.74294">
        <ele>357.4</ele>
        <time>2021-03-28T10:48:45Z</time>
      </trkpt>
      <trkpt lat="45.14331" lon="4.74285">
        <ele>357.8</ele>
        <time>2021-03-28T10:48:49Z</time>
      </trkpt>
      <trkpt lat="45.14327" lon="4.74277">
        <ele>357.4</ele>
        <time>2021-03-28T10:48:53Z</time>
      </trkpt>
      <trkpt lat="45.14323" lon="4.74269">
        <ele>358.4</ele>
        <time>2021-03-28T10:48:57Z</time>
      </trkpt>
      <trkpt lat="45.14319" lon="4.7426">
        <ele>359.2</ele>
        <time>2021-03-28T10:49:01Z</time>
      </trkpt>
      <trkpt lat="45.14316" lon="4.74252">
        <ele>359.6</ele>
        <time>2021-03-28T10:49:05Z</time>
      </trkpt>
      <trkpt lat="45.14311" lon="4.74245">
        <ele>360.4</ele>
        <time>2021-03-28T10:49:09Z</time>
      </trkpt>
      <trkpt lat="45.14307" lon="4.74238">
        <ele>361</ele>
        <time>2021-03-28T10:49:13Z</time>
      </trkpt>
      <trkpt lat="45.14303" lon="4.74231">
        <ele>361.8</ele>
        <time>2021-03-28T10:49:17Z</time>
      </trkpt>
      <trkpt lat="45.14298" lon="4.74225">
        <ele>362.4</ele>
        <time>2021-03-28T10:49:21Z</time>
      </trkpt>
      <trkpt lat="45.14293" lon="4.7422">
        <ele>363</ele>
        <time>2021-03-28T10:49:25Z</time>
      </trkpt>
      <trkpt lat="45.14288" lon="4.74215">
        <ele>363.8</ele>
        <time>2021-03-28T10:49:29Z</time>
      </trkpt>
      <trkpt lat="45.14283" lon="4.7421">
        <ele>364.2</ele>
        <time>2021-03-28T10:49:33Z</time>
      </trkpt>
      <trkpt lat="45.14278" lon="4.74205">
        <ele>365.2</ele>
        <time>2021-03-28T10:49:37Z</time>
      </trkpt>
      <trkpt lat="45.14272" lon="4.74199">
        <ele>366</ele>
        <time>2021-03-28T10:49:41Z</time>
      </trkpt>
      <trkpt lat="45.14265" lon="4.74193">
        <ele>366.2</ele>
        <time>2021-03-28T10:49:45Z</time>
      </trkpt>
      <trkpt lat="45.14258" lon="4.74187">
        <ele>366.6</ele>
        <time>2021-03-28T10:49:49Z</time>
      </trkpt>
      <trkpt lat="45.14252" lon="4.7418">
        <ele>367.4</ele>
        <time>2021-03-28T10:49:53Z</time>
      </trkpt>
      <trkpt lat="45.14244" lon="4.74172">
        <ele>367.2</ele>
        <time>2021-03-28T10:49:57Z</time>
      </trkpt>
      <trkpt lat="45.14237" lon="4.74162">
        <ele>367.8</ele>
        <time>2021-03-28T10:50:01Z</time>
      </trkpt>
      <trkpt lat="45.14228" lon="4.74152">
        <ele>367.8</ele>
        <time>2021-03-28T10:50:05Z</time>
      </trkpt>
      <trkpt lat="45.14221" lon="4.74143">
        <ele>368.4</ele>
        <time>2021-03-28T10:50:09Z</time>
      </trkpt>
      <trkpt lat="45.14212" lon="4.74133">
        <ele>369</ele>
        <time>2021-03-28T10:50:13Z</time>
      </trkpt>
      <trkpt lat="45.14203" lon="4.74125">
        <ele>369</ele>
        <time>2021-03-28T10:50:17Z</time>
      </trkpt>
      <trkpt lat="45.14195" lon="4.74116">
        <ele>369.8</ele>
        <time>2021-03-28T10:50:21Z</time>
      </trkpt>
      <trkpt lat="45.14186" lon="4.74106">
        <ele>370.2</ele>
        <time>2021-03-28T10:50:25Z</time>
      </trkpt>
      <trkpt lat="45.14177" lon="4.74095">
        <ele>370.2</ele>
        <time>2021-03-28T10:50:29Z</time>
      </trkpt>
      <trkpt lat="45.14167" lon="4.74084">
        <ele>370.8</ele>
        <time>2021-03-28T10:50:33Z</time>
      </trkpt>
      <trkpt lat="45.14157" lon="4.74073">
        <ele>371.8</ele>
        <time>2021-03-28T10:50:37Z</time>
      </trkpt>
      <trkpt lat="45.14148" lon="4.74061">
        <ele>372</ele>
        <time>2021-03-28T10:50:41Z</time>
      </trkpt>
      <trkpt lat="45.14137" lon="4.74049">
        <ele>371.8</ele>
        <time>2021-03-28T10:50:45Z</time>
      </trkpt>
      <trkpt lat="45.14127" lon="4.74036">
        <ele>371.6</ele>
        <time>2021-03-28T10:50:49Z</time>
      </trkpt>
      <trkpt lat="45.14116" lon="4.74024">
        <ele>372.2</ele>
        <time>2021-03-28T10:50:53Z</time>
      </trkpt>
      <trkpt lat="45.14106" lon="4.74011">
        <ele>372.4</ele>
        <time>2021-03-28T10:50:57Z</time>
      </trkpt>
      <trkpt lat="45.14096" lon="4.74">
        <ele>372.8</ele>
        <time>2021-03-28T10:51:01Z</time>
      </trkpt>
      <trkpt lat="45.14087" lon="4.73989">
        <ele>373.8</ele>
        <time>2021-03-28T10:51:05Z</time>
      </trkpt>
      <trkpt lat="45.14077" lon="4.73977">
        <ele>374.2</ele>
        <time>2021-03-28T10:51:09Z</time>
      </trkpt>
      <trkpt lat="45.14067" lon="4.73966">
        <ele>374.6</ele>
        <time>2021-03-28T10:51:13Z</time>
      </trkpt>
      <trkpt lat="45.14057" lon="4.73954">
        <ele>375</ele>
        <time>2021-03-28T10:51:17Z</time>
      </trkpt>
      <trkpt lat="45.14047" lon="4.73942">
        <ele>375.2</ele>
        <time>2021-03-28T10:51:21Z</time>
      </trkpt>
      <trkpt lat="45.14037" lon="4.7393">
        <ele>376.2</ele>
        <time>2021-03-28T10:51:25Z</time>
      </trkpt>
      <trkpt lat="45.14027" lon="4.73917">
        <ele>376</ele>
        <time>2021-03-28T10:51:29Z</time>
      </trkpt>
      <trkpt lat="45.14016" lon="4.73906">
        <ele>376.6</ele>
        <time>2021-03-28T10:51:33Z</time>
      </trkpt>
      <trkpt lat="45.14006" lon="4.73894">
        <ele>376.4</ele>
        <time>2021-03-28T10:51:37Z</time>
      </trkpt>
      <trkpt lat="45.13997" lon="4.73883">
        <ele>377.6</ele>
        <time>2021-03-28T10:51:41Z</time>
      </trkpt>
      <trkpt lat="45.13988" lon="4.73872">
        <ele>378.4</ele>
        <time>2021-03-28T10:51:45Z</time>
      </trkpt>
      <trkpt lat="45.13979" lon="4.73862">
        <ele>378.6</ele>
        <time>2021-03-28T10:51:49Z</time>
      </trkpt>
      <trkpt lat="45.13971" lon="4.73853">
        <ele>379.4</ele>
        <time>2021-03-28T10:51:53Z</time>
      </trkpt>
      <trkpt lat="45.13963" lon="4.73843">
        <ele>380.4</ele>
        <time>2021-03-28T10:51:57Z</time>
      </trkpt>
      <trkpt lat="45.13955" lon="4.73834">
        <ele>380.4</ele>
        <time>2021-03-28T10:52:01Z</time>
      </trkpt>
      <trkpt lat="45.13948" lon="4.73824">
        <ele>381.6</ele>
        <time>2021-03-28T10:52:05Z</time>
      </trkpt>
      <trkpt lat="45.13942" lon="4.73813">
        <ele>382.6</ele>
        <time>2021-03-28T10:52:09Z</time>
      </trkpt>
      <trkpt lat="45.13936" lon="4.73801">
        <ele>383</ele>
        <time>2021-03-28T10:52:13Z</time>
      </trkpt>
      <trkpt lat="45.13931" lon="4.73788">
        <ele>383.6</ele>
        <time>2021-03-28T10:52:17Z</time>
      </trkpt>
      <trkpt lat="45.13926" lon="4.73773">
        <ele>384</ele>
        <time>2021-03-28T10:52:21Z</time>
      </trkpt>
      <trkpt lat="45.13922" lon="4.73758">
        <ele>384.6</ele>
        <time>2021-03-28T10:52:25Z</time>
      </trkpt>
      <trkpt lat="45.13917" lon="4.73742">
        <ele>384.8</ele>
        <time>2021-03-28T10:52:29Z</time>
      </trkpt>
      <trkpt lat="45.13914" lon="4.73728">
        <ele>385.2</ele>
        <time>2021-03-28T10:52:33Z</time>
      </trkpt>
      <trkpt lat="45.13909" lon="4.73715">
        <ele>386.2</ele>
        <time>2021-03-28T10:52:37Z</time>
      </trkpt>
      <trkpt lat="45.13906" lon="4.73703">
        <ele>387</ele>
        <time>2021-03-28T10:52:41Z</time>
      </trkpt>
      <trkpt lat="45.13903" lon="4.73691">
        <ele>388.6</ele>
        <time>2021-03-28T10:52:45Z</time>
      </trkpt>
      <trkpt lat="45.13899" lon="4.73679">
        <ele>388.8</ele>
        <time>2021-03-28T10:52:49Z</time>
      </trkpt>
      <trkpt lat="45.13897" lon="4.73668">
        <ele>388.8</ele>
        <time>2021-03-28T10:52:53Z</time>
      </trkpt>
      <trkpt lat="45.13894" lon="4.73656">
        <ele>389.2</ele>
        <time>2021-03-28T10:52:57Z</time>
      </trkpt>
      <trkpt lat="45.13889" lon="4.73644">
        <ele>390.4</ele>
        <time>2021-03-28T10:53:01Z</time>
      </trkpt>
      <trkpt lat="45.13884" lon="4.73634">
        <ele>391.4</ele>
        <time>2021-03-28T10:53:05Z</time>
      </trkpt>
      <trkpt lat="45.13876" lon="4.73624">
        <ele>391.4</ele>
        <time>2021-03-28T10:53:09Z</time>
      </trkpt>
      <trkpt lat="45.13867" lon="4.73614">
        <ele>391.6</ele>
        <time>2021-03-28T10:53:13Z</time>
      </trkpt>
      <trkpt lat="45.13858" lon="4.73603">
        <ele>392</ele>
        <time>2021-03-28T10:53:17Z</time>
      </trkpt>
      <trkpt lat="45.13849" lon="4.73592">
        <ele>392.6</ele>
        <time>2021-03-28T10:53:21Z</time>
      </trkpt>
      <trkpt lat="45.1384" lon="4.73583">
        <ele>393.2</ele>
        <time>2021-03-28T10:53:25Z</time>
      </trkpt>
      <trkpt lat="45.13832" lon="4.73575">
        <ele>394.2</ele>
        <time>2021-03-28T10:53:29Z</time>
      </trkpt>
      <trkpt lat="45.13824" lon="4.73567">
        <ele>394.4</ele>
        <time>2021-03-28T10:53:33Z</time>
      </trkpt>
      <trkpt lat="45.13816" lon="4.73562">
        <ele>395.2</ele>
        <time>2021-03-28T10:53:37Z</time>
      </trkpt>
      <trkpt lat="45.13806" lon="4.73557">
        <ele>395.4</ele>
        <time>2021-03-28T10:53:41Z</time>
      </trkpt>
      <trkpt lat="45.13795" lon="4.73553">
        <ele>395.6</ele>
        <time>2021-03-28T10:53:45Z</time>
      </trkpt>
      <trkpt lat="45.13784" lon="4.73548">
        <ele>396</ele>
        <time>2021-03-28T10:53:49Z</time>
      </trkpt>
      <trkpt lat="45.13774" lon="4.73542">
        <ele>395.6</ele>
        <time>2021-03-28T10:53:53Z</time>
      </trkpt>
      <trkpt lat="45.13763" lon="4.73538">
        <ele>396.6</ele>
        <time>2021-03-28T10:53:57Z</time>
      </trkpt>
      <trkpt lat="45.13753" lon="4.73535">
        <ele>397.6</ele>
        <time>2021-03-28T10:54:01Z</time>
      </trkpt>
      <trkpt lat="45.13743" lon="4.73533">
        <ele>397.6</ele>
        <time>2021-03-28T10:54:05Z</time>
      </trkpt>
      <trkpt lat="45.13734" lon="4.73531">
        <ele>398.4</ele>
        <time>2021-03-28T10:54:09Z</time>
      </trkpt>
      <trkpt lat="45.13725" lon="4.73529">
        <ele>399</ele>
        <time>2021-03-28T10:54:13Z</time>
      </trkpt>
      <trkpt lat="45.13716" lon="4.73527">
        <ele>399.6</ele>
        <time>2021-03-28T10:54:17Z</time>
      </trkpt>
      <trkpt lat="45.13707" lon="4.73526">
        <ele>400.2</ele>
        <time>2021-03-28T10:54:21Z</time>
      </trkpt>
      <trkpt lat="45.13698" lon="4.73524">
        <ele>400.6</ele>
        <time>2021-03-28T10:54:25Z</time>
      </trkpt>
      <trkpt lat="45.13688" lon="4.73522">
        <ele>401.6</ele>
        <time>2021-03-28T10:54:29Z</time>
      </trkpt>
      <trkpt lat="45.13679" lon="4.73519">
        <ele>402.4</ele>
        <time>2021-03-28T10:54:33Z</time>
      </trkpt>
      <trkpt lat="45.13669" lon="4.73517">
        <ele>403</ele>
        <time>2021-03-28T10:54:37Z</time>
      </trkpt>
      <trkpt lat="45.13659" lon="4.73515">
        <ele>402.8</ele>
        <time>2021-03-28T10:54:41Z</time>
      </trkpt>
      <trkpt lat="45.13649" lon="4.73512">
        <ele>404.4</ele>
        <time>2021-03-28T10:54:45Z</time>
      </trkpt>
      <trkpt lat="45.1364" lon="4.7351">
        <ele>404.8</ele>
        <time>2021-03-28T10:54:49Z</time>
      </trkpt>
      <trkpt lat="45.1363" lon="4.73508">
        <ele>404.6</ele>
        <time>2021-03-28T10:54:53Z</time>
      </trkpt>
      <trkpt lat="45.1362" lon="4.73506">
        <ele>406</ele>
        <time>2021-03-28T10:54:57Z</time>
      </trkpt>
      <trkpt lat="45.13609" lon="4.73504">
        <ele>406.6</ele>
        <time>2021-03-28T10:55:01Z</time>
      </trkpt>
      <trkpt lat="45.13599" lon="4.73502">
        <ele>406.6</ele>
        <time>2021-03-28T10:55:05Z</time>
      </trkpt>
      <trkpt lat="45.13588" lon="4.73498">
        <ele>407</ele>
        <time>2021-03-28T10:55:09Z</time>
      </trkpt>
      <trkpt lat="45.13577" lon="4.73495">
        <ele>407.6</ele>
        <time>2021-03-28T10:55:13Z</time>
      </trkpt>
      <trkpt lat="45.13566" lon="4.73492">
        <ele>407.6</ele>
        <time>2021-03-28T10:55:17Z</time>
      </trkpt>
      <trkpt lat="45.13555" lon="4.73489">
        <ele>408.6</ele>
        <time>2021-03-28T10:55:21Z</time>
      </trkpt>
      <trkpt lat="45.13545" lon="4.73486">
        <ele>409.4</ele>
        <time>2021-03-28T10:55:25Z</time>
      </trkpt>
      <trkpt lat="45.13536" lon="4.73483">
        <ele>410.2</ele>
        <time>2021-03-28T10:55:29Z</time>
      </trkpt>
      <trkpt lat="45.13528" lon="4.7348">
        <ele>410.8</ele>
        <time>2021-03-28T10:55:33Z</time>
      </trkpt>
      <trkpt lat="45.1352" lon="4.73476">
        <ele>411.2</ele>
        <time>2021-03-28T10:55:37Z</time>
      </trkpt>
      <trkpt lat="45.13511" lon="4.73471">
        <ele>411.8</ele>
        <time>2021-03-28T10:55:41Z</time>
      </trkpt>
      <trkpt lat="45.13502" lon="4.73465">
        <ele>412.4</ele>
        <time>2021-03-28T10:55:45Z</time>
      </trkpt>
      <trkpt lat="45.13493" lon="4.73458">
        <ele>413</ele>
        <time>2021-03-28T10:55:49Z</time>
      </trkpt>
      <trkpt lat="45.13485" lon="4.73451">
        <ele>413.4</ele>
        <time>2021-03-28T10:55:53Z</time>
      </trkpt>
      <trkpt lat="45.13476" lon="4.73444">
        <ele>413.8</ele>
        <time>2021-03-28T10:55:57Z</time>
      </trkpt>
      <trkpt lat="45.13468" lon="4.73437">
        <ele>414.6</ele>
        <time>2021-03-28T10:56:01Z</time>
      </trkpt>
      <trkpt lat="45.13459" lon="4.7343">
        <ele>415.2</ele>
        <time>2021-03-28T10:56:05Z</time>
      </trkpt>
      <trkpt lat="45.13451" lon="4.73423">
        <ele>416.4</ele>
        <time>2021-03-28T10:56:09Z</time>
      </trkpt>
      <trkpt lat="45.13443" lon="4.73417">
        <ele>416.2</ele>
        <time>2021-03-28T10:56:13Z</time>
      </trkpt>
      <trkpt lat="45.13435" lon="4.73411">
        <ele>416.8</ele>
        <time>2021-03-28T10:56:17Z</time>
      </trkpt>
      <trkpt lat="45.13426" lon="4.73405">
        <ele>417.4</ele>
        <time>2021-03-28T10:56:21Z</time>
      </trkpt>
      <trkpt lat="45.13416" lon="4.73398">
        <ele>418.2</ele>
        <time>2021-03-28T10:56:25Z</time>
      </trkpt>
      <trkpt lat="45.13407" lon="4.73391">
        <ele>418</ele>
        <time>2021-03-28T10:56:29Z</time>
      </trkpt>
      <trkpt lat="45.13397" lon="4.73383">
        <ele>418.4</ele>
        <time>2021-03-28T10:56:33Z</time>
      </trkpt>
      <trkpt lat="45.13386" lon="4.73375">
        <ele>418.6</ele>
        <time>2021-03-28T10:56:37Z</time>
      </trkpt>
      <trkpt lat="45.13375" lon="4.73367">
        <ele>418.8</ele>
        <time>2021-03-28T10:56:41Z</time>
      </trkpt>
      <trkpt lat="45.13363" lon="4.7336">
        <ele>419.2</ele>
        <time>2021-03-28T10:56:45Z</time>
      </trkpt>
      <trkpt lat="45.13351" lon="4.73353">
        <ele>419.2</ele>
        <time>2021-03-28T10:56:49Z</time>
      </trkpt>
      <trkpt lat="45.13338" lon="4.73346">
        <ele>418.8</ele>
        <time>2021-03-28T10:56:53Z</time>
      </trkpt>
      <trkpt lat="45.13323" lon="4.73337">
        <ele>418.6</ele>
        <time>2021-03-28T10:56:57Z</time>
      </trkpt>
      <trkpt lat="45.13309" lon="4.73329">
        <ele>418.6</ele>
        <time>2021-03-28T10:57:01Z</time>
      </trkpt>
      <trkpt lat="45.13295" lon="4.7332">
        <ele>418.8</ele>
        <time>2021-03-28T10:57:05Z</time>
      </trkpt>
      <trkpt lat="45.1328" lon="4.7331">
        <ele>418.6</ele>
        <time>2021-03-28T10:57:09Z</time>
      </trkpt>
      <trkpt lat="45.13265" lon="4.73299">
        <ele>418.8</ele>
        <time>2021-03-28T10:57:13Z</time>
      </trkpt>
      <trkpt lat="45.1325" lon="4.73288">
        <ele>419.4</ele>
        <time>2021-03-28T10:57:17Z</time>
      </trkpt>
      <trkpt lat="45.13237" lon="4.73277">
        <ele>419.6</ele>
        <time>2021-03-28T10:57:21Z</time>
      </trkpt>
      <trkpt lat="45.13223" lon="4.73268">
        <ele>419.6</ele>
        <time>2021-03-28T10:57:25Z</time>
      </trkpt>
      <trkpt lat="45.13209" lon="4.73257">
        <ele>419.6</ele>
        <time>2021-03-28T10:57:29Z</time>
      </trkpt>
      <trkpt lat="45.13194" lon="4.73246">
        <ele>419.8</ele>
        <time>2021-03-28T10:57:33Z</time>
      </trkpt>
      <trkpt lat="45.1318" lon="4.73236">
        <ele>420</ele>
        <time>2021-03-28T10:57:37Z</time>
      </trkpt>
      <trkpt lat="45.13167" lon="4.73227">
        <ele>420.8</ele>
        <time>2021-03-28T10:57:41Z</time>
      </trkpt>
      <trkpt lat="45.13154" lon="4.73219">
        <ele>421.4</ele>
        <time>2021-03-28T10:57:45Z</time>
      </trkpt>
      <trkpt lat="45.13141" lon="4.73214">
        <ele>421.8</ele>
        <time>2021-03-28T10:57:49Z</time>
      </trkpt>
      <trkpt lat="45.13127" lon="4.7321">
        <ele>422.2</ele>
        <time>2021-03-28T10:57:53Z</time>
      </trkpt>
      <trkpt lat="45.13111" lon="4.73207">
        <ele>422.4</ele>
        <time>2021-03-28T10:57:57Z</time>
      </trkpt>
      <trkpt lat="45.13094" lon="4.73205">
        <ele>422</ele>
        <time>2021-03-28T10:58:01Z</time>
      </trkpt>
      <trkpt lat="45.13077" lon="4.73202">
        <ele>422.4</ele>
        <time>2021-03-28T10:58:05Z</time>
      </trkpt>
      <trkpt lat="45.1306" lon="4.73198">
        <ele>422.6</ele>
        <time>2021-03-28T10:58:09Z</time>
      </trkpt>
      <trkpt lat="45.13043" lon="4.73193">
        <ele>422.6</ele>
        <time>2021-03-28T10:58:13Z</time>
      </trkpt>
      <trkpt lat="45.13026" lon="4.73186">
        <ele>422.6</ele>
        <time>2021-03-28T10:58:17Z</time>
      </trkpt>
      <trkpt lat="45.13009" lon="4.73179">
        <ele>422.8</ele>
        <time>2021-03-28T10:58:21Z</time>
      </trkpt>
      <trkpt lat="45.12993" lon="4.73173">
        <ele>423</ele>
        <time>2021-03-28T10:58:25Z</time>
      </trkpt>
      <trkpt lat="45.12978" lon="4.73166">
        <ele>423</ele>
        <time>2021-03-28T10:58:29Z</time>
      </trkpt>
      <trkpt lat="45.12965" lon="4.7316">
        <ele>423.4</ele>
        <time>2021-03-28T10:58:33Z</time>
      </trkpt>
      <trkpt lat="45.12951" lon="4.73153">
        <ele>423.8</ele>
        <time>2021-03-28T10:58:37Z</time>
      </trkpt>
      <trkpt lat="45.12938" lon="4.73147">
        <ele>423.6</ele>
        <time>2021-03-28T10:58:41Z</time>
      </trkpt>
      <trkpt lat="45.12924" lon="4.7314">
        <ele>424.2</ele>
        <time>2021-03-28T10:58:45Z</time>
      </trkpt>
      <trkpt lat="45.12911" lon="4.73133">
        <ele>423.8</ele>
        <time>2021-03-28T10:58:49Z</time>
      </trkpt>
      <trkpt lat="45.12897" lon="4.73128">
        <ele>423.6</ele>
        <time>2021-03-28T10:58:53Z</time>
      </trkpt>
      <trkpt lat="45.12884" lon="4.73123">
        <ele>424.6</ele>
        <time>2021-03-28T10:58:57Z</time>
      </trkpt>
      <trkpt lat="45.12871" lon="4.73119">
        <ele>424.8</ele>
        <time>2021-03-28T10:59:01Z</time>
      </trkpt>
      <trkpt lat="45.12859" lon="4.73113">
        <ele>425.6</ele>
        <time>2021-03-28T10:59:05Z</time>
      </trkpt>
      <trkpt lat="45.12847" lon="4.73111">
        <ele>426.2</ele>
        <time>2021-03-28T10:59:09Z</time>
      </trkpt>
      <trkpt lat="45.12837" lon="4.73108">
        <ele>426.8</ele>
        <time>2021-03-28T10:59:13Z</time>
      </trkpt>
      <trkpt lat="45.12826" lon="4.73105">
        <ele>427.8</ele>
        <time>2021-03-28T10:59:17Z</time>
      </trkpt>
      <trkpt lat="45.12815" lon="4.73103">
        <ele>427.8</ele>
        <time>2021-03-28T10:59:21Z</time>
      </trkpt>
      <trkpt lat="45.12807" lon="4.73099">
        <ele>428.4</ele>
        <time>2021-03-28T10:59:25Z</time>
      </trkpt>
      <trkpt lat="45.12807" lon="4.73099">
        <ele>428.8</ele>
        <time>2021-03-28T10:59:29Z</time>
      </trkpt>
      <trkpt lat="45.12794" lon="4.73095">
        <ele>428</ele>
        <time>2021-03-28T10:59:45Z</time>
      </trkpt>
      <trkpt lat="45.12781" lon="4.73094">
        <ele>428.6</ele>
        <time>2021-03-28T10:59:49Z</time>
      </trkpt>
      <trkpt lat="45.12769" lon="4.73091">
        <ele>429.2</ele>
        <time>2021-03-28T10:59:53Z</time>
      </trkpt>
      <trkpt lat="45.12757" lon="4.73091">
        <ele>429.8</ele>
        <time>2021-03-28T10:59:57Z</time>
      </trkpt>
      <trkpt lat="45.12745" lon="4.73091">
        <ele>429.6</ele>
        <time>2021-03-28T11:00:01Z</time>
      </trkpt>
      <trkpt lat="45.12732" lon="4.7309">
        <ele>430.4</ele>
        <time>2021-03-28T11:00:05Z</time>
      </trkpt>
      <trkpt lat="45.12719" lon="4.7309">
        <ele>430.8</ele>
        <time>2021-03-28T11:00:09Z</time>
      </trkpt>
      <trkpt lat="45.12707" lon="4.73088">
        <ele>431.4</ele>
        <time>2021-03-28T11:00:13Z</time>
      </trkpt>
      <trkpt lat="45.12695" lon="4.73085">
        <ele>431.6</ele>
        <time>2021-03-28T11:00:17Z</time>
      </trkpt>
      <trkpt lat="45.12684" lon="4.73081">
        <ele>432.6</ele>
        <time>2021-03-28T11:00:21Z</time>
      </trkpt>
      <trkpt lat="45.12674" lon="4.73077">
        <ele>433.6</ele>
        <time>2021-03-28T11:00:25Z</time>
      </trkpt>
      <trkpt lat="45.12664" lon="4.73071">
        <ele>434.2</ele>
        <time>2021-03-28T11:00:29Z</time>
      </trkpt>
      <trkpt lat="45.12655" lon="4.73066">
        <ele>434.2</ele>
        <time>2021-03-28T11:00:33Z</time>
      </trkpt>
      <trkpt lat="45.12646" lon="4.7306">
        <ele>435</ele>
        <time>2021-03-28T11:00:37Z</time>
      </trkpt>
      <trkpt lat="45.12637" lon="4.73054">
        <ele>436.2</ele>
        <time>2021-03-28T11:00:41Z</time>
      </trkpt>
      <trkpt lat="45.12627" lon="4.73048">
        <ele>436.8</ele>
        <time>2021-03-28T11:00:45Z</time>
      </trkpt>
      <trkpt lat="45.12618" lon="4.73041">
        <ele>436.4</ele>
        <time>2021-03-28T11:00:49Z</time>
      </trkpt>
      <trkpt lat="45.12607" lon="4.73034">
        <ele>437.2</ele>
        <time>2021-03-28T11:00:53Z</time>
      </trkpt>
      <trkpt lat="45.12596" lon="4.73027">
        <ele>437.8</ele>
        <time>2021-03-28T11:00:57Z</time>
      </trkpt>
      <trkpt lat="45.12585" lon="4.73019">
        <ele>437.8</ele>
        <time>2021-03-28T11:01:01Z</time>
      </trkpt>
      <trkpt lat="45.12574" lon="4.73011">
        <ele>438.8</ele>
        <time>2021-03-28T11:01:05Z</time>
      </trkpt>
      <trkpt lat="45.12562" lon="4.73002">
        <ele>438.8</ele>
        <time>2021-03-28T11:01:09Z</time>
      </trkpt>
      <trkpt lat="45.12551" lon="4.72993">
        <ele>439.2</ele>
        <time>2021-03-28T11:01:13Z</time>
      </trkpt>
      <trkpt lat="45.12539" lon="4.72984">
        <ele>439.6</ele>
        <time>2021-03-28T11:01:17Z</time>
      </trkpt>
      <trkpt lat="45.12528" lon="4.72973">
        <ele>439.8</ele>
        <time>2021-03-28T11:01:21Z</time>
      </trkpt>
      <trkpt lat="45.12518" lon="4.72962">
        <ele>439.6</ele>
        <time>2021-03-28T11:01:25Z</time>
      </trkpt>
      <trkpt lat="45.12507" lon="4.7295">
        <ele>440.4</ele>
        <time>2021-03-28T11:01:29Z</time>
      </trkpt>
      <trkpt lat="45.12496" lon="4.72936">
        <ele>440.4</ele>
        <time>2021-03-28T11:01:33Z</time>
      </trkpt>
      <trkpt lat="45.12486" lon="4.72921">
        <ele>440.6</ele>
        <time>2021-03-28T11:01:37Z</time>
      </trkpt>
      <trkpt lat="45.12477" lon="4.72906">
        <ele>440.8</ele>
        <time>2021-03-28T11:01:41Z</time>
      </trkpt>
      <trkpt lat="45.12468" lon="4.72891">
        <ele>440.8</ele>
        <time>2021-03-28T11:01:45Z</time>
      </trkpt>
      <trkpt lat="45.12459" lon="4.72877">
        <ele>441.4</ele>
        <time>2021-03-28T11:01:49Z</time>
      </trkpt>
      <trkpt lat="45.1245" lon="4.72862">
        <ele>442.2</ele>
        <time>2021-03-28T11:01:53Z</time>
      </trkpt>
      <trkpt lat="45.12442" lon="4.72849">
        <ele>443.2</ele>
        <time>2021-03-28T11:01:57Z</time>
      </trkpt>
      <trkpt lat="45.12434" lon="4.72835">
        <ele>443.2</ele>
        <time>2021-03-28T11:02:01Z</time>
      </trkpt>
      <trkpt lat="45.12427" lon="4.72822">
        <ele>444.4</ele>
        <time>2021-03-28T11:02:05Z</time>
      </trkpt>
      <trkpt lat="45.12422" lon="4.7281">
        <ele>445</ele>
        <time>2021-03-28T11:02:09Z</time>
      </trkpt>
      <trkpt lat="45.12415" lon="4.72799">
        <ele>445.4</ele>
        <time>2021-03-28T11:02:13Z</time>
      </trkpt>
      <trkpt lat="45.12407" lon="4.72789">
        <ele>445.8</ele>
        <time>2021-03-28T11:02:17Z</time>
      </trkpt>
      <trkpt lat="45.12398" lon="4.72779">
        <ele>446.4</ele>
        <time>2021-03-28T11:02:21Z</time>
      </trkpt>
      <trkpt lat="45.12388" lon="4.7277">
        <ele>446.6</ele>
        <time>2021-03-28T11:02:25Z</time>
      </trkpt>
      <trkpt lat="45.12377" lon="4.72763">
        <ele>447.2</ele>
        <time>2021-03-28T11:02:29Z</time>
      </trkpt>
      <trkpt lat="45.12366" lon="4.72756">
        <ele>447.8</ele>
        <time>2021-03-28T11:02:33Z</time>
      </trkpt>
      <trkpt lat="45.12354" lon="4.72749">
        <ele>448.2</ele>
        <time>2021-03-28T11:02:37Z</time>
      </trkpt>
      <trkpt lat="45.12341" lon="4.72744">
        <ele>448.6</ele>
        <time>2021-03-28T11:02:41Z</time>
      </trkpt>
      <trkpt lat="45.12328" lon="4.72738">
        <ele>448.4</ele>
        <time>2021-03-28T11:02:45Z</time>
      </trkpt>
      <trkpt lat="45.12315" lon="4.72734">
        <ele>448.6</ele>
        <time>2021-03-28T11:02:49Z</time>
      </trkpt>
      <trkpt lat="45.123" lon="4.7273">
        <ele>448.6</ele>
        <time>2021-03-28T11:02:53Z</time>
      </trkpt>
      <trkpt lat="45.12286" lon="4.72728">
        <ele>449.4</ele>
        <time>2021-03-28T11:02:57Z</time>
      </trkpt>
      <trkpt lat="45.12272" lon="4.72726">
        <ele>449.8</ele>
        <time>2021-03-28T11:03:01Z</time>
      </trkpt>
      <trkpt lat="45.12258" lon="4.72724">
        <ele>449.6</ele>
        <time>2021-03-28T11:03:05Z</time>
      </trkpt>
      <trkpt lat="45.12242" lon="4.72723">
        <ele>449.6</ele>
        <time>2021-03-28T11:03:09Z</time>
      </trkpt>
      <trkpt lat="45.12227" lon="4.72722">
        <ele>450.2</ele>
        <time>2021-03-28T11:03:13Z</time>
      </trkpt>
      <trkpt lat="45.12213" lon="4.7272">
        <ele>450.6</ele>
        <time>2021-03-28T11:03:17Z</time>
      </trkpt>
      <trkpt lat="45.12197" lon="4.72718">
        <ele>450.6</ele>
        <time>2021-03-28T11:03:21Z</time>
      </trkpt>
      <trkpt lat="45.12181" lon="4.72716">
        <ele>450.6</ele>
        <time>2021-03-28T11:03:25Z</time>
      </trkpt>
      <trkpt lat="45.12166" lon="4.72715">
        <ele>450.8</ele>
        <time>2021-03-28T11:03:29Z</time>
      </trkpt>
      <trkpt lat="45.1215" lon="4.72714">
        <ele>450.8</ele>
        <time>2021-03-28T11:03:33Z</time>
      </trkpt>
      <trkpt lat="45.12134" lon="4.72712">
        <ele>451.2</ele>
        <time>2021-03-28T11:03:37Z</time>
      </trkpt>
      <trkpt lat="45.12118" lon="4.72711">
        <ele>450.8</ele>
        <time>2021-03-28T11:03:41Z</time>
      </trkpt>
      <trkpt lat="45.12102" lon="4.72709">
        <ele>451</ele>
        <time>2021-03-28T11:03:45Z</time>
      </trkpt>
      <trkpt lat="45.12088" lon="4.72707">
        <ele>450.6</ele>
        <time>2021-03-28T11:03:49Z</time>
      </trkpt>
      <trkpt lat="45.12075" lon="4.72705">
        <ele>451.2</ele>
        <time>2021-03-28T11:03:53Z</time>
      </trkpt>
      <trkpt lat="45.12062" lon="4.72703">
        <ele>451.8</ele>
        <time>2021-03-28T11:03:57Z</time>
      </trkpt>
      <trkpt lat="45.12048" lon="4.72701">
        <ele>451.2</ele>
        <time>2021-03-28T11:04:01Z</time>
      </trkpt>
      <trkpt lat="45.12035" lon="4.72699">
        <ele>452</ele>
        <time>2021-03-28T11:04:05Z</time>
      </trkpt>
      <trkpt lat="45.12019" lon="4.72695">
        <ele>451.6</ele>
        <time>2021-03-28T11:04:09Z</time>
      </trkpt>
      <trkpt lat="45.12003" lon="4.72686">
        <ele>451.8</ele>
        <time>2021-03-28T11:04:13Z</time>
      </trkpt>
      <trkpt lat="45.11987" lon="4.72675">
        <ele>452.2</ele>
        <time>2021-03-28T11:04:17Z</time>
      </trkpt>
      <trkpt lat="45.11973" lon="4.72664">
        <ele>453</ele>
        <time>2021-03-28T11:04:21Z</time>
      </trkpt>
      <trkpt lat="45.11961" lon="4.72653">
        <ele>453.2</ele>
        <time>2021-03-28T11:04:25Z</time>
      </trkpt>
      <trkpt lat="45.11951" lon="4.72644">
        <ele>453.8</ele>
        <time>2021-03-28T11:04:29Z</time>
      </trkpt>
      <trkpt lat="45.11942" lon="4.72636">
        <ele>454.2</ele>
        <time>2021-03-28T11:04:33Z</time>
      </trkpt>
      <trkpt lat="45.11933" lon="4.72628">
        <ele>455</ele>
        <time>2021-03-28T11:04:37Z</time>
      </trkpt>
      <trkpt lat="45.11924" lon="4.72621">
        <ele>455.8</ele>
        <time>2021-03-28T11:04:41Z</time>
      </trkpt>
      <trkpt lat="45.11917" lon="4.72615">
        <ele>456.6</ele>
        <time>2021-03-28T11:04:45Z</time>
      </trkpt>
      <trkpt lat="45.1191" lon="4.72608">
        <ele>455.8</ele>
        <time>2021-03-28T11:04:49Z</time>
      </trkpt>
      <trkpt lat="45.11901" lon="4.72619">
        <ele>456</ele>
        <time>2021-03-28T11:05:33Z</time>
      </trkpt>
      <trkpt lat="45.11893" lon="4.72628">
        <ele>457.4</ele>
        <time>2021-03-28T11:05:37Z</time>
      </trkpt>
      <trkpt lat="45.11885" lon="4.72639">
        <ele>457.8</ele>
        <time>2021-03-28T11:05:41Z</time>
      </trkpt>
      <trkpt lat="45.11878" lon="4.72649">
        <ele>458</ele>
        <time>2021-03-28T11:05:45Z</time>
      </trkpt>
      <trkpt lat="45.11868" lon="4.7266">
        <ele>458.4</ele>
        <time>2021-03-28T11:05:49Z</time>
      </trkpt>
      <trkpt lat="45.11858" lon="4.72672">
        <ele>458.4</ele>
        <time>2021-03-28T11:05:53Z</time>
      </trkpt>
      <trkpt lat="45.11848" lon="4.72685">
        <ele>458.6</ele>
        <time>2021-03-28T11:05:57Z</time>
      </trkpt>
      <trkpt lat="45.11837" lon="4.72696">
        <ele>458.2</ele>
        <time>2021-03-28T11:06:01Z</time>
      </trkpt>
      <trkpt lat="45.11828" lon="4.72709">
        <ele>458.6</ele>
        <time>2021-03-28T11:06:05Z</time>
      </trkpt>
      <trkpt lat="45.11818" lon="4.72721">
        <ele>458.8</ele>
        <time>2021-03-28T11:06:09Z</time>
      </trkpt>
      <trkpt lat="45.11809" lon="4.72734">
        <ele>459.2</ele>
        <time>2021-03-28T11:06:13Z</time>
      </trkpt>
      <trkpt lat="45.11804" lon="4.72749">
        <ele>459.2</ele>
        <time>2021-03-28T11:06:17Z</time>
      </trkpt>
      <trkpt lat="45.11801" lon="4.72764">
        <ele>458.8</ele>
        <time>2021-03-28T11:06:21Z</time>
      </trkpt>
      <trkpt lat="45.11794" lon="4.72774">
        <ele>458.8</ele>
        <time>2021-03-28T11:06:25Z</time>
      </trkpt>
      <trkpt lat="45.11785" lon="4.72771">
        <ele>459</ele>
        <time>2021-03-28T11:06:29Z</time>
      </trkpt>
      <trkpt lat="45.11789" lon="4.72755">
        <ele>459</ele>
        <time>2021-03-28T11:06:56Z</time>
      </trkpt>
      <trkpt lat="45.11794" lon="4.72737">
        <ele>459.2</ele>
        <time>2021-03-28T11:07:00Z</time>
      </trkpt>
      <trkpt lat="45.11799" lon="4.72717">
        <ele>458.2</ele>
        <time>2021-03-28T11:07:04Z</time>
      </trkpt>
      <trkpt lat="45.11804" lon="4.72696">
        <ele>458.6</ele>
        <time>2021-03-28T11:07:08Z</time>
      </trkpt>
      <trkpt lat="45.11808" lon="4.72674">
        <ele>458.2</ele>
        <time>2021-03-28T11:07:12Z</time>
      </trkpt>
      <trkpt lat="45.11814" lon="4.72652">
        <ele>457.8</ele>
        <time>2021-03-28T11:07:16Z</time>
      </trkpt>
      <trkpt lat="45.11819" lon="4.72629">
        <ele>458</ele>
        <time>2021-03-28T11:07:20Z</time>
      </trkpt>
      <trkpt lat="45.11823" lon="4.72605">
        <ele>457.4</ele>
        <time>2021-03-28T11:07:24Z</time>
      </trkpt>
      <trkpt lat="45.11828" lon="4.7258">
        <ele>457.4</ele>
        <time>2021-03-28T11:07:28Z</time>
      </trkpt>
      <trkpt lat="45.11836" lon="4.72556">
        <ele>456.8</ele>
        <time>2021-03-28T11:07:32Z</time>
      </trkpt>
      <trkpt lat="45.11841" lon="4.7253">
        <ele>456.4</ele>
        <time>2021-03-28T11:07:36Z</time>
      </trkpt>
      <trkpt lat="45.11847" lon="4.72506">
        <ele>456.6</ele>
        <time>2021-03-28T11:07:40Z</time>
      </trkpt>
      <trkpt lat="45.11853" lon="4.72482">
        <ele>456.8</ele>
        <time>2021-03-28T11:07:44Z</time>
      </trkpt>
      <trkpt lat="45.11857" lon="4.72457">
        <ele>457.6</ele>
        <time>2021-03-28T11:07:48Z</time>
      </trkpt>
      <trkpt lat="45.11862" lon="4.72435">
        <ele>458</ele>
        <time>2021-03-28T11:07:52Z</time>
      </trkpt>
      <trkpt lat="45.11865" lon="4.72415">
        <ele>459.6</ele>
        <time>2021-03-28T11:07:56Z</time>
      </trkpt>
      <trkpt lat="45.11869" lon="4.72396">
        <ele>459.6</ele>
        <time>2021-03-28T11:08:00Z</time>
      </trkpt>
      <trkpt lat="45.11871" lon="4.72378">
        <ele>460.8</ele>
        <time>2021-03-28T11:08:04Z</time>
      </trkpt>
      <trkpt lat="45.11872" lon="4.7236">
        <ele>460.6</ele>
        <time>2021-03-28T11:08:08Z</time>
      </trkpt>
      <trkpt lat="45.11871" lon="4.72342">
        <ele>461.2</ele>
        <time>2021-03-28T11:08:12Z</time>
      </trkpt>
      <trkpt lat="45.11869" lon="4.72323">
        <ele>462.2</ele>
        <time>2021-03-28T11:08:16Z</time>
      </trkpt>
      <trkpt lat="45.11867" lon="4.72305">
        <ele>462.2</ele>
        <time>2021-03-28T11:08:20Z</time>
      </trkpt>
      <trkpt lat="45.11864" lon="4.72286">
        <ele>461.8</ele>
        <time>2021-03-28T11:08:24Z</time>
      </trkpt>
      <trkpt lat="45.11861" lon="4.72267">
        <ele>462.4</ele>
        <time>2021-03-28T11:08:28Z</time>
      </trkpt>
      <trkpt lat="45.11856" lon="4.72249">
        <ele>462.8</ele>
        <time>2021-03-28T11:08:32Z</time>
      </trkpt>
      <trkpt lat="45.1185" lon="4.72231">
        <ele>463.4</ele>
        <time>2021-03-28T11:08:36Z</time>
      </trkpt>
      <trkpt lat="45.11842" lon="4.72215">
        <ele>463.4</ele>
        <time>2021-03-28T11:08:40Z</time>
      </trkpt>
      <trkpt lat="45.11835" lon="4.72199">
        <ele>464</ele>
        <time>2021-03-28T11:08:44Z</time>
      </trkpt>
      <trkpt lat="45.11826" lon="4.72186">
        <ele>464.6</ele>
        <time>2021-03-28T11:08:48Z</time>
      </trkpt>
      <trkpt lat="45.11818" lon="4.72173">
        <ele>464.6</ele>
        <time>2021-03-28T11:08:52Z</time>
      </trkpt>
      <trkpt lat="45.11809" lon="4.72161">
        <ele>465.2</ele>
        <time>2021-03-28T11:08:56Z</time>
      </trkpt>
      <trkpt lat="45.118" lon="4.7215">
        <ele>466</ele>
        <time>2021-03-28T11:09:00Z</time>
      </trkpt>
      <trkpt lat="45.11791" lon="4.72139">
        <ele>466.4</ele>
        <time>2021-03-28T11:09:04Z</time>
      </trkpt>
      <trkpt lat="45.11783" lon="4.72129">
        <ele>467.6</ele>
        <time>2021-03-28T11:09:08Z</time>
      </trkpt>
      <trkpt lat="45.11774" lon="4.72119">
        <ele>468.2</ele>
        <time>2021-03-28T11:09:12Z</time>
      </trkpt>
      <trkpt lat="45.11765" lon="4.72109">
        <ele>468.4</ele>
        <time>2021-03-28T11:09:16Z</time>
      </trkpt>
      <trkpt lat="45.11755" lon="4.72099">
        <ele>468.4</ele>
        <time>2021-03-28T11:09:20Z</time>
      </trkpt>
      <trkpt lat="45.11746" lon="4.72088">
        <ele>469.2</ele>
        <time>2021-03-28T11:09:24Z</time>
      </trkpt>
      <trkpt lat="45.11737" lon="4.72077">
        <ele>469.4</ele>
        <time>2021-03-28T11:09:28Z</time>
      </trkpt>
      <trkpt lat="45.11729" lon="4.72065">
        <ele>470</ele>
        <time>2021-03-28T11:09:32Z</time>
      </trkpt>
      <trkpt lat="45.11723" lon="4.72051">
        <ele>470.2</ele>
        <time>2021-03-28T11:09:36Z</time>
      </trkpt>
      <trkpt lat="45.11718" lon="4.72035">
        <ele>470.6</ele>
        <time>2021-03-28T11:09:40Z</time>
      </trkpt>
      <trkpt lat="45.11714" lon="4.72019">
        <ele>471.4</ele>
        <time>2021-03-28T11:09:44Z</time>
      </trkpt>
      <trkpt lat="45.11711" lon="4.72003">
        <ele>471.8</ele>
        <time>2021-03-28T11:09:48Z</time>
      </trkpt>
      <trkpt lat="45.11709" lon="4.71986">
        <ele>472.6</ele>
        <time>2021-03-28T11:09:52Z</time>
      </trkpt>
      <trkpt lat="45.11707" lon="4.7197">
        <ele>473.4</ele>
        <time>2021-03-28T11:09:56Z</time>
      </trkpt>
      <trkpt lat="45.11706" lon="4.71953">
        <ele>473.4</ele>
        <time>2021-03-28T11:10:00Z</time>
      </trkpt>
      <trkpt lat="45.11705" lon="4.71936">
        <ele>474</ele>
        <time>2021-03-28T11:10:04Z</time>
      </trkpt>
      <trkpt lat="45.11704" lon="4.71919">
        <ele>474.8</ele>
        <time>2021-03-28T11:10:08Z</time>
      </trkpt>
      <trkpt lat="45.11705" lon="4.71903">
        <ele>475</ele>
        <time>2021-03-28T11:10:12Z</time>
      </trkpt>
      <trkpt lat="45.11706" lon="4.71886">
        <ele>475.2</ele>
        <time>2021-03-28T11:10:16Z</time>
      </trkpt>
      <trkpt lat="45.11708" lon="4.71871">
        <ele>476.4</ele>
        <time>2021-03-28T11:10:20Z</time>
      </trkpt>
      <trkpt lat="45.11709" lon="4.71857">
        <ele>477</ele>
        <time>2021-03-28T11:10:24Z</time>
      </trkpt>
      <trkpt lat="45.1171" lon="4.71843">
        <ele>477.4</ele>
        <time>2021-03-28T11:10:28Z</time>
      </trkpt>
      <trkpt lat="45.11712" lon="4.7183">
        <ele>477.6</ele>
        <time>2021-03-28T11:10:32Z</time>
      </trkpt>
      <trkpt lat="45.11713" lon="4.71816">
        <ele>478.8</ele>
        <time>2021-03-28T11:10:36Z</time>
      </trkpt>
      <trkpt lat="45.11714" lon="4.71802">
        <ele>479.4</ele>
        <time>2021-03-28T11:10:40Z</time>
      </trkpt>
      <trkpt lat="45.11715" lon="4.71787">
        <ele>479.8</ele>
        <time>2021-03-28T11:10:44Z</time>
      </trkpt>
      <trkpt lat="45.11715" lon="4.71771">
        <ele>480.6</ele>
        <time>2021-03-28T11:10:48Z</time>
      </trkpt>
      <trkpt lat="45.11715" lon="4.71755">
        <ele>481</ele>
        <time>2021-03-28T11:10:52Z</time>
      </trkpt>
      <trkpt lat="45.11714" lon="4.71737">
        <ele>481.4</ele>
        <time>2021-03-28T11:10:56Z</time>
      </trkpt>
      <trkpt lat="45.11713" lon="4.71719">
        <ele>481</ele>
        <time>2021-03-28T11:11:00Z</time>
      </trkpt>
      <trkpt lat="45.11713" lon="4.717">
        <ele>481</ele>
        <time>2021-03-28T11:11:04Z</time>
      </trkpt>
      <trkpt lat="45.11712" lon="4.71681">
        <ele>481.4</ele>
        <time>2021-03-28T11:11:08Z</time>
      </trkpt>
      <trkpt lat="45.11712" lon="4.71662">
        <ele>481.8</ele>
        <time>2021-03-28T11:11:12Z</time>
      </trkpt>
      <trkpt lat="45.11711" lon="4.71644">
        <ele>482.6</ele>
        <time>2021-03-28T11:11:16Z</time>
      </trkpt>
      <trkpt lat="45.11711" lon="4.71627">
        <ele>482.6</ele>
        <time>2021-03-28T11:11:20Z</time>
      </trkpt>
      <trkpt lat="45.1171" lon="4.7161">
        <ele>483.8</ele>
        <time>2021-03-28T11:11:24Z</time>
      </trkpt>
      <trkpt lat="45.1171" lon="4.71594">
        <ele>483.8</ele>
        <time>2021-03-28T11:11:28Z</time>
      </trkpt>
      <trkpt lat="45.11709" lon="4.71577">
        <ele>484.4</ele>
        <time>2021-03-28T11:11:32Z</time>
      </trkpt>
      <trkpt lat="45.11709" lon="4.7156">
        <ele>485.6</ele>
        <time>2021-03-28T11:11:36Z</time>
      </trkpt>
      <trkpt lat="45.11708" lon="4.71543">
        <ele>485.8</ele>
        <time>2021-03-28T11:11:40Z</time>
      </trkpt>
      <trkpt lat="45.11708" lon="4.71526">
        <ele>486</ele>
        <time>2021-03-28T11:11:44Z</time>
      </trkpt>
      <trkpt lat="45.11707" lon="4.71509">
        <ele>487.4</ele>
        <time>2021-03-28T11:11:48Z</time>
      </trkpt>
      <trkpt lat="45.11706" lon="4.71492">
        <ele>487.2</ele>
        <time>2021-03-28T11:11:52Z</time>
      </trkpt>
      <trkpt lat="45.11704" lon="4.71474">
        <ele>487.6</ele>
        <time>2021-03-28T11:11:56Z</time>
      </trkpt>
      <trkpt lat="45.117" lon="4.71457">
        <ele>488</ele>
        <time>2021-03-28T11:12:00Z</time>
      </trkpt>
      <trkpt lat="45.11696" lon="4.71438">
        <ele>488.2</ele>
        <time>2021-03-28T11:12:04Z</time>
      </trkpt>
      <trkpt lat="45.11692" lon="4.7142">
        <ele>488.4</ele>
        <time>2021-03-28T11:12:08Z</time>
      </trkpt>
      <trkpt lat="45.11687" lon="4.71402">
        <ele>488.4</ele>
        <time>2021-03-28T11:12:12Z</time>
      </trkpt>
      <trkpt lat="45.11683" lon="4.71386">
        <ele>489.4</ele>
        <time>2021-03-28T11:12:16Z</time>
      </trkpt>
      <trkpt lat="45.11679" lon="4.7137">
        <ele>490</ele>
        <time>2021-03-28T11:12:20Z</time>
      </trkpt>
      <trkpt lat="45.11675" lon="4.71354">
        <ele>491</ele>
        <time>2021-03-28T11:12:24Z</time>
      </trkpt>
      <trkpt lat="45.1167" lon="4.71338">
        <ele>491.2</ele>
        <time>2021-03-28T11:12:28Z</time>
      </trkpt>
      <trkpt lat="45.11666" lon="4.71321">
        <ele>491.8</ele>
        <time>2021-03-28T11:12:32Z</time>
      </trkpt>
      <trkpt lat="45.11662" lon="4.71304">
        <ele>492.2</ele>
        <time>2021-03-28T11:12:36Z</time>
      </trkpt>
      <trkpt lat="45.11658" lon="4.71288">
        <ele>493</ele>
        <time>2021-03-28T11:12:40Z</time>
      </trkpt>
      <trkpt lat="45.11653" lon="4.7127">
        <ele>493.4</ele>
        <time>2021-03-28T11:12:44Z</time>
      </trkpt>
      <trkpt lat="45.11648" lon="4.71252">
        <ele>493.4</ele>
        <time>2021-03-28T11:12:48Z</time>
      </trkpt>
      <trkpt lat="45.11644" lon="4.71234">
        <ele>493.4</ele>
        <time>2021-03-28T11:12:52Z</time>
      </trkpt>
      <trkpt lat="45.11639" lon="4.71217">
        <ele>494</ele>
        <time>2021-03-28T11:12:56Z</time>
      </trkpt>
      <trkpt lat="45.11635" lon="4.71198">
        <ele>494</ele>
        <time>2021-03-28T11:13:00Z</time>
      </trkpt>
      <trkpt lat="45.1163" lon="4.71181">
        <ele>494.6</ele>
        <time>2021-03-28T11:13:04Z</time>
      </trkpt>
      <trkpt lat="45.11624" lon="4.71163">
        <ele>494.8</ele>
        <time>2021-03-28T11:13:08Z</time>
      </trkpt>
      <trkpt lat="45.11619" lon="4.71147">
        <ele>495.2</ele>
        <time>2021-03-28T11:13:12Z</time>
      </trkpt>
      <trkpt lat="45.11612" lon="4.71129">
        <ele>495.6</ele>
        <time>2021-03-28T11:13:16Z</time>
      </trkpt>
      <trkpt lat="45.11603" lon="4.7111">
        <ele>495.6</ele>
        <time>2021-03-28T11:13:20Z</time>
      </trkpt>
      <trkpt lat="45.11595" lon="4.71091">
        <ele>494.8</ele>
        <time>2021-03-28T11:13:24Z</time>
      </trkpt>
      <trkpt lat="45.11584" lon="4.71069">
        <ele>494</ele>
        <time>2021-03-28T11:13:28Z</time>
      </trkpt>
      <trkpt lat="45.11574" lon="4.71044">
        <ele>492</ele>
        <time>2021-03-28T11:13:32Z</time>
      </trkpt>
      <trkpt lat="45.11565" lon="4.7101">
        <ele>491</ele>
        <time>2021-03-28T11:13:36Z</time>
      </trkpt>
      <trkpt lat="45.11563" lon="4.70974">
        <ele>489.8</ele>
        <time>2021-03-28T11:13:40Z</time>
      </trkpt>
      <trkpt lat="45.11563" lon="4.70937">
        <ele>488.8</ele>
        <time>2021-03-28T11:13:44Z</time>
      </trkpt>
      <trkpt lat="45.11567" lon="4.70896">
        <ele>487</ele>
        <time>2021-03-28T11:13:48Z</time>
      </trkpt>
      <trkpt lat="45.11569" lon="4.70854">
        <ele>485.4</ele>
        <time>2021-03-28T11:13:52Z</time>
      </trkpt>
      <trkpt lat="45.11568" lon="4.70811">
        <ele>483.8</ele>
        <time>2021-03-28T11:13:56Z</time>
      </trkpt>
      <trkpt lat="45.11561" lon="4.70769">
        <ele>483.6</ele>
        <time>2021-03-28T11:14:00Z</time>
      </trkpt>
      <trkpt lat="45.11547" lon="4.70728">
        <ele>483.4</ele>
        <time>2021-03-28T11:14:04Z</time>
      </trkpt>
      <trkpt lat="45.11526" lon="4.70689">
        <ele>481.8</ele>
        <time>2021-03-28T11:14:08Z</time>
      </trkpt>
      <trkpt lat="45.11504" lon="4.7065">
        <ele>481.2</ele>
        <time>2021-03-28T11:14:12Z</time>
      </trkpt>
      <trkpt lat="45.11485" lon="4.70611">
        <ele>478.6</ele>
        <time>2021-03-28T11:14:16Z</time>
      </trkpt>
      <trkpt lat="45.11468" lon="4.70575">
        <ele>477.8</ele>
        <time>2021-03-28T11:14:20Z</time>
      </trkpt>
      <trkpt lat="45.11451" lon="4.70542">
        <ele>477</ele>
        <time>2021-03-28T11:14:24Z</time>
      </trkpt>
      <trkpt lat="45.11435" lon="4.70506">
        <ele>475.6</ele>
        <time>2021-03-28T11:14:28Z</time>
      </trkpt>
      <trkpt lat="45.11423" lon="4.70468">
        <ele>474.8</ele>
        <time>2021-03-28T11:14:32Z</time>
      </trkpt>
      <trkpt lat="45.11411" lon="4.7043">
        <ele>472.8</ele>
        <time>2021-03-28T11:14:36Z</time>
      </trkpt>
      <trkpt lat="45.11399" lon="4.70391">
        <ele>471.6</ele>
        <time>2021-03-28T11:14:40Z</time>
      </trkpt>
      <trkpt lat="45.11388" lon="4.70353">
        <ele>471.2</ele>
        <time>2021-03-28T11:14:44Z</time>
      </trkpt>
      <trkpt lat="45.11378" lon="4.70316">
        <ele>470.8</ele>
        <time>2021-03-28T11:14:48Z</time>
      </trkpt>
      <trkpt lat="45.11372" lon="4.70278">
        <ele>470.8</ele>
        <time>2021-03-28T11:14:52Z</time>
      </trkpt>
      <trkpt lat="45.11369" lon="4.70238">
        <ele>470</ele>
        <time>2021-03-28T11:14:56Z</time>
      </trkpt>
      <trkpt lat="45.11367" lon="4.70198">
        <ele>468.8</ele>
        <time>2021-03-28T11:15:00Z</time>
      </trkpt>
      <trkpt lat="45.11361" lon="4.70162">
        <ele>469.4</ele>
        <time>2021-03-28T11:15:04Z</time>
      </trkpt>
      <trkpt lat="45.1135" lon="4.70133">
        <ele>468.4</ele>
        <time>2021-03-28T11:15:08Z</time>
      </trkpt>
      <trkpt lat="45.11333" lon="4.70117">
        <ele>468</ele>
        <time>2021-03-28T11:15:12Z</time>
      </trkpt>
      <trkpt lat="45.11315" lon="4.70132">
        <ele>467.2</ele>
        <time>2021-03-28T11:15:16Z</time>
      </trkpt>
      <trkpt lat="45.11299" lon="4.70144">
        <ele>468.2</ele>
        <time>2021-03-28T11:15:20Z</time>
      </trkpt>
      <trkpt lat="45.11283" lon="4.70154">
        <ele>468</ele>
        <time>2021-03-28T11:15:24Z</time>
      </trkpt>
      <trkpt lat="45.11266" lon="4.70165">
        <ele>467</ele>
        <time>2021-03-28T11:15:28Z</time>
      </trkpt>
      <trkpt lat="45.11245" lon="4.7017">
        <ele>465.8</ele>
        <time>2021-03-28T11:15:32Z</time>
      </trkpt>
      <trkpt lat="45.1122" lon="4.7016">
        <ele>464.4</ele>
        <time>2021-03-28T11:15:36Z</time>
      </trkpt>
      <trkpt lat="45.11195" lon="4.70145">
        <ele>462.4</ele>
        <time>2021-03-28T11:15:40Z</time>
      </trkpt>
      <trkpt lat="45.11168" lon="4.70139">
        <ele>462</ele>
        <time>2021-03-28T11:15:44Z</time>
      </trkpt>
      <trkpt lat="45.11139" lon="4.7014">
        <ele>460.6</ele>
        <time>2021-03-28T11:15:48Z</time>
      </trkpt>
      <trkpt lat="45.11126" lon="4.70143">
        <ele>462.2</ele>
        <time>2021-03-28T11:15:52Z</time>
      </trkpt>
      <trkpt lat="45.11112" lon="4.70147">
        <ele>460.4</ele>
        <time>2021-03-28T11:16:07Z</time>
      </trkpt>
      <trkpt lat="45.11095" lon="4.70154">
        <ele>459.2</ele>
        <time>2021-03-28T11:16:11Z</time>
      </trkpt>
      <trkpt lat="45.11076" lon="4.70164">
        <ele>457.8</ele>
        <time>2021-03-28T11:16:15Z</time>
      </trkpt>
      <trkpt lat="45.11055" lon="4.70178">
        <ele>456.8</ele>
        <time>2021-03-28T11:16:19Z</time>
      </trkpt>
      <trkpt lat="45.11033" lon="4.70197">
        <ele>455.4</ele>
        <time>2021-03-28T11:16:23Z</time>
      </trkpt>
      <trkpt lat="45.1101" lon="4.70219">
        <ele>454</ele>
        <time>2021-03-28T11:16:27Z</time>
      </trkpt>
      <trkpt lat="45.10986" lon="4.70245">
        <ele>452.4</ele>
        <time>2021-03-28T11:16:31Z</time>
      </trkpt>
      <trkpt lat="45.10962" lon="4.70276">
        <ele>450.2</ele>
        <time>2021-03-28T11:16:35Z</time>
      </trkpt>
      <trkpt lat="45.10939" lon="4.70311">
        <ele>450.2</ele>
        <time>2021-03-28T11:16:39Z</time>
      </trkpt>
      <trkpt lat="45.10916" lon="4.70346">
        <ele>446.8</ele>
        <time>2021-03-28T11:16:43Z</time>
      </trkpt>
      <trkpt lat="45.10907" lon="4.70383">
        <ele>447.8</ele>
        <time>2021-03-28T11:16:47Z</time>
      </trkpt>
      <trkpt lat="45.10906" lon="4.70407">
        <ele>451.4</ele>
        <time>2021-03-28T11:16:51Z</time>
      </trkpt>
      <trkpt lat="45.10906" lon="4.70417">
        <ele>452.2</ele>
        <time>2021-03-28T11:16:55Z</time>
      </trkpt>
      <trkpt lat="45.10907" lon="4.70427">
        <ele>452.8</ele>
        <time>2021-03-28T11:16:59Z</time>
      </trkpt>
      <trkpt lat="45.10907" lon="4.70438">
        <ele>453.2</ele>
        <time>2021-03-28T11:17:03Z</time>
      </trkpt>
      <trkpt lat="45.10906" lon="4.70448">
        <ele>453.8</ele>
        <time>2021-03-28T11:17:07Z</time>
      </trkpt>
      <trkpt lat="45.10906" lon="4.70458">
        <ele>454.8</ele>
        <time>2021-03-28T11:17:11Z</time>
      </trkpt>
      <trkpt lat="45.10907" lon="4.70469">
        <ele>455</ele>
        <time>2021-03-28T11:17:15Z</time>
      </trkpt>
      <trkpt lat="45.10907" lon="4.70479">
        <ele>455.4</ele>
        <time>2021-03-28T11:17:19Z</time>
      </trkpt>
      <trkpt lat="45.10907" lon="4.70489">
        <ele>455.6</ele>
        <time>2021-03-28T11:17:23Z</time>
      </trkpt>
      <trkpt lat="45.10907" lon="4.705">
        <ele>456.2</ele>
        <time>2021-03-28T11:17:27Z</time>
      </trkpt>
      <trkpt lat="45.10907" lon="4.7051">
        <ele>456.2</ele>
        <time>2021-03-28T11:17:31Z</time>
      </trkpt>
      <trkpt lat="45.10907" lon="4.70521">
        <ele>456.8</ele>
        <time>2021-03-28T11:17:35Z</time>
      </trkpt>
      <trkpt lat="45.10907" lon="4.70532">
        <ele>457</ele>
        <time>2021-03-28T11:17:39Z</time>
      </trkpt>
      <trkpt lat="45.10907" lon="4.70542">
        <ele>457.4</ele>
        <time>2021-03-28T11:17:43Z</time>
      </trkpt>
      <trkpt lat="45.10907" lon="4.70553">
        <ele>458.6</ele>
        <time>2021-03-28T11:17:47Z</time>
      </trkpt>
      <trkpt lat="45.10907" lon="4.70564">
        <ele>458</ele>
        <time>2021-03-28T11:17:51Z</time>
      </trkpt>
      <trkpt lat="45.10907" lon="4.70575">
        <ele>459</ele>
        <time>2021-03-28T11:17:55Z</time>
      </trkpt>
      <trkpt lat="45.10908" lon="4.70587">
        <ele>458.8</ele>
        <time>2021-03-28T11:17:59Z</time>
      </trkpt>
      <trkpt lat="45.10909" lon="4.70599">
        <ele>459.4</ele>
        <time>2021-03-28T11:18:03Z</time>
      </trkpt>
      <trkpt lat="45.10912" lon="4.70611">
        <ele>459.8</ele>
        <time>2021-03-28T11:18:07Z</time>
      </trkpt>
      <trkpt lat="45.10914" lon="4.70622">
        <ele>460.6</ele>
        <time>2021-03-28T11:18:11Z</time>
      </trkpt>
      <trkpt lat="45.10917" lon="4.70635">
        <ele>460.6</ele>
        <time>2021-03-28T11:18:15Z</time>
      </trkpt>
      <trkpt lat="45.10917" lon="4.70648">
        <ele>460.4</ele>
        <time>2021-03-28T11:18:19Z</time>
      </trkpt>
      <trkpt lat="45.10916" lon="4.70661">
        <ele>460.4</ele>
        <time>2021-03-28T11:18:23Z</time>
      </trkpt>
      <trkpt lat="45.10912" lon="4.70675">
        <ele>460.4</ele>
        <time>2021-03-28T11:18:27Z</time>
      </trkpt>
      <trkpt lat="45.109" lon="4.70689">
        <ele>459.4</ele>
        <time>2021-03-28T11:18:31Z</time>
      </trkpt>
      <trkpt lat="45.10883" lon="4.70711">
        <ele>456.6</ele>
        <time>2021-03-28T11:18:35Z</time>
      </trkpt>
      <trkpt lat="45.10869" lon="4.70743">
        <ele>454.4</ele>
        <time>2021-03-28T11:18:39Z</time>
      </trkpt>
      <trkpt lat="45.10855" lon="4.70778">
        <ele>452.2</ele>
        <time>2021-03-28T11:18:43Z</time>
      </trkpt>
      <trkpt lat="45.10841" lon="4.70809">
        <ele>455.8</ele>
        <time>2021-03-28T11:18:47Z</time>
      </trkpt>
      <trkpt lat="45.10833" lon="4.70821">
        <ele>458.8</ele>
        <time>2021-03-28T11:18:51Z</time>
      </trkpt>
      <trkpt lat="45.10828" lon="4.70828">
        <ele>459.6</ele>
        <time>2021-03-28T11:18:55Z</time>
      </trkpt>
      <trkpt lat="45.10822" lon="4.70835">
        <ele>460.6</ele>
        <time>2021-03-28T11:18:59Z</time>
      </trkpt>
      <trkpt lat="45.10817" lon="4.70842">
        <ele>461.4</ele>
        <time>2021-03-28T11:19:03Z</time>
      </trkpt>
      <trkpt lat="45.10811" lon="4.70849">
        <ele>462.4</ele>
        <time>2021-03-28T11:19:07Z</time>
      </trkpt>
      <trkpt lat="45.10806" lon="4.70857">
        <ele>463</ele>
        <time>2021-03-28T11:19:11Z</time>
      </trkpt>
      <trkpt lat="45.10799" lon="4.70865">
        <ele>463.4</ele>
        <time>2021-03-28T11:19:15Z</time>
      </trkpt>
      <trkpt lat="45.10793" lon="4.70873">
        <ele>464.4</ele>
        <time>2021-03-28T11:19:19Z</time>
      </trkpt>
      <trkpt lat="45.10787" lon="4.7088">
        <ele>464.8</ele>
        <time>2021-03-28T11:19:23Z</time>
      </trkpt>
      <trkpt lat="45.10782" lon="4.70887">
        <ele>465.6</ele>
        <time>2021-03-28T11:19:27Z</time>
      </trkpt>
      <trkpt lat="45.10777" lon="4.70893">
        <ele>466.2</ele>
        <time>2021-03-28T11:19:31Z</time>
      </trkpt>
      <trkpt lat="45.10771" lon="4.709">
        <ele>466.2</ele>
        <time>2021-03-28T11:19:35Z</time>
      </trkpt>
      <trkpt lat="45.10765" lon="4.70907">
        <ele>467</ele>
        <time>2021-03-28T11:19:39Z</time>
      </trkpt>
      <trkpt lat="45.1076" lon="4.70913">
        <ele>467.8</ele>
        <time>2021-03-28T11:19:43Z</time>
      </trkpt>
      <trkpt lat="45.10754" lon="4.7092">
        <ele>468</ele>
        <time>2021-03-28T11:19:47Z</time>
      </trkpt>
      <trkpt lat="45.10748" lon="4.70926">
        <ele>469</ele>
        <time>2021-03-28T11:19:51Z</time>
      </trkpt>
      <trkpt lat="45.10744" lon="4.70934">
        <ele>469.8</ele>
        <time>2021-03-28T11:19:55Z</time>
      </trkpt>
      <trkpt lat="45.1074" lon="4.70941">
        <ele>470.4</ele>
        <time>2021-03-28T11:19:59Z</time>
      </trkpt>
      <trkpt lat="45.10736" lon="4.70948">
        <ele>470.6</ele>
        <time>2021-03-28T11:20:03Z</time>
      </trkpt>
      <trkpt lat="45.10731" lon="4.70955">
        <ele>471.4</ele>
        <time>2021-03-28T11:20:07Z</time>
      </trkpt>
      <trkpt lat="45.10726" lon="4.70962">
        <ele>472.2</ele>
        <time>2021-03-28T11:20:11Z</time>
      </trkpt>
      <trkpt lat="45.10722" lon="4.70969">
        <ele>472.2</ele>
        <time>2021-03-28T11:20:15Z</time>
      </trkpt>
      <trkpt lat="45.10709" lon="4.70975">
        <ele>469.8</ele>
        <time>2021-03-28T11:21:27Z</time>
      </trkpt>
      <trkpt lat="45.10695" lon="4.70965">
        <ele>467.4</ele>
        <time>2021-03-28T11:21:31Z</time>
      </trkpt>
      <trkpt lat="45.10678" lon="4.70947">
        <ele>464.4</ele>
        <time>2021-03-28T11:21:35Z</time>
      </trkpt>
      <trkpt lat="45.10656" lon="4.70935">
        <ele>460</ele>
        <time>2021-03-28T11:21:39Z</time>
      </trkpt>
      <trkpt lat="45.10628" lon="4.70941">
        <ele>456.2</ele>
        <time>2021-03-28T11:21:43Z</time>
      </trkpt>
      <trkpt lat="45.10599" lon="4.70962">
        <ele>455.4</ele>
        <time>2021-03-28T11:21:47Z</time>
      </trkpt>
      <trkpt lat="45.10571" lon="4.70982">
        <ele>452.6</ele>
        <time>2021-03-28T11:21:51Z</time>
      </trkpt>
      <trkpt lat="45.10541" lon="4.71002">
        <ele>449.8</ele>
        <time>2021-03-28T11:21:55Z</time>
      </trkpt>
      <trkpt lat="45.10506" lon="4.71008">
        <ele>449.2</ele>
        <time>2021-03-28T11:21:59Z</time>
      </trkpt>
      <trkpt lat="45.10473" lon="4.7101">
        <ele>448.4</ele>
        <time>2021-03-28T11:22:03Z</time>
      </trkpt>
      <trkpt lat="45.10444" lon="4.71014">
        <ele>449.4</ele>
        <time>2021-03-28T11:22:07Z</time>
      </trkpt>
      <trkpt lat="45.10423" lon="4.71035">
        <ele>447.8</ele>
        <time>2021-03-28T11:22:11Z</time>
      </trkpt>
      <trkpt lat="45.10407" lon="4.71061">
        <ele>447.2</ele>
        <time>2021-03-28T11:22:15Z</time>
      </trkpt>
      <trkpt lat="45.10397" lon="4.71092">
        <ele>449</ele>
        <time>2021-03-28T11:22:19Z</time>
      </trkpt>
      <trkpt lat="45.10396" lon="4.71117">
        <ele>450.4</ele>
        <time>2021-03-28T11:22:23Z</time>
      </trkpt>
      <trkpt lat="45.10395" lon="4.71133">
        <ele>451</ele>
        <time>2021-03-28T11:22:27Z</time>
      </trkpt>
      <trkpt lat="45.10395" lon="4.71148">
        <ele>451.2</ele>
        <time>2021-03-28T11:22:31Z</time>
      </trkpt>
      <trkpt lat="45.10398" lon="4.71163">
        <ele>452</ele>
        <time>2021-03-28T11:22:35Z</time>
      </trkpt>
      <trkpt lat="45.10398" lon="4.71174">
        <ele>452.2</ele>
        <time>2021-03-28T11:22:39Z</time>
      </trkpt>
      <trkpt lat="45.10399" lon="4.71185">
        <ele>454</ele>
        <time>2021-03-28T11:22:43Z</time>
      </trkpt>
      <trkpt lat="45.10402" lon="4.71193">
        <ele>453.8</ele>
        <time>2021-03-28T11:22:47Z</time>
      </trkpt>
      <trkpt lat="45.10404" lon="4.712">
        <ele>454.8</ele>
        <time>2021-03-28T11:22:51Z</time>
      </trkpt>
      <trkpt lat="45.10406" lon="4.71208">
        <ele>455</ele>
        <time>2021-03-28T11:22:55Z</time>
      </trkpt>
      <trkpt lat="45.10408" lon="4.71217">
        <ele>455.6</ele>
        <time>2021-03-28T11:22:59Z</time>
      </trkpt>
      <trkpt lat="45.10411" lon="4.71225">
        <ele>455.8</ele>
        <time>2021-03-28T11:23:03Z</time>
      </trkpt>
      <trkpt lat="45.10413" lon="4.71234">
        <ele>456</ele>
        <time>2021-03-28T11:23:07Z</time>
      </trkpt>
      <trkpt lat="45.10415" lon="4.71242">
        <ele>457.2</ele>
        <time>2021-03-28T11:23:11Z</time>
      </trkpt>
      <trkpt lat="45.10417" lon="4.71251">
        <ele>458</ele>
        <time>2021-03-28T11:23:15Z</time>
      </trkpt>
      <trkpt lat="45.1042" lon="4.7126">
        <ele>458.2</ele>
        <time>2021-03-28T11:23:19Z</time>
      </trkpt>
      <trkpt lat="45.10422" lon="4.71269">
        <ele>459</ele>
        <time>2021-03-28T11:23:23Z</time>
      </trkpt>
      <trkpt lat="45.10425" lon="4.71278">
        <ele>458.8</ele>
        <time>2021-03-28T11:23:27Z</time>
      </trkpt>
      <trkpt lat="45.10427" lon="4.71286">
        <ele>459.8</ele>
        <time>2021-03-28T11:23:31Z</time>
      </trkpt>
      <trkpt lat="45.10428" lon="4.71294">
        <ele>461</ele>
        <time>2021-03-28T11:23:35Z</time>
      </trkpt>
      <trkpt lat="45.10429" lon="4.71302">
        <ele>461.8</ele>
        <time>2021-03-28T11:23:39Z</time>
      </trkpt>
      <trkpt lat="45.10431" lon="4.71311">
        <ele>462.4</ele>
        <time>2021-03-28T11:23:43Z</time>
      </trkpt>
      <trkpt lat="45.1044" lon="4.71328">
        <ele>463.4</ele>
        <time>2021-03-28T11:24:09Z</time>
      </trkpt>
      <trkpt lat="45.10445" lon="4.71335">
        <ele>464.2</ele>
        <time>2021-03-28T11:24:13Z</time>
      </trkpt>
      <trkpt lat="45.10449" lon="4.71343">
        <ele>465.2</ele>
        <time>2021-03-28T11:24:17Z</time>
      </trkpt>
      <trkpt lat="45.10452" lon="4.7135">
        <ele>466.4</ele>
        <time>2021-03-28T11:24:21Z</time>
      </trkpt>
      <trkpt lat="45.10455" lon="4.71357">
        <ele>466.2</ele>
        <time>2021-03-28T11:24:25Z</time>
      </trkpt>
      <trkpt lat="45.10457" lon="4.71365">
        <ele>467.8</ele>
        <time>2021-03-28T11:24:29Z</time>
      </trkpt>
      <trkpt lat="45.1046" lon="4.71372">
        <ele>468.4</ele>
        <time>2021-03-28T11:24:33Z</time>
      </trkpt>
      <trkpt lat="45.10463" lon="4.71379">
        <ele>468.8</ele>
        <time>2021-03-28T11:24:37Z</time>
      </trkpt>
      <trkpt lat="45.10466" lon="4.71385">
        <ele>469.8</ele>
        <time>2021-03-28T11:24:41Z</time>
      </trkpt>
      <trkpt lat="45.1047" lon="4.71391">
        <ele>470.2</ele>
        <time>2021-03-28T11:24:45Z</time>
      </trkpt>
      <trkpt lat="45.10475" lon="4.71397">
        <ele>470.8</ele>
        <time>2021-03-28T11:24:49Z</time>
      </trkpt>
      <trkpt lat="45.10479" lon="4.71404">
        <ele>472.2</ele>
        <time>2021-03-28T11:24:53Z</time>
      </trkpt>
      <trkpt lat="45.10485" lon="4.7141">
        <ele>472.6</ele>
        <time>2021-03-28T11:24:57Z</time>
      </trkpt>
      <trkpt lat="45.10491" lon="4.71418">
        <ele>472.2</ele>
        <time>2021-03-28T11:25:01Z</time>
      </trkpt>
      <trkpt lat="45.10496" lon="4.71426">
        <ele>472.8</ele>
        <time>2021-03-28T11:25:05Z</time>
      </trkpt>
      <trkpt lat="45.105" lon="4.71434">
        <ele>473.8</ele>
        <time>2021-03-28T11:25:09Z</time>
      </trkpt>
      <trkpt lat="45.10504" lon="4.71444">
        <ele>473.4</ele>
        <time>2021-03-28T11:25:13Z</time>
      </trkpt>
      <trkpt lat="45.10506" lon="4.71456">
        <ele>474.4</ele>
        <time>2021-03-28T11:25:17Z</time>
      </trkpt>
      <trkpt lat="45.10505" lon="4.71468">
        <ele>474.2</ele>
        <time>2021-03-28T11:25:21Z</time>
      </trkpt>
      <trkpt lat="45.10503" lon="4.7148">
        <ele>475.2</ele>
        <time>2021-03-28T11:25:25Z</time>
      </trkpt>
      <trkpt lat="45.10498" lon="4.71489">
        <ele>475.8</ele>
        <time>2021-03-28T11:25:29Z</time>
      </trkpt>
      <trkpt lat="45.10492" lon="4.71498">
        <ele>476.2</ele>
        <time>2021-03-28T11:25:33Z</time>
      </trkpt>
      <trkpt lat="45.10486" lon="4.71505">
        <ele>476.8</ele>
        <time>2021-03-28T11:25:37Z</time>
      </trkpt>
      <trkpt lat="45.10479" lon="4.71511">
        <ele>477</ele>
        <time>2021-03-28T11:25:41Z</time>
      </trkpt>
      <trkpt lat="45.10473" lon="4.71515">
        <ele>477.8</ele>
        <time>2021-03-28T11:25:45Z</time>
      </trkpt>
      <trkpt lat="45.10467" lon="4.7152">
        <ele>478.6</ele>
        <time>2021-03-28T11:25:49Z</time>
      </trkpt>
      <trkpt lat="45.1046" lon="4.71524">
        <ele>479.4</ele>
        <time>2021-03-28T11:25:53Z</time>
      </trkpt>
      <trkpt lat="45.10453" lon="4.71529">
        <ele>480</ele>
        <time>2021-03-28T11:25:57Z</time>
      </trkpt>
      <trkpt lat="45.10447" lon="4.71535">
        <ele>480</ele>
        <time>2021-03-28T11:26:01Z</time>
      </trkpt>
      <trkpt lat="45.1044" lon="4.71541">
        <ele>481.2</ele>
        <time>2021-03-28T11:26:05Z</time>
      </trkpt>
      <trkpt lat="45.10434" lon="4.71548">
        <ele>481.4</ele>
        <time>2021-03-28T11:26:09Z</time>
      </trkpt>
      <trkpt lat="45.10427" lon="4.71554">
        <ele>481.8</ele>
        <time>2021-03-28T11:26:13Z</time>
      </trkpt>
      <trkpt lat="45.10421" lon="4.71562">
        <ele>482.6</ele>
        <time>2021-03-28T11:26:17Z</time>
      </trkpt>
      <trkpt lat="45.10416" lon="4.7157">
        <ele>483.2</ele>
        <time>2021-03-28T11:26:21Z</time>
      </trkpt>
      <trkpt lat="45.10412" lon="4.71578">
        <ele>483.2</ele>
        <time>2021-03-28T11:26:25Z</time>
      </trkpt>
      <trkpt lat="45.10409" lon="4.71587">
        <ele>483.8</ele>
        <time>2021-03-28T11:26:29Z</time>
      </trkpt>
      <trkpt lat="45.10405" lon="4.71596">
        <ele>484.6</ele>
        <time>2021-03-28T11:26:33Z</time>
      </trkpt>
      <trkpt lat="45.10402" lon="4.71605">
        <ele>485</ele>
        <time>2021-03-28T11:26:37Z</time>
      </trkpt>
      <trkpt lat="45.10399" lon="4.71614">
        <ele>485.4</ele>
        <time>2021-03-28T11:26:41Z</time>
      </trkpt>
      <trkpt lat="45.10396" lon="4.71624">
        <ele>485.6</ele>
        <time>2021-03-28T11:26:45Z</time>
      </trkpt>
      <trkpt lat="45.10396" lon="4.71624">
        <ele>485.6</ele>
        <time>2021-03-28T11:26:49Z</time>
      </trkpt>
      <trkpt lat="45.10389" lon="4.71643">
        <ele>485</ele>
        <time>2021-03-28T11:28:18Z</time>
      </trkpt>
      <trkpt lat="45.10381" lon="4.71659">
        <ele>485</ele>
        <time>2021-03-28T11:28:22Z</time>
      </trkpt>
      <trkpt lat="45.10368" lon="4.71676">
        <ele>482.4</ele>
        <time>2021-03-28T11:28:26Z</time>
      </trkpt>
      <trkpt lat="45.10351" lon="4.71696">
        <ele>479.6</ele>
        <time>2021-03-28T11:28:30Z</time>
      </trkpt>
      <trkpt lat="45.10329" lon="4.71734">
        <ele>475.4</ele>
        <time>2021-03-28T11:28:34Z</time>
      </trkpt>
      <trkpt lat="45.10308" lon="4.71781">
        <ele>468.4</ele>
        <time>2021-03-28T11:28:38Z</time>
      </trkpt>
      <trkpt lat="45.10297" lon="4.71828">
        <ele>467.6</ele>
        <time>2021-03-28T11:28:42Z</time>
      </trkpt>
      <trkpt lat="45.10289" lon="4.71865">
        <ele>470.2</ele>
        <time>2021-03-28T11:28:46Z</time>
      </trkpt>
      <trkpt lat="45.1028" lon="4.719">
        <ele>470.6</ele>
        <time>2021-03-28T11:28:50Z</time>
      </trkpt>
      <trkpt lat="45.10271" lon="4.71932">
        <ele>469.2</ele>
        <time>2021-03-28T11:28:54Z</time>
      </trkpt>
      <trkpt lat="45.10262" lon="4.71958">
        <ele>470.2</ele>
        <time>2021-03-28T11:28:58Z</time>
      </trkpt>
      <trkpt lat="45.10255" lon="4.71977">
        <ele>471.2</ele>
        <time>2021-03-28T11:29:02Z</time>
      </trkpt>
      <trkpt lat="45.10249" lon="4.71995">
        <ele>471.6</ele>
        <time>2021-03-28T11:29:06Z</time>
      </trkpt>
      <trkpt lat="45.10243" lon="4.72014">
        <ele>471.4</ele>
        <time>2021-03-28T11:29:10Z</time>
      </trkpt>
      <trkpt lat="45.10237" lon="4.72037">
        <ele>470.8</ele>
        <time>2021-03-28T11:29:14Z</time>
      </trkpt>
      <trkpt lat="45.10232" lon="4.72063">
        <ele>470</ele>
        <time>2021-03-28T11:29:18Z</time>
      </trkpt>
      <trkpt lat="45.10227" lon="4.72091">
        <ele>467.8</ele>
        <time>2021-03-28T11:29:22Z</time>
      </trkpt>
      <trkpt lat="45.10218" lon="4.72119">
        <ele>466.4</ele>
        <time>2021-03-28T11:29:26Z</time>
      </trkpt>
      <trkpt lat="45.1021" lon="4.72145">
        <ele>466</ele>
        <time>2021-03-28T11:29:30Z</time>
      </trkpt>
      <trkpt lat="45.10203" lon="4.72168">
        <ele>465</ele>
        <time>2021-03-28T11:29:34Z</time>
      </trkpt>
      <trkpt lat="45.10189" lon="4.72193">
        <ele>462.4</ele>
        <time>2021-03-28T11:29:38Z</time>
      </trkpt>
      <trkpt lat="45.10173" lon="4.72222">
        <ele>460</ele>
        <time>2021-03-28T11:29:42Z</time>
      </trkpt>
      <trkpt lat="45.1016" lon="4.72254">
        <ele>459.4</ele>
        <time>2021-03-28T11:29:46Z</time>
      </trkpt>
      <trkpt lat="45.10151" lon="4.72278">
        <ele>459.2</ele>
        <time>2021-03-28T11:29:50Z</time>
      </trkpt>
      <trkpt lat="45.10137" lon="4.72291">
        <ele>460.4</ele>
        <time>2021-03-28T11:29:54Z</time>
      </trkpt>
      <trkpt lat="45.10122" lon="4.72301">
        <ele>459.8</ele>
        <time>2021-03-28T11:29:58Z</time>
      </trkpt>
      <trkpt lat="45.10109" lon="4.72311">
        <ele>460.4</ele>
        <time>2021-03-28T11:30:02Z</time>
      </trkpt>
      <trkpt lat="45.10097" lon="4.72324">
        <ele>459.6</ele>
        <time>2021-03-28T11:30:06Z</time>
      </trkpt>
      <trkpt lat="45.10084" lon="4.72337">
        <ele>460.2</ele>
        <time>2021-03-28T11:30:10Z</time>
      </trkpt>
      <trkpt lat="45.10074" lon="4.7235">
        <ele>460.2</ele>
        <time>2021-03-28T11:30:14Z</time>
      </trkpt>
      <trkpt lat="45.1007" lon="4.7236">
        <ele>460.2</ele>
        <time>2021-03-28T11:30:18Z</time>
      </trkpt>
      <trkpt lat="45.10074" lon="4.72376">
        <ele>459.4</ele>
        <time>2021-03-28T11:30:22Z</time>
      </trkpt>
      <trkpt lat="45.10078" lon="4.72392">
        <ele>458.6</ele>
        <time>2021-03-28T11:30:26Z</time>
      </trkpt>
      <trkpt lat="45.10081" lon="4.72403">
        <ele>458.2</ele>
        <time>2021-03-28T11:30:30Z</time>
      </trkpt>
      <trkpt lat="45.10085" lon="4.72421">
        <ele>458.2</ele>
        <time>2021-03-28T11:30:34Z</time>
      </trkpt>
      <trkpt lat="45.10091" lon="4.72444">
        <ele>455.4</ele>
        <time>2021-03-28T11:30:38Z</time>
      </trkpt>
      <trkpt lat="45.10098" lon="4.72472">
        <ele>454.2</ele>
        <time>2021-03-28T11:30:42Z</time>
      </trkpt>
      <trkpt lat="45.10105" lon="4.72503">
        <ele>453.6</ele>
        <time>2021-03-28T11:30:46Z</time>
      </trkpt>
      <trkpt lat="45.10108" lon="4.72518">
        <ele>453.8</ele>
        <time>2021-03-28T11:30:50Z</time>
      </trkpt>
      <trkpt lat="45.10116" lon="4.72531">
        <ele>453.6</ele>
        <time>2021-03-28T11:30:54Z</time>
      </trkpt>
      <trkpt lat="45.10123" lon="4.72548">
        <ele>452.8</ele>
        <time>2021-03-28T11:30:58Z</time>
      </trkpt>
      <trkpt lat="45.10126" lon="4.72568">
        <ele>452.6</ele>
        <time>2021-03-28T11:31:02Z</time>
      </trkpt>
      <trkpt lat="45.10126" lon="4.72589">
        <ele>451.4</ele>
        <time>2021-03-28T11:31:06Z</time>
      </trkpt>
      <trkpt lat="45.10129" lon="4.72613">
        <ele>450.2</ele>
        <time>2021-03-28T11:31:10Z</time>
      </trkpt>
      <trkpt lat="45.10137" lon="4.72638">
        <ele>450</ele>
        <time>2021-03-28T11:31:14Z</time>
      </trkpt>
      <trkpt lat="45.1015" lon="4.72661">
        <ele>448.6</ele>
        <time>2021-03-28T11:31:18Z</time>
      </trkpt>
      <trkpt lat="45.10162" lon="4.72685">
        <ele>446.4</ele>
        <time>2021-03-28T11:31:22Z</time>
      </trkpt>
      <trkpt lat="45.10171" lon="4.72705">
        <ele>446.4</ele>
        <time>2021-03-28T11:31:26Z</time>
      </trkpt>
      <trkpt lat="45.10182" lon="4.72722">
        <ele>445.6</ele>
        <time>2021-03-28T11:31:30Z</time>
      </trkpt>
      <trkpt lat="45.10196" lon="4.72741">
        <ele>444.2</ele>
        <time>2021-03-28T11:31:34Z</time>
      </trkpt>
      <trkpt lat="45.10213" lon="4.72762">
        <ele>441</ele>
        <time>2021-03-28T11:31:38Z</time>
      </trkpt>
      <trkpt lat="45.10231" lon="4.72788">
        <ele>438.8</ele>
        <time>2021-03-28T11:31:42Z</time>
      </trkpt>
      <trkpt lat="45.10252" lon="4.72816">
        <ele>436.4</ele>
        <time>2021-03-28T11:31:46Z</time>
      </trkpt>
      <trkpt lat="45.10272" lon="4.72843">
        <ele>434</ele>
        <time>2021-03-28T11:31:50Z</time>
      </trkpt>
      <trkpt lat="45.10293" lon="4.72867">
        <ele>431.4</ele>
        <time>2021-03-28T11:31:54Z</time>
      </trkpt>
      <trkpt lat="45.10315" lon="4.72899">
        <ele>429.4</ele>
        <time>2021-03-28T11:31:58Z</time>
      </trkpt>
      <trkpt lat="45.10334" lon="4.72938">
        <ele>425.2</ele>
        <time>2021-03-28T11:32:02Z</time>
      </trkpt>
      <trkpt lat="45.10351" lon="4.72981">
        <ele>423.2</ele>
        <time>2021-03-28T11:32:06Z</time>
      </trkpt>
      <trkpt lat="45.10366" lon="4.73024">
        <ele>421.8</ele>
        <time>2021-03-28T11:32:10Z</time>
      </trkpt>
      <trkpt lat="45.10381" lon="4.73064">
        <ele>421</ele>
        <time>2021-03-28T11:32:14Z</time>
      </trkpt>
      <trkpt lat="45.10395" lon="4.731">
        <ele>421.2</ele>
        <time>2021-03-28T11:32:18Z</time>
      </trkpt>
      <trkpt lat="45.10404" lon="4.73129">
        <ele>421.6</ele>
        <time>2021-03-28T11:32:22Z</time>
      </trkpt>
      <trkpt lat="45.10407" lon="4.73146">
        <ele>422.8</ele>
        <time>2021-03-28T11:32:26Z</time>
      </trkpt>
      <trkpt lat="45.10416" lon="4.73165">
        <ele>421.8</ele>
        <time>2021-03-28T11:32:57Z</time>
      </trkpt>
      <trkpt lat="45.1042" lon="4.7319">
        <ele>420.4</ele>
        <time>2021-03-28T11:33:01Z</time>
      </trkpt>
      <trkpt lat="45.10421" lon="4.73223">
        <ele>417.6</ele>
        <time>2021-03-28T11:33:05Z</time>
      </trkpt>
      <trkpt lat="45.10421" lon="4.73262">
        <ele>415.4</ele>
        <time>2021-03-28T11:33:09Z</time>
      </trkpt>
      <trkpt lat="45.10423" lon="4.73304">
        <ele>412.8</ele>
        <time>2021-03-28T11:33:13Z</time>
      </trkpt>
      <trkpt lat="45.10422" lon="4.73349">
        <ele>410</ele>
        <time>2021-03-28T11:33:17Z</time>
      </trkpt>
      <trkpt lat="45.10425" lon="4.73394">
        <ele>408</ele>
        <time>2021-03-28T11:33:21Z</time>
      </trkpt>
      <trkpt lat="45.10442" lon="4.73437">
        <ele>405.6</ele>
        <time>2021-03-28T11:33:25Z</time>
      </trkpt>
      <trkpt lat="45.10461" lon="4.73482">
        <ele>402.2</ele>
        <time>2021-03-28T11:33:29Z</time>
      </trkpt>
      <trkpt lat="45.10474" lon="4.73531">
        <ele>400.2</ele>
        <time>2021-03-28T11:33:33Z</time>
      </trkpt>
      <trkpt lat="45.10493" lon="4.73562">
        <ele>402.2</ele>
        <time>2021-03-28T11:33:37Z</time>
      </trkpt>
      <trkpt lat="45.10509" lon="4.73568">
        <ele>406.2</ele>
        <time>2021-03-28T11:33:41Z</time>
      </trkpt>
      <trkpt lat="45.10522" lon="4.73572">
        <ele>409</ele>
        <time>2021-03-28T11:33:45Z</time>
      </trkpt>
      <trkpt lat="45.1053" lon="4.73574">
        <ele>410.2</ele>
        <time>2021-03-28T11:33:49Z</time>
      </trkpt>
      <trkpt lat="45.10539" lon="4.73578">
        <ele>411.2</ele>
        <time>2021-03-28T11:33:53Z</time>
      </trkpt>
      <trkpt lat="45.10546" lon="4.73582">
        <ele>411.6</ele>
        <time>2021-03-28T11:33:57Z</time>
      </trkpt>
      <trkpt lat="45.10553" lon="4.73587">
        <ele>412.2</ele>
        <time>2021-03-28T11:34:01Z</time>
      </trkpt>
      <trkpt lat="45.1056" lon="4.73593">
        <ele>412.8</ele>
        <time>2021-03-28T11:34:05Z</time>
      </trkpt>
      <trkpt lat="45.10567" lon="4.73598">
        <ele>414</ele>
        <time>2021-03-28T11:34:09Z</time>
      </trkpt>
      <trkpt lat="45.10574" lon="4.73603">
        <ele>414.4</ele>
        <time>2021-03-28T11:34:13Z</time>
      </trkpt>
      <trkpt lat="45.1058" lon="4.73608">
        <ele>415</ele>
        <time>2021-03-28T11:34:17Z</time>
      </trkpt>
      <trkpt lat="45.10588" lon="4.73611">
        <ele>415.8</ele>
        <time>2021-03-28T11:34:21Z</time>
      </trkpt>
      <trkpt lat="45.10595" lon="4.73615">
        <ele>416.4</ele>
        <time>2021-03-28T11:34:25Z</time>
      </trkpt>
      <trkpt lat="45.10602" lon="4.73616">
        <ele>417.2</ele>
        <time>2021-03-28T11:34:29Z</time>
      </trkpt>
      <trkpt lat="45.1061" lon="4.73617">
        <ele>417.6</ele>
        <time>2021-03-28T11:34:33Z</time>
      </trkpt>
      <trkpt lat="45.10618" lon="4.73618">
        <ele>417.8</ele>
        <time>2021-03-28T11:34:37Z</time>
      </trkpt>
      <trkpt lat="45.10625" lon="4.73621">
        <ele>418.6</ele>
        <time>2021-03-28T11:34:41Z</time>
      </trkpt>
      <trkpt lat="45.10632" lon="4.73623">
        <ele>419.6</ele>
        <time>2021-03-28T11:34:45Z</time>
      </trkpt>
      <trkpt lat="45.10639" lon="4.73626">
        <ele>419.8</ele>
        <time>2021-03-28T11:34:49Z</time>
      </trkpt>
      <trkpt lat="45.10646" lon="4.73629">
        <ele>420.2</ele>
        <time>2021-03-28T11:34:53Z</time>
      </trkpt>
      <trkpt lat="45.10653" lon="4.73634">
        <ele>420.6</ele>
        <time>2021-03-28T11:34:57Z</time>
      </trkpt>
      <trkpt lat="45.10659" lon="4.73639">
        <ele>421.2</ele>
        <time>2021-03-28T11:35:01Z</time>
      </trkpt>
      <trkpt lat="45.10664" lon="4.73645">
        <ele>422.4</ele>
        <time>2021-03-28T11:35:05Z</time>
      </trkpt>
      <trkpt lat="45.1067" lon="4.7365">
        <ele>423.2</ele>
        <time>2021-03-28T11:35:09Z</time>
      </trkpt>
      <trkpt lat="45.10676" lon="4.73655">
        <ele>423.8</ele>
        <time>2021-03-28T11:35:13Z</time>
      </trkpt>
      <trkpt lat="45.10682" lon="4.73661">
        <ele>424.4</ele>
        <time>2021-03-28T11:35:17Z</time>
      </trkpt>
      <trkpt lat="45.10688" lon="4.73667">
        <ele>425</ele>
        <time>2021-03-28T11:35:21Z</time>
      </trkpt>
      <trkpt lat="45.10694" lon="4.73673">
        <ele>425.8</ele>
        <time>2021-03-28T11:35:25Z</time>
      </trkpt>
      <trkpt lat="45.10701" lon="4.7368">
        <ele>426.6</ele>
        <time>2021-03-28T11:35:29Z</time>
      </trkpt>
      <trkpt lat="45.10707" lon="4.73686">
        <ele>426.2</ele>
        <time>2021-03-28T11:35:33Z</time>
      </trkpt>
      <trkpt lat="45.10713" lon="4.73693">
        <ele>427.4</ele>
        <time>2021-03-28T11:35:37Z</time>
      </trkpt>
      <trkpt lat="45.10719" lon="4.737">
        <ele>428</ele>
        <time>2021-03-28T11:35:41Z</time>
      </trkpt>
      <trkpt lat="45.10726" lon="4.73707">
        <ele>428.2</ele>
        <time>2021-03-28T11:35:45Z</time>
      </trkpt>
      <trkpt lat="45.10732" lon="4.73715">
        <ele>428.8</ele>
        <time>2021-03-28T11:35:49Z</time>
      </trkpt>
      <trkpt lat="45.10739" lon="4.73722">
        <ele>429.6</ele>
        <time>2021-03-28T11:35:53Z</time>
      </trkpt>
      <trkpt lat="45.10746" lon="4.7373">
        <ele>430</ele>
        <time>2021-03-28T11:35:57Z</time>
      </trkpt>
      <trkpt lat="45.10752" lon="4.73738">
        <ele>430.2</ele>
        <time>2021-03-28T11:36:01Z</time>
      </trkpt>
      <trkpt lat="45.10759" lon="4.73745">
        <ele>431.6</ele>
        <time>2021-03-28T11:36:05Z</time>
      </trkpt>
      <trkpt lat="45.10766" lon="4.73753">
        <ele>431.8</ele>
        <time>2021-03-28T11:36:09Z</time>
      </trkpt>
      <trkpt lat="45.10772" lon="4.7376">
        <ele>432</ele>
        <time>2021-03-28T11:36:13Z</time>
      </trkpt>
      <trkpt lat="45.10778" lon="4.73768">
        <ele>432.8</ele>
        <time>2021-03-28T11:36:17Z</time>
      </trkpt>
      <trkpt lat="45.10784" lon="4.73775">
        <ele>433.4</ele>
        <time>2021-03-28T11:36:21Z</time>
      </trkpt>
      <trkpt lat="45.10791" lon="4.73782">
        <ele>433.4</ele>
        <time>2021-03-28T11:36:25Z</time>
      </trkpt>
      <trkpt lat="45.10797" lon="4.7379">
        <ele>434.8</ele>
        <time>2021-03-28T11:36:29Z</time>
      </trkpt>
      <trkpt lat="45.10803" lon="4.73798">
        <ele>435</ele>
        <time>2021-03-28T11:36:33Z</time>
      </trkpt>
      <trkpt lat="45.10809" lon="4.73806">
        <ele>435.4</ele>
        <time>2021-03-28T11:36:37Z</time>
      </trkpt>
      <trkpt lat="45.10815" lon="4.73814">
        <ele>436.2</ele>
        <time>2021-03-28T11:36:41Z</time>
      </trkpt>
      <trkpt lat="45.10821" lon="4.73822">
        <ele>437</ele>
        <time>2021-03-28T11:36:45Z</time>
      </trkpt>
      <trkpt lat="45.10826" lon="4.7383">
        <ele>437.4</ele>
        <time>2021-03-28T11:36:49Z</time>
      </trkpt>
      <trkpt lat="45.10831" lon="4.7384">
        <ele>438.4</ele>
        <time>2021-03-28T11:36:53Z</time>
      </trkpt>
      <trkpt lat="45.10835" lon="4.7385">
        <ele>438.4</ele>
        <time>2021-03-28T11:36:57Z</time>
      </trkpt>
      <trkpt lat="45.1084" lon="4.7386">
        <ele>439.2</ele>
        <time>2021-03-28T11:37:01Z</time>
      </trkpt>
      <trkpt lat="45.10845" lon="4.73871">
        <ele>438.8</ele>
        <time>2021-03-28T11:37:05Z</time>
      </trkpt>
      <trkpt lat="45.1085" lon="4.73882">
        <ele>439</ele>
        <time>2021-03-28T11:37:09Z</time>
      </trkpt>
      <trkpt lat="45.10855" lon="4.73895">
        <ele>438</ele>
        <time>2021-03-28T11:37:13Z</time>
      </trkpt>
      <trkpt lat="45.10862" lon="4.73906">
        <ele>438.8</ele>
        <time>2021-03-28T11:37:17Z</time>
      </trkpt>
      <trkpt lat="45.10868" lon="4.73914">
        <ele>439</ele>
        <time>2021-03-28T11:37:21Z</time>
      </trkpt>
      <trkpt lat="45.10863" lon="4.73919">
        <ele>439</ele>
        <time>2021-03-28T11:37:25Z</time>
      </trkpt>
      <trkpt lat="45.10864" lon="4.73908">
        <ele>439</ele>
        <time>2021-03-28T11:37:29Z</time>
      </trkpt>
      <trkpt lat="45.10869" lon="4.73896">
        <ele>439.8</ele>
        <time>2021-03-28T11:37:33Z</time>
      </trkpt>
      <trkpt lat="45.10875" lon="4.73878">
        <ele>438.2</ele>
        <time>2021-03-28T11:37:37Z</time>
      </trkpt>
      <trkpt lat="45.10882" lon="4.73856">
        <ele>437.2</ele>
        <time>2021-03-28T11:37:41Z</time>
      </trkpt>
      <trkpt lat="45.10891" lon="4.73834">
        <ele>437.6</ele>
        <time>2021-03-28T11:37:45Z</time>
      </trkpt>
      <trkpt lat="45.10901" lon="4.73823">
        <ele>436.8</ele>
        <time>2021-03-28T11:37:49Z</time>
      </trkpt>
      <trkpt lat="45.10912" lon="4.73827">
        <ele>437.4</ele>
        <time>2021-03-28T11:37:53Z</time>
      </trkpt>
      <trkpt lat="45.10925" lon="4.73829">
        <ele>438.4</ele>
        <time>2021-03-28T11:37:57Z</time>
      </trkpt>
      <trkpt lat="45.10936" lon="4.73831">
        <ele>438.4</ele>
        <time>2021-03-28T11:38:01Z</time>
      </trkpt>
      <trkpt lat="45.10947" lon="4.73836">
        <ele>438.6</ele>
        <time>2021-03-28T11:38:05Z</time>
      </trkpt>
      <trkpt lat="45.10956" lon="4.73843">
        <ele>439</ele>
        <time>2021-03-28T11:38:09Z</time>
      </trkpt>
      <trkpt lat="45.10965" lon="4.73852">
        <ele>438.6</ele>
        <time>2021-03-28T11:38:13Z</time>
      </trkpt>
      <trkpt lat="45.10973" lon="4.73862">
        <ele>437.2</ele>
        <time>2021-03-28T11:38:17Z</time>
      </trkpt>
      <trkpt lat="45.10978" lon="4.73869">
        <ele>437.8</ele>
        <time>2021-03-28T11:38:21Z</time>
      </trkpt>
      <trkpt lat="45.10979" lon="4.73874">
        <ele>437.8</ele>
        <time>2021-03-28T11:38:25Z</time>
      </trkpt>
      <trkpt lat="45.10979" lon="4.73874">
        <ele>439</ele>
        <time>2021-03-28T11:38:29Z</time>
      </trkpt>
      <trkpt lat="45.10972" lon="4.73862">
        <ele>439</ele>
        <time>2021-03-28T11:38:43Z</time>
      </trkpt>
      <trkpt lat="45.10965" lon="4.73851">
        <ele>439</ele>
        <time>2021-03-28T11:38:47Z</time>
      </trkpt>
      <trkpt lat="45.10957" lon="4.73841">
        <ele>439.4</ele>
        <time>2021-03-28T11:38:51Z</time>
      </trkpt>
      <trkpt lat="45.10957" lon="4.73829">
        <ele>438.8</ele>
        <time>2021-03-28T11:38:55Z</time>
      </trkpt>
      <trkpt lat="45.1097" lon="4.73822">
        <ele>437</ele>
        <time>2021-03-28T11:38:59Z</time>
      </trkpt>
      <trkpt lat="45.1099" lon="4.7382">
        <ele>435</ele>
        <time>2021-03-28T11:39:03Z</time>
      </trkpt>
      <trkpt lat="45.11013" lon="4.73823">
        <ele>432.2</ele>
        <time>2021-03-28T11:39:07Z</time>
      </trkpt>
      <trkpt lat="45.11037" lon="4.73832">
        <ele>429.4</ele>
        <time>2021-03-28T11:39:11Z</time>
      </trkpt>
      <trkpt lat="45.11056" lon="4.73845">
        <ele>429.6</ele>
        <time>2021-03-28T11:39:15Z</time>
      </trkpt>
      <trkpt lat="45.11078" lon="4.7386">
        <ele>423.2</ele>
        <time>2021-03-28T11:39:19Z</time>
      </trkpt>
      <trkpt lat="45.11102" lon="4.73879">
        <ele>419.6</ele>
        <time>2021-03-28T11:39:23Z</time>
      </trkpt>
      <trkpt lat="45.11131" lon="4.73899">
        <ele>416.2</ele>
        <time>2021-03-28T11:39:27Z</time>
      </trkpt>
      <trkpt lat="45.11165" lon="4.73914">
        <ele>415.8</ele>
        <time>2021-03-28T11:39:31Z</time>
      </trkpt>
      <trkpt lat="45.11199" lon="4.73929">
        <ele>413.6</ele>
        <time>2021-03-28T11:39:35Z</time>
      </trkpt>
      <trkpt lat="45.11226" lon="4.73956">
        <ele>413</ele>
        <time>2021-03-28T11:39:39Z</time>
      </trkpt>
      <trkpt lat="45.11245" lon="4.7399">
        <ele>411</ele>
        <time>2021-03-28T11:39:43Z</time>
      </trkpt>
      <trkpt lat="45.11263" lon="4.74018">
        <ele>413.2</ele>
        <time>2021-03-28T11:39:47Z</time>
      </trkpt>
      <trkpt lat="45.11281" lon="4.74041">
        <ele>414.2</ele>
        <time>2021-03-28T11:39:51Z</time>
      </trkpt>
      <trkpt lat="45.11297" lon="4.74056">
        <ele>414.2</ele>
        <time>2021-03-28T11:39:55Z</time>
      </trkpt>
      <trkpt lat="45.11306" lon="4.74065">
        <ele>416.2</ele>
        <time>2021-03-28T11:39:59Z</time>
      </trkpt>
      <trkpt lat="45.11312" lon="4.74072">
        <ele>417.4</ele>
        <time>2021-03-28T11:40:03Z</time>
      </trkpt>
      <trkpt lat="45.11318" lon="4.74078">
        <ele>418.4</ele>
        <time>2021-03-28T11:40:07Z</time>
      </trkpt>
      <trkpt lat="45.11324" lon="4.74083">
        <ele>418.6</ele>
        <time>2021-03-28T11:40:11Z</time>
      </trkpt>
      <trkpt lat="45.1133" lon="4.74087">
        <ele>419.6</ele>
        <time>2021-03-28T11:40:15Z</time>
      </trkpt>
      <trkpt lat="45.11336" lon="4.74091">
        <ele>420.6</ele>
        <time>2021-03-28T11:40:19Z</time>
      </trkpt>
      <trkpt lat="45.11342" lon="4.74095">
        <ele>421.4</ele>
        <time>2021-03-28T11:40:23Z</time>
      </trkpt>
      <trkpt lat="45.11347" lon="4.74098">
        <ele>422</ele>
        <time>2021-03-28T11:40:27Z</time>
      </trkpt>
      <trkpt lat="45.11353" lon="4.74101">
        <ele>422.4</ele>
        <time>2021-03-28T11:40:31Z</time>
      </trkpt>
      <trkpt lat="45.11359" lon="4.74105">
        <ele>423.4</ele>
        <time>2021-03-28T11:40:35Z</time>
      </trkpt>
      <trkpt lat="45.11366" lon="4.74108">
        <ele>424.2</ele>
        <time>2021-03-28T11:40:39Z</time>
      </trkpt>
      <trkpt lat="45.11371" lon="4.74112">
        <ele>425</ele>
        <time>2021-03-28T11:40:43Z</time>
      </trkpt>
      <trkpt lat="45.11377" lon="4.74115">
        <ele>425.4</ele>
        <time>2021-03-28T11:40:47Z</time>
      </trkpt>
      <trkpt lat="45.11383" lon="4.74118">
        <ele>426.4</ele>
        <time>2021-03-28T11:40:51Z</time>
      </trkpt>
      <trkpt lat="45.11388" lon="4.7412">
        <ele>427</ele>
        <time>2021-03-28T11:40:55Z</time>
      </trkpt>
      <trkpt lat="45.11395" lon="4.74123">
        <ele>427</ele>
        <time>2021-03-28T11:40:59Z</time>
      </trkpt>
      <trkpt lat="45.11402" lon="4.74125">
        <ele>427.4</ele>
        <time>2021-03-28T11:41:03Z</time>
      </trkpt>
      <trkpt lat="45.1141" lon="4.74127">
        <ele>428.2</ele>
        <time>2021-03-28T11:41:07Z</time>
      </trkpt>
      <trkpt lat="45.11417" lon="4.7413">
        <ele>427.8</ele>
        <time>2021-03-28T11:41:11Z</time>
      </trkpt>
      <trkpt lat="45.11426" lon="4.74134">
        <ele>428</ele>
        <time>2021-03-28T11:41:15Z</time>
      </trkpt>
      <trkpt lat="45.11437" lon="4.74139">
        <ele>427.4</ele>
        <time>2021-03-28T11:41:19Z</time>
      </trkpt>
      <trkpt lat="45.11449" lon="4.74144">
        <ele>428</ele>
        <time>2021-03-28T11:41:23Z</time>
      </trkpt>
      <trkpt lat="45.11462" lon="4.74143">
        <ele>427.6</ele>
        <time>2021-03-28T11:41:27Z</time>
      </trkpt>
      <trkpt lat="45.11475" lon="4.7414">
        <ele>428.4</ele>
        <time>2021-03-28T11:41:31Z</time>
      </trkpt>
      <trkpt lat="45.11487" lon="4.74136">
        <ele>428.8</ele>
        <time>2021-03-28T11:41:35Z</time>
      </trkpt>
      <trkpt lat="45.11499" lon="4.74128">
        <ele>429.4</ele>
        <time>2021-03-28T11:41:39Z</time>
      </trkpt>
      <trkpt lat="45.11509" lon="4.74117">
        <ele>429.6</ele>
        <time>2021-03-28T11:41:43Z</time>
      </trkpt>
      <trkpt lat="45.1152" lon="4.74107">
        <ele>429.8</ele>
        <time>2021-03-28T11:41:47Z</time>
      </trkpt>
      <trkpt lat="45.1153" lon="4.74096">
        <ele>429.6</ele>
        <time>2021-03-28T11:41:51Z</time>
      </trkpt>
      <trkpt lat="45.11541" lon="4.74087">
        <ele>430.6</ele>
        <time>2021-03-28T11:41:55Z</time>
      </trkpt>
      <trkpt lat="45.11553" lon="4.74081">
        <ele>430.2</ele>
        <time>2021-03-28T11:41:59Z</time>
      </trkpt>
      <trkpt lat="45.11568" lon="4.74078">
        <ele>429.6</ele>
        <time>2021-03-28T11:42:03Z</time>
      </trkpt>
      <trkpt lat="45.11586" lon="4.74078">
        <ele>428.4</ele>
        <time>2021-03-28T11:42:07Z</time>
      </trkpt>
      <trkpt lat="45.11605" lon="4.74082">
        <ele>428.2</ele>
        <time>2021-03-28T11:42:11Z</time>
      </trkpt>
      <trkpt lat="45.11624" lon="4.74083">
        <ele>428</ele>
        <time>2021-03-28T11:42:15Z</time>
      </trkpt>
      <trkpt lat="45.11643" lon="4.7408">
        <ele>428</ele>
        <time>2021-03-28T11:42:19Z</time>
      </trkpt>
      <trkpt lat="45.11661" lon="4.74079">
        <ele>428</ele>
        <time>2021-03-28T11:42:23Z</time>
      </trkpt>
      <trkpt lat="45.11678" lon="4.74083">
        <ele>428.4</ele>
        <time>2021-03-28T11:42:27Z</time>
      </trkpt>
      <trkpt lat="45.11692" lon="4.74091">
        <ele>428.4</ele>
        <time>2021-03-28T11:42:31Z</time>
      </trkpt>
      <trkpt lat="45.11705" lon="4.74104">
        <ele>427.6</ele>
        <time>2021-03-28T11:42:35Z</time>
      </trkpt>
      <trkpt lat="45.11718" lon="4.74117">
        <ele>428</ele>
        <time>2021-03-28T11:42:39Z</time>
      </trkpt>
      <trkpt lat="45.11731" lon="4.74128">
        <ele>429</ele>
        <time>2021-03-28T11:42:43Z</time>
      </trkpt>
      <trkpt lat="45.11744" lon="4.74133">
        <ele>430</ele>
        <time>2021-03-28T11:42:47Z</time>
      </trkpt>
      <trkpt lat="45.11755" lon="4.74133">
        <ele>430.4</ele>
        <time>2021-03-28T11:42:51Z</time>
      </trkpt>
      <trkpt lat="45.11766" lon="4.74132">
        <ele>431.6</ele>
        <time>2021-03-28T11:42:55Z</time>
      </trkpt>
      <trkpt lat="45.11775" lon="4.74129">
        <ele>432.8</ele>
        <time>2021-03-28T11:42:59Z</time>
      </trkpt>
      <trkpt lat="45.11785" lon="4.74127">
        <ele>432.8</ele>
        <time>2021-03-28T11:43:03Z</time>
      </trkpt>
      <trkpt lat="45.11794" lon="4.74124">
        <ele>434</ele>
        <time>2021-03-28T11:43:07Z</time>
      </trkpt>
      <trkpt lat="45.11804" lon="4.74121">
        <ele>434.6</ele>
        <time>2021-03-28T11:43:11Z</time>
      </trkpt>
      <trkpt lat="45.11812" lon="4.74116">
        <ele>435</ele>
        <time>2021-03-28T11:43:15Z</time>
      </trkpt>
      <trkpt lat="45.1182" lon="4.74111">
        <ele>436.2</ele>
        <time>2021-03-28T11:43:19Z</time>
      </trkpt>
      <trkpt lat="45.11828" lon="4.74104">
        <ele>437.2</ele>
        <time>2021-03-28T11:43:23Z</time>
      </trkpt>
      <trkpt lat="45.11835" lon="4.74096">
        <ele>437.6</ele>
        <time>2021-03-28T11:43:27Z</time>
      </trkpt>
      <trkpt lat="45.11843" lon="4.74086">
        <ele>437.4</ele>
        <time>2021-03-28T11:43:31Z</time>
      </trkpt>
      <trkpt lat="45.11851" lon="4.74077">
        <ele>437.4</ele>
        <time>2021-03-28T11:43:35Z</time>
      </trkpt>
      <trkpt lat="45.1186" lon="4.7407">
        <ele>438.4</ele>
        <time>2021-03-28T11:43:39Z</time>
      </trkpt>
      <trkpt lat="45.1187" lon="4.74063">
        <ele>438.4</ele>
        <time>2021-03-28T11:43:43Z</time>
      </trkpt>
      <trkpt lat="45.11879" lon="4.74056">
        <ele>438.6</ele>
        <time>2021-03-28T11:43:47Z</time>
      </trkpt>
      <trkpt lat="45.11888" lon="4.74048">
        <ele>439.2</ele>
        <time>2021-03-28T11:43:51Z</time>
      </trkpt>
      <trkpt lat="45.11895" lon="4.7404">
        <ele>440.2</ele>
        <time>2021-03-28T11:43:55Z</time>
      </trkpt>
      <trkpt lat="45.119" lon="4.7403">
        <ele>441</ele>
        <time>2021-03-28T11:43:59Z</time>
      </trkpt>
      <trkpt lat="45.11905" lon="4.74019">
        <ele>441.4</ele>
        <time>2021-03-28T11:44:03Z</time>
      </trkpt>
      <trkpt lat="45.11909" lon="4.74007">
        <ele>442</ele>
        <time>2021-03-28T11:44:07Z</time>
      </trkpt>
      <trkpt lat="45.11914" lon="4.73995">
        <ele>442.6</ele>
        <time>2021-03-28T11:44:11Z</time>
      </trkpt>
      <trkpt lat="45.11919" lon="4.73981">
        <ele>442.6</ele>
        <time>2021-03-28T11:44:15Z</time>
      </trkpt>
      <trkpt lat="45.11923" lon="4.73968">
        <ele>443.2</ele>
        <time>2021-03-28T11:44:19Z</time>
      </trkpt>
      <trkpt lat="45.11927" lon="4.73955">
        <ele>443.2</ele>
        <time>2021-03-28T11:44:23Z</time>
      </trkpt>
      <trkpt lat="45.11931" lon="4.73942">
        <ele>443.2</ele>
        <time>2021-03-28T11:44:27Z</time>
      </trkpt>
      <trkpt lat="45.11935" lon="4.73929">
        <ele>444</ele>
        <time>2021-03-28T11:44:31Z</time>
      </trkpt>
      <trkpt lat="45.11939" lon="4.73918">
        <ele>444.8</ele>
        <time>2021-03-28T11:44:35Z</time>
      </trkpt>
      <trkpt lat="45.11941" lon="4.73908">
        <ele>445.8</ele>
        <time>2021-03-28T11:44:39Z</time>
      </trkpt>
      <trkpt lat="45.11944" lon="4.739">
        <ele>447</ele>
        <time>2021-03-28T11:44:43Z</time>
      </trkpt>
      <trkpt lat="45.11947" lon="4.73891">
        <ele>447.2</ele>
        <time>2021-03-28T11:44:47Z</time>
      </trkpt>
      <trkpt lat="45.1195" lon="4.73881">
        <ele>447.4</ele>
        <time>2021-03-28T11:44:51Z</time>
      </trkpt>
      <trkpt lat="45.11953" lon="4.73872">
        <ele>448.6</ele>
        <time>2021-03-28T11:44:55Z</time>
      </trkpt>
      <trkpt lat="45.11956" lon="4.73862">
        <ele>448.8</ele>
        <time>2021-03-28T11:44:59Z</time>
      </trkpt>
      <trkpt lat="45.1196" lon="4.73852">
        <ele>448.8</ele>
        <time>2021-03-28T11:45:03Z</time>
      </trkpt>
      <trkpt lat="45.11964" lon="4.73842">
        <ele>449.4</ele>
        <time>2021-03-28T11:45:07Z</time>
      </trkpt>
      <trkpt lat="45.11971" lon="4.73837">
        <ele>450.2</ele>
        <time>2021-03-28T11:45:11Z</time>
      </trkpt>
      <trkpt lat="45.11982" lon="4.73838">
        <ele>450.4</ele>
        <time>2021-03-28T11:45:15Z</time>
      </trkpt>
      <trkpt lat="45.11992" lon="4.73846">
        <ele>449</ele>
        <time>2021-03-28T11:45:19Z</time>
      </trkpt>
      <trkpt lat="45.12003" lon="4.73852">
        <ele>450.2</ele>
        <time>2021-03-28T11:45:23Z</time>
      </trkpt>
      <trkpt lat="45.12016" lon="4.7385">
        <ele>449.4</ele>
        <time>2021-03-28T11:45:27Z</time>
      </trkpt>
      <trkpt lat="45.12027" lon="4.73844">
        <ele>450.8</ele>
        <time>2021-03-28T11:45:31Z</time>
      </trkpt>
      <trkpt lat="45.12037" lon="4.73838">
        <ele>451.2</ele>
        <time>2021-03-28T11:45:35Z</time>
      </trkpt>
      <trkpt lat="45.12047" lon="4.73832">
        <ele>451.6</ele>
        <time>2021-03-28T11:45:39Z</time>
      </trkpt>
      <trkpt lat="45.12058" lon="4.73825">
        <ele>451.4</ele>
        <time>2021-03-28T11:45:43Z</time>
      </trkpt>
      <trkpt lat="45.12067" lon="4.7382">
        <ele>451.4</ele>
        <time>2021-03-28T11:45:47Z</time>
      </trkpt>
      <trkpt lat="45.12079" lon="4.73813">
        <ele>451</ele>
        <time>2021-03-28T11:45:51Z</time>
      </trkpt>
      <trkpt lat="45.1209" lon="4.73804">
        <ele>451.6</ele>
        <time>2021-03-28T11:45:55Z</time>
      </trkpt>
      <trkpt lat="45.12101" lon="4.73795">
        <ele>451</ele>
        <time>2021-03-28T11:45:59Z</time>
      </trkpt>
      <trkpt lat="45.12113" lon="4.73785">
        <ele>450.6</ele>
        <time>2021-03-28T11:46:03Z</time>
      </trkpt>
      <trkpt lat="45.12127" lon="4.73776">
        <ele>450.8</ele>
        <time>2021-03-28T11:46:07Z</time>
      </trkpt>
      <trkpt lat="45.12144" lon="4.73767">
        <ele>448.6</ele>
        <time>2021-03-28T11:46:11Z</time>
      </trkpt>
      <trkpt lat="45.12164" lon="4.73756">
        <ele>448</ele>
        <time>2021-03-28T11:46:15Z</time>
      </trkpt>
      <trkpt lat="45.12182" lon="4.73734">
        <ele>446.8</ele>
        <time>2021-03-28T11:46:19Z</time>
      </trkpt>
      <trkpt lat="45.12193" lon="4.73725">
        <ele>445.8</ele>
        <time>2021-03-28T11:46:23Z</time>
      </trkpt>
      <trkpt lat="45.12202" lon="4.7374">
        <ele>445.2</ele>
        <time>2021-03-28T11:46:27Z</time>
      </trkpt>
      <trkpt lat="45.12212" lon="4.7376">
        <ele>444.2</ele>
        <time>2021-03-28T11:46:31Z</time>
      </trkpt>
      <trkpt lat="45.12223" lon="4.73782">
        <ele>443.6</ele>
        <time>2021-03-28T11:46:35Z</time>
      </trkpt>
      <trkpt lat="45.12234" lon="4.73805">
        <ele>444</ele>
        <time>2021-03-28T11:46:39Z</time>
      </trkpt>
      <trkpt lat="45.12244" lon="4.73828">
        <ele>443.8</ele>
        <time>2021-03-28T11:46:43Z</time>
      </trkpt>
      <trkpt lat="45.12252" lon="4.7385">
        <ele>443.4</ele>
        <time>2021-03-28T11:46:47Z</time>
      </trkpt>
      <trkpt lat="45.1226" lon="4.73872">
        <ele>442</ele>
        <time>2021-03-28T11:46:51Z</time>
      </trkpt>
      <trkpt lat="45.12267" lon="4.73895">
        <ele>441.6</ele>
        <time>2021-03-28T11:46:55Z</time>
      </trkpt>
      <trkpt lat="45.12277" lon="4.73922">
        <ele>440.4</ele>
        <time>2021-03-28T11:46:59Z</time>
      </trkpt>
      <trkpt lat="45.12289" lon="4.73948">
        <ele>439</ele>
        <time>2021-03-28T11:47:03Z</time>
      </trkpt>
      <trkpt lat="45.12303" lon="4.73976">
        <ele>437.6</ele>
        <time>2021-03-28T11:47:07Z</time>
      </trkpt>
      <trkpt lat="45.12319" lon="4.74002">
        <ele>435.4</ele>
        <time>2021-03-28T11:47:11Z</time>
      </trkpt>
      <trkpt lat="45.12335" lon="4.74029">
        <ele>437</ele>
        <time>2021-03-28T11:47:15Z</time>
      </trkpt>
      <trkpt lat="45.12352" lon="4.74054">
        <ele>436.2</ele>
        <time>2021-03-28T11:47:19Z</time>
      </trkpt>
      <trkpt lat="45.12369" lon="4.74079">
        <ele>435.4</ele>
        <time>2021-03-28T11:47:23Z</time>
      </trkpt>
      <trkpt lat="45.12385" lon="4.74104">
        <ele>435.6</ele>
        <time>2021-03-28T11:47:27Z</time>
      </trkpt>
      <trkpt lat="45.12401" lon="4.7413">
        <ele>433.6</ele>
        <time>2021-03-28T11:47:31Z</time>
      </trkpt>
      <trkpt lat="45.12416" lon="4.74155">
        <ele>432.8</ele>
        <time>2021-03-28T11:47:35Z</time>
      </trkpt>
      <trkpt lat="45.12429" lon="4.74179">
        <ele>432.8</ele>
        <time>2021-03-28T11:47:39Z</time>
      </trkpt>
      <trkpt lat="45.12442" lon="4.74205">
        <ele>432.2</ele>
        <time>2021-03-28T11:47:43Z</time>
      </trkpt>
      <trkpt lat="45.12448" lon="4.74237">
        <ele>431.4</ele>
        <time>2021-03-28T11:47:47Z</time>
      </trkpt>
      <trkpt lat="45.12449" lon="4.74272">
        <ele>429.8</ele>
        <time>2021-03-28T11:47:51Z</time>
      </trkpt>
      <trkpt lat="45.1245" lon="4.74308">
        <ele>429.2</ele>
        <time>2021-03-28T11:47:55Z</time>
      </trkpt>
      <trkpt lat="45.1245" lon="4.74341">
        <ele>429.8</ele>
        <time>2021-03-28T11:47:59Z</time>
      </trkpt>
      <trkpt lat="45.1245" lon="4.74374">
        <ele>429</ele>
        <time>2021-03-28T11:48:03Z</time>
      </trkpt>
      <trkpt lat="45.1245" lon="4.74405">
        <ele>429.2</ele>
        <time>2021-03-28T11:48:07Z</time>
      </trkpt>
      <trkpt lat="45.12449" lon="4.74436">
        <ele>429.2</ele>
        <time>2021-03-28T11:48:11Z</time>
      </trkpt>
      <trkpt lat="45.12449" lon="4.74464">
        <ele>428.4</ele>
        <time>2021-03-28T11:48:15Z</time>
      </trkpt>
      <trkpt lat="45.1245" lon="4.74492">
        <ele>428</ele>
        <time>2021-03-28T11:48:19Z</time>
      </trkpt>
      <trkpt lat="45.12451" lon="4.7452">
        <ele>427.2</ele>
        <time>2021-03-28T11:48:23Z</time>
      </trkpt>
      <trkpt lat="45.1245" lon="4.74548">
        <ele>427.4</ele>
        <time>2021-03-28T11:48:27Z</time>
      </trkpt>
      <trkpt lat="45.1245" lon="4.74575">
        <ele>426.8</ele>
        <time>2021-03-28T11:48:31Z</time>
      </trkpt>
      <trkpt lat="45.12449" lon="4.74604">
        <ele>425.6</ele>
        <time>2021-03-28T11:48:35Z</time>
      </trkpt>
      <trkpt lat="45.12446" lon="4.74637">
        <ele>423.4</ele>
        <time>2021-03-28T11:48:39Z</time>
      </trkpt>
      <trkpt lat="45.12441" lon="4.74673">
        <ele>423</ele>
        <time>2021-03-28T11:48:43Z</time>
      </trkpt>
      <trkpt lat="45.12438" lon="4.74707">
        <ele>423.2</ele>
        <time>2021-03-28T11:48:47Z</time>
      </trkpt>
      <trkpt lat="45.12441" lon="4.74741">
        <ele>422.8</ele>
        <time>2021-03-28T11:48:51Z</time>
      </trkpt>
      <trkpt lat="45.12446" lon="4.74773">
        <ele>422.6</ele>
        <time>2021-03-28T11:48:55Z</time>
      </trkpt>
      <trkpt lat="45.12452" lon="4.74803">
        <ele>423.2</ele>
        <time>2021-03-28T11:48:59Z</time>
      </trkpt>
      <trkpt lat="45.12458" lon="4.74831">
        <ele>422</ele>
        <time>2021-03-28T11:49:03Z</time>
      </trkpt>
      <trkpt lat="45.12465" lon="4.74859">
        <ele>421.8</ele>
        <time>2021-03-28T11:49:07Z</time>
      </trkpt>
      <trkpt lat="45.12471" lon="4.74886">
        <ele>423.2</ele>
        <time>2021-03-28T11:49:11Z</time>
      </trkpt>
      <trkpt lat="45.12475" lon="4.74912">
        <ele>422.6</ele>
        <time>2021-03-28T11:49:15Z</time>
      </trkpt>
      <trkpt lat="45.12478" lon="4.74936">
        <ele>422.6</ele>
        <time>2021-03-28T11:49:19Z</time>
      </trkpt>
      <trkpt lat="45.12479" lon="4.74961">
        <ele>423.2</ele>
        <time>2021-03-28T11:49:23Z</time>
      </trkpt>
      <trkpt lat="45.12478" lon="4.74986">
        <ele>424.2</ele>
        <time>2021-03-28T11:49:27Z</time>
      </trkpt>
      <trkpt lat="45.12478" lon="4.75008">
        <ele>424.6</ele>
        <time>2021-03-28T11:49:31Z</time>
      </trkpt>
      <trkpt lat="45.12478" lon="4.75028">
        <ele>425.8</ele>
        <time>2021-03-28T11:49:35Z</time>
      </trkpt>
      <trkpt lat="45.12478" lon="4.75048">
        <ele>425</ele>
        <time>2021-03-28T11:49:39Z</time>
      </trkpt>
      <trkpt lat="45.12477" lon="4.75068">
        <ele>425.8</ele>
        <time>2021-03-28T11:49:43Z</time>
      </trkpt>
      <trkpt lat="45.12475" lon="4.75088">
        <ele>426.2</ele>
        <time>2021-03-28T11:49:47Z</time>
      </trkpt>
      <trkpt lat="45.12473" lon="4.75105">
        <ele>426.8</ele>
        <time>2021-03-28T11:49:51Z</time>
      </trkpt>
      <trkpt lat="45.12471" lon="4.75123">
        <ele>427.4</ele>
        <time>2021-03-28T11:49:55Z</time>
      </trkpt>
      <trkpt lat="45.12468" lon="4.75138">
        <ele>428.6</ele>
        <time>2021-03-28T11:49:59Z</time>
      </trkpt>
      <trkpt lat="45.12467" lon="4.75155">
        <ele>429.2</ele>
        <time>2021-03-28T11:50:03Z</time>
      </trkpt>
      <trkpt lat="45.12467" lon="4.75174">
        <ele>429.6</ele>
        <time>2021-03-28T11:50:07Z</time>
      </trkpt>
      <trkpt lat="45.12468" lon="4.75192">
        <ele>430</ele>
        <time>2021-03-28T11:50:11Z</time>
      </trkpt>
      <trkpt lat="45.12476" lon="4.75209">
        <ele>429</ele>
        <time>2021-03-28T11:50:15Z</time>
      </trkpt>
      <trkpt lat="45.12488" lon="4.75225">
        <ele>428.2</ele>
        <time>2021-03-28T11:50:19Z</time>
      </trkpt>
      <trkpt lat="45.12502" lon="4.75244">
        <ele>427.6</ele>
        <time>2021-03-28T11:50:23Z</time>
      </trkpt>
      <trkpt lat="45.12516" lon="4.75264">
        <ele>426.4</ele>
        <time>2021-03-28T11:50:27Z</time>
      </trkpt>
      <trkpt lat="45.12532" lon="4.75288">
        <ele>423.6</ele>
        <time>2021-03-28T11:50:31Z</time>
      </trkpt>
      <trkpt lat="45.12551" lon="4.75311">
        <ele>423.4</ele>
        <time>2021-03-28T11:50:35Z</time>
      </trkpt>
      <trkpt lat="45.12572" lon="4.75333">
        <ele>422.6</ele>
        <time>2021-03-28T11:50:39Z</time>
      </trkpt>
      <trkpt lat="45.12592" lon="4.75355">
        <ele>422.8</ele>
        <time>2021-03-28T11:50:43Z</time>
      </trkpt>
      <trkpt lat="45.1261" lon="4.75375">
        <ele>421.8</ele>
        <time>2021-03-28T11:50:47Z</time>
      </trkpt>
      <trkpt lat="45.1263" lon="4.75395">
        <ele>420.8</ele>
        <time>2021-03-28T11:50:51Z</time>
      </trkpt>
      <trkpt lat="45.1265" lon="4.7542">
        <ele>421</ele>
        <time>2021-03-28T11:50:55Z</time>
      </trkpt>
      <trkpt lat="45.12664" lon="4.75451">
        <ele>419.8</ele>
        <time>2021-03-28T11:50:59Z</time>
      </trkpt>
      <trkpt lat="45.12671" lon="4.75483">
        <ele>419.8</ele>
        <time>2021-03-28T11:51:03Z</time>
      </trkpt>
      <trkpt lat="45.12678" lon="4.75516">
        <ele>418.2</ele>
        <time>2021-03-28T11:51:07Z</time>
      </trkpt>
      <trkpt lat="45.12684" lon="4.75549">
        <ele>418.2</ele>
        <time>2021-03-28T11:51:11Z</time>
      </trkpt>
      <trkpt lat="45.12689" lon="4.75584">
        <ele>416.2</ele>
        <time>2021-03-28T11:51:15Z</time>
      </trkpt>
      <trkpt lat="45.12693" lon="4.75621">
        <ele>414.4</ele>
        <time>2021-03-28T11:51:19Z</time>
      </trkpt>
      <trkpt lat="45.12695" lon="4.7566">
        <ele>414</ele>
        <time>2021-03-28T11:51:23Z</time>
      </trkpt>
      <trkpt lat="45.12697" lon="4.75698">
        <ele>414</ele>
        <time>2021-03-28T11:51:27Z</time>
      </trkpt>
      <trkpt lat="45.12699" lon="4.75734">
        <ele>414.4</ele>
        <time>2021-03-28T11:51:31Z</time>
      </trkpt>
      <trkpt lat="45.12706" lon="4.75766">
        <ele>414</ele>
        <time>2021-03-28T11:51:35Z</time>
      </trkpt>
      <trkpt lat="45.12716" lon="4.75795">
        <ele>413.8</ele>
        <time>2021-03-28T11:51:39Z</time>
      </trkpt>
      <trkpt lat="45.12728" lon="4.7582">
        <ele>414</ele>
        <time>2021-03-28T11:51:43Z</time>
      </trkpt>
      <trkpt lat="45.12742" lon="4.75841">
        <ele>414.2</ele>
        <time>2021-03-28T11:51:47Z</time>
      </trkpt>
      <trkpt lat="45.12755" lon="4.75862">
        <ele>413.6</ele>
        <time>2021-03-28T11:51:51Z</time>
      </trkpt>
      <trkpt lat="45.1277" lon="4.75882">
        <ele>413.2</ele>
        <time>2021-03-28T11:51:55Z</time>
      </trkpt>
      <trkpt lat="45.12785" lon="4.75903">
        <ele>413</ele>
        <time>2021-03-28T11:51:59Z</time>
      </trkpt>
      <trkpt lat="45.12801" lon="4.75923">
        <ele>412.4</ele>
        <time>2021-03-28T11:52:03Z</time>
      </trkpt>
      <trkpt lat="45.12818" lon="4.75945">
        <ele>411.4</ele>
        <time>2021-03-28T11:52:07Z</time>
      </trkpt>
      <trkpt lat="45.12836" lon="4.7597">
        <ele>410.8</ele>
        <time>2021-03-28T11:52:11Z</time>
      </trkpt>
      <trkpt lat="45.12856" lon="4.75996">
        <ele>409.2</ele>
        <time>2021-03-28T11:52:15Z</time>
      </trkpt>
      <trkpt lat="45.12876" lon="4.76022">
        <ele>408.2</ele>
        <time>2021-03-28T11:52:19Z</time>
      </trkpt>
      <trkpt lat="45.12896" lon="4.7605">
        <ele>406.8</ele>
        <time>2021-03-28T11:52:23Z</time>
      </trkpt>
      <trkpt lat="45.12915" lon="4.76077">
        <ele>406</ele>
        <time>2021-03-28T11:52:27Z</time>
      </trkpt>
      <trkpt lat="45.12934" lon="4.76105">
        <ele>406.2</ele>
        <time>2021-03-28T11:52:31Z</time>
      </trkpt>
      <trkpt lat="45.12947" lon="4.76137">
        <ele>406.4</ele>
        <time>2021-03-28T11:52:35Z</time>
      </trkpt>
      <trkpt lat="45.12956" lon="4.76171">
        <ele>406.6</ele>
        <time>2021-03-28T11:52:39Z</time>
      </trkpt>
      <trkpt lat="45.12958" lon="4.76205">
        <ele>405.6</ele>
        <time>2021-03-28T11:52:43Z</time>
      </trkpt>
      <trkpt lat="45.12964" lon="4.76237">
        <ele>404.8</ele>
        <time>2021-03-28T11:52:47Z</time>
      </trkpt>
      <trkpt lat="45.12969" lon="4.76267">
        <ele>405.4</ele>
        <time>2021-03-28T11:52:51Z</time>
      </trkpt>
      <trkpt lat="45.12974" lon="4.76295">
        <ele>406.2</ele>
        <time>2021-03-28T11:52:55Z</time>
      </trkpt>
      <trkpt lat="45.12977" lon="4.7632">
        <ele>404.6</ele>
        <time>2021-03-28T11:52:59Z</time>
      </trkpt>
      <trkpt lat="45.12979" lon="4.76348">
        <ele>403.8</ele>
        <time>2021-03-28T11:53:03Z</time>
      </trkpt>
      <trkpt lat="45.12982" lon="4.76383">
        <ele>399.6</ele>
        <time>2021-03-28T11:53:07Z</time>
      </trkpt>
      <trkpt lat="45.12991" lon="4.76427">
        <ele>396</ele>
        <time>2021-03-28T11:53:11Z</time>
      </trkpt>
      <trkpt lat="45.13" lon="4.76478">
        <ele>391.2</ele>
        <time>2021-03-28T11:53:15Z</time>
      </trkpt>
      <trkpt lat="45.13002" lon="4.76533">
        <ele>387.8</ele>
        <time>2021-03-28T11:53:19Z</time>
      </trkpt>
      <trkpt lat="45.13002" lon="4.76591">
        <ele>387.2</ele>
        <time>2021-03-28T11:53:23Z</time>
      </trkpt>
      <trkpt lat="45.13003" lon="4.76646">
        <ele>386</ele>
        <time>2021-03-28T11:53:27Z</time>
      </trkpt>
      <trkpt lat="45.13004" lon="4.76696">
        <ele>386.8</ele>
        <time>2021-03-28T11:53:31Z</time>
      </trkpt>
      <trkpt lat="45.13006" lon="4.76739">
        <ele>387.4</ele>
        <time>2021-03-28T11:53:35Z</time>
      </trkpt>
      <trkpt lat="45.13006" lon="4.76777">
        <ele>387.2</ele>
        <time>2021-03-28T11:53:39Z</time>
      </trkpt>
      <trkpt lat="45.13002" lon="4.76809">
        <ele>388.4</ele>
        <time>2021-03-28T11:53:43Z</time>
      </trkpt>
      <trkpt lat="45.13" lon="4.7684">
        <ele>388.4</ele>
        <time>2021-03-28T11:53:47Z</time>
      </trkpt>
      <trkpt lat="45.12998" lon="4.7687">
        <ele>387.6</ele>
        <time>2021-03-28T11:53:51Z</time>
      </trkpt>
      <trkpt lat="45.12995" lon="4.76899">
        <ele>388.6</ele>
        <time>2021-03-28T11:53:55Z</time>
      </trkpt>
      <trkpt lat="45.12991" lon="4.76926">
        <ele>389.2</ele>
        <time>2021-03-28T11:53:59Z</time>
      </trkpt>
      <trkpt lat="45.12988" lon="4.76946">
        <ele>390.4</ele>
        <time>2021-03-28T11:54:03Z</time>
      </trkpt>
      <trkpt lat="45.12988" lon="4.76963">
        <ele>390.8</ele>
        <time>2021-03-28T11:54:07Z</time>
      </trkpt>
      <trkpt lat="45.12989" lon="4.76979">
        <ele>392</ele>
        <time>2021-03-28T11:54:11Z</time>
      </trkpt>
      <trkpt lat="45.12981" lon="4.76991">
        <ele>391.6</ele>
        <time>2021-03-28T11:54:15Z</time>
      </trkpt>
      <trkpt lat="45.12976" lon="4.77004">
        <ele>392.4</ele>
        <time>2021-03-28T11:54:19Z</time>
      </trkpt>
      <trkpt lat="45.12972" lon="4.77017">
        <ele>391.2</ele>
        <time>2021-03-28T11:54:23Z</time>
      </trkpt>
      <trkpt lat="45.12963" lon="4.7703">
        <ele>391.2</ele>
        <time>2021-03-28T11:54:27Z</time>
      </trkpt>
      <trkpt lat="45.12947" lon="4.77033">
        <ele>391.6</ele>
        <time>2021-03-28T11:54:31Z</time>
      </trkpt>
      <trkpt lat="45.1293" lon="4.77032">
        <ele>389.8</ele>
        <time>2021-03-28T11:54:35Z</time>
      </trkpt>
      <trkpt lat="45.12915" lon="4.77048">
        <ele>388.4</ele>
        <time>2021-03-28T11:54:39Z</time>
      </trkpt>
      <trkpt lat="45.12901" lon="4.77071">
        <ele>387.6</ele>
        <time>2021-03-28T11:54:43Z</time>
      </trkpt>
      <trkpt lat="45.12887" lon="4.77096">
        <ele>386.6</ele>
        <time>2021-03-28T11:54:47Z</time>
      </trkpt>
      <trkpt lat="45.12872" lon="4.77123">
        <ele>384</ele>
        <time>2021-03-28T11:54:51Z</time>
      </trkpt>
      <trkpt lat="45.12856" lon="4.77149">
        <ele>384.2</ele>
        <time>2021-03-28T11:54:55Z</time>
      </trkpt>
      <trkpt lat="45.12838" lon="4.77169">
        <ele>385</ele>
        <time>2021-03-28T11:54:59Z</time>
      </trkpt>
      <trkpt lat="45.12815" lon="4.77181">
        <ele>384.6</ele>
        <time>2021-03-28T11:55:03Z</time>
      </trkpt>
      <trkpt lat="45.12791" lon="4.77184">
        <ele>384.4</ele>
        <time>2021-03-28T11:55:07Z</time>
      </trkpt>
      <trkpt lat="45.12767" lon="4.77186">
        <ele>382.2</ele>
        <time>2021-03-28T11:55:11Z</time>
      </trkpt>
      <trkpt lat="45.12739" lon="4.77191">
        <ele>381</ele>
        <time>2021-03-28T11:55:15Z</time>
      </trkpt>
      <trkpt lat="45.12709" lon="4.77204">
        <ele>378.6</ele>
        <time>2021-03-28T11:55:19Z</time>
      </trkpt>
      <trkpt lat="45.12678" lon="4.77218">
        <ele>376.6</ele>
        <time>2021-03-28T11:55:23Z</time>
      </trkpt>
      <trkpt lat="45.12646" lon="4.77233">
        <ele>373.4</ele>
        <time>2021-03-28T11:55:27Z</time>
      </trkpt>
      <trkpt lat="45.12614" lon="4.77246">
        <ele>372.2</ele>
        <time>2021-03-28T11:55:31Z</time>
      </trkpt>
      <trkpt lat="45.12581" lon="4.77255">
        <ele>369.6</ele>
        <time>2021-03-28T11:55:35Z</time>
      </trkpt>
      <trkpt lat="45.12544" lon="4.77255">
        <ele>366.8</ele>
        <time>2021-03-28T11:55:39Z</time>
      </trkpt>
      <trkpt lat="45.12505" lon="4.7726">
        <ele>365.2</ele>
        <time>2021-03-28T11:55:43Z</time>
      </trkpt>
      <trkpt lat="45.12473" lon="4.77267">
        <ele>368.6</ele>
        <time>2021-03-28T11:55:47Z</time>
      </trkpt>
      <trkpt lat="45.12449" lon="4.77269">
        <ele>370.8</ele>
        <time>2021-03-28T11:55:51Z</time>
      </trkpt>
      <trkpt lat="45.12428" lon="4.77272">
        <ele>370.8</ele>
        <time>2021-03-28T11:55:55Z</time>
      </trkpt>
      <trkpt lat="45.12412" lon="4.77275">
        <ele>371.4</ele>
        <time>2021-03-28T11:55:59Z</time>
      </trkpt>
      <trkpt lat="45.12395" lon="4.77281">
        <ele>369.6</ele>
        <time>2021-03-28T11:56:03Z</time>
      </trkpt>
      <trkpt lat="45.12379" lon="4.77304">
        <ele>366.2</ele>
        <time>2021-03-28T11:56:07Z</time>
      </trkpt>
      <trkpt lat="45.12367" lon="4.7734">
        <ele>364.4</ele>
        <time>2021-03-28T11:56:11Z</time>
      </trkpt>
      <trkpt lat="45.12355" lon="4.77373">
        <ele>363.8</ele>
        <time>2021-03-28T11:56:15Z</time>
      </trkpt>
      <trkpt lat="45.12339" lon="4.77403">
        <ele>363.2</ele>
        <time>2021-03-28T11:56:19Z</time>
      </trkpt>
      <trkpt lat="45.12326" lon="4.7744">
        <ele>360.6</ele>
        <time>2021-03-28T11:56:23Z</time>
      </trkpt>
      <trkpt lat="45.12324" lon="4.77488">
        <ele>355.8</ele>
        <time>2021-03-28T11:56:27Z</time>
      </trkpt>
      <trkpt lat="45.12326" lon="4.77542">
        <ele>353.2</ele>
        <time>2021-03-28T11:56:31Z</time>
      </trkpt>
      <trkpt lat="45.12331" lon="4.77595">
        <ele>352</ele>
        <time>2021-03-28T11:56:35Z</time>
      </trkpt>
      <trkpt lat="45.12331" lon="4.77645">
        <ele>354.6</ele>
        <time>2021-03-28T11:56:39Z</time>
      </trkpt>
      <trkpt lat="45.12328" lon="4.77689">
        <ele>354.6</ele>
        <time>2021-03-28T11:56:43Z</time>
      </trkpt>
      <trkpt lat="45.12326" lon="4.77728">
        <ele>353.4</ele>
        <time>2021-03-28T11:56:47Z</time>
      </trkpt>
      <trkpt lat="45.12325" lon="4.77768">
        <ele>352.4</ele>
        <time>2021-03-28T11:56:51Z</time>
      </trkpt>
      <trkpt lat="45.12329" lon="4.77804">
        <ele>351.6</ele>
        <time>2021-03-28T11:56:55Z</time>
      </trkpt>
      <trkpt lat="45.12333" lon="4.77832">
        <ele>354.6</ele>
        <time>2021-03-28T11:56:59Z</time>
      </trkpt>
      <trkpt lat="45.12339" lon="4.77856">
        <ele>355.4</ele>
        <time>2021-03-28T11:57:03Z</time>
      </trkpt>
      <trkpt lat="45.12347" lon="4.77878">
        <ele>356</ele>
        <time>2021-03-28T11:57:07Z</time>
      </trkpt>
      <trkpt lat="45.12353" lon="4.779">
        <ele>355</ele>
        <time>2021-03-28T11:57:11Z</time>
      </trkpt>
      <trkpt lat="45.12357" lon="4.77927">
        <ele>354.2</ele>
        <time>2021-03-28T11:57:15Z</time>
      </trkpt>
      <trkpt lat="45.1236" lon="4.77958">
        <ele>352.4</ele>
        <time>2021-03-28T11:57:19Z</time>
      </trkpt>
      <trkpt lat="45.12362" lon="4.77991">
        <ele>350.2</ele>
        <time>2021-03-28T11:57:23Z</time>
      </trkpt>
      <trkpt lat="45.12363" lon="4.78025">
        <ele>350.4</ele>
        <time>2021-03-28T11:57:27Z</time>
      </trkpt>
      <trkpt lat="45.12365" lon="4.78056">
        <ele>351.2</ele>
        <time>2021-03-28T11:57:31Z</time>
      </trkpt>
      <trkpt lat="45.12371" lon="4.78082">
        <ele>352.8</ele>
        <time>2021-03-28T11:57:35Z</time>
      </trkpt>
      <trkpt lat="45.12377" lon="4.78101">
        <ele>355.4</ele>
        <time>2021-03-28T11:57:39Z</time>
      </trkpt>
      <trkpt lat="45.12381" lon="4.78119">
        <ele>356.2</ele>
        <time>2021-03-28T11:57:43Z</time>
      </trkpt>
      <trkpt lat="45.12384" lon="4.78138">
        <ele>356.8</ele>
        <time>2021-03-28T11:57:47Z</time>
      </trkpt>
      <trkpt lat="45.12386" lon="4.78156">
        <ele>357.2</ele>
        <time>2021-03-28T11:57:51Z</time>
      </trkpt>
      <trkpt lat="45.12388" lon="4.78174">
        <ele>356.8</ele>
        <time>2021-03-28T11:57:55Z</time>
      </trkpt>
      <trkpt lat="45.12389" lon="4.78198">
        <ele>356</ele>
        <time>2021-03-28T11:57:59Z</time>
      </trkpt>
      <trkpt lat="45.12389" lon="4.78225">
        <ele>354.8</ele>
        <time>2021-03-28T11:58:03Z</time>
      </trkpt>
      <trkpt lat="45.12388" lon="4.78252">
        <ele>354.4</ele>
        <time>2021-03-28T11:58:07Z</time>
      </trkpt>
      <trkpt lat="45.12387" lon="4.78279">
        <ele>354</ele>
        <time>2021-03-28T11:58:11Z</time>
      </trkpt>
      <trkpt lat="45.12384" lon="4.78306">
        <ele>354.6</ele>
        <time>2021-03-28T11:58:15Z</time>
      </trkpt>
      <trkpt lat="45.12378" lon="4.7833">
        <ele>354.8</ele>
        <time>2021-03-28T11:58:19Z</time>
      </trkpt>
      <trkpt lat="45.12369" lon="4.7836">
        <ele>349.6</ele>
        <time>2021-03-28T11:58:23Z</time>
      </trkpt>
      <trkpt lat="45.1237" lon="4.78406">
        <ele>344.6</ele>
        <time>2021-03-28T11:58:27Z</time>
      </trkpt>
      <trkpt lat="45.12372" lon="4.78457">
        <ele>341.6</ele>
        <time>2021-03-28T11:58:31Z</time>
      </trkpt>
      <trkpt lat="45.12375" lon="4.78507">
        <ele>342.4</ele>
        <time>2021-03-28T11:58:35Z</time>
      </trkpt>
      <trkpt lat="45.12377" lon="4.78553">
        <ele>339.4</ele>
        <time>2021-03-28T11:58:39Z</time>
      </trkpt>
      <trkpt lat="45.12378" lon="4.78597">
        <ele>341</ele>
        <time>2021-03-28T11:58:43Z</time>
      </trkpt>
      <trkpt lat="45.12379" lon="4.78637">
        <ele>341</ele>
        <time>2021-03-28T11:58:47Z</time>
      </trkpt>
      <trkpt lat="45.12378" lon="4.78674">
        <ele>340.2</ele>
        <time>2021-03-28T11:58:51Z</time>
      </trkpt>
      <trkpt lat="45.12371" lon="4.78705">
        <ele>342.6</ele>
        <time>2021-03-28T11:58:55Z</time>
      </trkpt>
      <trkpt lat="45.12366" lon="4.7873">
        <ele>343.4</ele>
        <time>2021-03-28T11:58:59Z</time>
      </trkpt>
      <trkpt lat="45.12364" lon="4.7875">
        <ele>344.8</ele>
        <time>2021-03-28T11:59:03Z</time>
      </trkpt>
      <trkpt lat="45.12362" lon="4.7877">
        <ele>344.6</ele>
        <time>2021-03-28T11:59:07Z</time>
      </trkpt>
      <trkpt lat="45.12363" lon="4.78786">
        <ele>346</ele>
        <time>2021-03-28T11:59:11Z</time>
      </trkpt>
      <trkpt lat="45.12365" lon="4.78801">
        <ele>345</ele>
        <time>2021-03-28T11:59:15Z</time>
      </trkpt>
      <trkpt lat="45.12369" lon="4.78822">
        <ele>342.4</ele>
        <time>2021-03-28T11:59:19Z</time>
      </trkpt>
      <trkpt lat="45.12378" lon="4.78856">
        <ele>337.2</ele>
        <time>2021-03-28T11:59:23Z</time>
      </trkpt>
      <trkpt lat="45.1239" lon="4.78899">
        <ele>329.8</ele>
        <time>2021-03-28T11:59:27Z</time>
      </trkpt>
      <trkpt lat="45.12406" lon="4.78951">
        <ele>324</ele>
        <time>2021-03-28T11:59:31Z</time>
      </trkpt>
      <trkpt lat="45.12417" lon="4.79003">
        <ele>321</ele>
        <time>2021-03-28T11:59:35Z</time>
      </trkpt>
      <trkpt lat="45.12406" lon="4.79055">
        <ele>316.8</ele>
        <time>2021-03-28T11:59:39Z</time>
      </trkpt>
      <trkpt lat="45.1238" lon="4.79098">
        <ele>312.8</ele>
        <time>2021-03-28T11:59:43Z</time>
      </trkpt>
      <trkpt lat="45.1236" lon="4.79143">
        <ele>311.6</ele>
        <time>2021-03-28T11:59:47Z</time>
      </trkpt>
      <trkpt lat="45.12362" lon="4.7919">
        <ele>307</ele>
        <time>2021-03-28T11:59:51Z</time>
      </trkpt>
      <trkpt lat="45.12379" lon="4.7923">
        <ele>307</ele>
        <time>2021-03-28T11:59:55Z</time>
      </trkpt>
      <trkpt lat="45.12408" lon="4.7924">
        <ele>300.2</ele>
        <time>2021-03-28T11:59:59Z</time>
      </trkpt>
      <trkpt lat="45.12444" lon="4.79244">
        <ele>299.2</ele>
        <time>2021-03-28T12:00:03Z</time>
      </trkpt>
      <trkpt lat="45.12482" lon="4.79263">
        <ele>293.6</ele>
        <time>2021-03-28T12:00:07Z</time>
      </trkpt>
      <trkpt lat="45.12521" lon="4.79295">
        <ele>287.4</ele>
        <time>2021-03-28T12:00:11Z</time>
      </trkpt>
      <trkpt lat="45.12563" lon="4.79324">
        <ele>284</ele>
        <time>2021-03-28T12:00:15Z</time>
      </trkpt>
      <trkpt lat="45.126" lon="4.79351">
        <ele>282.2</ele>
        <time>2021-03-28T12:00:19Z</time>
      </trkpt>
      <trkpt lat="45.12619" lon="4.79381">
        <ele>280.8</ele>
        <time>2021-03-28T12:00:23Z</time>
      </trkpt>
      <trkpt lat="45.12605" lon="4.79394">
        <ele>280.2</ele>
        <time>2021-03-28T12:00:27Z</time>
      </trkpt>
      <trkpt lat="45.12582" lon="4.79387">
        <ele>278</ele>
        <time>2021-03-28T12:00:31Z</time>
      </trkpt>
      <trkpt lat="45.12556" lon="4.79387">
        <ele>276</ele>
        <time>2021-03-28T12:00:35Z</time>
      </trkpt>
      <trkpt lat="45.12526" lon="4.79396">
        <ele>272.4</ele>
        <time>2021-03-28T12:00:39Z</time>
      </trkpt>
      <trkpt lat="45.12494" lon="4.7938">
        <ele>268.8</ele>
        <time>2021-03-28T12:00:43Z</time>
      </trkpt>
      <trkpt lat="45.12469" lon="4.79341">
        <ele>263</ele>
        <time>2021-03-28T12:00:47Z</time>
      </trkpt>
      <trkpt lat="45.12436" lon="4.79336">
        <ele>260.4</ele>
        <time>2021-03-28T12:00:51Z</time>
      </trkpt>
      <trkpt lat="45.12403" lon="4.79361">
        <ele>256.6</ele>
        <time>2021-03-28T12:00:55Z</time>
      </trkpt>
      <trkpt lat="45.12364" lon="4.7938">
        <ele>253</ele>
        <time>2021-03-28T12:00:59Z</time>
      </trkpt>
      <trkpt lat="45.12323" lon="4.79406">
        <ele>248.8</ele>
        <time>2021-03-28T12:01:03Z</time>
      </trkpt>
      <trkpt lat="45.12283" lon="4.79415">
        <ele>245.4</ele>
        <time>2021-03-28T12:01:07Z</time>
      </trkpt>
      <trkpt lat="45.12241" lon="4.794">
        <ele>241.2</ele>
        <time>2021-03-28T12:01:11Z</time>
      </trkpt>
      <trkpt lat="45.12206" lon="4.79369">
        <ele>240.6</ele>
        <time>2021-03-28T12:01:15Z</time>
      </trkpt>
      <trkpt lat="45.12187" lon="4.79348">
        <ele>241</ele>
        <time>2021-03-28T12:01:19Z</time>
      </trkpt>
      <trkpt lat="45.12185" lon="4.79371">
        <ele>237.4</ele>
        <time>2021-03-28T12:01:23Z</time>
      </trkpt>
      <trkpt lat="45.12206" lon="4.79397">
        <ele>232.8</ele>
        <time>2021-03-28T12:01:27Z</time>
      </trkpt>
      <trkpt lat="45.12227" lon="4.79435">
        <ele>228</ele>
        <time>2021-03-28T12:01:31Z</time>
      </trkpt>
      <trkpt lat="45.12247" lon="4.79482">
        <ele>222</ele>
        <time>2021-03-28T12:01:35Z</time>
      </trkpt>
      <trkpt lat="45.1227" lon="4.79531">
        <ele>217</ele>
        <time>2021-03-28T12:01:39Z</time>
      </trkpt>
      <trkpt lat="45.12298" lon="4.79562">
        <ele>216.6</ele>
        <time>2021-03-28T12:01:43Z</time>
      </trkpt>
      <trkpt lat="45.12326" lon="4.79558">
        <ele>214.2</ele>
        <time>2021-03-28T12:01:47Z</time>
      </trkpt>
      <trkpt lat="45.12338" lon="4.7952">
        <ele>210.8</ele>
        <time>2021-03-28T12:01:51Z</time>
      </trkpt>
      <trkpt lat="45.12365" lon="4.79501">
        <ele>206.2</ele>
        <time>2021-03-28T12:01:55Z</time>
      </trkpt>
      <trkpt lat="45.12403" lon="4.7951">
        <ele>202.6</ele>
        <time>2021-03-28T12:01:59Z</time>
      </trkpt>
      <trkpt lat="45.12424" lon="4.79556">
        <ele>196.4</ele>
        <time>2021-03-28T12:02:03Z</time>
      </trkpt>
      <trkpt lat="45.12449" lon="4.79607">
        <ele>192.2</ele>
        <time>2021-03-28T12:02:07Z</time>
      </trkpt>
      <trkpt lat="45.12468" lon="4.79658">
        <ele>187.2</ele>
        <time>2021-03-28T12:02:11Z</time>
      </trkpt>
      <trkpt lat="45.12495" lon="4.7969">
        <ele>186</ele>
        <time>2021-03-28T12:02:15Z</time>
      </trkpt>
      <trkpt lat="45.12531" lon="4.79689">
        <ele>182.4</ele>
        <time>2021-03-28T12:02:19Z</time>
      </trkpt>
      <trkpt lat="45.12562" lon="4.79719">
        <ele>177.4</ele>
        <time>2021-03-28T12:02:23Z</time>
      </trkpt>
      <trkpt lat="45.12587" lon="4.79765">
        <ele>173.8</ele>
        <time>2021-03-28T12:02:27Z</time>
      </trkpt>
      <trkpt lat="45.12623" lon="4.79797">
        <ele>169.6</ele>
        <time>2021-03-28T12:02:31Z</time>
      </trkpt>
      <trkpt lat="45.12654" lon="4.79835">
        <ele>164.6</ele>
        <time>2021-03-28T12:02:35Z</time>
      </trkpt>
      <trkpt lat="45.12675" lon="4.79886">
        <ele>162.6</ele>
        <time>2021-03-28T12:02:39Z</time>
      </trkpt>
      <trkpt lat="45.12712" lon="4.7992">
        <ele>157.2</ele>
        <time>2021-03-28T12:02:43Z</time>
      </trkpt>
      <trkpt lat="45.12743" lon="4.79944">
        <ele>156.4</ele>
        <time>2021-03-28T12:02:47Z</time>
      </trkpt>
      <trkpt lat="45.12761" lon="4.79956">
        <ele>157</ele>
        <time>2021-03-28T12:02:51Z</time>
      </trkpt>
      <trkpt lat="45.12746" lon="4.79962">
        <ele>155.4</ele>
        <time>2021-03-28T12:02:55Z</time>
      </trkpt>
      <trkpt lat="45.12723" lon="4.79952">
        <ele>153</ele>
        <time>2021-03-28T12:02:59Z</time>
      </trkpt>
      <trkpt lat="45.12692" lon="4.7994">
        <ele>148</ele>
        <time>2021-03-28T12:03:03Z</time>
      </trkpt>
      <trkpt lat="45.12656" lon="4.79929">
        <ele>145</ele>
        <time>2021-03-28T12:03:07Z</time>
      </trkpt>
      <trkpt lat="45.12624" lon="4.799">
        <ele>141.4</ele>
        <time>2021-03-28T12:03:11Z</time>
      </trkpt>
      <trkpt lat="45.12587" lon="4.79882">
        <ele>136.4</ele>
        <time>2021-03-28T12:03:15Z</time>
      </trkpt>
      <trkpt lat="45.12552" lon="4.79852">
        <ele>133.8</ele>
        <time>2021-03-28T12:03:19Z</time>
      </trkpt>
      <trkpt lat="45.12517" lon="4.79839">
        <ele>129</ele>
        <time>2021-03-28T12:03:23Z</time>
      </trkpt>
      <trkpt lat="45.12475" lon="4.79849">
        <ele>125.8</ele>
        <time>2021-03-28T12:03:27Z</time>
      </trkpt>
      <trkpt lat="45.12441" lon="4.79853">
        <ele>125.2</ele>
        <time>2021-03-28T12:03:31Z</time>
      </trkpt>
      <trkpt lat="45.1241" lon="4.79829">
        <ele>120.8</ele>
        <time>2021-03-28T12:03:35Z</time>
      </trkpt>
      <trkpt lat="45.12374" lon="4.79834">
        <ele>117.4</ele>
        <time>2021-03-28T12:03:39Z</time>
      </trkpt>
      <trkpt lat="45.12343" lon="4.79836">
        <ele>112.4</ele>
        <time>2021-03-28T12:03:43Z</time>
      </trkpt>
      <trkpt lat="45.12309" lon="4.79856">
        <ele>107.4</ele>
        <time>2021-03-28T12:03:47Z</time>
      </trkpt>
      <trkpt lat="45.12276" lon="4.7989">
        <ele>101.8</ele>
        <time>2021-03-28T12:03:51Z</time>
      </trkpt>
      <trkpt lat="45.12249" lon="4.79933">
        <ele>99.6</ele>
        <time>2021-03-28T12:03:55Z</time>
      </trkpt>
      <trkpt lat="45.1222" lon="4.79973">
        <ele>95.8</ele>
        <time>2021-03-28T12:03:59Z</time>
      </trkpt>
      <trkpt lat="45.12202" lon="4.80012">
        <ele>94.6</ele>
        <time>2021-03-28T12:04:03Z</time>
      </trkpt>
      <trkpt lat="45.12208" lon="4.80045">
        <ele>93.6</ele>
        <time>2021-03-28T12:04:07Z</time>
      </trkpt>
      <trkpt lat="45.12231" lon="4.80051">
        <ele>94.2</ele>
        <time>2021-03-28T12:04:11Z</time>
      </trkpt>
      <trkpt lat="45.12254" lon="4.80046">
        <ele>95</ele>
        <time>2021-03-28T12:04:15Z</time>
      </trkpt>
      <trkpt lat="45.12271" lon="4.80038">
        <ele>96</ele>
        <time>2021-03-28T12:04:19Z</time>
      </trkpt>
      <trkpt lat="45.12285" lon="4.80025">
        <ele>95.8</ele>
        <time>2021-03-28T12:04:23Z</time>
      </trkpt>
      <trkpt lat="45.123" lon="4.80027">
        <ele>95.4</ele>
        <time>2021-03-28T12:04:27Z</time>
      </trkpt>
      <trkpt lat="45.12301" lon="4.80039">
        <ele>95.6</ele>
        <time>2021-03-28T12:04:31Z</time>
      </trkpt>
      <trkpt lat="45.12311" lon="4.80056">
        <ele>94</ele>
        <time>2021-03-28T12:04:45Z</time>
      </trkpt>
      <trkpt lat="45.12329" lon="4.80059">
        <ele>93.2</ele>
        <time>2021-03-28T12:04:49Z</time>
      </trkpt>
      <trkpt lat="45.12349" lon="4.80058">
        <ele>93.8</ele>
        <time>2021-03-28T12:04:53Z</time>
      </trkpt>
      <trkpt lat="45.12368" lon="4.80059">
        <ele>93</ele>
        <time>2021-03-28T12:04:57Z</time>
      </trkpt>
      <trkpt lat="45.12388" lon="4.80062">
        <ele>93.2</ele>
        <time>2021-03-28T12:05:01Z</time>
      </trkpt>
      <trkpt lat="45.12407" lon="4.80067">
        <ele>94.2</ele>
        <time>2021-03-28T12:05:05Z</time>
      </trkpt>
      <trkpt lat="45.12427" lon="4.80073">
        <ele>94</ele>
        <time>2021-03-28T12:05:09Z</time>
      </trkpt>
      <trkpt lat="45.12448" lon="4.80079">
        <ele>94.4</ele>
        <time>2021-03-28T12:05:13Z</time>
      </trkpt>
      <trkpt lat="45.12469" lon="4.80085">
        <ele>94.2</ele>
        <time>2021-03-28T12:05:17Z</time>
      </trkpt>
      <trkpt lat="45.1249" lon="4.80089">
        <ele>93.8</ele>
        <time>2021-03-28T12:05:21Z</time>
      </trkpt>
      <trkpt lat="45.12511" lon="4.80093">
        <ele>93.4</ele>
        <time>2021-03-28T12:05:25Z</time>
      </trkpt>
      <trkpt lat="45.12531" lon="4.80096">
        <ele>93.8</ele>
        <time>2021-03-28T12:05:29Z</time>
      </trkpt>
      <trkpt lat="45.1255" lon="4.80099">
        <ele>94.4</ele>
        <time>2021-03-28T12:05:33Z</time>
      </trkpt>
      <trkpt lat="45.12567" lon="4.80102">
        <ele>95</ele>
        <time>2021-03-28T12:05:37Z</time>
      </trkpt>
      <trkpt lat="45.12585" lon="4.80106">
        <ele>95.2</ele>
        <time>2021-03-28T12:05:41Z</time>
      </trkpt>
      <trkpt lat="45.12602" lon="4.80108">
        <ele>95.8</ele>
        <time>2021-03-28T12:05:45Z</time>
      </trkpt>
      <trkpt lat="45.1262" lon="4.80111">
        <ele>97.2</ele>
        <time>2021-03-28T12:05:49Z</time>
      </trkpt>
      <trkpt lat="45.12638" lon="4.80114">
        <ele>97.4</ele>
        <time>2021-03-28T12:05:53Z</time>
      </trkpt>
      <trkpt lat="45.12655" lon="4.80117">
        <ele>97.4</ele>
        <time>2021-03-28T12:05:57Z</time>
      </trkpt>
      <trkpt lat="45.12673" lon="4.8012">
        <ele>98.4</ele>
        <time>2021-03-28T12:06:01Z</time>
      </trkpt>
      <trkpt lat="45.12693" lon="4.80125">
        <ele>97</ele>
        <time>2021-03-28T12:06:05Z</time>
      </trkpt>
      <trkpt lat="45.12715" lon="4.80129">
        <ele>95.6</ele>
        <time>2021-03-28T12:06:09Z</time>
      </trkpt>
      <trkpt lat="45.12738" lon="4.80134">
        <ele>96.6</ele>
        <time>2021-03-28T12:06:13Z</time>
      </trkpt>
      <trkpt lat="45.1276" lon="4.80137">
        <ele>95</ele>
        <time>2021-03-28T12:06:17Z</time>
      </trkpt>
      <trkpt lat="45.12782" lon="4.80137">
        <ele>96.6</ele>
        <time>2021-03-28T12:06:21Z</time>
      </trkpt>
      <trkpt lat="45.12804" lon="4.80136">
        <ele>96.4</ele>
        <time>2021-03-28T12:06:25Z</time>
      </trkpt>
      <trkpt lat="45.12824" lon="4.80134">
        <ele>97</ele>
        <time>2021-03-28T12:06:29Z</time>
      </trkpt>
      <trkpt lat="45.12845" lon="4.80135">
        <ele>97.4</ele>
        <time>2021-03-28T12:06:33Z</time>
      </trkpt>
      <trkpt lat="45.12865" lon="4.80138">
        <ele>96.8</ele>
        <time>2021-03-28T12:06:37Z</time>
      </trkpt>
      <trkpt lat="45.12886" lon="4.80145">
        <ele>97.2</ele>
        <time>2021-03-28T12:06:41Z</time>
      </trkpt>
      <trkpt lat="45.12905" lon="4.80152">
        <ele>96.8</ele>
        <time>2021-03-28T12:06:45Z</time>
      </trkpt>
      <trkpt lat="45.12926" lon="4.80158">
        <ele>98</ele>
        <time>2021-03-28T12:06:49Z</time>
      </trkpt>
      <trkpt lat="45.12948" lon="4.80165">
        <ele>98</ele>
        <time>2021-03-28T12:06:53Z</time>
      </trkpt>
      <trkpt lat="45.1297" lon="4.80172">
        <ele>96.8</ele>
        <time>2021-03-28T12:06:57Z</time>
      </trkpt>
      <trkpt lat="45.12992" lon="4.8018">
        <ele>97.4</ele>
        <time>2021-03-28T12:07:01Z</time>
      </trkpt>
      <trkpt lat="45.13015" lon="4.80188">
        <ele>96.4</ele>
        <time>2021-03-28T12:07:05Z</time>
      </trkpt>
      <trkpt lat="45.13039" lon="4.80195">
        <ele>96.6</ele>
        <time>2021-03-28T12:07:09Z</time>
      </trkpt>
      <trkpt lat="45.13064" lon="4.80202">
        <ele>96.4</ele>
        <time>2021-03-28T12:07:13Z</time>
      </trkpt>
      <trkpt lat="45.1309" lon="4.80207">
        <ele>96.8</ele>
        <time>2021-03-28T12:07:17Z</time>
      </trkpt>
      <trkpt lat="45.13115" lon="4.80213">
        <ele>94.2</ele>
        <time>2021-03-28T12:07:21Z</time>
      </trkpt>
      <trkpt lat="45.1314" lon="4.80219">
        <ele>94.4</ele>
        <time>2021-03-28T12:07:25Z</time>
      </trkpt>
      <trkpt lat="45.13166" lon="4.80223">
        <ele>94.8</ele>
        <time>2021-03-28T12:07:29Z</time>
      </trkpt>
      <trkpt lat="45.1319" lon="4.80224">
        <ele>94.6</ele>
        <time>2021-03-28T12:07:33Z</time>
      </trkpt>
      <trkpt lat="45.13215" lon="4.80224">
        <ele>94.2</ele>
        <time>2021-03-28T12:07:37Z</time>
      </trkpt>
      <trkpt lat="45.1324" lon="4.80225">
        <ele>93.8</ele>
        <time>2021-03-28T12:07:41Z</time>
      </trkpt>
      <trkpt lat="45.13263" lon="4.80226">
        <ele>94.2</ele>
        <time>2021-03-28T12:07:45Z</time>
      </trkpt>
      <trkpt lat="45.13286" lon="4.80227">
        <ele>95.4</ele>
        <time>2021-03-28T12:07:49Z</time>
      </trkpt>
      <trkpt lat="45.13309" lon="4.80229">
        <ele>94.8</ele>
        <time>2021-03-28T12:07:53Z</time>
      </trkpt>
      <trkpt lat="45.13332" lon="4.8023">
        <ele>94.6</ele>
        <time>2021-03-28T12:07:57Z</time>
      </trkpt>
      <trkpt lat="45.13356" lon="4.80231">
        <ele>95.6</ele>
        <time>2021-03-28T12:08:01Z</time>
      </trkpt>
      <trkpt lat="45.13381" lon="4.80234">
        <ele>94.6</ele>
        <time>2021-03-28T12:08:05Z</time>
      </trkpt>
      <trkpt lat="45.13405" lon="4.80237">
        <ele>95.2</ele>
        <time>2021-03-28T12:08:09Z</time>
      </trkpt>
      <trkpt lat="45.1343" lon="4.80242">
        <ele>94.6</ele>
        <time>2021-03-28T12:08:13Z</time>
      </trkpt>
      <trkpt lat="45.13456" lon="4.80251">
        <ele>94.4</ele>
        <time>2021-03-28T12:08:17Z</time>
      </trkpt>
      <trkpt lat="45.1348" lon="4.80264">
        <ele>94</ele>
        <time>2021-03-28T12:08:21Z</time>
      </trkpt>
      <trkpt lat="45.13504" lon="4.80278">
        <ele>92.8</ele>
        <time>2021-03-28T12:08:25Z</time>
      </trkpt>
      <trkpt lat="45.13527" lon="4.80292">
        <ele>94</ele>
        <time>2021-03-28T12:08:29Z</time>
      </trkpt>
      <trkpt lat="45.13548" lon="4.80305">
        <ele>95.4</ele>
        <time>2021-03-28T12:08:33Z</time>
      </trkpt>
      <trkpt lat="45.13567" lon="4.80319">
        <ele>97</ele>
        <time>2021-03-28T12:08:37Z</time>
      </trkpt>
      <trkpt lat="45.13588" lon="4.80336">
        <ele>96.6</ele>
        <time>2021-03-28T12:08:41Z</time>
      </trkpt>
      <trkpt lat="45.1361" lon="4.80357">
        <ele>95.8</ele>
        <time>2021-03-28T12:08:45Z</time>
      </trkpt>
      <trkpt lat="45.13632" lon="4.80382">
        <ele>94.6</ele>
        <time>2021-03-28T12:08:49Z</time>
      </trkpt>
      <trkpt lat="45.13655" lon="4.8041">
        <ele>94</ele>
        <time>2021-03-28T12:08:53Z</time>
      </trkpt>
      <trkpt lat="45.13674" lon="4.80439">
        <ele>92.8</ele>
        <time>2021-03-28T12:08:57Z</time>
      </trkpt>
      <trkpt lat="45.13691" lon="4.80468">
        <ele>91.4</ele>
        <time>2021-03-28T12:09:01Z</time>
      </trkpt>
      <trkpt lat="45.13708" lon="4.80496">
        <ele>92.8</ele>
        <time>2021-03-28T12:09:05Z</time>
      </trkpt>
      <trkpt lat="45.13725" lon="4.80524">
        <ele>90.4</ele>
        <time>2021-03-28T12:09:09Z</time>
      </trkpt>
      <trkpt lat="45.13742" lon="4.80552">
        <ele>91</ele>
        <time>2021-03-28T12:09:13Z</time>
      </trkpt>
      <trkpt lat="45.13757" lon="4.80579">
        <ele>89.8</ele>
        <time>2021-03-28T12:09:17Z</time>
      </trkpt>
      <trkpt lat="45.13772" lon="4.80604">
        <ele>91.6</ele>
        <time>2021-03-28T12:09:21Z</time>
      </trkpt>
      <trkpt lat="45.13789" lon="4.80622">
        <ele>91.8</ele>
        <time>2021-03-28T12:09:25Z</time>
      </trkpt>
      <trkpt lat="45.13808" lon="4.80634">
        <ele>92.6</ele>
        <time>2021-03-28T12:09:29Z</time>
      </trkpt>
      <trkpt lat="45.13827" lon="4.80643">
        <ele>92</ele>
        <time>2021-03-28T12:09:33Z</time>
      </trkpt>
      <trkpt lat="45.13845" lon="4.80652">
        <ele>92.6</ele>
        <time>2021-03-28T12:09:37Z</time>
      </trkpt>
      <trkpt lat="45.13862" lon="4.80661">
        <ele>93.2</ele>
        <time>2021-03-28T12:09:41Z</time>
      </trkpt>
      <trkpt lat="45.1388" lon="4.8067">
        <ele>93.8</ele>
        <time>2021-03-28T12:09:45Z</time>
      </trkpt>
      <trkpt lat="45.13898" lon="4.80679">
        <ele>95</ele>
        <time>2021-03-28T12:09:49Z</time>
      </trkpt>
      <trkpt lat="45.13916" lon="4.80688">
        <ele>94.6</ele>
        <time>2021-03-28T12:09:53Z</time>
      </trkpt>
      <trkpt lat="45.13933" lon="4.80699">
        <ele>95.2</ele>
        <time>2021-03-28T12:09:57Z</time>
      </trkpt>
      <trkpt lat="45.13946" lon="4.80715">
        <ele>95.8</ele>
        <time>2021-03-28T12:10:01Z</time>
      </trkpt>
      <trkpt lat="45.13951" lon="4.80734">
        <ele>95.4</ele>
        <time>2021-03-28T12:10:05Z</time>
      </trkpt>
      <trkpt lat="45.13943" lon="4.80754">
        <ele>94</ele>
        <time>2021-03-28T12:10:09Z</time>
      </trkpt>
      <trkpt lat="45.13932" lon="4.80776">
        <ele>94.6</ele>
        <time>2021-03-28T12:10:13Z</time>
      </trkpt>
      <trkpt lat="45.13921" lon="4.80799">
        <ele>94</ele>
        <time>2021-03-28T12:10:17Z</time>
      </trkpt>
      <trkpt lat="45.13911" lon="4.8082">
        <ele>93.6</ele>
        <time>2021-03-28T12:10:21Z</time>
      </trkpt>
      <trkpt lat="45.13899" lon="4.80834">
        <ele>93.6</ele>
        <time>2021-03-28T12:10:25Z</time>
      </trkpt>
      <trkpt lat="45.13881" lon="4.80842">
        <ele>92.2</ele>
        <time>2021-03-28T12:10:29Z</time>
      </trkpt>
      <trkpt lat="45.13864" lon="4.80835">
        <ele>93.2</ele>
        <time>2021-03-28T12:10:33Z</time>
      </trkpt>
      <trkpt lat="45.1385" lon="4.80816">
        <ele>93</ele>
        <time>2021-03-28T12:10:37Z</time>
      </trkpt>
      <trkpt lat="45.1384" lon="4.80793">
        <ele>92.8</ele>
        <time>2021-03-28T12:10:41Z</time>
      </trkpt>
      <trkpt lat="45.13831" lon="4.80769">
        <ele>94.2</ele>
        <time>2021-03-28T12:10:45Z</time>
      </trkpt>
      <trkpt lat="45.13821" lon="4.80744">
        <ele>93.6</ele>
        <time>2021-03-28T12:10:49Z</time>
      </trkpt>
      <trkpt lat="45.13811" lon="4.80719">
        <ele>94.6</ele>
        <time>2021-03-28T12:10:53Z</time>
      </trkpt>
      <trkpt lat="45.13799" lon="4.80695">
        <ele>94</ele>
        <time>2021-03-28T12:10:57Z</time>
      </trkpt>
      <trkpt lat="45.13784" lon="4.80675">
        <ele>93.4</ele>
        <time>2021-03-28T12:11:01Z</time>
      </trkpt>
      <trkpt lat="45.13765" lon="4.80667">
        <ele>94</ele>
        <time>2021-03-28T12:11:05Z</time>
      </trkpt>
      <trkpt lat="45.13747" lon="4.80672">
        <ele>95</ele>
        <time>2021-03-28T12:11:09Z</time>
      </trkpt>
      <trkpt lat="45.13733" lon="4.80681">
        <ele>95.2</ele>
        <time>2021-03-28T12:11:13Z</time>
      </trkpt>
      <trkpt lat="45.1372" lon="4.8069">
        <ele>95.8</ele>
        <time>2021-03-28T12:11:17Z</time>
      </trkpt>
      <trkpt lat="45.1371" lon="4.80699">
        <ele>96.6</ele>
        <time>2021-03-28T12:11:21Z</time>
      </trkpt>
      <trkpt lat="45.13699" lon="4.80708">
        <ele>97.6</ele>
        <time>2021-03-28T12:11:25Z</time>
      </trkpt>
      <trkpt lat="45.13688" lon="4.80715">
        <ele>97.6</ele>
        <time>2021-03-28T12:11:29Z</time>
      </trkpt>
      <trkpt lat="45.13678" lon="4.80723">
        <ele>98.4</ele>
        <time>2021-03-28T12:11:33Z</time>
      </trkpt>
      <trkpt lat="45.13668" lon="4.80732">
        <ele>99</ele>
        <time>2021-03-28T12:11:37Z</time>
      </trkpt>
      <trkpt lat="45.13658" lon="4.80741">
        <ele>100</ele>
        <time>2021-03-28T12:11:41Z</time>
      </trkpt>
      <trkpt lat="45.13644" lon="4.80752">
        <ele>99.4</ele>
        <time>2021-03-28T12:11:45Z</time>
      </trkpt>
      <trkpt lat="45.1363" lon="4.80764">
        <ele>99.8</ele>
        <time>2021-03-28T12:11:49Z</time>
      </trkpt>
      <trkpt lat="45.13615" lon="4.80776">
        <ele>99.8</ele>
        <time>2021-03-28T12:11:53Z</time>
      </trkpt>
      <trkpt lat="45.136" lon="4.80788">
        <ele>99.8</ele>
        <time>2021-03-28T12:11:57Z</time>
      </trkpt>
      <trkpt lat="45.13584" lon="4.80801">
        <ele>99.8</ele>
        <time>2021-03-28T12:12:01Z</time>
      </trkpt>
      <trkpt lat="45.13568" lon="4.80814">
        <ele>99.2</ele>
        <time>2021-03-28T12:12:05Z</time>
      </trkpt>
      <trkpt lat="45.13552" lon="4.80827">
        <ele>99.2</ele>
        <time>2021-03-28T12:12:09Z</time>
      </trkpt>
      <trkpt lat="45.13536" lon="4.80839">
        <ele>99.6</ele>
        <time>2021-03-28T12:12:13Z</time>
      </trkpt>
      <trkpt lat="45.1352" lon="4.80852">
        <ele>99.4</ele>
        <time>2021-03-28T12:12:17Z</time>
      </trkpt>
      <trkpt lat="45.13503" lon="4.80866">
        <ele>99.2</ele>
        <time>2021-03-28T12:12:21Z</time>
      </trkpt>
      <trkpt lat="45.13487" lon="4.80879">
        <ele>99.8</ele>
        <time>2021-03-28T12:12:25Z</time>
      </trkpt>
      <trkpt lat="45.1347" lon="4.80893">
        <ele>99.4</ele>
        <time>2021-03-28T12:12:29Z</time>
      </trkpt>
      <trkpt lat="45.13449" lon="4.80911">
        <ele>98</ele>
        <time>2021-03-28T12:12:33Z</time>
      </trkpt>
      <trkpt lat="45.13425" lon="4.8093">
        <ele>96.8</ele>
        <time>2021-03-28T12:12:37Z</time>
      </trkpt>
      <trkpt lat="45.13404" lon="4.80939">
        <ele>95.8</ele>
        <time>2021-03-28T12:12:41Z</time>
      </trkpt>
      <trkpt lat="45.13382" lon="4.80932">
        <ele>96.8</ele>
        <time>2021-03-28T12:12:45Z</time>
      </trkpt>
      <trkpt lat="45.13362" lon="4.80921">
        <ele>96.6</ele>
        <time>2021-03-28T12:12:49Z</time>
      </trkpt>
      <trkpt lat="45.13341" lon="4.80911">
        <ele>97.2</ele>
        <time>2021-03-28T12:12:53Z</time>
      </trkpt>
      <trkpt lat="45.1332" lon="4.80899">
        <ele>96</ele>
        <time>2021-03-28T12:12:57Z</time>
      </trkpt>
      <trkpt lat="45.133" lon="4.80889">
        <ele>96</ele>
        <time>2021-03-28T12:13:01Z</time>
      </trkpt>
      <trkpt lat="45.1328" lon="4.80878">
        <ele>96</ele>
        <time>2021-03-28T12:13:05Z</time>
      </trkpt>
      <trkpt lat="45.1326" lon="4.80866">
        <ele>96</ele>
        <time>2021-03-28T12:13:09Z</time>
      </trkpt>
      <trkpt lat="45.1324" lon="4.80855">
        <ele>97.2</ele>
        <time>2021-03-28T12:13:13Z</time>
      </trkpt>
      <trkpt lat="45.13219" lon="4.80844">
        <ele>96.6</ele>
        <time>2021-03-28T12:13:17Z</time>
      </trkpt>
      <trkpt lat="45.13198" lon="4.80832">
        <ele>96.8</ele>
        <time>2021-03-28T12:13:21Z</time>
      </trkpt>
      <trkpt lat="45.13177" lon="4.80821">
        <ele>96.8</ele>
        <time>2021-03-28T12:13:25Z</time>
      </trkpt>
      <trkpt lat="45.13157" lon="4.80811">
        <ele>96.6</ele>
        <time>2021-03-28T12:13:29Z</time>
      </trkpt>
      <trkpt lat="45.13137" lon="4.808">
        <ele>95.6</ele>
        <time>2021-03-28T12:13:33Z</time>
      </trkpt>
      <trkpt lat="45.13116" lon="4.80791">
        <ele>95.8</ele>
        <time>2021-03-28T12:13:37Z</time>
      </trkpt>
      <trkpt lat="45.13096" lon="4.80782">
        <ele>96.6</ele>
        <time>2021-03-28T12:13:41Z</time>
      </trkpt>
      <trkpt lat="45.13075" lon="4.80772">
        <ele>96</ele>
        <time>2021-03-28T12:13:45Z</time>
      </trkpt>
      <trkpt lat="45.13055" lon="4.80764">
        <ele>96</ele>
        <time>2021-03-28T12:13:49Z</time>
      </trkpt>
      <trkpt lat="45.13034" lon="4.80756">
        <ele>97.2</ele>
        <time>2021-03-28T12:13:53Z</time>
      </trkpt>
      <trkpt lat="45.13014" lon="4.80748">
        <ele>96.4</ele>
        <time>2021-03-28T12:13:57Z</time>
      </trkpt>
      <trkpt lat="45.12992" lon="4.80742">
        <ele>96.6</ele>
        <time>2021-03-28T12:14:01Z</time>
      </trkpt>
      <trkpt lat="45.1297" lon="4.80735">
        <ele>95.8</ele>
        <time>2021-03-28T12:14:05Z</time>
      </trkpt>
      <trkpt lat="45.12948" lon="4.80728">
        <ele>96</ele>
        <time>2021-03-28T12:14:09Z</time>
      </trkpt>
      <trkpt lat="45.12926" lon="4.80722">
        <ele>96.4</ele>
        <time>2021-03-28T12:14:13Z</time>
      </trkpt>
      <trkpt lat="45.12904" lon="4.80716">
        <ele>96.6</ele>
        <time>2021-03-28T12:14:17Z</time>
      </trkpt>
      <trkpt lat="45.12882" lon="4.80712">
        <ele>96.4</ele>
        <time>2021-03-28T12:14:21Z</time>
      </trkpt>
      <trkpt lat="45.1286" lon="4.80707">
        <ele>96.6</ele>
        <time>2021-03-28T12:14:25Z</time>
      </trkpt>
      <trkpt lat="45.12838" lon="4.80703">
        <ele>96</ele>
        <time>2021-03-28T12:14:29Z</time>
      </trkpt>
      <trkpt lat="45.12816" lon="4.807">
        <ele>96</ele>
        <time>2021-03-28T12:14:33Z</time>
      </trkpt>
      <trkpt lat="45.12795" lon="4.80698">
        <ele>96.6</ele>
        <time>2021-03-28T12:14:37Z</time>
      </trkpt>
      <trkpt lat="45.12773" lon="4.80695">
        <ele>96.4</ele>
        <time>2021-03-28T12:14:41Z</time>
      </trkpt>
      <trkpt lat="45.12752" lon="4.80694">
        <ele>96.6</ele>
        <time>2021-03-28T12:14:45Z</time>
      </trkpt>
      <trkpt lat="45.12731" lon="4.80693">
        <ele>96.6</ele>
        <time>2021-03-28T12:14:49Z</time>
      </trkpt>
      <trkpt lat="45.12709" lon="4.80692">
        <ele>96.4</ele>
        <time>2021-03-28T12:14:53Z</time>
      </trkpt>
      <trkpt lat="45.12688" lon="4.80692">
        <ele>96.4</ele>
        <time>2021-03-28T12:14:57Z</time>
      </trkpt>
      <trkpt lat="45.12667" lon="4.80692">
        <ele>96</ele>
        <time>2021-03-28T12:15:01Z</time>
      </trkpt>
      <trkpt lat="45.12646" lon="4.80693">
        <ele>96</ele>
        <time>2021-03-28T12:15:05Z</time>
      </trkpt>
      <trkpt lat="45.12624" lon="4.80694">
        <ele>97</ele>
        <time>2021-03-28T12:15:09Z</time>
      </trkpt>
      <trkpt lat="45.12603" lon="4.80696">
        <ele>96.8</ele>
        <time>2021-03-28T12:15:13Z</time>
      </trkpt>
      <trkpt lat="45.12582" lon="4.80698">
        <ele>96.6</ele>
        <time>2021-03-28T12:15:17Z</time>
      </trkpt>
      <trkpt lat="45.1256" lon="4.807">
        <ele>96.6</ele>
        <time>2021-03-28T12:15:21Z</time>
      </trkpt>
      <trkpt lat="45.12539" lon="4.80704">
        <ele>96.6</ele>
        <time>2021-03-28T12:15:25Z</time>
      </trkpt>
      <trkpt lat="45.12518" lon="4.80707">
        <ele>96</ele>
        <time>2021-03-28T12:15:29Z</time>
      </trkpt>
      <trkpt lat="45.12497" lon="4.80711">
        <ele>96.6</ele>
        <time>2021-03-28T12:15:33Z</time>
      </trkpt>
      <trkpt lat="45.12476" lon="4.80716">
        <ele>96.8</ele>
        <time>2021-03-28T12:15:37Z</time>
      </trkpt>
      <trkpt lat="45.12454" lon="4.80721">
        <ele>96.2</ele>
        <time>2021-03-28T12:15:41Z</time>
      </trkpt>
      <trkpt lat="45.12433" lon="4.80727">
        <ele>96.6</ele>
        <time>2021-03-28T12:15:45Z</time>
      </trkpt>
      <trkpt lat="45.12411" lon="4.80733">
        <ele>96.8</ele>
        <time>2021-03-28T12:15:49Z</time>
      </trkpt>
      <trkpt lat="45.12389" lon="4.8074">
        <ele>96.6</ele>
        <time>2021-03-28T12:15:53Z</time>
      </trkpt>
      <trkpt lat="45.12368" lon="4.80746">
        <ele>97</ele>
        <time>2021-03-28T12:15:57Z</time>
      </trkpt>
      <trkpt lat="45.12346" lon="4.80754">
        <ele>97.4</ele>
        <time>2021-03-28T12:16:01Z</time>
      </trkpt>
      <trkpt lat="45.12326" lon="4.80762">
        <ele>97.4</ele>
        <time>2021-03-28T12:16:05Z</time>
      </trkpt>
      <trkpt lat="45.12305" lon="4.80771">
        <ele>96.6</ele>
        <time>2021-03-28T12:16:09Z</time>
      </trkpt>
      <trkpt lat="45.12284" lon="4.8078">
        <ele>96</ele>
        <time>2021-03-28T12:16:13Z</time>
      </trkpt>
      <trkpt lat="45.12263" lon="4.80789">
        <ele>96.6</ele>
        <time>2021-03-28T12:16:17Z</time>
      </trkpt>
      <trkpt lat="45.12242" lon="4.80799">
        <ele>96.6</ele>
        <time>2021-03-28T12:16:21Z</time>
      </trkpt>
      <trkpt lat="45.12222" lon="4.8081">
        <ele>96.6</ele>
        <time>2021-03-28T12:16:25Z</time>
      </trkpt>
      <trkpt lat="45.12201" lon="4.80821">
        <ele>96.6</ele>
        <time>2021-03-28T12:16:29Z</time>
      </trkpt>
      <trkpt lat="45.1218" lon="4.80834">
        <ele>97.2</ele>
        <time>2021-03-28T12:16:33Z</time>
      </trkpt>
      <trkpt lat="45.12158" lon="4.80847">
        <ele>97</ele>
        <time>2021-03-28T12:16:37Z</time>
      </trkpt>
      <trkpt lat="45.12137" lon="4.8086">
        <ele>97</ele>
        <time>2021-03-28T12:16:41Z</time>
      </trkpt>
      <trkpt lat="45.12115" lon="4.80874">
        <ele>96.8</ele>
        <time>2021-03-28T12:16:45Z</time>
      </trkpt>
      <trkpt lat="45.12094" lon="4.80888">
        <ele>97</ele>
        <time>2021-03-28T12:16:49Z</time>
      </trkpt>
      <trkpt lat="45.12073" lon="4.80903">
        <ele>97</ele>
        <time>2021-03-28T12:16:53Z</time>
      </trkpt>
      <trkpt lat="45.12052" lon="4.80918">
        <ele>97.2</ele>
        <time>2021-03-28T12:16:57Z</time>
      </trkpt>
      <trkpt lat="45.12032" lon="4.80935">
        <ele>96.8</ele>
        <time>2021-03-28T12:17:01Z</time>
      </trkpt>
      <trkpt lat="45.12011" lon="4.80952">
        <ele>96.8</ele>
        <time>2021-03-28T12:17:05Z</time>
      </trkpt>
      <trkpt lat="45.11991" lon="4.80969">
        <ele>97.4</ele>
        <time>2021-03-28T12:17:09Z</time>
      </trkpt>
      <trkpt lat="45.11971" lon="4.80987">
        <ele>97.4</ele>
        <time>2021-03-28T12:17:13Z</time>
      </trkpt>
      <trkpt lat="45.11952" lon="4.81003">
        <ele>97.4</ele>
        <time>2021-03-28T12:17:17Z</time>
      </trkpt>
      <trkpt lat="45.11932" lon="4.81022">
        <ele>97.2</ele>
        <time>2021-03-28T12:17:21Z</time>
      </trkpt>
      <trkpt lat="45.11914" lon="4.81039">
        <ele>96.6</ele>
        <time>2021-03-28T12:17:25Z</time>
      </trkpt>
      <trkpt lat="45.11895" lon="4.81055">
        <ele>96.4</ele>
        <time>2021-03-28T12:17:29Z</time>
      </trkpt>
      <trkpt lat="45.11877" lon="4.81072">
        <ele>96.2</ele>
        <time>2021-03-28T12:17:33Z</time>
      </trkpt>
      <trkpt lat="45.11858" lon="4.8109">
        <ele>97.2</ele>
        <time>2021-03-28T12:17:37Z</time>
      </trkpt>
      <trkpt lat="45.11839" lon="4.81107">
        <ele>97.4</ele>
        <time>2021-03-28T12:17:41Z</time>
      </trkpt>
      <trkpt lat="45.1182" lon="4.81124">
        <ele>98</ele>
        <time>2021-03-28T12:17:45Z</time>
      </trkpt>
      <trkpt lat="45.11801" lon="4.81142">
        <ele>96.8</ele>
        <time>2021-03-28T12:17:49Z</time>
      </trkpt>
      <trkpt lat="45.11783" lon="4.81159">
        <ele>98</ele>
        <time>2021-03-28T12:17:53Z</time>
      </trkpt>
      <trkpt lat="45.11764" lon="4.81177">
        <ele>97.6</ele>
        <time>2021-03-28T12:17:57Z</time>
      </trkpt>
      <trkpt lat="45.11744" lon="4.81193">
        <ele>96.8</ele>
        <time>2021-03-28T12:18:01Z</time>
      </trkpt>
      <trkpt lat="45.11726" lon="4.81211">
        <ele>96.8</ele>
        <time>2021-03-28T12:18:05Z</time>
      </trkpt>
      <trkpt lat="45.11707" lon="4.81228">
        <ele>97.4</ele>
        <time>2021-03-28T12:18:09Z</time>
      </trkpt>
      <trkpt lat="45.11687" lon="4.81246">
        <ele>97.4</ele>
        <time>2021-03-28T12:18:13Z</time>
      </trkpt>
      <trkpt lat="45.11668" lon="4.81264">
        <ele>97.6</ele>
        <time>2021-03-28T12:18:17Z</time>
      </trkpt>
      <trkpt lat="45.11648" lon="4.81281">
        <ele>97.2</ele>
        <time>2021-03-28T12:18:21Z</time>
      </trkpt>
      <trkpt lat="45.1163" lon="4.81298">
        <ele>97.4</ele>
        <time>2021-03-28T12:18:25Z</time>
      </trkpt>
      <trkpt lat="45.1161" lon="4.81316">
        <ele>97.2</ele>
        <time>2021-03-28T12:18:29Z</time>
      </trkpt>
      <trkpt lat="45.11591" lon="4.81334">
        <ele>97.6</ele>
        <time>2021-03-28T12:18:33Z</time>
      </trkpt>
      <trkpt lat="45.11572" lon="4.81351">
        <ele>97.2</ele>
        <time>2021-03-28T12:18:37Z</time>
      </trkpt>
      <trkpt lat="45.11553" lon="4.81369">
        <ele>97.4</ele>
        <time>2021-03-28T12:18:41Z</time>
      </trkpt>
      <trkpt lat="45.11534" lon="4.81386">
        <ele>96.6</ele>
        <time>2021-03-28T12:18:45Z</time>
      </trkpt>
      <trkpt lat="45.11515" lon="4.81403">
        <ele>97.6</ele>
        <time>2021-03-28T12:18:49Z</time>
      </trkpt>
      <trkpt lat="45.11496" lon="4.81421">
        <ele>97.4</ele>
        <time>2021-03-28T12:18:53Z</time>
      </trkpt>
      <trkpt lat="45.11477" lon="4.81439">
        <ele>97.4</ele>
        <time>2021-03-28T12:18:57Z</time>
      </trkpt>
      <trkpt lat="45.11458" lon="4.81456">
        <ele>97</ele>
        <time>2021-03-28T12:19:01Z</time>
      </trkpt>
      <trkpt lat="45.11439" lon="4.81474">
        <ele>97.6</ele>
        <time>2021-03-28T12:19:05Z</time>
      </trkpt>
      <trkpt lat="45.11419" lon="4.81493">
        <ele>97.6</ele>
        <time>2021-03-28T12:19:09Z</time>
      </trkpt>
      <trkpt lat="45.114" lon="4.81511">
        <ele>97.4</ele>
        <time>2021-03-28T12:19:13Z</time>
      </trkpt>
      <trkpt lat="45.11381" lon="4.8153">
        <ele>96.8</ele>
        <time>2021-03-28T12:19:17Z</time>
      </trkpt>
      <trkpt lat="45.11362" lon="4.81548">
        <ele>97.4</ele>
        <time>2021-03-28T12:19:21Z</time>
      </trkpt>
      <trkpt lat="45.11344" lon="4.81566">
        <ele>97.4</ele>
        <time>2021-03-28T12:19:25Z</time>
      </trkpt>
      <trkpt lat="45.11327" lon="4.81583">
        <ele>97.6</ele>
        <time>2021-03-28T12:19:29Z</time>
      </trkpt>
      <trkpt lat="45.1131" lon="4.816">
        <ele>97</ele>
        <time>2021-03-28T12:19:33Z</time>
      </trkpt>
      <trkpt lat="45.11293" lon="4.81617">
        <ele>97.2</ele>
        <time>2021-03-28T12:19:37Z</time>
      </trkpt>
      <trkpt lat="45.11276" lon="4.81634">
        <ele>97.4</ele>
        <time>2021-03-28T12:19:41Z</time>
      </trkpt>
      <trkpt lat="45.11259" lon="4.8165">
        <ele>96.8</ele>
        <time>2021-03-28T12:19:45Z</time>
      </trkpt>
      <trkpt lat="45.11241" lon="4.81668">
        <ele>97</ele>
        <time>2021-03-28T12:19:49Z</time>
      </trkpt>
      <trkpt lat="45.11224" lon="4.81685">
        <ele>97.2</ele>
        <time>2021-03-28T12:19:53Z</time>
      </trkpt>
      <trkpt lat="45.11206" lon="4.81703">
        <ele>97.6</ele>
        <time>2021-03-28T12:19:57Z</time>
      </trkpt>
      <trkpt lat="45.11188" lon="4.81721">
        <ele>97</ele>
        <time>2021-03-28T12:20:01Z</time>
      </trkpt>
      <trkpt lat="45.1117" lon="4.81739">
        <ele>97.4</ele>
        <time>2021-03-28T12:20:05Z</time>
      </trkpt>
      <trkpt lat="45.11152" lon="4.81757">
        <ele>97</ele>
        <time>2021-03-28T12:20:09Z</time>
      </trkpt>
      <trkpt lat="45.11134" lon="4.81775">
        <ele>96.6</ele>
        <time>2021-03-28T12:20:13Z</time>
      </trkpt>
      <trkpt lat="45.11116" lon="4.81793">
        <ele>97</ele>
        <time>2021-03-28T12:20:17Z</time>
      </trkpt>
      <trkpt lat="45.11098" lon="4.81811">
        <ele>97.2</ele>
        <time>2021-03-28T12:20:21Z</time>
      </trkpt>
      <trkpt lat="45.11081" lon="4.8183">
        <ele>97</ele>
        <time>2021-03-28T12:20:25Z</time>
      </trkpt>
      <trkpt lat="45.11068" lon="4.81854">
        <ele>97</ele>
        <time>2021-03-28T12:20:29Z</time>
      </trkpt>
      <trkpt lat="45.11059" lon="4.81882">
        <ele>97</ele>
        <time>2021-03-28T12:20:33Z</time>
      </trkpt>
      <trkpt lat="45.11053" lon="4.81913">
        <ele>96.4</ele>
        <time>2021-03-28T12:20:37Z</time>
      </trkpt>
      <trkpt lat="45.1104" lon="4.81938">
        <ele>96.4</ele>
        <time>2021-03-28T12:20:41Z</time>
      </trkpt>
      <trkpt lat="45.11021" lon="4.81956">
        <ele>96.4</ele>
        <time>2021-03-28T12:20:45Z</time>
      </trkpt>
      <trkpt lat="45.11002" lon="4.81973">
        <ele>96.8</ele>
        <time>2021-03-28T12:20:49Z</time>
      </trkpt>
      <trkpt lat="45.10984" lon="4.81989">
        <ele>97</ele>
        <time>2021-03-28T12:20:53Z</time>
      </trkpt>
      <trkpt lat="45.10965" lon="4.82004">
        <ele>96.6</ele>
        <time>2021-03-28T12:20:57Z</time>
      </trkpt>
      <trkpt lat="45.10947" lon="4.82021">
        <ele>96.2</ele>
        <time>2021-03-28T12:21:01Z</time>
      </trkpt>
      <trkpt lat="45.10928" lon="4.82038">
        <ele>97.2</ele>
        <time>2021-03-28T12:21:05Z</time>
      </trkpt>
      <trkpt lat="45.1091" lon="4.82055">
        <ele>96.6</ele>
        <time>2021-03-28T12:21:09Z</time>
      </trkpt>
      <trkpt lat="45.10899" lon="4.8208">
        <ele>97</ele>
        <time>2021-03-28T12:21:13Z</time>
      </trkpt>
      <trkpt lat="45.10906" lon="4.82109">
        <ele>97</ele>
        <time>2021-03-28T12:21:17Z</time>
      </trkpt>
      <trkpt lat="45.10918" lon="4.82135">
        <ele>97.4</ele>
        <time>2021-03-28T12:21:21Z</time>
      </trkpt>
      <trkpt lat="45.1093" lon="4.82161">
        <ele>96.6</ele>
        <time>2021-03-28T12:21:25Z</time>
      </trkpt>
      <trkpt lat="45.10942" lon="4.82186">
        <ele>96.6</ele>
        <time>2021-03-28T12:21:29Z</time>
      </trkpt>
      <trkpt lat="45.10955" lon="4.8221">
        <ele>96.2</ele>
        <time>2021-03-28T12:21:33Z</time>
      </trkpt>
      <trkpt lat="45.10967" lon="4.82235">
        <ele>95.8</ele>
        <time>2021-03-28T12:21:37Z</time>
      </trkpt>
      <trkpt lat="45.1098" lon="4.82259">
        <ele>97.4</ele>
        <time>2021-03-28T12:21:41Z</time>
      </trkpt>
      <trkpt lat="45.10992" lon="4.82283">
        <ele>96.4</ele>
        <time>2021-03-28T12:21:45Z</time>
      </trkpt>
      <trkpt lat="45.11001" lon="4.82307">
        <ele>96.8</ele>
        <time>2021-03-28T12:21:49Z</time>
      </trkpt>
      <trkpt lat="45.11009" lon="4.8233">
        <ele>97.2</ele>
        <time>2021-03-28T12:21:53Z</time>
      </trkpt>
      <trkpt lat="45.11021" lon="4.82355">
        <ele>97</ele>
        <time>2021-03-28T12:21:57Z</time>
      </trkpt>
      <trkpt lat="45.11033" lon="4.82379">
        <ele>97</ele>
        <time>2021-03-28T12:22:01Z</time>
      </trkpt>
      <trkpt lat="45.11042" lon="4.82403">
        <ele>96.4</ele>
        <time>2021-03-28T12:22:05Z</time>
      </trkpt>
      <trkpt lat="45.11051" lon="4.82426">
        <ele>97.4</ele>
        <time>2021-03-28T12:22:09Z</time>
      </trkpt>
      <trkpt lat="45.11058" lon="4.82449">
        <ele>97.4</ele>
        <time>2021-03-28T12:22:13Z</time>
      </trkpt>
      <trkpt lat="45.11065" lon="4.82471">
        <ele>97</ele>
        <time>2021-03-28T12:22:17Z</time>
      </trkpt>
      <trkpt lat="45.11074" lon="4.82494">
        <ele>97.2</ele>
        <time>2021-03-28T12:22:21Z</time>
      </trkpt>
      <trkpt lat="45.11074" lon="4.82501">
        <ele>98</ele>
        <time>2021-03-28T12:22:25Z</time>
      </trkpt>
      <trkpt lat="45.11087" lon="4.82507">
        <ele>97.6</ele>
        <time>2021-03-28T12:24:22Z</time>
      </trkpt>
      <trkpt lat="45.11094" lon="4.82514">
        <ele>98</ele>
        <time>2021-03-28T12:24:26Z</time>
      </trkpt>
      <trkpt lat="45.11096" lon="4.82526">
        <ele>98</ele>
        <time>2021-03-28T12:24:30Z</time>
      </trkpt>
      <trkpt lat="45.11099" lon="4.8254">
        <ele>98.2</ele>
        <time>2021-03-28T12:24:34Z</time>
      </trkpt>
      <trkpt lat="45.11102" lon="4.82556">
        <ele>98.4</ele>
        <time>2021-03-28T12:24:38Z</time>
      </trkpt>
      <trkpt lat="45.11105" lon="4.8257">
        <ele>98.6</ele>
        <time>2021-03-28T12:24:42Z</time>
      </trkpt>
      <trkpt lat="45.11105" lon="4.82584">
        <ele>98.4</ele>
        <time>2021-03-28T12:24:46Z</time>
      </trkpt>
      <trkpt lat="45.11096" lon="4.82595">
        <ele>98</ele>
        <time>2021-03-28T12:24:50Z</time>
      </trkpt>
      <trkpt lat="45.11082" lon="4.82606">
        <ele>97.6</ele>
        <time>2021-03-28T12:24:54Z</time>
      </trkpt>
      <trkpt lat="45.11067" lon="4.82617">
        <ele>97.6</ele>
        <time>2021-03-28T12:24:58Z</time>
      </trkpt>
      <trkpt lat="45.11053" lon="4.82629">
        <ele>97.2</ele>
        <time>2021-03-28T12:25:02Z</time>
      </trkpt>
      <trkpt lat="45.11037" lon="4.82641">
        <ele>97.6</ele>
        <time>2021-03-28T12:25:06Z</time>
      </trkpt>
      <trkpt lat="45.11018" lon="4.82654">
        <ele>97</ele>
        <time>2021-03-28T12:25:10Z</time>
      </trkpt>
      <trkpt lat="45.10999" lon="4.82666">
        <ele>96</ele>
        <time>2021-03-28T12:25:14Z</time>
      </trkpt>
      <trkpt lat="45.10979" lon="4.82678">
        <ele>96</ele>
        <time>2021-03-28T12:25:18Z</time>
      </trkpt>
      <trkpt lat="45.10958" lon="4.82691">
        <ele>95.4</ele>
        <time>2021-03-28T12:25:22Z</time>
      </trkpt>
      <trkpt lat="45.10937" lon="4.82704">
        <ele>95.2</ele>
        <time>2021-03-28T12:25:26Z</time>
      </trkpt>
      <trkpt lat="45.10916" lon="4.82717">
        <ele>95</ele>
        <time>2021-03-28T12:25:30Z</time>
      </trkpt>
      <trkpt lat="45.10895" lon="4.82732">
        <ele>93.4</ele>
        <time>2021-03-28T12:25:34Z</time>
      </trkpt>
      <trkpt lat="45.10874" lon="4.82747">
        <ele>92.2</ele>
        <time>2021-03-28T12:25:38Z</time>
      </trkpt>
      <trkpt lat="45.10869" lon="4.82764">
        <ele>92.6</ele>
        <time>2021-03-28T12:25:42Z</time>
      </trkpt>
      <trkpt lat="45.10864" lon="4.82762">
        <ele>93.6</ele>
        <time>2021-03-28T12:25:46Z</time>
      </trkpt>
      <trkpt lat="45.1085" lon="4.82758">
        <ele>93</ele>
        <time>2021-03-28T12:26:32Z</time>
      </trkpt>
      <trkpt lat="45.10833" lon="4.82768">
        <ele>93.2</ele>
        <time>2021-03-28T12:26:36Z</time>
      </trkpt>
      <trkpt lat="45.10814" lon="4.82778">
        <ele>93.2</ele>
        <time>2021-03-28T12:26:40Z</time>
      </trkpt>
      <trkpt lat="45.10794" lon="4.8279">
        <ele>92.8</ele>
        <time>2021-03-28T12:26:44Z</time>
      </trkpt>
      <trkpt lat="45.10774" lon="4.828">
        <ele>92.2</ele>
        <time>2021-03-28T12:26:48Z</time>
      </trkpt>
      <trkpt lat="45.10754" lon="4.82811">
        <ele>92.6</ele>
        <time>2021-03-28T12:26:52Z</time>
      </trkpt>
      <trkpt lat="45.10734" lon="4.82822">
        <ele>92.8</ele>
        <time>2021-03-28T12:26:56Z</time>
      </trkpt>
      <trkpt lat="45.10714" lon="4.82834">
        <ele>93.2</ele>
        <time>2021-03-28T12:27:00Z</time>
      </trkpt>
      <trkpt lat="45.10695" lon="4.82846">
        <ele>93.4</ele>
        <time>2021-03-28T12:27:04Z</time>
      </trkpt>
      <trkpt lat="45.10675" lon="4.82858">
        <ele>93.8</ele>
        <time>2021-03-28T12:27:08Z</time>
      </trkpt>
      <trkpt lat="45.10656" lon="4.82873">
        <ele>93.4</ele>
        <time>2021-03-28T12:27:12Z</time>
      </trkpt>
      <trkpt lat="45.10636" lon="4.82886">
        <ele>94.2</ele>
        <time>2021-03-28T12:27:16Z</time>
      </trkpt>
      <trkpt lat="45.10616" lon="4.829">
        <ele>94.2</ele>
        <time>2021-03-28T12:27:20Z</time>
      </trkpt>
      <trkpt lat="45.10597" lon="4.82911">
        <ele>94.6</ele>
        <time>2021-03-28T12:27:24Z</time>
      </trkpt>
      <trkpt lat="45.10581" lon="4.82925">
        <ele>94</ele>
        <time>2021-03-28T12:27:28Z</time>
      </trkpt>
      <trkpt lat="45.10579" lon="4.82948">
        <ele>93</ele>
        <time>2021-03-28T12:27:32Z</time>
      </trkpt>
      <trkpt lat="45.10592" lon="4.82971">
        <ele>93</ele>
        <time>2021-03-28T12:27:36Z</time>
      </trkpt>
      <trkpt lat="45.10601" lon="4.82993">
        <ele>93.6</ele>
        <time>2021-03-28T12:27:40Z</time>
      </trkpt>
      <trkpt lat="45.10608" lon="4.83018">
        <ele>94.4</ele>
        <time>2021-03-28T12:27:44Z</time>
      </trkpt>
      <trkpt lat="45.10613" lon="4.83044">
        <ele>94</ele>
        <time>2021-03-28T12:27:48Z</time>
      </trkpt>
      <trkpt lat="45.10619" lon="4.8307">
        <ele>94.4</ele>
        <time>2021-03-28T12:27:52Z</time>
      </trkpt>
      <trkpt lat="45.10629" lon="4.83094">
        <ele>94.2</ele>
        <time>2021-03-28T12:27:56Z</time>
      </trkpt>
      <trkpt lat="45.10641" lon="4.83117">
        <ele>94.2</ele>
        <time>2021-03-28T12:28:00Z</time>
      </trkpt>
      <trkpt lat="45.10647" lon="4.83138">
        <ele>95.2</ele>
        <time>2021-03-28T12:28:04Z</time>
      </trkpt>
      <trkpt lat="45.10653" lon="4.83162">
        <ele>96</ele>
        <time>2021-03-28T12:28:08Z</time>
      </trkpt>
      <trkpt lat="45.10656" lon="4.83186">
        <ele>97.2</ele>
        <time>2021-03-28T12:28:12Z</time>
      </trkpt>
      <trkpt lat="45.10655" lon="4.83206">
        <ele>97.4</ele>
        <time>2021-03-28T12:28:16Z</time>
      </trkpt>
      <trkpt lat="45.10647" lon="4.83222">
        <ele>98.2</ele>
        <time>2021-03-28T12:28:20Z</time>
      </trkpt>
      <trkpt lat="45.1064" lon="4.83235">
        <ele>99.2</ele>
        <time>2021-03-28T12:28:24Z</time>
      </trkpt>
      <trkpt lat="45.10635" lon="4.83252">
        <ele>99</ele>
        <time>2021-03-28T12:28:28Z</time>
      </trkpt>
      <trkpt lat="45.10632" lon="4.83272">
        <ele>100.4</ele>
        <time>2021-03-28T12:28:32Z</time>
      </trkpt>
      <trkpt lat="45.10636" lon="4.8329">
        <ele>100.4</ele>
        <time>2021-03-28T12:28:36Z</time>
      </trkpt>
      <trkpt lat="45.10648" lon="4.83299">
        <ele>100.4</ele>
        <time>2021-03-28T12:28:40Z</time>
      </trkpt>
      <trkpt lat="45.10662" lon="4.83299">
        <ele>100.8</ele>
        <time>2021-03-28T12:28:44Z</time>
      </trkpt>
      <trkpt lat="45.10677" lon="4.83297">
        <ele>101.2</ele>
        <time>2021-03-28T12:28:48Z</time>
      </trkpt>
      <trkpt lat="45.1069" lon="4.83295">
        <ele>101.8</ele>
        <time>2021-03-28T12:28:52Z</time>
      </trkpt>
      <trkpt lat="45.10702" lon="4.83294">
        <ele>103.2</ele>
        <time>2021-03-28T12:28:56Z</time>
      </trkpt>
      <trkpt lat="45.10712" lon="4.83295">
        <ele>103.4</ele>
        <time>2021-03-28T12:29:00Z</time>
      </trkpt>
      <trkpt lat="45.10722" lon="4.83296">
        <ele>104</ele>
        <time>2021-03-28T12:29:04Z</time>
      </trkpt>
      <trkpt lat="45.1073" lon="4.83297">
        <ele>104.6</ele>
        <time>2021-03-28T12:29:08Z</time>
      </trkpt>
      <trkpt lat="45.10738" lon="4.83297">
        <ele>105.4</ele>
        <time>2021-03-28T12:29:12Z</time>
      </trkpt>
      <trkpt lat="45.10746" lon="4.83299">
        <ele>105.6</ele>
        <time>2021-03-28T12:29:16Z</time>
      </trkpt>
      <trkpt lat="45.10753" lon="4.833">
        <ele>105.8</ele>
        <time>2021-03-28T12:29:20Z</time>
      </trkpt>
      <trkpt lat="45.10761" lon="4.83301">
        <ele>107.2</ele>
        <time>2021-03-28T12:29:24Z</time>
      </trkpt>
      <trkpt lat="45.1077" lon="4.83302">
        <ele>107.8</ele>
        <time>2021-03-28T12:29:28Z</time>
      </trkpt>
      <trkpt lat="45.10778" lon="4.83302">
        <ele>108</ele>
        <time>2021-03-28T12:29:32Z</time>
      </trkpt>
      <trkpt lat="45.10786" lon="4.833">
        <ele>108.4</ele>
        <time>2021-03-28T12:29:36Z</time>
      </trkpt>
      <trkpt lat="45.10795" lon="4.833">
        <ele>110</ele>
        <time>2021-03-28T12:29:40Z</time>
      </trkpt>
      <trkpt lat="45.10803" lon="4.83297">
        <ele>110</ele>
        <time>2021-03-28T12:29:44Z</time>
      </trkpt>
      <trkpt lat="45.1081" lon="4.8329">
        <ele>110.6</ele>
        <time>2021-03-28T12:29:48Z</time>
      </trkpt>
      <trkpt lat="45.10815" lon="4.83281">
        <ele>111.2</ele>
        <time>2021-03-28T12:29:52Z</time>
      </trkpt>
      <trkpt lat="45.10821" lon="4.83273">
        <ele>112.2</ele>
        <time>2021-03-28T12:29:56Z</time>
      </trkpt>
      <trkpt lat="45.10828" lon="4.83267">
        <ele>112.2</ele>
        <time>2021-03-28T12:30:00Z</time>
      </trkpt>
      <trkpt lat="45.10833" lon="4.83262">
        <ele>112.8</ele>
        <time>2021-03-28T12:30:04Z</time>
      </trkpt>
      <trkpt lat="45.10838" lon="4.83255">
        <ele>113</ele>
        <time>2021-03-28T12:30:08Z</time>
      </trkpt>
      <trkpt lat="45.10844" lon="4.83245">
        <ele>113.8</ele>
        <time>2021-03-28T12:30:12Z</time>
      </trkpt>
      <trkpt lat="45.10848" lon="4.83236">
        <ele>114.8</ele>
        <time>2021-03-28T12:30:16Z</time>
      </trkpt>
      <trkpt lat="45.10851" lon="4.83224">
        <ele>115.6</ele>
        <time>2021-03-28T12:30:20Z</time>
      </trkpt>
      <trkpt lat="45.10853" lon="4.83213">
        <ele>115.6</ele>
        <time>2021-03-28T12:30:24Z</time>
      </trkpt>
      <trkpt lat="45.10857" lon="4.83201">
        <ele>116</ele>
        <time>2021-03-28T12:30:28Z</time>
      </trkpt>
      <trkpt lat="45.10861" lon="4.8319">
        <ele>115.8</ele>
        <time>2021-03-28T12:30:32Z</time>
      </trkpt>
      <trkpt lat="45.10869" lon="4.83178">
        <ele>116.2</ele>
        <time>2021-03-28T12:30:36Z</time>
      </trkpt>
      <trkpt lat="45.10879" lon="4.8317">
        <ele>116.2</ele>
        <time>2021-03-28T12:30:40Z</time>
      </trkpt>
      <trkpt lat="45.10892" lon="4.83167">
        <ele>116.8</ele>
        <time>2021-03-28T12:30:44Z</time>
      </trkpt>
      <trkpt lat="45.10904" lon="4.83166">
        <ele>117</ele>
        <time>2021-03-28T12:30:48Z</time>
      </trkpt>
      <trkpt lat="45.10916" lon="4.83164">
        <ele>118</ele>
        <time>2021-03-28T12:30:52Z</time>
      </trkpt>
      <trkpt lat="45.10927" lon="4.83165">
        <ele>117.8</ele>
        <time>2021-03-28T12:30:56Z</time>
      </trkpt>
      <trkpt lat="45.10939" lon="4.83167">
        <ele>118.4</ele>
        <time>2021-03-28T12:31:00Z</time>
      </trkpt>
      <trkpt lat="45.1095" lon="4.8317">
        <ele>118.2</ele>
        <time>2021-03-28T12:31:04Z</time>
      </trkpt>
      <trkpt lat="45.10961" lon="4.83175">
        <ele>118.6</ele>
        <time>2021-03-28T12:31:08Z</time>
      </trkpt>
      <trkpt lat="45.10971" lon="4.83182">
        <ele>120.4</ele>
        <time>2021-03-28T12:31:12Z</time>
      </trkpt>
      <trkpt lat="45.10981" lon="4.8319">
        <ele>119.6</ele>
        <time>2021-03-28T12:31:16Z</time>
      </trkpt>
      <trkpt lat="45.10989" lon="4.83199">
        <ele>120.2</ele>
        <time>2021-03-28T12:31:20Z</time>
      </trkpt>
      <trkpt lat="45.10997" lon="4.83209">
        <ele>121</ele>
        <time>2021-03-28T12:31:24Z</time>
      </trkpt>
      <trkpt lat="45.11006" lon="4.83218">
        <ele>121.2</ele>
        <time>2021-03-28T12:31:28Z</time>
      </trkpt>
      <trkpt lat="45.11017" lon="4.83224">
        <ele>121.6</ele>
        <time>2021-03-28T12:31:32Z</time>
      </trkpt>
      <trkpt lat="45.11028" lon="4.8322">
        <ele>121.4</ele>
        <time>2021-03-28T12:31:36Z</time>
      </trkpt>
      <trkpt lat="45.11037" lon="4.83213">
        <ele>122.6</ele>
        <time>2021-03-28T12:31:40Z</time>
      </trkpt>
      <trkpt lat="45.11046" lon="4.83205">
        <ele>123.2</ele>
        <time>2021-03-28T12:31:44Z</time>
      </trkpt>
      <trkpt lat="45.11055" lon="4.83204">
        <ele>123.6</ele>
        <time>2021-03-28T12:31:48Z</time>
      </trkpt>
      <trkpt lat="45.11066" lon="4.83205">
        <ele>124.4</ele>
        <time>2021-03-28T12:31:52Z</time>
      </trkpt>
      <trkpt lat="45.11075" lon="4.83204">
        <ele>124.8</ele>
        <time>2021-03-28T12:31:56Z</time>
      </trkpt>
      <trkpt lat="45.11083" lon="4.832">
        <ele>125.8</ele>
        <time>2021-03-28T12:32:00Z</time>
      </trkpt>
      <trkpt lat="45.1109" lon="4.83189">
        <ele>126.2</ele>
        <time>2021-03-28T12:32:47Z</time>
      </trkpt>
      <trkpt lat="45.11097" lon="4.8318">
        <ele>126.2</ele>
        <time>2021-03-28T12:32:51Z</time>
      </trkpt>
      <trkpt lat="45.11103" lon="4.83174">
        <ele>127.2</ele>
        <time>2021-03-28T12:32:55Z</time>
      </trkpt>
      <trkpt lat="45.1111" lon="4.83168">
        <ele>127.8</ele>
        <time>2021-03-28T12:32:59Z</time>
      </trkpt>
      <trkpt lat="45.11117" lon="4.83162">
        <ele>128.2</ele>
        <time>2021-03-28T12:33:03Z</time>
      </trkpt>
      <trkpt lat="45.11123" lon="4.83157">
        <ele>129.2</ele>
        <time>2021-03-28T12:33:07Z</time>
      </trkpt>
      <trkpt lat="45.1113" lon="4.83153">
        <ele>129.2</ele>
        <time>2021-03-28T12:33:11Z</time>
      </trkpt>
      <trkpt lat="45.11136" lon="4.83146">
        <ele>129.4</ele>
        <time>2021-03-28T12:33:15Z</time>
      </trkpt>
      <trkpt lat="45.11142" lon="4.8314">
        <ele>130.6</ele>
        <time>2021-03-28T12:33:19Z</time>
      </trkpt>
      <trkpt lat="45.11148" lon="4.83134">
        <ele>130.2</ele>
        <time>2021-03-28T12:33:23Z</time>
      </trkpt>
      <trkpt lat="45.11154" lon="4.83127">
        <ele>131</ele>
        <time>2021-03-28T12:33:27Z</time>
      </trkpt>
      <trkpt lat="45.11161" lon="4.83122">
        <ele>131.8</ele>
        <time>2021-03-28T12:33:31Z</time>
      </trkpt>
      <trkpt lat="45.11167" lon="4.83117">
        <ele>132.6</ele>
        <time>2021-03-28T12:33:35Z</time>
      </trkpt>
      <trkpt lat="45.11173" lon="4.83115">
        <ele>133.6</ele>
        <time>2021-03-28T12:33:39Z</time>
      </trkpt>
      <trkpt lat="45.1118" lon="4.83114">
        <ele>134.2</ele>
        <time>2021-03-28T12:33:43Z</time>
      </trkpt>
      <trkpt lat="45.11187" lon="4.83112">
        <ele>135.4</ele>
        <time>2021-03-28T12:33:47Z</time>
      </trkpt>
      <trkpt lat="45.11194" lon="4.83108">
        <ele>135.6</ele>
        <time>2021-03-28T12:33:51Z</time>
      </trkpt>
      <trkpt lat="45.11202" lon="4.83105">
        <ele>135.4</ele>
        <time>2021-03-28T12:33:55Z</time>
      </trkpt>
      <trkpt lat="45.11209" lon="4.83105">
        <ele>136.8</ele>
        <time>2021-03-28T12:33:59Z</time>
      </trkpt>
      <trkpt lat="45.11216" lon="4.83106">
        <ele>137.4</ele>
        <time>2021-03-28T12:34:03Z</time>
      </trkpt>
      <trkpt lat="45.11223" lon="4.83107">
        <ele>138</ele>
        <time>2021-03-28T12:34:07Z</time>
      </trkpt>
      <trkpt lat="45.11229" lon="4.83109">
        <ele>138.8</ele>
        <time>2021-03-28T12:34:11Z</time>
      </trkpt>
      <trkpt lat="45.11235" lon="4.83112">
        <ele>140</ele>
        <time>2021-03-28T12:34:15Z</time>
      </trkpt>
      <trkpt lat="45.11241" lon="4.83113">
        <ele>140</ele>
        <time>2021-03-28T12:34:19Z</time>
      </trkpt>
      <trkpt lat="45.11247" lon="4.83115">
        <ele>141.8</ele>
        <time>2021-03-28T12:34:23Z</time>
      </trkpt>
      <trkpt lat="45.11252" lon="4.83117">
        <ele>142.4</ele>
        <time>2021-03-28T12:34:27Z</time>
      </trkpt>
      <trkpt lat="45.11258" lon="4.83119">
        <ele>143</ele>
        <time>2021-03-28T12:34:31Z</time>
      </trkpt>
      <trkpt lat="45.11263" lon="4.83121">
        <ele>144</ele>
        <time>2021-03-28T12:34:35Z</time>
      </trkpt>
      <trkpt lat="45.11269" lon="4.83122">
        <ele>144.4</ele>
        <time>2021-03-28T12:34:39Z</time>
      </trkpt>
      <trkpt lat="45.11275" lon="4.83123">
        <ele>145.6</ele>
        <time>2021-03-28T12:34:43Z</time>
      </trkpt>
      <trkpt lat="45.1128" lon="4.83123">
        <ele>146.2</ele>
        <time>2021-03-28T12:34:47Z</time>
      </trkpt>
      <trkpt lat="45.11286" lon="4.83123">
        <ele>146.8</ele>
        <time>2021-03-28T12:34:51Z</time>
      </trkpt>
      <trkpt lat="45.11291" lon="4.83123">
        <ele>147.2</ele>
        <time>2021-03-28T12:34:55Z</time>
      </trkpt>
      <trkpt lat="45.11297" lon="4.83123">
        <ele>147.8</ele>
        <time>2021-03-28T12:34:59Z</time>
      </trkpt>
      <trkpt lat="45.11303" lon="4.83122">
        <ele>148.2</ele>
        <time>2021-03-28T12:35:03Z</time>
      </trkpt>
      <trkpt lat="45.11309" lon="4.83121">
        <ele>149.2</ele>
        <time>2021-03-28T12:35:07Z</time>
      </trkpt>
      <trkpt lat="45.11316" lon="4.83121">
        <ele>149.6</ele>
        <time>2021-03-28T12:35:11Z</time>
      </trkpt>
      <trkpt lat="45.11322" lon="4.83119">
        <ele>150</ele>
        <time>2021-03-28T12:35:15Z</time>
      </trkpt>
      <trkpt lat="45.11328" lon="4.83119">
        <ele>151.8</ele>
        <time>2021-03-28T12:35:19Z</time>
      </trkpt>
      <trkpt lat="45.11335" lon="4.83119">
        <ele>152.6</ele>
        <time>2021-03-28T12:35:23Z</time>
      </trkpt>
      <trkpt lat="45.1134" lon="4.83119">
        <ele>152.8</ele>
        <time>2021-03-28T12:35:27Z</time>
      </trkpt>
      <trkpt lat="45.11342" lon="4.83104">
        <ele>151.4</ele>
        <time>2021-03-28T12:35:43Z</time>
      </trkpt>
      <trkpt lat="45.11342" lon="4.83088">
        <ele>152</ele>
        <time>2021-03-28T12:35:47Z</time>
      </trkpt>
      <trkpt lat="45.11345" lon="4.83073">
        <ele>152.4</ele>
        <time>2021-03-28T12:35:51Z</time>
      </trkpt>
      <trkpt lat="45.11349" lon="4.83056">
        <ele>152.6</ele>
        <time>2021-03-28T12:35:55Z</time>
      </trkpt>
      <trkpt lat="45.11355" lon="4.83043">
        <ele>152.6</ele>
        <time>2021-03-28T12:35:59Z</time>
      </trkpt>
      <trkpt lat="45.11363" lon="4.8303">
        <ele>153.2</ele>
        <time>2021-03-28T12:36:03Z</time>
      </trkpt>
      <trkpt lat="45.11372" lon="4.83019">
        <ele>154.4</ele>
        <time>2021-03-28T12:36:07Z</time>
      </trkpt>
      <trkpt lat="45.11381" lon="4.83013">
        <ele>154.6</ele>
        <time>2021-03-28T12:36:11Z</time>
      </trkpt>
      <trkpt lat="45.11388" lon="4.83009">
        <ele>155.4</ele>
        <time>2021-03-28T12:36:15Z</time>
      </trkpt>
      <trkpt lat="45.11396" lon="4.83002">
        <ele>156.2</ele>
        <time>2021-03-28T12:36:19Z</time>
      </trkpt>
      <trkpt lat="45.11403" lon="4.82994">
        <ele>157.2</ele>
        <time>2021-03-28T12:36:23Z</time>
      </trkpt>
      <trkpt lat="45.1141" lon="4.82985">
        <ele>157.6</ele>
        <time>2021-03-28T12:36:27Z</time>
      </trkpt>
      <trkpt lat="45.11421" lon="4.82982">
        <ele>157</ele>
        <time>2021-03-28T12:36:31Z</time>
      </trkpt>
      <trkpt lat="45.11427" lon="4.82997">
        <ele>157</ele>
        <time>2021-03-28T12:36:35Z</time>
      </trkpt>
      <trkpt lat="45.11432" lon="4.83011">
        <ele>157.6</ele>
        <time>2021-03-28T12:36:39Z</time>
      </trkpt>
      <trkpt lat="45.11438" lon="4.83025">
        <ele>157.6</ele>
        <time>2021-03-28T12:36:43Z</time>
      </trkpt>
      <trkpt lat="45.11443" lon="4.83037">
        <ele>158.6</ele>
        <time>2021-03-28T12:36:47Z</time>
      </trkpt>
      <trkpt lat="45.11448" lon="4.83046">
        <ele>159.6</ele>
        <time>2021-03-28T12:36:51Z</time>
      </trkpt>
      <trkpt lat="45.11454" lon="4.83053">
        <ele>160.2</ele>
        <time>2021-03-28T12:36:55Z</time>
      </trkpt>
      <trkpt lat="45.11462" lon="4.8306">
        <ele>160.8</ele>
        <time>2021-03-28T12:36:59Z</time>
      </trkpt>
      <trkpt lat="45.11469" lon="4.83066">
        <ele>161.2</ele>
        <time>2021-03-28T12:37:03Z</time>
      </trkpt>
      <trkpt lat="45.11477" lon="4.83071">
        <ele>162.2</ele>
        <time>2021-03-28T12:37:07Z</time>
      </trkpt>
      <trkpt lat="45.11484" lon="4.83077">
        <ele>162.6</ele>
        <time>2021-03-28T12:37:11Z</time>
      </trkpt>
      <trkpt lat="45.11491" lon="4.83081">
        <ele>162.8</ele>
        <time>2021-03-28T12:37:15Z</time>
      </trkpt>
      <trkpt lat="45.115" lon="4.83084">
        <ele>163.2</ele>
        <time>2021-03-28T12:37:19Z</time>
      </trkpt>
      <trkpt lat="45.11509" lon="4.83083">
        <ele>164</ele>
        <time>2021-03-28T12:37:23Z</time>
      </trkpt>
      <trkpt lat="45.11518" lon="4.83084">
        <ele>164.4</ele>
        <time>2021-03-28T12:37:27Z</time>
      </trkpt>
      <trkpt lat="45.11526" lon="4.83088">
        <ele>164.8</ele>
        <time>2021-03-28T12:37:31Z</time>
      </trkpt>
      <trkpt lat="45.11532" lon="4.83093">
        <ele>165.6</ele>
        <time>2021-03-28T12:37:35Z</time>
      </trkpt>
      <trkpt lat="45.11539" lon="4.83097">
        <ele>166.4</ele>
        <time>2021-03-28T12:37:39Z</time>
      </trkpt>
      <trkpt lat="45.11546" lon="4.831">
        <ele>166.4</ele>
        <time>2021-03-28T12:37:43Z</time>
      </trkpt>
      <trkpt lat="45.11552" lon="4.83103">
        <ele>167.6</ele>
        <time>2021-03-28T12:37:47Z</time>
      </trkpt>
      <trkpt lat="45.11558" lon="4.83107">
        <ele>167.6</ele>
        <time>2021-03-28T12:37:51Z</time>
      </trkpt>
      <trkpt lat="45.11565" lon="4.83109">
        <ele>168.4</ele>
        <time>2021-03-28T12:37:55Z</time>
      </trkpt>
      <trkpt lat="45.1157" lon="4.83113">
        <ele>168.6</ele>
        <time>2021-03-28T12:37:59Z</time>
      </trkpt>
      <trkpt lat="45.11576" lon="4.83116">
        <ele>169.6</ele>
        <time>2021-03-28T12:38:03Z</time>
      </trkpt>
      <trkpt lat="45.11582" lon="4.83119">
        <ele>170</ele>
        <time>2021-03-28T12:38:07Z</time>
      </trkpt>
      <trkpt lat="45.11588" lon="4.83121">
        <ele>171.2</ele>
        <time>2021-03-28T12:38:11Z</time>
      </trkpt>
      <trkpt lat="45.11594" lon="4.83125">
        <ele>172.4</ele>
        <time>2021-03-28T12:38:15Z</time>
      </trkpt>
      <trkpt lat="45.11599" lon="4.83128">
        <ele>173</ele>
        <time>2021-03-28T12:38:19Z</time>
      </trkpt>
      <trkpt lat="45.11604" lon="4.83131">
        <ele>173.6</ele>
        <time>2021-03-28T12:38:23Z</time>
      </trkpt>
      <trkpt lat="45.11609" lon="4.83133">
        <ele>174.4</ele>
        <time>2021-03-28T12:38:27Z</time>
      </trkpt>
      <trkpt lat="45.11613" lon="4.83138">
        <ele>175.2</ele>
        <time>2021-03-28T12:38:31Z</time>
      </trkpt>
      <trkpt lat="45.11618" lon="4.83141">
        <ele>176</ele>
        <time>2021-03-28T12:38:35Z</time>
      </trkpt>
      <trkpt lat="45.11622" lon="4.83146">
        <ele>177</ele>
        <time>2021-03-28T12:38:39Z</time>
      </trkpt>
      <trkpt lat="45.11626" lon="4.8315">
        <ele>177.8</ele>
        <time>2021-03-28T12:38:43Z</time>
      </trkpt>
      <trkpt lat="45.1163" lon="4.83156">
        <ele>178.6</ele>
        <time>2021-03-28T12:38:47Z</time>
      </trkpt>
      <trkpt lat="45.11635" lon="4.83162">
        <ele>179.2</ele>
        <time>2021-03-28T12:38:51Z</time>
      </trkpt>
      <trkpt lat="45.11638" lon="4.83167">
        <ele>179.2</ele>
        <time>2021-03-28T12:38:55Z</time>
      </trkpt>
      <trkpt lat="45.11642" lon="4.83173">
        <ele>180.6</ele>
        <time>2021-03-28T12:38:59Z</time>
      </trkpt>
      <trkpt lat="45.11646" lon="4.83178">
        <ele>181.6</ele>
        <time>2021-03-28T12:39:03Z</time>
      </trkpt>
      <trkpt lat="45.11651" lon="4.83183">
        <ele>182</ele>
        <time>2021-03-28T12:39:07Z</time>
      </trkpt>
      <trkpt lat="45.11656" lon="4.83187">
        <ele>182.6</ele>
        <time>2021-03-28T12:39:11Z</time>
      </trkpt>
      <trkpt lat="45.1166" lon="4.83191">
        <ele>183.8</ele>
        <time>2021-03-28T12:39:15Z</time>
      </trkpt>
      <trkpt lat="45.11665" lon="4.83195">
        <ele>184.6</ele>
        <time>2021-03-28T12:39:19Z</time>
      </trkpt>
      <trkpt lat="45.1167" lon="4.83198">
        <ele>185.4</ele>
        <time>2021-03-28T12:39:23Z</time>
      </trkpt>
      <trkpt lat="45.11674" lon="4.83201">
        <ele>186.2</ele>
        <time>2021-03-28T12:39:27Z</time>
      </trkpt>
      <trkpt lat="45.11679" lon="4.83204">
        <ele>187.2</ele>
        <time>2021-03-28T12:39:31Z</time>
      </trkpt>
      <trkpt lat="45.11683" lon="4.83207">
        <ele>187.4</ele>
        <time>2021-03-28T12:39:35Z</time>
      </trkpt>
      <trkpt lat="45.11687" lon="4.8321">
        <ele>188</ele>
        <time>2021-03-28T12:39:39Z</time>
      </trkpt>
      <trkpt lat="45.11691" lon="4.83213">
        <ele>188.6</ele>
        <time>2021-03-28T12:39:43Z</time>
      </trkpt>
      <trkpt lat="45.11695" lon="4.83216">
        <ele>189.6</ele>
        <time>2021-03-28T12:39:47Z</time>
      </trkpt>
      <trkpt lat="45.11699" lon="4.83219">
        <ele>189.6</ele>
        <time>2021-03-28T12:39:51Z</time>
      </trkpt>
      <trkpt lat="45.11703" lon="4.83222">
        <ele>190.6</ele>
        <time>2021-03-28T12:39:55Z</time>
      </trkpt>
      <trkpt lat="45.11708" lon="4.83226">
        <ele>191</ele>
        <time>2021-03-28T12:39:59Z</time>
      </trkpt>
      <trkpt lat="45.11712" lon="4.83229">
        <ele>191.8</ele>
        <time>2021-03-28T12:40:03Z</time>
      </trkpt>
      <trkpt lat="45.11716" lon="4.83232">
        <ele>193</ele>
        <time>2021-03-28T12:40:07Z</time>
      </trkpt>
      <trkpt lat="45.11721" lon="4.83235">
        <ele>193</ele>
        <time>2021-03-28T12:40:11Z</time>
      </trkpt>
      <trkpt lat="45.11725" lon="4.83238">
        <ele>193.4</ele>
        <time>2021-03-28T12:40:15Z</time>
      </trkpt>
      <trkpt lat="45.1173" lon="4.83242">
        <ele>194</ele>
        <time>2021-03-28T12:40:19Z</time>
      </trkpt>
      <trkpt lat="45.11735" lon="4.83245">
        <ele>195</ele>
        <time>2021-03-28T12:40:23Z</time>
      </trkpt>
      <trkpt lat="45.1174" lon="4.83248">
        <ele>195.6</ele>
        <time>2021-03-28T12:40:27Z</time>
      </trkpt>
      <trkpt lat="45.11746" lon="4.83251">
        <ele>196.6</ele>
        <time>2021-03-28T12:40:31Z</time>
      </trkpt>
      <trkpt lat="45.11751" lon="4.83253">
        <ele>196.8</ele>
        <time>2021-03-28T12:40:35Z</time>
      </trkpt>
      <trkpt lat="45.11757" lon="4.83256">
        <ele>197.6</ele>
        <time>2021-03-28T12:40:39Z</time>
      </trkpt>
      <trkpt lat="45.11762" lon="4.83259">
        <ele>198.4</ele>
        <time>2021-03-28T12:40:43Z</time>
      </trkpt>
      <trkpt lat="45.11768" lon="4.83261">
        <ele>199</ele>
        <time>2021-03-28T12:40:47Z</time>
      </trkpt>
      <trkpt lat="45.11774" lon="4.83264">
        <ele>200.4</ele>
        <time>2021-03-28T12:40:51Z</time>
      </trkpt>
      <trkpt lat="45.1178" lon="4.83268">
        <ele>200.6</ele>
        <time>2021-03-28T12:40:55Z</time>
      </trkpt>
      <trkpt lat="45.11785" lon="4.83272">
        <ele>200.6</ele>
        <time>2021-03-28T12:40:59Z</time>
      </trkpt>
      <trkpt lat="45.11791" lon="4.83276">
        <ele>201.6</ele>
        <time>2021-03-28T12:41:03Z</time>
      </trkpt>
      <trkpt lat="45.11796" lon="4.8328">
        <ele>202</ele>
        <time>2021-03-28T12:41:07Z</time>
      </trkpt>
      <trkpt lat="45.11801" lon="4.83283">
        <ele>202.4</ele>
        <time>2021-03-28T12:41:11Z</time>
      </trkpt>
      <trkpt lat="45.11806" lon="4.83288">
        <ele>203</ele>
        <time>2021-03-28T12:41:15Z</time>
      </trkpt>
      <trkpt lat="45.11811" lon="4.83293">
        <ele>203.8</ele>
        <time>2021-03-28T12:41:19Z</time>
      </trkpt>
      <trkpt lat="45.11816" lon="4.83297">
        <ele>204.6</ele>
        <time>2021-03-28T12:41:23Z</time>
      </trkpt>
      <trkpt lat="45.11822" lon="4.83301">
        <ele>205</ele>
        <time>2021-03-28T12:41:27Z</time>
      </trkpt>
      <trkpt lat="45.11827" lon="4.83305">
        <ele>205.6</ele>
        <time>2021-03-28T12:41:31Z</time>
      </trkpt>
      <trkpt lat="45.11833" lon="4.8331">
        <ele>206</ele>
        <time>2021-03-28T12:41:35Z</time>
      </trkpt>
      <trkpt lat="45.11839" lon="4.83314">
        <ele>206.8</ele>
        <time>2021-03-28T12:41:39Z</time>
      </trkpt>
      <trkpt lat="45.11844" lon="4.83318">
        <ele>207.6</ele>
        <time>2021-03-28T12:41:43Z</time>
      </trkpt>
      <trkpt lat="45.1185" lon="4.83321">
        <ele>208.4</ele>
        <time>2021-03-28T12:41:47Z</time>
      </trkpt>
      <trkpt lat="45.11858" lon="4.83324">
        <ele>209.2</ele>
        <time>2021-03-28T12:42:11Z</time>
      </trkpt>
      <trkpt lat="45.11864" lon="4.83327">
        <ele>209.6</ele>
        <time>2021-03-28T12:42:15Z</time>
      </trkpt>
      <trkpt lat="45.11871" lon="4.83329">
        <ele>210.4</ele>
        <time>2021-03-28T12:42:19Z</time>
      </trkpt>
      <trkpt lat="45.11878" lon="4.83332">
        <ele>211.2</ele>
        <time>2021-03-28T12:42:23Z</time>
      </trkpt>
      <trkpt lat="45.11884" lon="4.83335">
        <ele>212.4</ele>
        <time>2021-03-28T12:42:27Z</time>
      </trkpt>
      <trkpt lat="45.11889" lon="4.83337">
        <ele>212.6</ele>
        <time>2021-03-28T12:42:31Z</time>
      </trkpt>
      <trkpt lat="45.11894" lon="4.8334">
        <ele>214</ele>
        <time>2021-03-28T12:42:35Z</time>
      </trkpt>
      <trkpt lat="45.11899" lon="4.83341">
        <ele>214.6</ele>
        <time>2021-03-28T12:42:39Z</time>
      </trkpt>
      <trkpt lat="45.11903" lon="4.83343">
        <ele>215.2</ele>
        <time>2021-03-28T12:42:43Z</time>
      </trkpt>
      <trkpt lat="45.11908" lon="4.83344">
        <ele>216</ele>
        <time>2021-03-28T12:42:47Z</time>
      </trkpt>
      <trkpt lat="45.11912" lon="4.83345">
        <ele>216.4</ele>
        <time>2021-03-28T12:42:51Z</time>
      </trkpt>
      <trkpt lat="45.11917" lon="4.83345">
        <ele>217.2</ele>
        <time>2021-03-28T12:42:55Z</time>
      </trkpt>
      <trkpt lat="45.11921" lon="4.83345">
        <ele>217.8</ele>
        <time>2021-03-28T12:42:59Z</time>
      </trkpt>
      <trkpt lat="45.11925" lon="4.83345">
        <ele>218.6</ele>
        <time>2021-03-28T12:43:03Z</time>
      </trkpt>
      <trkpt lat="45.11929" lon="4.83345">
        <ele>219.8</ele>
        <time>2021-03-28T12:43:07Z</time>
      </trkpt>
      <trkpt lat="45.11933" lon="4.83347">
        <ele>221.2</ele>
        <time>2021-03-28T12:43:11Z</time>
      </trkpt>
      <trkpt lat="45.11936" lon="4.83352">
        <ele>221.4</ele>
        <time>2021-03-28T12:43:15Z</time>
      </trkpt>
      <trkpt lat="45.11936" lon="4.83357">
        <ele>222.4</ele>
        <time>2021-03-28T12:43:19Z</time>
      </trkpt>
      <trkpt lat="45.11936" lon="4.83363">
        <ele>222.8</ele>
        <time>2021-03-28T12:43:23Z</time>
      </trkpt>
      <trkpt lat="45.11935" lon="4.83369">
        <ele>223</ele>
        <time>2021-03-28T12:43:27Z</time>
      </trkpt>
      <trkpt lat="45.11933" lon="4.83375">
        <ele>224.2</ele>
        <time>2021-03-28T12:43:31Z</time>
      </trkpt>
      <trkpt lat="45.1193" lon="4.83381">
        <ele>224.8</ele>
        <time>2021-03-28T12:43:35Z</time>
      </trkpt>
      <trkpt lat="45.11928" lon="4.83388">
        <ele>225</ele>
        <time>2021-03-28T12:43:39Z</time>
      </trkpt>
      <trkpt lat="45.11925" lon="4.83394">
        <ele>225.4</ele>
        <time>2021-03-28T12:43:43Z</time>
      </trkpt>
      <trkpt lat="45.11921" lon="4.834">
        <ele>226.2</ele>
        <time>2021-03-28T12:43:47Z</time>
      </trkpt>
      <trkpt lat="45.11918" lon="4.83405">
        <ele>226.8</ele>
        <time>2021-03-28T12:43:51Z</time>
      </trkpt>
      <trkpt lat="45.11915" lon="4.83411">
        <ele>227</ele>
        <time>2021-03-28T12:43:55Z</time>
      </trkpt>
      <trkpt lat="45.11911" lon="4.83417">
        <ele>227.6</ele>
        <time>2021-03-28T12:43:59Z</time>
      </trkpt>
      <trkpt lat="45.11908" lon="4.83424">
        <ele>228.4</ele>
        <time>2021-03-28T12:44:03Z</time>
      </trkpt>
      <trkpt lat="45.11905" lon="4.83432">
        <ele>228.4</ele>
        <time>2021-03-28T12:44:07Z</time>
      </trkpt>
      <trkpt lat="45.11903" lon="4.8344">
        <ele>229</ele>
        <time>2021-03-28T12:44:11Z</time>
      </trkpt>
      <trkpt lat="45.11902" lon="4.83448">
        <ele>229.8</ele>
        <time>2021-03-28T12:44:15Z</time>
      </trkpt>
      <trkpt lat="45.11899" lon="4.83457">
        <ele>230</ele>
        <time>2021-03-28T12:44:19Z</time>
      </trkpt>
      <trkpt lat="45.11893" lon="4.83466">
        <ele>229.6</ele>
        <time>2021-03-28T12:44:23Z</time>
      </trkpt>
      <trkpt lat="45.11886" lon="4.83471">
        <ele>230.4</ele>
        <time>2021-03-28T12:44:27Z</time>
      </trkpt>
      <trkpt lat="45.11879" lon="4.83473">
        <ele>231.6</ele>
        <time>2021-03-28T12:44:31Z</time>
      </trkpt>
      <trkpt lat="45.11871" lon="4.83475">
        <ele>232.8</ele>
        <time>2021-03-28T12:44:35Z</time>
      </trkpt>
      <trkpt lat="45.11864" lon="4.83478">
        <ele>232</ele>
        <time>2021-03-28T12:44:39Z</time>
      </trkpt>
      <trkpt lat="45.11857" lon="4.83481">
        <ele>233.4</ele>
        <time>2021-03-28T12:44:43Z</time>
      </trkpt>
      <trkpt lat="45.1185" lon="4.83485">
        <ele>233.4</ele>
        <time>2021-03-28T12:44:47Z</time>
      </trkpt>
      <trkpt lat="45.11843" lon="4.83491">
        <ele>233.6</ele>
        <time>2021-03-28T12:44:51Z</time>
      </trkpt>
      <trkpt lat="45.11837" lon="4.83498">
        <ele>234.2</ele>
        <time>2021-03-28T12:44:55Z</time>
      </trkpt>
      <trkpt lat="45.11836" lon="4.83506">
        <ele>234.8</ele>
        <time>2021-03-28T12:44:59Z</time>
      </trkpt>
      <trkpt lat="45.11836" lon="4.83513">
        <ele>235.2</ele>
        <time>2021-03-28T12:45:03Z</time>
      </trkpt>
      <trkpt lat="45.11837" lon="4.83519">
        <ele>236.2</ele>
        <time>2021-03-28T12:45:07Z</time>
      </trkpt>
      <trkpt lat="45.11837" lon="4.83525">
        <ele>236.6</ele>
        <time>2021-03-28T12:45:11Z</time>
      </trkpt>
      <trkpt lat="45.11835" lon="4.83531">
        <ele>238</ele>
        <time>2021-03-28T12:45:15Z</time>
      </trkpt>
      <trkpt lat="45.11833" lon="4.83536">
        <ele>238.8</ele>
        <time>2021-03-28T12:45:19Z</time>
      </trkpt>
      <trkpt lat="45.1183" lon="4.8354">
        <ele>239.4</ele>
        <time>2021-03-28T12:45:23Z</time>
      </trkpt>
      <trkpt lat="45.11827" lon="4.83543">
        <ele>239.8</ele>
        <time>2021-03-28T12:45:27Z</time>
      </trkpt>
      <trkpt lat="45.11823" lon="4.83548">
        <ele>240.4</ele>
        <time>2021-03-28T12:45:31Z</time>
      </trkpt>
      <trkpt lat="45.11821" lon="4.83553">
        <ele>242</ele>
        <time>2021-03-28T12:45:35Z</time>
      </trkpt>
      <trkpt lat="45.11819" lon="4.83558">
        <ele>242.6</ele>
        <time>2021-03-28T12:45:39Z</time>
      </trkpt>
      <trkpt lat="45.11816" lon="4.83563">
        <ele>243.4</ele>
        <time>2021-03-28T12:45:43Z</time>
      </trkpt>
      <trkpt lat="45.11815" lon="4.83569">
        <ele>244</ele>
        <time>2021-03-28T12:45:47Z</time>
      </trkpt>
      <trkpt lat="45.11814" lon="4.83574">
        <ele>244.6</ele>
        <time>2021-03-28T12:45:51Z</time>
      </trkpt>
      <trkpt lat="45.11813" lon="4.83579">
        <ele>245.2</ele>
        <time>2021-03-28T12:45:55Z</time>
      </trkpt>
      <trkpt lat="45.11812" lon="4.83584">
        <ele>245.8</ele>
        <time>2021-03-28T12:45:59Z</time>
      </trkpt>
      <trkpt lat="45.1181" lon="4.83589">
        <ele>246.6</ele>
        <time>2021-03-28T12:46:03Z</time>
      </trkpt>
      <trkpt lat="45.11807" lon="4.83594">
        <ele>247</ele>
        <time>2021-03-28T12:46:07Z</time>
      </trkpt>
      <trkpt lat="45.11804" lon="4.83599">
        <ele>247</ele>
        <time>2021-03-28T12:46:11Z</time>
      </trkpt>
      <trkpt lat="45.118" lon="4.83603">
        <ele>247.4</ele>
        <time>2021-03-28T12:46:15Z</time>
      </trkpt>
      <trkpt lat="45.11795" lon="4.83607">
        <ele>248.4</ele>
        <time>2021-03-28T12:46:19Z</time>
      </trkpt>
      <trkpt lat="45.11792" lon="4.83612">
        <ele>248.6</ele>
        <time>2021-03-28T12:46:23Z</time>
      </trkpt>
      <trkpt lat="45.11789" lon="4.83617">
        <ele>249.2</ele>
        <time>2021-03-28T12:46:27Z</time>
      </trkpt>
      <trkpt lat="45.11786" lon="4.83622">
        <ele>249.8</ele>
        <time>2021-03-28T12:46:31Z</time>
      </trkpt>
      <trkpt lat="45.11783" lon="4.83627">
        <ele>250.6</ele>
        <time>2021-03-28T12:46:35Z</time>
      </trkpt>
      <trkpt lat="45.11779" lon="4.83632">
        <ele>251.6</ele>
        <time>2021-03-28T12:46:39Z</time>
      </trkpt>
      <trkpt lat="45.11777" lon="4.83636">
        <ele>253.2</ele>
        <time>2021-03-28T12:46:43Z</time>
      </trkpt>
      <trkpt lat="45.11775" lon="4.8364">
        <ele>254.2</ele>
        <time>2021-03-28T12:46:47Z</time>
      </trkpt>
      <trkpt lat="45.11774" lon="4.83644">
        <ele>254.8</ele>
        <time>2021-03-28T12:46:51Z</time>
      </trkpt>
      <trkpt lat="45.11773" lon="4.83649">
        <ele>255.6</ele>
        <time>2021-03-28T12:46:55Z</time>
      </trkpt>
      <trkpt lat="45.11772" lon="4.83654">
        <ele>256.2</ele>
        <time>2021-03-28T12:46:59Z</time>
      </trkpt>
      <trkpt lat="45.11774" lon="4.83658">
        <ele>257.6</ele>
        <time>2021-03-28T12:47:03Z</time>
      </trkpt>
      <trkpt lat="45.11778" lon="4.83662">
        <ele>258.6</ele>
        <time>2021-03-28T12:47:07Z</time>
      </trkpt>
      <trkpt lat="45.11851" lon="4.83686">
        <ele>278</ele>
        <time>2021-03-28T12:51:02Z</time>
      </trkpt>
      <trkpt lat="45.11855" lon="4.83689">
        <ele>278.6</ele>
        <time>2021-03-28T12:51:06Z</time>
      </trkpt>
      <trkpt lat="45.11859" lon="4.8369">
        <ele>279</ele>
        <time>2021-03-28T12:51:10Z</time>
      </trkpt>
      <trkpt lat="45.11864" lon="4.83691">
        <ele>280</ele>
        <time>2021-03-28T12:51:14Z</time>
      </trkpt>
      <trkpt lat="45.11867" lon="4.8369">
        <ele>280.8</ele>
        <time>2021-03-28T12:51:18Z</time>
      </trkpt>
      <trkpt lat="45.11872" lon="4.8369">
        <ele>281</ele>
        <time>2021-03-28T12:51:22Z</time>
      </trkpt>
      <trkpt lat="45.11876" lon="4.83688">
        <ele>281.8</ele>
        <time>2021-03-28T12:51:26Z</time>
      </trkpt>
      <trkpt lat="45.1188" lon="4.83686">
        <ele>282.8</ele>
        <time>2021-03-28T12:51:30Z</time>
      </trkpt>
      <trkpt lat="45.11884" lon="4.83683">
        <ele>283.4</ele>
        <time>2021-03-28T12:51:34Z</time>
      </trkpt>
      <trkpt lat="45.11887" lon="4.83681">
        <ele>283.6</ele>
        <time>2021-03-28T12:51:38Z</time>
      </trkpt>
      <trkpt lat="45.11891" lon="4.83678">
        <ele>284.8</ele>
        <time>2021-03-28T12:51:42Z</time>
      </trkpt>
      <trkpt lat="45.11895" lon="4.83675">
        <ele>285.8</ele>
        <time>2021-03-28T12:51:46Z</time>
      </trkpt>
      <trkpt lat="45.11899" lon="4.83673">
        <ele>286.2</ele>
        <time>2021-03-28T12:51:50Z</time>
      </trkpt>
      <trkpt lat="45.11903" lon="4.83671">
        <ele>287</ele>
        <time>2021-03-28T12:51:54Z</time>
      </trkpt>
      <trkpt lat="45.11907" lon="4.83669">
        <ele>287.6</ele>
        <time>2021-03-28T12:51:58Z</time>
      </trkpt>
      <trkpt lat="45.11912" lon="4.83667">
        <ele>288.2</ele>
        <time>2021-03-28T12:52:02Z</time>
      </trkpt>
      <trkpt lat="45.11916" lon="4.83666">
        <ele>289.2</ele>
        <time>2021-03-28T12:52:06Z</time>
      </trkpt>
      <trkpt lat="45.1192" lon="4.83665">
        <ele>290.6</ele>
        <time>2021-03-28T12:52:10Z</time>
      </trkpt>
      <trkpt lat="45.11924" lon="4.83666">
        <ele>291.4</ele>
        <time>2021-03-28T12:52:14Z</time>
      </trkpt>
      <trkpt lat="45.11928" lon="4.83668">
        <ele>291.4</ele>
        <time>2021-03-28T12:52:18Z</time>
      </trkpt>
      <trkpt lat="45.11932" lon="4.83668">
        <ele>292.2</ele>
        <time>2021-03-28T12:52:22Z</time>
      </trkpt>
      <trkpt lat="45.11936" lon="4.83668">
        <ele>292.4</ele>
        <time>2021-03-28T12:52:26Z</time>
      </trkpt>
      <trkpt lat="45.11941" lon="4.83669">
        <ele>293.2</ele>
        <time>2021-03-28T12:52:30Z</time>
      </trkpt>
      <trkpt lat="45.11945" lon="4.83669">
        <ele>293.8</ele>
        <time>2021-03-28T12:52:34Z</time>
      </trkpt>
      <trkpt lat="45.11949" lon="4.83669">
        <ele>294.8</ele>
        <time>2021-03-28T12:52:38Z</time>
      </trkpt>
      <trkpt lat="45.11954" lon="4.83669">
        <ele>295.6</ele>
        <time>2021-03-28T12:52:42Z</time>
      </trkpt>
      <trkpt lat="45.11958" lon="4.83668">
        <ele>296</ele>
        <time>2021-03-28T12:52:46Z</time>
      </trkpt>
      <trkpt lat="45.11962" lon="4.83669">
        <ele>296.8</ele>
        <time>2021-03-28T12:52:50Z</time>
      </trkpt>
      <trkpt lat="45.11966" lon="4.83667">
        <ele>297.4</ele>
        <time>2021-03-28T12:52:54Z</time>
      </trkpt>
      <trkpt lat="45.1197" lon="4.83666">
        <ele>297.4</ele>
        <time>2021-03-28T12:52:58Z</time>
      </trkpt>
      <trkpt lat="45.11975" lon="4.83666">
        <ele>298.4</ele>
        <time>2021-03-28T12:53:02Z</time>
      </trkpt>
      <trkpt lat="45.11979" lon="4.83664">
        <ele>299.4</ele>
        <time>2021-03-28T12:53:06Z</time>
      </trkpt>
      <trkpt lat="45.11983" lon="4.83662">
        <ele>299</ele>
        <time>2021-03-28T12:53:10Z</time>
      </trkpt>
      <trkpt lat="45.11988" lon="4.8366">
        <ele>299.4</ele>
        <time>2021-03-28T12:53:14Z</time>
      </trkpt>
      <trkpt lat="45.11993" lon="4.83658">
        <ele>300.4</ele>
        <time>2021-03-28T12:53:18Z</time>
      </trkpt>
      <trkpt lat="45.11998" lon="4.83656">
        <ele>301</ele>
        <time>2021-03-28T12:53:22Z</time>
      </trkpt>
      <trkpt lat="45.12003" lon="4.83654">
        <ele>301.2</ele>
        <time>2021-03-28T12:53:26Z</time>
      </trkpt>
      <trkpt lat="45.12008" lon="4.83654">
        <ele>301.8</ele>
        <time>2021-03-28T12:53:30Z</time>
      </trkpt>
      <trkpt lat="45.12013" lon="4.83654">
        <ele>302.6</ele>
        <time>2021-03-28T12:53:34Z</time>
      </trkpt>
      <trkpt lat="45.12018" lon="4.83656">
        <ele>303.2</ele>
        <time>2021-03-28T12:53:38Z</time>
      </trkpt>
      <trkpt lat="45.12022" lon="4.83659">
        <ele>303.4</ele>
        <time>2021-03-28T12:53:42Z</time>
      </trkpt>
      <trkpt lat="45.12026" lon="4.83662">
        <ele>304.8</ele>
        <time>2021-03-28T12:53:46Z</time>
      </trkpt>
      <trkpt lat="45.1203" lon="4.83665">
        <ele>305.4</ele>
        <time>2021-03-28T12:53:50Z</time>
      </trkpt>
      <trkpt lat="45.12034" lon="4.83669">
        <ele>306</ele>
        <time>2021-03-28T12:53:54Z</time>
      </trkpt>
      <trkpt lat="45.12036" lon="4.83673">
        <ele>307.4</ele>
        <time>2021-03-28T12:53:58Z</time>
      </trkpt>
      <trkpt lat="45.1204" lon="4.83678">
        <ele>307.8</ele>
        <time>2021-03-28T12:54:02Z</time>
      </trkpt>
      <trkpt lat="45.12044" lon="4.83682">
        <ele>308.4</ele>
        <time>2021-03-28T12:54:06Z</time>
      </trkpt>
      <trkpt lat="45.12048" lon="4.83688">
        <ele>309</ele>
        <time>2021-03-28T12:54:10Z</time>
      </trkpt>
      <trkpt lat="45.12051" lon="4.83693">
        <ele>309</ele>
        <time>2021-03-28T12:54:14Z</time>
      </trkpt>
      <trkpt lat="45.12054" lon="4.837">
        <ele>309.6</ele>
        <time>2021-03-28T12:54:18Z</time>
      </trkpt>
      <trkpt lat="45.12056" lon="4.83707">
        <ele>310</ele>
        <time>2021-03-28T12:54:22Z</time>
      </trkpt>
      <trkpt lat="45.12057" lon="4.83713">
        <ele>310.8</ele>
        <time>2021-03-28T12:54:26Z</time>
      </trkpt>
      <trkpt lat="45.12059" lon="4.8372">
        <ele>311.2</ele>
        <time>2021-03-28T12:54:30Z</time>
      </trkpt>
      <trkpt lat="45.12061" lon="4.83727">
        <ele>311.2</ele>
        <time>2021-03-28T12:54:34Z</time>
      </trkpt>
      <trkpt lat="45.12066" lon="4.83732">
        <ele>311.4</ele>
        <time>2021-03-28T12:54:38Z</time>
      </trkpt>
      <trkpt lat="45.12072" lon="4.83736">
        <ele>311.6</ele>
        <time>2021-03-28T12:54:42Z</time>
      </trkpt>
      <trkpt lat="45.12078" lon="4.83739">
        <ele>312.2</ele>
        <time>2021-03-28T12:54:46Z</time>
      </trkpt>
      <trkpt lat="45.12084" lon="4.83743">
        <ele>312.2</ele>
        <time>2021-03-28T12:54:50Z</time>
      </trkpt>
      <trkpt lat="45.1209" lon="4.83746">
        <ele>312.8</ele>
        <time>2021-03-28T12:54:54Z</time>
      </trkpt>
      <trkpt lat="45.12096" lon="4.83749">
        <ele>312.8</ele>
        <time>2021-03-28T12:54:58Z</time>
      </trkpt>
      <trkpt lat="45.12102" lon="4.83751">
        <ele>313.4</ele>
        <time>2021-03-28T12:55:02Z</time>
      </trkpt>
      <trkpt lat="45.12107" lon="4.83754">
        <ele>314</ele>
        <time>2021-03-28T12:55:06Z</time>
      </trkpt>
      <trkpt lat="45.12113" lon="4.83757">
        <ele>314.4</ele>
        <time>2021-03-28T12:55:10Z</time>
      </trkpt>
      <trkpt lat="45.12118" lon="4.8376">
        <ele>315.2</ele>
        <time>2021-03-28T12:55:14Z</time>
      </trkpt>
      <trkpt lat="45.12124" lon="4.83765">
        <ele>315.2</ele>
        <time>2021-03-28T12:55:18Z</time>
      </trkpt>
      <trkpt lat="45.12129" lon="4.83769">
        <ele>316</ele>
        <time>2021-03-28T12:55:22Z</time>
      </trkpt>
      <trkpt lat="45.12133" lon="4.83775">
        <ele>316.8</ele>
        <time>2021-03-28T12:55:26Z</time>
      </trkpt>
      <trkpt lat="45.12136" lon="4.8378">
        <ele>316.8</ele>
        <time>2021-03-28T12:55:30Z</time>
      </trkpt>
      <trkpt lat="45.12141" lon="4.83785">
        <ele>317.2</ele>
        <time>2021-03-28T12:55:34Z</time>
      </trkpt>
      <trkpt lat="45.12145" lon="4.83789">
        <ele>317.4</ele>
        <time>2021-03-28T12:55:38Z</time>
      </trkpt>
      <trkpt lat="45.1215" lon="4.83794">
        <ele>318.2</ele>
        <time>2021-03-28T12:55:42Z</time>
      </trkpt>
      <trkpt lat="45.12153" lon="4.83799">
        <ele>318.4</ele>
        <time>2021-03-28T12:55:46Z</time>
      </trkpt>
      <trkpt lat="45.12157" lon="4.83804">
        <ele>319.2</ele>
        <time>2021-03-28T12:55:50Z</time>
      </trkpt>
      <trkpt lat="45.12161" lon="4.83809">
        <ele>319.8</ele>
        <time>2021-03-28T12:55:54Z</time>
      </trkpt>
      <trkpt lat="45.12166" lon="4.83813">
        <ele>321</ele>
        <time>2021-03-28T12:55:58Z</time>
      </trkpt>
      <trkpt lat="45.1217" lon="4.83817">
        <ele>321</ele>
        <time>2021-03-28T12:56:02Z</time>
      </trkpt>
      <trkpt lat="45.12175" lon="4.8382">
        <ele>320.8</ele>
        <time>2021-03-28T12:56:06Z</time>
      </trkpt>
      <trkpt lat="45.12179" lon="4.83822">
        <ele>322.2</ele>
        <time>2021-03-28T12:56:10Z</time>
      </trkpt>
      <trkpt lat="45.12183" lon="4.83826">
        <ele>322.6</ele>
        <time>2021-03-28T12:56:14Z</time>
      </trkpt>
      <trkpt lat="45.12188" lon="4.83829">
        <ele>323.4</ele>
        <time>2021-03-28T12:56:18Z</time>
      </trkpt>
      <trkpt lat="45.12192" lon="4.83832">
        <ele>324</ele>
        <time>2021-03-28T12:56:22Z</time>
      </trkpt>
      <trkpt lat="45.12197" lon="4.83834">
        <ele>324</ele>
        <time>2021-03-28T12:56:26Z</time>
      </trkpt>
      <trkpt lat="45.12202" lon="4.83838">
        <ele>324.4</ele>
        <time>2021-03-28T12:56:30Z</time>
      </trkpt>
      <trkpt lat="45.12208" lon="4.83842">
        <ele>324.4</ele>
        <time>2021-03-28T12:56:34Z</time>
      </trkpt>
      <trkpt lat="45.12214" lon="4.83845">
        <ele>325.2</ele>
        <time>2021-03-28T12:56:38Z</time>
      </trkpt>
      <trkpt lat="45.12222" lon="4.8385">
        <ele>325.8</ele>
        <time>2021-03-28T12:56:42Z</time>
      </trkpt>
      <trkpt lat="45.1223" lon="4.83854">
        <ele>325.8</ele>
        <time>2021-03-28T12:56:46Z</time>
      </trkpt>
      <trkpt lat="45.12238" lon="4.8386">
        <ele>325.4</ele>
        <time>2021-03-28T12:56:50Z</time>
      </trkpt>
      <trkpt lat="45.12246" lon="4.83864">
        <ele>326.4</ele>
        <time>2021-03-28T12:56:54Z</time>
      </trkpt>
      <trkpt lat="45.12254" lon="4.83869">
        <ele>326</ele>
        <time>2021-03-28T12:56:58Z</time>
      </trkpt>
      <trkpt lat="45.12263" lon="4.83871">
        <ele>326.6</ele>
        <time>2021-03-28T12:57:02Z</time>
      </trkpt>
      <trkpt lat="45.12273" lon="4.83871">
        <ele>326.6</ele>
        <time>2021-03-28T12:57:06Z</time>
      </trkpt>
      <trkpt lat="45.12283" lon="4.83873">
        <ele>327</ele>
        <time>2021-03-28T12:57:10Z</time>
      </trkpt>
      <trkpt lat="45.12293" lon="4.83875">
        <ele>327.4</ele>
        <time>2021-03-28T12:57:14Z</time>
      </trkpt>
      <trkpt lat="45.12302" lon="4.83877">
        <ele>327.2</ele>
        <time>2021-03-28T12:57:18Z</time>
      </trkpt>
      <trkpt lat="45.1231" lon="4.83881">
        <ele>328.2</ele>
        <time>2021-03-28T12:57:22Z</time>
      </trkpt>
      <trkpt lat="45.12317" lon="4.83887">
        <ele>328.8</ele>
        <time>2021-03-28T12:57:26Z</time>
      </trkpt>
      <trkpt lat="45.12322" lon="4.83896">
        <ele>329.6</ele>
        <time>2021-03-28T12:57:30Z</time>
      </trkpt>
      <trkpt lat="45.12325" lon="4.83907">
        <ele>331</ele>
        <time>2021-03-28T12:57:34Z</time>
      </trkpt>
      <trkpt lat="45.12327" lon="4.83918">
        <ele>330.8</ele>
        <time>2021-03-28T12:57:38Z</time>
      </trkpt>
      <trkpt lat="45.12328" lon="4.8393">
        <ele>331.4</ele>
        <time>2021-03-28T12:57:42Z</time>
      </trkpt>
      <trkpt lat="45.12329" lon="4.83942">
        <ele>331.6</ele>
        <time>2021-03-28T12:57:46Z</time>
      </trkpt>
      <trkpt lat="45.12331" lon="4.83954">
        <ele>331.8</ele>
        <time>2021-03-28T12:57:50Z</time>
      </trkpt>
      <trkpt lat="45.12336" lon="4.83966">
        <ele>332.6</ele>
        <time>2021-03-28T12:57:54Z</time>
      </trkpt>
      <trkpt lat="45.12342" lon="4.83974">
        <ele>332.4</ele>
        <time>2021-03-28T12:57:58Z</time>
      </trkpt>
      <trkpt lat="45.12351" lon="4.8398">
        <ele>332.6</ele>
        <time>2021-03-28T12:58:02Z</time>
      </trkpt>
      <trkpt lat="45.12361" lon="4.83985">
        <ele>332.6</ele>
        <time>2021-03-28T12:58:06Z</time>
      </trkpt>
      <trkpt lat="45.12372" lon="4.83989">
        <ele>333</ele>
        <time>2021-03-28T12:58:10Z</time>
      </trkpt>
      <trkpt lat="45.12384" lon="4.83992">
        <ele>333</ele>
        <time>2021-03-28T12:58:14Z</time>
      </trkpt>
      <trkpt lat="45.12395" lon="4.83995">
        <ele>333.6</ele>
        <time>2021-03-28T12:58:18Z</time>
      </trkpt>
      <trkpt lat="45.12406" lon="4.83999">
        <ele>334</ele>
        <time>2021-03-28T12:58:22Z</time>
      </trkpt>
      <trkpt lat="45.12418" lon="4.84003">
        <ele>333.8</ele>
        <time>2021-03-28T12:58:26Z</time>
      </trkpt>
      <trkpt lat="45.12429" lon="4.84006">
        <ele>333.8</ele>
        <time>2021-03-28T12:58:30Z</time>
      </trkpt>
      <trkpt lat="45.12441" lon="4.84009">
        <ele>334.2</ele>
        <time>2021-03-28T12:58:34Z</time>
      </trkpt>
      <trkpt lat="45.12453" lon="4.84012">
        <ele>334.6</ele>
        <time>2021-03-28T12:58:38Z</time>
      </trkpt>
      <trkpt lat="45.12464" lon="4.84015">
        <ele>335</ele>
        <time>2021-03-28T12:58:42Z</time>
      </trkpt>
      <trkpt lat="45.12476" lon="4.84018">
        <ele>335.4</ele>
        <time>2021-03-28T12:58:46Z</time>
      </trkpt>
      <trkpt lat="45.12488" lon="4.84022">
        <ele>335.8</ele>
        <time>2021-03-28T12:58:50Z</time>
      </trkpt>
      <trkpt lat="45.12499" lon="4.84026">
        <ele>336</ele>
        <time>2021-03-28T12:58:54Z</time>
      </trkpt>
      <trkpt lat="45.12511" lon="4.84031">
        <ele>336</ele>
        <time>2021-03-28T12:58:58Z</time>
      </trkpt>
      <trkpt lat="45.12523" lon="4.84037">
        <ele>336</ele>
        <time>2021-03-28T12:59:02Z</time>
      </trkpt>
      <trkpt lat="45.12535" lon="4.84044">
        <ele>336</ele>
        <time>2021-03-28T12:59:06Z</time>
      </trkpt>
      <trkpt lat="45.12547" lon="4.84052">
        <ele>335.4</ele>
        <time>2021-03-28T12:59:10Z</time>
      </trkpt>
      <trkpt lat="45.12558" lon="4.84063">
        <ele>336</ele>
        <time>2021-03-28T12:59:14Z</time>
      </trkpt>
      <trkpt lat="45.12567" lon="4.84075">
        <ele>335.8</ele>
        <time>2021-03-28T12:59:18Z</time>
      </trkpt>
      <trkpt lat="45.12576" lon="4.84087">
        <ele>336</ele>
        <time>2021-03-28T12:59:22Z</time>
      </trkpt>
      <trkpt lat="45.12583" lon="4.841">
        <ele>335.4</ele>
        <time>2021-03-28T12:59:26Z</time>
      </trkpt>
      <trkpt lat="45.1259" lon="4.84113">
        <ele>336.2</ele>
        <time>2021-03-28T12:59:30Z</time>
      </trkpt>
      <trkpt lat="45.12595" lon="4.84126">
        <ele>337</ele>
        <time>2021-03-28T12:59:34Z</time>
      </trkpt>
      <trkpt lat="45.126" lon="4.84141">
        <ele>337</ele>
        <time>2021-03-28T12:59:38Z</time>
      </trkpt>
      <trkpt lat="45.12606" lon="4.84155">
        <ele>337.2</ele>
        <time>2021-03-28T12:59:42Z</time>
      </trkpt>
      <trkpt lat="45.12613" lon="4.84176">
        <ele>337.2</ele>
        <time>2021-03-28T13:00:21Z</time>
      </trkpt>
      <trkpt lat="45.12617" lon="4.84187">
        <ele>337.4</ele>
        <time>2021-03-28T13:00:25Z</time>
      </trkpt>
      <trkpt lat="45.12624" lon="4.84205">
        <ele>336.6</ele>
        <time>2021-03-28T13:00:29Z</time>
      </trkpt>
      <trkpt lat="45.12636" lon="4.84231">
        <ele>333.8</ele>
        <time>2021-03-28T13:00:33Z</time>
      </trkpt>
      <trkpt lat="45.12648" lon="4.84255">
        <ele>332.8</ele>
        <time>2021-03-28T13:00:37Z</time>
      </trkpt>
      <trkpt lat="45.12662" lon="4.84281">
        <ele>330.8</ele>
        <time>2021-03-28T13:00:41Z</time>
      </trkpt>
      <trkpt lat="45.12679" lon="4.84307">
        <ele>330.4</ele>
        <time>2021-03-28T13:00:45Z</time>
      </trkpt>
      <trkpt lat="45.12691" lon="4.84335">
        <ele>329.8</ele>
        <time>2021-03-28T13:00:49Z</time>
      </trkpt>
      <trkpt lat="45.12703" lon="4.84362">
        <ele>328.6</ele>
        <time>2021-03-28T13:00:53Z</time>
      </trkpt>
      <trkpt lat="45.12703" lon="4.84362">
        <ele>329</ele>
        <time>2021-03-28T13:00:57Z</time>
      </trkpt>
      <trkpt lat="45.12711" lon="4.84381">
        <ele>329.8</ele>
        <time>2021-03-28T13:01:22Z</time>
      </trkpt>
      <trkpt lat="45.12717" lon="4.84389">
        <ele>329.4</ele>
        <time>2021-03-28T13:01:26Z</time>
      </trkpt>
      <trkpt lat="45.12724" lon="4.844">
        <ele>328.8</ele>
        <time>2021-03-28T13:01:30Z</time>
      </trkpt>
      <trkpt lat="45.12731" lon="4.84412">
        <ele>329</ele>
        <time>2021-03-28T13:01:34Z</time>
      </trkpt>
      <trkpt lat="45.12739" lon="4.84425">
        <ele>328.6</ele>
        <time>2021-03-28T13:01:38Z</time>
      </trkpt>
      <trkpt lat="45.12747" lon="4.84439">
        <ele>328</ele>
        <time>2021-03-28T13:01:42Z</time>
      </trkpt>
      <trkpt lat="45.12756" lon="4.84452">
        <ele>328.2</ele>
        <time>2021-03-28T13:01:46Z</time>
      </trkpt>
      <trkpt lat="45.12763" lon="4.84463">
        <ele>327.6</ele>
        <time>2021-03-28T13:01:50Z</time>
      </trkpt>
      <trkpt lat="45.12771" lon="4.84474">
        <ele>327.6</ele>
        <time>2021-03-28T13:01:54Z</time>
      </trkpt>
      <trkpt lat="45.12778" lon="4.84486">
        <ele>327.2</ele>
        <time>2021-03-28T13:01:58Z</time>
      </trkpt>
      <trkpt lat="45.12784" lon="4.84501">
        <ele>326.6</ele>
        <time>2021-03-28T13:02:02Z</time>
      </trkpt>
      <trkpt lat="45.12792" lon="4.8452">
        <ele>325.2</ele>
        <time>2021-03-28T13:02:06Z</time>
      </trkpt>
      <trkpt lat="45.12803" lon="4.84537">
        <ele>323.6</ele>
        <time>2021-03-28T13:02:10Z</time>
      </trkpt>
      <trkpt lat="45.12818" lon="4.84554">
        <ele>321.4</ele>
        <time>2021-03-28T13:02:14Z</time>
      </trkpt>
      <trkpt lat="45.12837" lon="4.84577">
        <ele>318</ele>
        <time>2021-03-28T13:02:18Z</time>
      </trkpt>
      <trkpt lat="45.12847" lon="4.84605">
        <ele>315.8</ele>
        <time>2021-03-28T13:02:22Z</time>
      </trkpt>
      <trkpt lat="45.12857" lon="4.84634">
        <ele>313.6</ele>
        <time>2021-03-28T13:02:26Z</time>
      </trkpt>
      <trkpt lat="45.12867" lon="4.84667">
        <ele>313.2</ele>
        <time>2021-03-28T13:02:30Z</time>
      </trkpt>
      <trkpt lat="45.1288" lon="4.84703">
        <ele>310.4</ele>
        <time>2021-03-28T13:02:34Z</time>
      </trkpt>
      <trkpt lat="45.12894" lon="4.84745">
        <ele>307.4</ele>
        <time>2021-03-28T13:02:38Z</time>
      </trkpt>
      <trkpt lat="45.12901" lon="4.8479">
        <ele>306.4</ele>
        <time>2021-03-28T13:02:42Z</time>
      </trkpt>
      <trkpt lat="45.12895" lon="4.84828">
        <ele>306.4</ele>
        <time>2021-03-28T13:02:46Z</time>
      </trkpt>
      <trkpt lat="45.1288" lon="4.84854">
        <ele>307.6</ele>
        <time>2021-03-28T13:02:50Z</time>
      </trkpt>
      <trkpt lat="45.12871" lon="4.84872">
        <ele>308.8</ele>
        <time>2021-03-28T13:02:54Z</time>
      </trkpt>
      <trkpt lat="45.12862" lon="4.84892">
        <ele>307.6</ele>
        <time>2021-03-28T13:02:58Z</time>
      </trkpt>
      <trkpt lat="45.12853" lon="4.84916">
        <ele>306.8</ele>
        <time>2021-03-28T13:03:02Z</time>
      </trkpt>
      <trkpt lat="45.12846" lon="4.84942">
        <ele>306.4</ele>
        <time>2021-03-28T13:03:06Z</time>
      </trkpt>
      <trkpt lat="45.12837" lon="4.84967">
        <ele>306.4</ele>
        <time>2021-03-28T13:03:10Z</time>
      </trkpt>
      <trkpt lat="45.1283" lon="4.8499">
        <ele>306.4</ele>
        <time>2021-03-28T13:03:14Z</time>
      </trkpt>
      <trkpt lat="45.12824" lon="4.85015">
        <ele>306.4</ele>
        <time>2021-03-28T13:03:18Z</time>
      </trkpt>
      <trkpt lat="45.12819" lon="4.85038">
        <ele>306.8</ele>
        <time>2021-03-28T13:03:22Z</time>
      </trkpt>
      <trkpt lat="45.12812" lon="4.85062">
        <ele>307</ele>
        <time>2021-03-28T13:03:26Z</time>
      </trkpt>
      <trkpt lat="45.12806" lon="4.85086">
        <ele>306.8</ele>
        <time>2021-03-28T13:03:30Z</time>
      </trkpt>
      <trkpt lat="45.128" lon="4.85109">
        <ele>306.2</ele>
        <time>2021-03-28T13:03:34Z</time>
      </trkpt>
      <trkpt lat="45.12795" lon="4.85132">
        <ele>307.2</ele>
        <time>2021-03-28T13:03:38Z</time>
      </trkpt>
      <trkpt lat="45.12793" lon="4.85156">
        <ele>307</ele>
        <time>2021-03-28T13:03:42Z</time>
      </trkpt>
      <trkpt lat="45.12794" lon="4.85179">
        <ele>307.6</ele>
        <time>2021-03-28T13:03:46Z</time>
      </trkpt>
      <trkpt lat="45.12795" lon="4.852">
        <ele>308.4</ele>
        <time>2021-03-28T13:03:50Z</time>
      </trkpt>
      <trkpt lat="45.12796" lon="4.85217">
        <ele>309.4</ele>
        <time>2021-03-28T13:03:54Z</time>
      </trkpt>
      <trkpt lat="45.12799" lon="4.85235">
        <ele>310.2</ele>
        <time>2021-03-28T13:03:58Z</time>
      </trkpt>
      <trkpt lat="45.12799" lon="4.85252">
        <ele>310.4</ele>
        <time>2021-03-28T13:04:02Z</time>
      </trkpt>
      <trkpt lat="45.12799" lon="4.85269">
        <ele>310.8</ele>
        <time>2021-03-28T13:04:06Z</time>
      </trkpt>
      <trkpt lat="45.12798" lon="4.85286">
        <ele>311.4</ele>
        <time>2021-03-28T13:04:10Z</time>
      </trkpt>
      <trkpt lat="45.12796" lon="4.85304">
        <ele>311.4</ele>
        <time>2021-03-28T13:04:14Z</time>
      </trkpt>
      <trkpt lat="45.12795" lon="4.85325">
        <ele>310.2</ele>
        <time>2021-03-28T13:04:18Z</time>
      </trkpt>
      <trkpt lat="45.12795" lon="4.85347">
        <ele>310.2</ele>
        <time>2021-03-28T13:04:22Z</time>
      </trkpt>
      <trkpt lat="45.12798" lon="4.85369">
        <ele>310.2</ele>
        <time>2021-03-28T13:04:26Z</time>
      </trkpt>
      <trkpt lat="45.12809" lon="4.85386">
        <ele>310.2</ele>
        <time>2021-03-28T13:04:30Z</time>
      </trkpt>
      <trkpt lat="45.12821" lon="4.85396">
        <ele>311</ele>
        <time>2021-03-28T13:04:34Z</time>
      </trkpt>
      <trkpt lat="45.12832" lon="4.85403">
        <ele>311.4</ele>
        <time>2021-03-28T13:04:38Z</time>
      </trkpt>
      <trkpt lat="45.12842" lon="4.85408">
        <ele>312.2</ele>
        <time>2021-03-28T13:04:42Z</time>
      </trkpt>
      <trkpt lat="45.12852" lon="4.85413">
        <ele>313.4</ele>
        <time>2021-03-28T13:04:46Z</time>
      </trkpt>
      <trkpt lat="45.12862" lon="4.85419">
        <ele>313.2</ele>
        <time>2021-03-28T13:04:50Z</time>
      </trkpt>
      <trkpt lat="45.1287" lon="4.85426">
        <ele>314</ele>
        <time>2021-03-28T13:04:54Z</time>
      </trkpt>
      <trkpt lat="45.12878" lon="4.85439">
        <ele>313.8</ele>
        <time>2021-03-28T13:04:58Z</time>
      </trkpt>
      <trkpt lat="45.12884" lon="4.85454">
        <ele>313.4</ele>
        <time>2021-03-28T13:05:02Z</time>
      </trkpt>
      <trkpt lat="45.12888" lon="4.85469">
        <ele>314</ele>
        <time>2021-03-28T13:05:06Z</time>
      </trkpt>
      <trkpt lat="45.12892" lon="4.85485">
        <ele>314.6</ele>
        <time>2021-03-28T13:05:10Z</time>
      </trkpt>
      <trkpt lat="45.12894" lon="4.85502">
        <ele>314</ele>
        <time>2021-03-28T13:05:14Z</time>
      </trkpt>
      <trkpt lat="45.12897" lon="4.85521">
        <ele>313.8</ele>
        <time>2021-03-28T13:05:18Z</time>
      </trkpt>
      <trkpt lat="45.129" lon="4.85541">
        <ele>313.4</ele>
        <time>2021-03-28T13:05:22Z</time>
      </trkpt>
      <trkpt lat="45.129" lon="4.85561">
        <ele>313.6</ele>
        <time>2021-03-28T13:05:26Z</time>
      </trkpt>
      <trkpt lat="45.12897" lon="4.85582">
        <ele>313.4</ele>
        <time>2021-03-28T13:05:30Z</time>
      </trkpt>
      <trkpt lat="45.12892" lon="4.85603">
        <ele>313.4</ele>
        <time>2021-03-28T13:05:34Z</time>
      </trkpt>
      <trkpt lat="45.12883" lon="4.85623">
        <ele>312.4</ele>
        <time>2021-03-28T13:05:38Z</time>
      </trkpt>
      <trkpt lat="45.12873" lon="4.85643">
        <ele>312.4</ele>
        <time>2021-03-28T13:05:42Z</time>
      </trkpt>
      <trkpt lat="45.12862" lon="4.85662">
        <ele>312</ele>
        <time>2021-03-28T13:05:46Z</time>
      </trkpt>
      <trkpt lat="45.12849" lon="4.85683">
        <ele>311.4</ele>
        <time>2021-03-28T13:05:50Z</time>
      </trkpt>
      <trkpt lat="45.12836" lon="4.85703">
        <ele>310.8</ele>
        <time>2021-03-28T13:05:54Z</time>
      </trkpt>
      <trkpt lat="45.12819" lon="4.8572">
        <ele>309.8</ele>
        <time>2021-03-28T13:05:58Z</time>
      </trkpt>
      <trkpt lat="45.12802" lon="4.85738">
        <ele>308.4</ele>
        <time>2021-03-28T13:06:02Z</time>
      </trkpt>
      <trkpt lat="45.12789" lon="4.85765">
        <ele>308</ele>
        <time>2021-03-28T13:06:06Z</time>
      </trkpt>
      <trkpt lat="45.12783" lon="4.85787">
        <ele>309.6</ele>
        <time>2021-03-28T13:06:10Z</time>
      </trkpt>
      <trkpt lat="45.12778" lon="4.85805">
        <ele>311.2</ele>
        <time>2021-03-28T13:06:14Z</time>
      </trkpt>
      <trkpt lat="45.12773" lon="4.85819">
        <ele>312</ele>
        <time>2021-03-28T13:06:18Z</time>
      </trkpt>
      <trkpt lat="45.12769" lon="4.85831">
        <ele>312.4</ele>
        <time>2021-03-28T13:06:22Z</time>
      </trkpt>
      <trkpt lat="45.12768" lon="4.85841">
        <ele>313.6</ele>
        <time>2021-03-28T13:06:26Z</time>
      </trkpt>
      <trkpt lat="45.12766" lon="4.85851">
        <ele>314.4</ele>
        <time>2021-03-28T13:06:30Z</time>
      </trkpt>
      <trkpt lat="45.12764" lon="4.85861">
        <ele>314.8</ele>
        <time>2021-03-28T13:06:34Z</time>
      </trkpt>
      <trkpt lat="45.12761" lon="4.8587">
        <ele>316.2</ele>
        <time>2021-03-28T13:06:38Z</time>
      </trkpt>
      <trkpt lat="45.12757" lon="4.85881">
        <ele>317.4</ele>
        <time>2021-03-28T13:06:42Z</time>
      </trkpt>
      <trkpt lat="45.12754" lon="4.8589">
        <ele>317.2</ele>
        <time>2021-03-28T13:06:46Z</time>
      </trkpt>
      <trkpt lat="45.12751" lon="4.859">
        <ele>318.4</ele>
        <time>2021-03-28T13:06:50Z</time>
      </trkpt>
      <trkpt lat="45.12748" lon="4.85911">
        <ele>318.8</ele>
        <time>2021-03-28T13:06:54Z</time>
      </trkpt>
      <trkpt lat="45.12744" lon="4.85923">
        <ele>318.4</ele>
        <time>2021-03-28T13:06:58Z</time>
      </trkpt>
      <trkpt lat="45.12742" lon="4.85935">
        <ele>318.6</ele>
        <time>2021-03-28T13:07:02Z</time>
      </trkpt>
      <trkpt lat="45.1274" lon="4.85948">
        <ele>319.4</ele>
        <time>2021-03-28T13:07:06Z</time>
      </trkpt>
      <trkpt lat="45.12738" lon="4.85962">
        <ele>319.4</ele>
        <time>2021-03-28T13:07:10Z</time>
      </trkpt>
      <trkpt lat="45.12737" lon="4.85975">
        <ele>319.4</ele>
        <time>2021-03-28T13:07:14Z</time>
      </trkpt>
      <trkpt lat="45.12735" lon="4.85987">
        <ele>319.2</ele>
        <time>2021-03-28T13:07:18Z</time>
      </trkpt>
      <trkpt lat="45.12734" lon="4.85998">
        <ele>319</ele>
        <time>2021-03-28T13:07:22Z</time>
      </trkpt>
      <trkpt lat="45.12732" lon="4.86009">
        <ele>319</ele>
        <time>2021-03-28T13:07:26Z</time>
      </trkpt>
      <trkpt lat="45.1273" lon="4.86024">
        <ele>317.4</ele>
        <time>2021-03-28T13:07:30Z</time>
      </trkpt>
      <trkpt lat="45.12727" lon="4.8604">
        <ele>317.2</ele>
        <time>2021-03-28T13:07:34Z</time>
      </trkpt>
      <trkpt lat="45.12722" lon="4.8606">
        <ele>316.2</ele>
        <time>2021-03-28T13:07:38Z</time>
      </trkpt>
      <trkpt lat="45.12717" lon="4.86084">
        <ele>313.6</ele>
        <time>2021-03-28T13:07:42Z</time>
      </trkpt>
      <trkpt lat="45.12712" lon="4.8611">
        <ele>313</ele>
        <time>2021-03-28T13:07:46Z</time>
      </trkpt>
      <trkpt lat="45.12709" lon="4.86132">
        <ele>312.2</ele>
        <time>2021-03-28T13:07:50Z</time>
      </trkpt>
      <trkpt lat="45.12706" lon="4.86151">
        <ele>311.8</ele>
        <time>2021-03-28T13:09:13Z</time>
      </trkpt>
      <trkpt lat="45.12705" lon="4.86169">
        <ele>311.2</ele>
        <time>2021-03-28T13:09:17Z</time>
      </trkpt>
      <trkpt lat="45.12707" lon="4.86198">
        <ele>309.2</ele>
        <time>2021-03-28T13:09:21Z</time>
      </trkpt>
      <trkpt lat="45.12707" lon="4.86223">
        <ele>307.2</ele>
        <time>2021-03-28T13:09:25Z</time>
      </trkpt>
      <trkpt lat="45.12703" lon="4.86249">
        <ele>305.8</ele>
        <time>2021-03-28T13:09:29Z</time>
      </trkpt>
      <trkpt lat="45.12694" lon="4.86277">
        <ele>302.6</ele>
        <time>2021-03-28T13:09:33Z</time>
      </trkpt>
      <trkpt lat="45.12685" lon="4.86307">
        <ele>300.8</ele>
        <time>2021-03-28T13:09:37Z</time>
      </trkpt>
      <trkpt lat="45.12676" lon="4.8634">
        <ele>300</ele>
        <time>2021-03-28T13:09:41Z</time>
      </trkpt>
      <trkpt lat="45.12669" lon="4.86373">
        <ele>299</ele>
        <time>2021-03-28T13:09:45Z</time>
      </trkpt>
      <trkpt lat="45.12662" lon="4.86407">
        <ele>297.4</ele>
        <time>2021-03-28T13:09:49Z</time>
      </trkpt>
      <trkpt lat="45.12654" lon="4.86449">
        <ele>292.2</ele>
        <time>2021-03-28T13:09:53Z</time>
      </trkpt>
      <trkpt lat="45.12643" lon="4.86499">
        <ele>287.4</ele>
        <time>2021-03-28T13:09:57Z</time>
      </trkpt>
      <trkpt lat="45.12632" lon="4.86555">
        <ele>286.2</ele>
        <time>2021-03-28T13:10:01Z</time>
      </trkpt>
      <trkpt lat="45.1262" lon="4.8661">
        <ele>282</ele>
        <time>2021-03-28T13:10:05Z</time>
      </trkpt>
      <trkpt lat="45.12611" lon="4.86654">
        <ele>282.2</ele>
        <time>2021-03-28T13:10:09Z</time>
      </trkpt>
      <trkpt lat="45.12605" lon="4.86675">
        <ele>283.2</ele>
        <time>2021-03-28T13:10:13Z</time>
      </trkpt>
      <trkpt lat="45.126" lon="4.86694">
        <ele>284.6</ele>
        <time>2021-03-28T13:10:31Z</time>
      </trkpt>
      <trkpt lat="45.12597" lon="4.86712">
        <ele>284.4</ele>
        <time>2021-03-28T13:10:35Z</time>
      </trkpt>
      <trkpt lat="45.12594" lon="4.8673">
        <ele>284.4</ele>
        <time>2021-03-28T13:10:39Z</time>
      </trkpt>
      <trkpt lat="45.12591" lon="4.86749">
        <ele>284.6</ele>
        <time>2021-03-28T13:10:43Z</time>
      </trkpt>
      <trkpt lat="45.12587" lon="4.86767">
        <ele>284.8</ele>
        <time>2021-03-28T13:10:47Z</time>
      </trkpt>
      <trkpt lat="45.12584" lon="4.86785">
        <ele>284</ele>
        <time>2021-03-28T13:10:51Z</time>
      </trkpt>
      <trkpt lat="45.12581" lon="4.86802">
        <ele>285.2</ele>
        <time>2021-03-28T13:10:55Z</time>
      </trkpt>
      <trkpt lat="45.12579" lon="4.86817">
        <ele>285.6</ele>
        <time>2021-03-28T13:10:59Z</time>
      </trkpt>
      <trkpt lat="45.12577" lon="4.86833">
        <ele>286.6</ele>
        <time>2021-03-28T13:11:03Z</time>
      </trkpt>
      <trkpt lat="45.12575" lon="4.86847">
        <ele>287</ele>
        <time>2021-03-28T13:11:07Z</time>
      </trkpt>
      <trkpt lat="45.12573" lon="4.8686">
        <ele>287.6</ele>
        <time>2021-03-28T13:11:11Z</time>
      </trkpt>
      <trkpt lat="45.12571" lon="4.86873">
        <ele>288.4</ele>
        <time>2021-03-28T13:11:15Z</time>
      </trkpt>
      <trkpt lat="45.12569" lon="4.86885">
        <ele>288.8</ele>
        <time>2021-03-28T13:11:19Z</time>
      </trkpt>
      <trkpt lat="45.12567" lon="4.86897">
        <ele>290.4</ele>
        <time>2021-03-28T13:11:23Z</time>
      </trkpt>
      <trkpt lat="45.12563" lon="4.86908">
        <ele>291.2</ele>
        <time>2021-03-28T13:11:27Z</time>
      </trkpt>
      <trkpt lat="45.12558" lon="4.86918">
        <ele>291.4</ele>
        <time>2021-03-28T13:11:31Z</time>
      </trkpt>
      <trkpt lat="45.12552" lon="4.86926">
        <ele>292.2</ele>
        <time>2021-03-28T13:11:35Z</time>
      </trkpt>
      <trkpt lat="45.12544" lon="4.86933">
        <ele>292.6</ele>
        <time>2021-03-28T13:11:39Z</time>
      </trkpt>
      <trkpt lat="45.12535" lon="4.86939">
        <ele>293.2</ele>
        <time>2021-03-28T13:11:43Z</time>
      </trkpt>
      <trkpt lat="45.12527" lon="4.86944">
        <ele>293.8</ele>
        <time>2021-03-28T13:11:47Z</time>
      </trkpt>
      <trkpt lat="45.12518" lon="4.8695">
        <ele>294</ele>
        <time>2021-03-28T13:11:51Z</time>
      </trkpt>
      <trkpt lat="45.1251" lon="4.86955">
        <ele>295.4</ele>
        <time>2021-03-28T13:11:55Z</time>
      </trkpt>
      <trkpt lat="45.12504" lon="4.86961">
        <ele>295.4</ele>
        <time>2021-03-28T13:11:59Z</time>
      </trkpt>
      <trkpt lat="45.12502" lon="4.86966">
        <ele>296</ele>
        <time>2021-03-28T13:12:03Z</time>
      </trkpt>
      <trkpt lat="45.12507" lon="4.86972">
        <ele>294.6</ele>
        <time>2021-03-28T13:12:07Z</time>
      </trkpt>
      <trkpt lat="45.12515" lon="4.86987">
        <ele>294.2</ele>
        <time>2021-03-28T13:12:11Z</time>
      </trkpt>
      <trkpt lat="45.12522" lon="4.87004">
        <ele>294</ele>
        <time>2021-03-28T13:12:15Z</time>
      </trkpt>
      <trkpt lat="45.12529" lon="4.87021">
        <ele>294.2</ele>
        <time>2021-03-28T13:12:19Z</time>
      </trkpt>
      <trkpt lat="45.12537" lon="4.87037">
        <ele>294.8</ele>
        <time>2021-03-28T13:12:23Z</time>
      </trkpt>
      <trkpt lat="45.12546" lon="4.87053">
        <ele>293.6</ele>
        <time>2021-03-28T13:12:27Z</time>
      </trkpt>
      <trkpt lat="45.12555" lon="4.87068">
        <ele>294.2</ele>
        <time>2021-03-28T13:12:31Z</time>
      </trkpt>
      <trkpt lat="45.12564" lon="4.87081">
        <ele>296.6</ele>
        <time>2021-03-28T13:12:35Z</time>
      </trkpt>
      <trkpt lat="45.12572" lon="4.87093">
        <ele>297.2</ele>
        <time>2021-03-28T13:12:39Z</time>
      </trkpt>
      <trkpt lat="45.1258" lon="4.87104">
        <ele>297.8</ele>
        <time>2021-03-28T13:12:43Z</time>
      </trkpt>
      <trkpt lat="45.12588" lon="4.87114">
        <ele>298</ele>
        <time>2021-03-28T13:12:47Z</time>
      </trkpt>
      <trkpt lat="45.12597" lon="4.87123">
        <ele>298.2</ele>
        <time>2021-03-28T13:12:51Z</time>
      </trkpt>
      <trkpt lat="45.12609" lon="4.8713">
        <ele>297.8</ele>
        <time>2021-03-28T13:12:55Z</time>
      </trkpt>
      <trkpt lat="45.12623" lon="4.87136">
        <ele>297.8</ele>
        <time>2021-03-28T13:12:59Z</time>
      </trkpt>
      <trkpt lat="45.12638" lon="4.87138">
        <ele>296.8</ele>
        <time>2021-03-28T13:13:03Z</time>
      </trkpt>
      <trkpt lat="45.12653" lon="4.87139">
        <ele>297.4</ele>
        <time>2021-03-28T13:13:07Z</time>
      </trkpt>
      <trkpt lat="45.12668" lon="4.87139">
        <ele>297.8</ele>
        <time>2021-03-28T13:13:11Z</time>
      </trkpt>
      <trkpt lat="45.12683" lon="4.87139">
        <ele>297.8</ele>
        <time>2021-03-28T13:13:15Z</time>
      </trkpt>
      <trkpt lat="45.12698" lon="4.87138">
        <ele>298.8</ele>
        <time>2021-03-28T13:13:19Z</time>
      </trkpt>
      <trkpt lat="45.12712" lon="4.87142">
        <ele>298.4</ele>
        <time>2021-03-28T13:13:23Z</time>
      </trkpt>
      <trkpt lat="45.12725" lon="4.87148">
        <ele>299.4</ele>
        <time>2021-03-28T13:13:27Z</time>
      </trkpt>
      <trkpt lat="45.12738" lon="4.87154">
        <ele>299.4</ele>
        <time>2021-03-28T13:13:31Z</time>
      </trkpt>
      <trkpt lat="45.12751" lon="4.87163">
        <ele>299.8</ele>
        <time>2021-03-28T13:13:35Z</time>
      </trkpt>
      <trkpt lat="45.12763" lon="4.87178">
        <ele>299.8</ele>
        <time>2021-03-28T13:13:39Z</time>
      </trkpt>
      <trkpt lat="45.12772" lon="4.87196">
        <ele>299.6</ele>
        <time>2021-03-28T13:13:43Z</time>
      </trkpt>
      <trkpt lat="45.12779" lon="4.87215">
        <ele>300.2</ele>
        <time>2021-03-28T13:13:47Z</time>
      </trkpt>
      <trkpt lat="45.12787" lon="4.87233">
        <ele>300.4</ele>
        <time>2021-03-28T13:13:51Z</time>
      </trkpt>
      <trkpt lat="45.12795" lon="4.8725">
        <ele>300.4</ele>
        <time>2021-03-28T13:13:55Z</time>
      </trkpt>
      <trkpt lat="45.12802" lon="4.87266">
        <ele>302</ele>
        <time>2021-03-28T13:13:59Z</time>
      </trkpt>
      <trkpt lat="45.12808" lon="4.8728">
        <ele>303</ele>
        <time>2021-03-28T13:14:03Z</time>
      </trkpt>
      <trkpt lat="45.12813" lon="4.87292">
        <ele>302.8</ele>
        <time>2021-03-28T13:14:07Z</time>
      </trkpt>
      <trkpt lat="45.12818" lon="4.87305">
        <ele>301.6</ele>
        <time>2021-03-28T13:14:11Z</time>
      </trkpt>
      <trkpt lat="45.12823" lon="4.8732">
        <ele>301.4</ele>
        <time>2021-03-28T13:14:15Z</time>
      </trkpt>
      <trkpt lat="45.1283" lon="4.87337">
        <ele>300.2</ele>
        <time>2021-03-28T13:14:19Z</time>
      </trkpt>
      <trkpt lat="45.12839" lon="4.87358">
        <ele>299.4</ele>
        <time>2021-03-28T13:14:23Z</time>
      </trkpt>
      <trkpt lat="45.12854" lon="4.87377">
        <ele>299.2</ele>
        <time>2021-03-28T13:14:27Z</time>
      </trkpt>
      <trkpt lat="45.12868" lon="4.87393">
        <ele>297.4</ele>
        <time>2021-03-28T13:14:31Z</time>
      </trkpt>
      <trkpt lat="45.12883" lon="4.87402">
        <ele>295.4</ele>
        <time>2021-03-28T13:14:35Z</time>
      </trkpt>
      <trkpt lat="45.12907" lon="4.87402">
        <ele>291.4</ele>
        <time>2021-03-28T13:14:39Z</time>
      </trkpt>
      <trkpt lat="45.12931" lon="4.87405">
        <ele>288.8</ele>
        <time>2021-03-28T13:14:43Z</time>
      </trkpt>
      <trkpt lat="45.12946" lon="4.87432">
        <ele>286.4</ele>
        <time>2021-03-28T13:14:47Z</time>
      </trkpt>
      <trkpt lat="45.12952" lon="4.87469">
        <ele>283.2</ele>
        <time>2021-03-28T13:14:51Z</time>
      </trkpt>
      <trkpt lat="45.12958" lon="4.87511">
        <ele>278.6</ele>
        <time>2021-03-28T13:14:55Z</time>
      </trkpt>
      <trkpt lat="45.1297" lon="4.87551">
        <ele>275.8</ele>
        <time>2021-03-28T13:14:59Z</time>
      </trkpt>
      <trkpt lat="45.12992" lon="4.87581">
        <ele>272.8</ele>
        <time>2021-03-28T13:15:03Z</time>
      </trkpt>
      <trkpt lat="45.13017" lon="4.87602">
        <ele>273</ele>
        <time>2021-03-28T13:15:07Z</time>
      </trkpt>
      <trkpt lat="45.13027" lon="4.87634">
        <ele>270.8</ele>
        <time>2021-03-28T13:15:11Z</time>
      </trkpt>
      <trkpt lat="45.13033" lon="4.87671">
        <ele>267.6</ele>
        <time>2021-03-28T13:15:15Z</time>
      </trkpt>
      <trkpt lat="45.13021" lon="4.87684">
        <ele>267</ele>
        <time>2021-03-28T13:15:19Z</time>
      </trkpt>
      <trkpt lat="45.13005" lon="4.87679">
        <ele>266.2</ele>
        <time>2021-03-28T13:15:23Z</time>
      </trkpt>
      <trkpt lat="45.12989" lon="4.87674">
        <ele>266.6</ele>
        <time>2021-03-28T13:15:27Z</time>
      </trkpt>
      <trkpt lat="45.12978" lon="4.87681">
        <ele>266.6</ele>
        <time>2021-03-28T13:15:31Z</time>
      </trkpt>
      <trkpt lat="45.12986" lon="4.87696">
        <ele>265.6</ele>
        <time>2021-03-28T13:15:35Z</time>
      </trkpt>
      <trkpt lat="45.13" lon="4.87715">
        <ele>261.8</ele>
        <time>2021-03-28T13:15:39Z</time>
      </trkpt>
      <trkpt lat="45.13016" lon="4.87743">
        <ele>257.2</ele>
        <time>2021-03-28T13:15:43Z</time>
      </trkpt>
      <trkpt lat="45.13033" lon="4.87776">
        <ele>255.6</ele>
        <time>2021-03-28T13:15:47Z</time>
      </trkpt>
      <trkpt lat="45.13046" lon="4.87811">
        <ele>252.4</ele>
        <time>2021-03-28T13:15:51Z</time>
      </trkpt>
      <trkpt lat="45.13054" lon="4.87846">
        <ele>249.8</ele>
        <time>2021-03-28T13:15:55Z</time>
      </trkpt>
      <trkpt lat="45.13064" lon="4.87876">
        <ele>247.2</ele>
        <time>2021-03-28T13:15:59Z</time>
      </trkpt>
      <trkpt lat="45.13075" lon="4.87911">
        <ele>244</ele>
        <time>2021-03-28T13:16:03Z</time>
      </trkpt>
      <trkpt lat="45.13082" lon="4.87943">
        <ele>239.4</ele>
        <time>2021-03-28T13:16:07Z</time>
      </trkpt>
      <trkpt lat="45.13101" lon="4.87968">
        <ele>238.2</ele>
        <time>2021-03-28T13:16:11Z</time>
      </trkpt>
      <trkpt lat="45.13123" lon="4.87979">
        <ele>234.8</ele>
        <time>2021-03-28T13:16:15Z</time>
      </trkpt>
      <trkpt lat="45.13147" lon="4.87984">
        <ele>231.6</ele>
        <time>2021-03-28T13:16:19Z</time>
      </trkpt>
      <trkpt lat="45.13163" lon="4.87998">
        <ele>230.6</ele>
        <time>2021-03-28T13:16:23Z</time>
      </trkpt>
      <trkpt lat="45.13165" lon="4.88011">
        <ele>228.6</ele>
        <time>2021-03-28T13:16:27Z</time>
      </trkpt>
      <trkpt lat="45.13164" lon="4.88035">
        <ele>225.8</ele>
        <time>2021-03-28T13:16:31Z</time>
      </trkpt>
      <trkpt lat="45.13155" lon="4.88062">
        <ele>221.4</ele>
        <time>2021-03-28T13:16:35Z</time>
      </trkpt>
      <trkpt lat="45.13143" lon="4.88093">
        <ele>217</ele>
        <time>2021-03-28T13:16:39Z</time>
      </trkpt>
      <trkpt lat="45.13131" lon="4.88128">
        <ele>216.2</ele>
        <time>2021-03-28T13:16:43Z</time>
      </trkpt>
      <trkpt lat="45.1313" lon="4.88164">
        <ele>216</ele>
        <time>2021-03-28T13:16:47Z</time>
      </trkpt>
      <trkpt lat="45.13138" lon="4.882">
        <ele>211.8</ele>
        <time>2021-03-28T13:16:51Z</time>
      </trkpt>
      <trkpt lat="45.1315" lon="4.88239">
        <ele>208.6</ele>
        <time>2021-03-28T13:16:55Z</time>
      </trkpt>
      <trkpt lat="45.13168" lon="4.88279">
        <ele>204.8</ele>
        <time>2021-03-28T13:16:59Z</time>
      </trkpt>
      <trkpt lat="45.13183" lon="4.88321">
        <ele>204</ele>
        <time>2021-03-28T13:17:03Z</time>
      </trkpt>
      <trkpt lat="45.13195" lon="4.88366">
        <ele>203</ele>
        <time>2021-03-28T13:17:07Z</time>
      </trkpt>
      <trkpt lat="45.13209" lon="4.88407">
        <ele>203.2</ele>
        <time>2021-03-28T13:17:11Z</time>
      </trkpt>
      <trkpt lat="45.13222" lon="4.88433">
        <ele>203.6</ele>
        <time>2021-03-28T13:17:15Z</time>
      </trkpt>
      <trkpt lat="45.13225" lon="4.88446">
        <ele>204</ele>
        <time>2021-03-28T13:17:19Z</time>
      </trkpt>
      <trkpt lat="45.13215" lon="4.88457">
        <ele>203.4</ele>
        <time>2021-03-28T13:17:29Z</time>
      </trkpt>
      <trkpt lat="45.13198" lon="4.88463">
        <ele>202.2</ele>
        <time>2021-03-28T13:17:33Z</time>
      </trkpt>
      <trkpt lat="45.1318" lon="4.88467">
        <ele>202.6</ele>
        <time>2021-03-28T13:17:37Z</time>
      </trkpt>
      <trkpt lat="45.13161" lon="4.88471">
        <ele>200.8</ele>
        <time>2021-03-28T13:17:41Z</time>
      </trkpt>
      <trkpt lat="45.13141" lon="4.88477">
        <ele>200.8</ele>
        <time>2021-03-28T13:17:45Z</time>
      </trkpt>
      <trkpt lat="45.1312" lon="4.88485">
        <ele>200.6</ele>
        <time>2021-03-28T13:17:49Z</time>
      </trkpt>
      <trkpt lat="45.13102" lon="4.885">
        <ele>200.4</ele>
        <time>2021-03-28T13:17:53Z</time>
      </trkpt>
      <trkpt lat="45.13083" lon="4.88517">
        <ele>200</ele>
        <time>2021-03-28T13:17:57Z</time>
      </trkpt>
      <trkpt lat="45.13062" lon="4.88528">
        <ele>199.6</ele>
        <time>2021-03-28T13:18:01Z</time>
      </trkpt>
      <trkpt lat="45.1304" lon="4.88532">
        <ele>198.6</ele>
        <time>2021-03-28T13:18:05Z</time>
      </trkpt>
      <trkpt lat="45.13017" lon="4.88531">
        <ele>199</ele>
        <time>2021-03-28T13:18:09Z</time>
      </trkpt>
      <trkpt lat="45.12995" lon="4.88528">
        <ele>198.8</ele>
        <time>2021-03-28T13:18:13Z</time>
      </trkpt>
      <trkpt lat="45.12972" lon="4.88526">
        <ele>198.4</ele>
        <time>2021-03-28T13:18:17Z</time>
      </trkpt>
      <trkpt lat="45.12949" lon="4.88522">
        <ele>198</ele>
        <time>2021-03-28T13:18:21Z</time>
      </trkpt>
      <trkpt lat="45.12926" lon="4.88519">
        <ele>198</ele>
        <time>2021-03-28T13:18:25Z</time>
      </trkpt>
      <trkpt lat="45.12904" lon="4.88516">
        <ele>197</ele>
        <time>2021-03-28T13:18:29Z</time>
      </trkpt>
      <trkpt lat="45.12885" lon="4.88511">
        <ele>197</ele>
        <time>2021-03-28T13:18:33Z</time>
      </trkpt>
      <trkpt lat="45.12866" lon="4.88509">
        <ele>197.2</ele>
        <time>2021-03-28T13:18:37Z</time>
      </trkpt>
      <trkpt lat="45.12845" lon="4.88507">
        <ele>196.8</ele>
        <time>2021-03-28T13:18:41Z</time>
      </trkpt>
      <trkpt lat="45.12824" lon="4.88504">
        <ele>196.6</ele>
        <time>2021-03-28T13:18:45Z</time>
      </trkpt>
      <trkpt lat="45.12807" lon="4.88505">
        <ele>196.6</ele>
        <time>2021-03-28T13:18:49Z</time>
      </trkpt>
      <trkpt lat="45.12786" lon="4.88506">
        <ele>196.6</ele>
        <time>2021-03-28T13:18:53Z</time>
      </trkpt>
      <trkpt lat="45.12767" lon="4.8851">
        <ele>196.4</ele>
        <time>2021-03-28T13:18:57Z</time>
      </trkpt>
      <trkpt lat="45.12743" lon="4.88517">
        <ele>195.6</ele>
        <time>2021-03-28T13:19:01Z</time>
      </trkpt>
      <trkpt lat="45.1272" lon="4.88526">
        <ele>194.6</ele>
        <time>2021-03-28T13:19:05Z</time>
      </trkpt>
      <trkpt lat="45.12697" lon="4.88535">
        <ele>193.8</ele>
        <time>2021-03-28T13:19:09Z</time>
      </trkpt>
      <trkpt lat="45.1268" lon="4.88544">
        <ele>195.4</ele>
        <time>2021-03-28T13:19:13Z</time>
      </trkpt>
      <trkpt lat="45.12662" lon="4.88571">
        <ele>192.8</ele>
        <time>2021-03-28T13:19:17Z</time>
      </trkpt>
      <trkpt lat="45.12654" lon="4.88611">
        <ele>192</ele>
        <time>2021-03-28T13:19:21Z</time>
      </trkpt>
      <trkpt lat="45.12659" lon="4.8865">
        <ele>190.4</ele>
        <time>2021-03-28T13:19:25Z</time>
      </trkpt>
      <trkpt lat="45.12669" lon="4.88688">
        <ele>191</ele>
        <time>2021-03-28T13:19:29Z</time>
      </trkpt>
      <trkpt lat="45.12679" lon="4.88725">
        <ele>190.2</ele>
        <time>2021-03-28T13:19:33Z</time>
      </trkpt>
      <trkpt lat="45.12689" lon="4.88761">
        <ele>188.4</ele>
        <time>2021-03-28T13:19:37Z</time>
      </trkpt>
      <trkpt lat="45.12696" lon="4.88796">
        <ele>189.8</ele>
        <time>2021-03-28T13:19:41Z</time>
      </trkpt>
      <trkpt lat="45.12703" lon="4.8883">
        <ele>189.8</ele>
        <time>2021-03-28T13:19:45Z</time>
      </trkpt>
      <trkpt lat="45.12709" lon="4.88863">
        <ele>189</ele>
        <time>2021-03-28T13:19:49Z</time>
      </trkpt>
      <trkpt lat="45.1271" lon="4.88896">
        <ele>188.6</ele>
        <time>2021-03-28T13:19:53Z</time>
      </trkpt>
      <trkpt lat="45.12707" lon="4.88931">
        <ele>187.8</ele>
        <time>2021-03-28T13:19:57Z</time>
      </trkpt>
      <trkpt lat="45.12701" lon="4.88965">
        <ele>187.6</ele>
        <time>2021-03-28T13:20:01Z</time>
      </trkpt>
      <trkpt lat="45.12696" lon="4.88999">
        <ele>187.4</ele>
        <time>2021-03-28T13:20:05Z</time>
      </trkpt>
      <trkpt lat="45.1269" lon="4.89033">
        <ele>186.8</ele>
        <time>2021-03-28T13:20:09Z</time>
      </trkpt>
      <trkpt lat="45.12681" lon="4.89065">
        <ele>186</ele>
        <time>2021-03-28T13:20:13Z</time>
      </trkpt>
      <trkpt lat="45.12667" lon="4.89091">
        <ele>184.4</ele>
        <time>2021-03-28T13:20:17Z</time>
      </trkpt>
      <trkpt lat="45.12649" lon="4.89114">
        <ele>183.6</ele>
        <time>2021-03-28T13:20:21Z</time>
      </trkpt>
      <trkpt lat="45.12632" lon="4.89138">
        <ele>184</ele>
        <time>2021-03-28T13:20:25Z</time>
      </trkpt>
      <trkpt lat="45.12615" lon="4.89161">
        <ele>184.2</ele>
        <time>2021-03-28T13:20:29Z</time>
      </trkpt>
      <trkpt lat="45.12597" lon="4.89184">
        <ele>184</ele>
        <time>2021-03-28T13:20:33Z</time>
      </trkpt>
      <trkpt lat="45.12577" lon="4.89203">
        <ele>182.2</ele>
        <time>2021-03-28T13:20:37Z</time>
      </trkpt>
      <trkpt lat="45.12555" lon="4.89218">
        <ele>182.2</ele>
        <time>2021-03-28T13:20:41Z</time>
      </trkpt>
      <trkpt lat="45.12534" lon="4.89231">
        <ele>181.6</ele>
        <time>2021-03-28T13:20:45Z</time>
      </trkpt>
      <trkpt lat="45.12513" lon="4.89244">
        <ele>180.8</ele>
        <time>2021-03-28T13:20:49Z</time>
      </trkpt>
      <trkpt lat="45.12493" lon="4.89256">
        <ele>181</ele>
        <time>2021-03-28T13:20:53Z</time>
      </trkpt>
      <trkpt lat="45.12472" lon="4.89269">
        <ele>179.8</ele>
        <time>2021-03-28T13:20:57Z</time>
      </trkpt>
      <trkpt lat="45.12451" lon="4.89281">
        <ele>181</ele>
        <time>2021-03-28T13:21:01Z</time>
      </trkpt>
      <trkpt lat="45.1243" lon="4.89293">
        <ele>181.2</ele>
        <time>2021-03-28T13:21:05Z</time>
      </trkpt>
      <trkpt lat="45.12409" lon="4.89304">
        <ele>180.2</ele>
        <time>2021-03-28T13:21:09Z</time>
      </trkpt>
      <trkpt lat="45.12387" lon="4.89314">
        <ele>180</ele>
        <time>2021-03-28T13:21:13Z</time>
      </trkpt>
      <trkpt lat="45.12365" lon="4.89325">
        <ele>179.2</ele>
        <time>2021-03-28T13:21:17Z</time>
      </trkpt>
      <trkpt lat="45.12343" lon="4.89335">
        <ele>178.4</ele>
        <time>2021-03-28T13:21:21Z</time>
      </trkpt>
      <trkpt lat="45.12321" lon="4.89345">
        <ele>177.6</ele>
        <time>2021-03-28T13:21:25Z</time>
      </trkpt>
      <trkpt lat="45.12301" lon="4.89355">
        <ele>178.6</ele>
        <time>2021-03-28T13:21:29Z</time>
      </trkpt>
      <trkpt lat="45.12281" lon="4.89364">
        <ele>177.4</ele>
        <time>2021-03-28T13:21:33Z</time>
      </trkpt>
      <trkpt lat="45.1226" lon="4.8937">
        <ele>177.6</ele>
        <time>2021-03-28T13:21:37Z</time>
      </trkpt>
      <trkpt lat="45.12239" lon="4.89374">
        <ele>177</ele>
        <time>2021-03-28T13:21:41Z</time>
      </trkpt>
      <trkpt lat="45.12219" lon="4.89376">
        <ele>178</ele>
        <time>2021-03-28T13:21:45Z</time>
      </trkpt>
      <trkpt lat="45.122" lon="4.89381">
        <ele>178.4</ele>
        <time>2021-03-28T13:21:49Z</time>
      </trkpt>
      <trkpt lat="45.12181" lon="4.89389">
        <ele>178.6</ele>
        <time>2021-03-28T13:21:53Z</time>
      </trkpt>
      <trkpt lat="45.12161" lon="4.89396">
        <ele>179</ele>
        <time>2021-03-28T13:21:57Z</time>
      </trkpt>
      <trkpt lat="45.1214" lon="4.89398">
        <ele>178</ele>
        <time>2021-03-28T13:22:01Z</time>
      </trkpt>
      <trkpt lat="45.12118" lon="4.89399">
        <ele>176.6</ele>
        <time>2021-03-28T13:22:05Z</time>
      </trkpt>
      <trkpt lat="45.12095" lon="4.89402">
        <ele>176.6</ele>
        <time>2021-03-28T13:22:09Z</time>
      </trkpt>
      <trkpt lat="45.12071" lon="4.89409">
        <ele>175.8</ele>
        <time>2021-03-28T13:22:13Z</time>
      </trkpt>
      <trkpt lat="45.12049" lon="4.8942">
        <ele>175.4</ele>
        <time>2021-03-28T13:22:17Z</time>
      </trkpt>
      <trkpt lat="45.12025" lon="4.89434">
        <ele>175.2</ele>
        <time>2021-03-28T13:22:21Z</time>
      </trkpt>
      <trkpt lat="45.12002" lon="4.89447">
        <ele>174.2</ele>
        <time>2021-03-28T13:22:25Z</time>
      </trkpt>
      <trkpt lat="45.11977" lon="4.89462">
        <ele>174.2</ele>
        <time>2021-03-28T13:22:29Z</time>
      </trkpt>
      <trkpt lat="45.11955" lon="4.89478">
        <ele>173.4</ele>
        <time>2021-03-28T13:22:33Z</time>
      </trkpt>
      <trkpt lat="45.11938" lon="4.89501">
        <ele>174</ele>
        <time>2021-03-28T13:22:37Z</time>
      </trkpt>
      <trkpt lat="45.11924" lon="4.89521">
        <ele>173.2</ele>
        <time>2021-03-28T13:22:41Z</time>
      </trkpt>
      <trkpt lat="45.11904" lon="4.89543">
        <ele>173</ele>
        <time>2021-03-28T13:22:45Z</time>
      </trkpt>
      <trkpt lat="45.11887" lon="4.89566">
        <ele>172.6</ele>
        <time>2021-03-28T13:22:49Z</time>
      </trkpt>
      <trkpt lat="45.11875" lon="4.89587">
        <ele>172.8</ele>
        <time>2021-03-28T13:22:53Z</time>
      </trkpt>
      <trkpt lat="45.11864" lon="4.89607">
        <ele>173.4</ele>
        <time>2021-03-28T13:22:57Z</time>
      </trkpt>
      <trkpt lat="45.11858" lon="4.89615">
        <ele>173.4</ele>
        <time>2021-03-28T13:23:01Z</time>
      </trkpt>
      <trkpt lat="45.11858" lon="4.89615">
        <ele>173.6</ele>
        <time>2021-03-28T13:23:05Z</time>
      </trkpt>
      <trkpt lat="45.11862" lon="4.89629">
        <ele>173.8</ele>
        <time>2021-03-28T13:23:33Z</time>
      </trkpt>
      <trkpt lat="45.11874" lon="4.89644">
        <ele>172.8</ele>
        <time>2021-03-28T13:23:37Z</time>
      </trkpt>
      <trkpt lat="45.11877" lon="4.8967">
        <ele>172.6</ele>
        <time>2021-03-28T13:23:41Z</time>
      </trkpt>
      <trkpt lat="45.11878" lon="4.89696">
        <ele>172.4</ele>
        <time>2021-03-28T13:23:45Z</time>
      </trkpt>
      <trkpt lat="45.11879" lon="4.89723">
        <ele>172.8</ele>
        <time>2021-03-28T13:23:49Z</time>
      </trkpt>
      <trkpt lat="45.1188" lon="4.89751">
        <ele>172</ele>
        <time>2021-03-28T13:23:53Z</time>
      </trkpt>
      <trkpt lat="45.11884" lon="4.89782">
        <ele>172</ele>
        <time>2021-03-28T13:23:57Z</time>
      </trkpt>
      <trkpt lat="45.11895" lon="4.89811">
        <ele>169.8</ele>
        <time>2021-03-28T13:24:01Z</time>
      </trkpt>
      <trkpt lat="45.11909" lon="4.89837">
        <ele>170</ele>
        <time>2021-03-28T13:24:05Z</time>
      </trkpt>
      <trkpt lat="45.1192" lon="4.89866">
        <ele>169.4</ele>
        <time>2021-03-28T13:24:09Z</time>
      </trkpt>
      <trkpt lat="45.11931" lon="4.89896">
        <ele>169</ele>
        <time>2021-03-28T13:24:13Z</time>
      </trkpt>
      <trkpt lat="45.11941" lon="4.89921">
        <ele>171</ele>
        <time>2021-03-28T13:24:17Z</time>
      </trkpt>
      <trkpt lat="45.11952" lon="4.89947">
        <ele>170</ele>
        <time>2021-03-28T13:24:21Z</time>
      </trkpt>
      <trkpt lat="45.11962" lon="4.89974">
        <ele>170.6</ele>
        <time>2021-03-28T13:24:25Z</time>
      </trkpt>
      <trkpt lat="45.11971" lon="4.90005">
        <ele>169.6</ele>
        <time>2021-03-28T13:24:29Z</time>
      </trkpt>
      <trkpt lat="45.11978" lon="4.90032">
        <ele>169.6</ele>
        <time>2021-03-28T13:24:33Z</time>
      </trkpt>
      <trkpt lat="45.11987" lon="4.90057">
        <ele>170</ele>
        <time>2021-03-28T13:24:37Z</time>
      </trkpt>
      <trkpt lat="45.11997" lon="4.90082">
        <ele>170.4</ele>
        <time>2021-03-28T13:24:41Z</time>
      </trkpt>
      <trkpt lat="45.11996" lon="4.90111">
        <ele>171</ele>
        <time>2021-03-28T13:24:45Z</time>
      </trkpt>
      <trkpt lat="45.11986" lon="4.90136">
        <ele>171</ele>
        <time>2021-03-28T13:24:49Z</time>
      </trkpt>
      <trkpt lat="45.11975" lon="4.90154">
        <ele>171.4</ele>
        <time>2021-03-28T13:24:53Z</time>
      </trkpt>
      <trkpt lat="45.11961" lon="4.90171">
        <ele>171.6</ele>
        <time>2021-03-28T13:24:57Z</time>
      </trkpt>
      <trkpt lat="45.11951" lon="4.90185">
        <ele>171.6</ele>
        <time>2021-03-28T13:25:01Z</time>
      </trkpt>
      <trkpt lat="45.11937" lon="4.90199">
        <ele>171.4</ele>
        <time>2021-03-28T13:25:05Z</time>
      </trkpt>
      <trkpt lat="45.11922" lon="4.90215">
        <ele>171.2</ele>
        <time>2021-03-28T13:25:09Z</time>
      </trkpt>
      <trkpt lat="45.11903" lon="4.90228">
        <ele>171.4</ele>
        <time>2021-03-28T13:25:13Z</time>
      </trkpt>
      <trkpt lat="45.11883" lon="4.90243">
        <ele>171.4</ele>
        <time>2021-03-28T13:25:17Z</time>
      </trkpt>
      <trkpt lat="45.11862" lon="4.9026">
        <ele>171.6</ele>
        <time>2021-03-28T13:25:21Z</time>
      </trkpt>
      <trkpt lat="45.11843" lon="4.90275">
        <ele>171.4</ele>
        <time>2021-03-28T13:25:25Z</time>
      </trkpt>
      <trkpt lat="45.11825" lon="4.90287">
        <ele>171.6</ele>
        <time>2021-03-28T13:25:29Z</time>
      </trkpt>
      <trkpt lat="45.11806" lon="4.90299">
        <ele>172.2</ele>
        <time>2021-03-28T13:25:33Z</time>
      </trkpt>
      <trkpt lat="45.11786" lon="4.90312">
        <ele>173</ele>
        <time>2021-03-28T13:25:37Z</time>
      </trkpt>
      <trkpt lat="45.11768" lon="4.90323">
        <ele>172.2</ele>
        <time>2021-03-28T13:25:41Z</time>
      </trkpt>
      <trkpt lat="45.1175" lon="4.90335">
        <ele>172.4</ele>
        <time>2021-03-28T13:25:45Z</time>
      </trkpt>
      <trkpt lat="45.11733" lon="4.90348">
        <ele>173.4</ele>
        <time>2021-03-28T13:25:49Z</time>
      </trkpt>
      <trkpt lat="45.11721" lon="4.90364">
        <ele>174.8</ele>
        <time>2021-03-28T13:25:53Z</time>
      </trkpt>
      <trkpt lat="45.11715" lon="4.90384">
        <ele>175.8</ele>
        <time>2021-03-28T13:25:57Z</time>
      </trkpt>
      <trkpt lat="45.11712" lon="4.90406">
        <ele>176</ele>
        <time>2021-03-28T13:26:01Z</time>
      </trkpt>
      <trkpt lat="45.1171" lon="4.90427">
        <ele>175.6</ele>
        <time>2021-03-28T13:26:05Z</time>
      </trkpt>
      <trkpt lat="45.11708" lon="4.90448">
        <ele>176.4</ele>
        <time>2021-03-28T13:26:09Z</time>
      </trkpt>
      <trkpt lat="45.11707" lon="4.9047">
        <ele>176.6</ele>
        <time>2021-03-28T13:26:13Z</time>
      </trkpt>
      <trkpt lat="45.11704" lon="4.90491">
        <ele>177.2</ele>
        <time>2021-03-28T13:26:17Z</time>
      </trkpt>
      <trkpt lat="45.11701" lon="4.9051">
        <ele>177.4</ele>
        <time>2021-03-28T13:26:21Z</time>
      </trkpt>
      <trkpt lat="45.11694" lon="4.90528">
        <ele>177.8</ele>
        <time>2021-03-28T13:26:25Z</time>
      </trkpt>
      <trkpt lat="45.11691" lon="4.90548">
        <ele>178.2</ele>
        <time>2021-03-28T13:26:29Z</time>
      </trkpt>
      <trkpt lat="45.11689" lon="4.90568">
        <ele>178.8</ele>
        <time>2021-03-28T13:26:33Z</time>
      </trkpt>
      <trkpt lat="45.11686" lon="4.90588">
        <ele>179.8</ele>
        <time>2021-03-28T13:26:37Z</time>
      </trkpt>
      <trkpt lat="45.11683" lon="4.90607">
        <ele>179.6</ele>
        <time>2021-03-28T13:26:41Z</time>
      </trkpt>
      <trkpt lat="45.11679" lon="4.90627">
        <ele>180</ele>
        <time>2021-03-28T13:26:45Z</time>
      </trkpt>
      <trkpt lat="45.11675" lon="4.90648">
        <ele>180.6</ele>
        <time>2021-03-28T13:26:49Z</time>
      </trkpt>
      <trkpt lat="45.11668" lon="4.9067">
        <ele>179.8</ele>
        <time>2021-03-28T13:26:53Z</time>
      </trkpt>
      <trkpt lat="45.11659" lon="4.90691">
        <ele>180.2</ele>
        <time>2021-03-28T13:26:57Z</time>
      </trkpt>
      <trkpt lat="45.11647" lon="4.90713">
        <ele>179.8</ele>
        <time>2021-03-28T13:27:01Z</time>
      </trkpt>
      <trkpt lat="45.11634" lon="4.90732">
        <ele>179.6</ele>
        <time>2021-03-28T13:27:05Z</time>
      </trkpt>
      <trkpt lat="45.11621" lon="4.90746">
        <ele>179.8</ele>
        <time>2021-03-28T13:27:09Z</time>
      </trkpt>
      <trkpt lat="45.11621" lon="4.90752">
        <ele>180.6</ele>
        <time>2021-03-28T13:27:13Z</time>
      </trkpt>
      <trkpt lat="45.1163" lon="4.90742">
        <ele>180.4</ele>
        <time>2021-03-28T13:27:17Z</time>
      </trkpt>
      <trkpt lat="45.11641" lon="4.90728">
        <ele>180.4</ele>
        <time>2021-03-28T13:27:21Z</time>
      </trkpt>
      <trkpt lat="45.11653" lon="4.90712">
        <ele>180.2</ele>
        <time>2021-03-28T13:27:25Z</time>
      </trkpt>
      <trkpt lat="45.11665" lon="4.90696">
        <ele>180</ele>
        <time>2021-03-28T13:27:29Z</time>
      </trkpt>
      <trkpt lat="45.11681" lon="4.90693">
        <ele>181</ele>
        <time>2021-03-28T13:27:33Z</time>
      </trkpt>
      <trkpt lat="45.11691" lon="4.90706">
        <ele>181.4</ele>
        <time>2021-03-28T13:27:37Z</time>
      </trkpt>
      <trkpt lat="45.11687" lon="4.90729">
        <ele>180.6</ele>
        <time>2021-03-28T13:27:41Z</time>
      </trkpt>
      <trkpt lat="45.11678" lon="4.90749">
        <ele>180.4</ele>
        <time>2021-03-28T13:27:45Z</time>
      </trkpt>
      <trkpt lat="45.11675" lon="4.90773">
        <ele>180.2</ele>
        <time>2021-03-28T13:27:49Z</time>
      </trkpt>
      <trkpt lat="45.11675" lon="4.90796">
        <ele>180.4</ele>
        <time>2021-03-28T13:27:53Z</time>
      </trkpt>
      <trkpt lat="45.11676" lon="4.90818">
        <ele>180.6</ele>
        <time>2021-03-28T13:27:57Z</time>
      </trkpt>
      <trkpt lat="45.11676" lon="4.9084">
        <ele>181.6</ele>
        <time>2021-03-28T13:28:01Z</time>
      </trkpt>
      <trkpt lat="45.11677" lon="4.9086">
        <ele>182.8</ele>
        <time>2021-03-28T13:28:05Z</time>
      </trkpt>
      <trkpt lat="45.11677" lon="4.9088">
        <ele>183</ele>
        <time>2021-03-28T13:28:09Z</time>
      </trkpt>
      <trkpt lat="45.11677" lon="4.90898">
        <ele>184.2</ele>
        <time>2021-03-28T13:28:13Z</time>
      </trkpt>
      <trkpt lat="45.11676" lon="4.90915">
        <ele>184.6</ele>
        <time>2021-03-28T13:28:17Z</time>
      </trkpt>
      <trkpt lat="45.11676" lon="4.90935">
        <ele>185</ele>
        <time>2021-03-28T13:28:21Z</time>
      </trkpt>
      <trkpt lat="45.11673" lon="4.90956">
        <ele>185.4</ele>
        <time>2021-03-28T13:28:25Z</time>
      </trkpt>
      <trkpt lat="45.1167" lon="4.90978">
        <ele>185</ele>
        <time>2021-03-28T13:28:29Z</time>
      </trkpt>
      <trkpt lat="45.11666" lon="4.91">
        <ele>184.8</ele>
        <time>2021-03-28T13:28:33Z</time>
      </trkpt>
      <trkpt lat="45.11661" lon="4.91024">
        <ele>184.4</ele>
        <time>2021-03-28T13:28:37Z</time>
      </trkpt>
      <trkpt lat="45.11654" lon="4.91048">
        <ele>183.4</ele>
        <time>2021-03-28T13:28:41Z</time>
      </trkpt>
      <trkpt lat="45.11648" lon="4.91072">
        <ele>183.8</ele>
        <time>2021-03-28T13:28:45Z</time>
      </trkpt>
      <trkpt lat="45.11642" lon="4.91098">
        <ele>183.8</ele>
        <time>2021-03-28T13:28:49Z</time>
      </trkpt>
      <trkpt lat="45.11634" lon="4.91123">
        <ele>183.6</ele>
        <time>2021-03-28T13:28:53Z</time>
      </trkpt>
      <trkpt lat="45.11627" lon="4.91147">
        <ele>184</ele>
        <time>2021-03-28T13:28:57Z</time>
      </trkpt>
      <trkpt lat="45.11615" lon="4.91171">
        <ele>184</ele>
        <time>2021-03-28T13:29:01Z</time>
      </trkpt>
      <trkpt lat="45.11603" lon="4.91191">
        <ele>184.2</ele>
        <time>2021-03-28T13:29:05Z</time>
      </trkpt>
      <trkpt lat="45.11592" lon="4.91212">
        <ele>184.2</ele>
        <time>2021-03-28T13:29:09Z</time>
      </trkpt>
      <trkpt lat="45.11583" lon="4.91232">
        <ele>184.6</ele>
        <time>2021-03-28T13:29:13Z</time>
      </trkpt>
      <trkpt lat="45.11575" lon="4.91251">
        <ele>185</ele>
        <time>2021-03-28T13:29:17Z</time>
      </trkpt>
      <trkpt lat="45.11568" lon="4.9127">
        <ele>185.6</ele>
        <time>2021-03-28T13:29:21Z</time>
      </trkpt>
      <trkpt lat="45.11563" lon="4.9129">
        <ele>187</ele>
        <time>2021-03-28T13:29:25Z</time>
      </trkpt>
      <trkpt lat="45.11558" lon="4.91308">
        <ele>186.8</ele>
        <time>2021-03-28T13:29:29Z</time>
      </trkpt>
      <trkpt lat="45.11554" lon="4.91325">
        <ele>187.2</ele>
        <time>2021-03-28T13:29:33Z</time>
      </trkpt>
      <trkpt lat="45.11552" lon="4.91344">
        <ele>186.4</ele>
        <time>2021-03-28T13:29:37Z</time>
      </trkpt>
      <trkpt lat="45.11548" lon="4.91368">
        <ele>185</ele>
        <time>2021-03-28T13:29:41Z</time>
      </trkpt>
      <trkpt lat="45.11544" lon="4.91397">
        <ele>183</ele>
        <time>2021-03-28T13:29:45Z</time>
      </trkpt>
      <trkpt lat="45.11539" lon="4.9143">
        <ele>182.4</ele>
        <time>2021-03-28T13:29:49Z</time>
      </trkpt>
      <trkpt lat="45.11534" lon="4.91466">
        <ele>180.2</ele>
        <time>2021-03-28T13:29:53Z</time>
      </trkpt>
      <trkpt lat="45.11529" lon="4.91506">
        <ele>178.4</ele>
        <time>2021-03-28T13:29:57Z</time>
      </trkpt>
      <trkpt lat="45.11518" lon="4.91546">
        <ele>177.2</ele>
        <time>2021-03-28T13:30:01Z</time>
      </trkpt>
      <trkpt lat="45.11502" lon="4.91584">
        <ele>175.4</ele>
        <time>2021-03-28T13:30:05Z</time>
      </trkpt>
      <trkpt lat="45.11484" lon="4.91618">
        <ele>174.8</ele>
        <time>2021-03-28T13:30:09Z</time>
      </trkpt>
      <trkpt lat="45.11468" lon="4.91649">
        <ele>175</ele>
        <time>2021-03-28T13:30:13Z</time>
      </trkpt>
      <trkpt lat="45.11453" lon="4.91678">
        <ele>176.8</ele>
        <time>2021-03-28T13:30:17Z</time>
      </trkpt>
      <trkpt lat="45.11438" lon="4.91706">
        <ele>176.4</ele>
        <time>2021-03-28T13:30:21Z</time>
      </trkpt>
      <trkpt lat="45.11425" lon="4.91733">
        <ele>175.6</ele>
        <time>2021-03-28T13:30:25Z</time>
      </trkpt>
      <trkpt lat="45.11411" lon="4.9176">
        <ele>175</ele>
        <time>2021-03-28T13:30:29Z</time>
      </trkpt>
      <trkpt lat="45.11396" lon="4.91786">
        <ele>174</ele>
        <time>2021-03-28T13:30:33Z</time>
      </trkpt>
      <trkpt lat="45.11379" lon="4.91812">
        <ele>173.6</ele>
        <time>2021-03-28T13:30:37Z</time>
      </trkpt>
      <trkpt lat="45.11363" lon="4.91836">
        <ele>172.6</ele>
        <time>2021-03-28T13:30:41Z</time>
      </trkpt>
      <trkpt lat="45.11346" lon="4.91861">
        <ele>172.4</ele>
        <time>2021-03-28T13:30:45Z</time>
      </trkpt>
      <trkpt lat="45.11329" lon="4.91885">
        <ele>171.4</ele>
        <time>2021-03-28T13:30:49Z</time>
      </trkpt>
      <trkpt lat="45.11312" lon="4.91909">
        <ele>170.8</ele>
        <time>2021-03-28T13:30:53Z</time>
      </trkpt>
      <trkpt lat="45.11294" lon="4.9193">
        <ele>171</ele>
        <time>2021-03-28T13:30:57Z</time>
      </trkpt>
      <trkpt lat="45.11275" lon="4.91951">
        <ele>170.8</ele>
        <time>2021-03-28T13:31:01Z</time>
      </trkpt>
      <trkpt lat="45.11257" lon="4.91972">
        <ele>169.6</ele>
        <time>2021-03-28T13:31:05Z</time>
      </trkpt>
      <trkpt lat="45.11238" lon="4.91995">
        <ele>168.8</ele>
        <time>2021-03-28T13:31:09Z</time>
      </trkpt>
      <trkpt lat="45.11222" lon="4.92019">
        <ele>169.2</ele>
        <time>2021-03-28T13:31:13Z</time>
      </trkpt>
      <trkpt lat="45.11211" lon="4.92048">
        <ele>168.4</ele>
        <time>2021-03-28T13:31:17Z</time>
      </trkpt>
      <trkpt lat="45.11204" lon="4.92078">
        <ele>169</ele>
        <time>2021-03-28T13:31:21Z</time>
      </trkpt>
      <trkpt lat="45.11198" lon="4.92109">
        <ele>168.8</ele>
        <time>2021-03-28T13:31:25Z</time>
      </trkpt>
      <trkpt lat="45.11191" lon="4.9214">
        <ele>168.6</ele>
        <time>2021-03-28T13:31:29Z</time>
      </trkpt>
      <trkpt lat="45.11185" lon="4.92172">
        <ele>168.8</ele>
        <time>2021-03-28T13:31:33Z</time>
      </trkpt>
      <trkpt lat="45.11179" lon="4.92204">
        <ele>169</ele>
        <time>2021-03-28T13:31:37Z</time>
      </trkpt>
      <trkpt lat="45.11174" lon="4.92232">
        <ele>169.6</ele>
        <time>2021-03-28T13:31:41Z</time>
      </trkpt>
      <trkpt lat="45.11171" lon="4.92257">
        <ele>170</ele>
        <time>2021-03-28T13:31:45Z</time>
      </trkpt>
      <trkpt lat="45.11173" lon="4.92283">
        <ele>171</ele>
        <time>2021-03-28T13:31:49Z</time>
      </trkpt>
      <trkpt lat="45.11177" lon="4.92308">
        <ele>170.4</ele>
        <time>2021-03-28T13:31:53Z</time>
      </trkpt>
      <trkpt lat="45.11179" lon="4.92333">
        <ele>170.8</ele>
        <time>2021-03-28T13:31:57Z</time>
      </trkpt>
      <trkpt lat="45.11176" lon="4.92358">
        <ele>170.8</ele>
        <time>2021-03-28T13:32:01Z</time>
      </trkpt>
      <trkpt lat="45.11167" lon="4.9238">
        <ele>170.2</ele>
        <time>2021-03-28T13:32:05Z</time>
      </trkpt>
      <trkpt lat="45.11151" lon="4.92397">
        <ele>170.4</ele>
        <time>2021-03-28T13:32:09Z</time>
      </trkpt>
      <trkpt lat="45.11136" lon="4.92413">
        <ele>169.4</ele>
        <time>2021-03-28T13:32:13Z</time>
      </trkpt>
      <trkpt lat="45.1112" lon="4.92428">
        <ele>169.4</ele>
        <time>2021-03-28T13:32:17Z</time>
      </trkpt>
      <trkpt lat="45.11104" lon="4.92443">
        <ele>169.4</ele>
        <time>2021-03-28T13:32:21Z</time>
      </trkpt>
      <trkpt lat="45.11087" lon="4.92459">
        <ele>169.4</ele>
        <time>2021-03-28T13:32:25Z</time>
      </trkpt>
      <trkpt lat="45.1107" lon="4.92475">
        <ele>170.2</ele>
        <time>2021-03-28T13:32:29Z</time>
      </trkpt>
      <trkpt lat="45.11053" lon="4.92491">
        <ele>169.2</ele>
        <time>2021-03-28T13:32:33Z</time>
      </trkpt>
      <trkpt lat="45.11036" lon="4.92508">
        <ele>169.4</ele>
        <time>2021-03-28T13:32:37Z</time>
      </trkpt>
      <trkpt lat="45.11019" lon="4.92524">
        <ele>170</ele>
        <time>2021-03-28T13:32:41Z</time>
      </trkpt>
      <trkpt lat="45.11002" lon="4.9254">
        <ele>169.6</ele>
        <time>2021-03-28T13:32:45Z</time>
      </trkpt>
      <trkpt lat="45.10985" lon="4.92558">
        <ele>169.8</ele>
        <time>2021-03-28T13:32:49Z</time>
      </trkpt>
      <trkpt lat="45.10985" lon="4.92584">
        <ele>169.8</ele>
        <time>2021-03-28T13:32:53Z</time>
      </trkpt>
      <trkpt lat="45.1099" lon="4.92607">
        <ele>171.2</ele>
        <time>2021-03-28T13:32:57Z</time>
      </trkpt>
      <trkpt lat="45.10995" lon="4.92628">
        <ele>170.8</ele>
        <time>2021-03-28T13:33:01Z</time>
      </trkpt>
      <trkpt lat="45.11002" lon="4.92648">
        <ele>171.4</ele>
        <time>2021-03-28T13:33:05Z</time>
      </trkpt>
      <trkpt lat="45.11008" lon="4.92667">
        <ele>171.8</ele>
        <time>2021-03-28T13:33:09Z</time>
      </trkpt>
      <trkpt lat="45.11015" lon="4.92689">
        <ele>171.6</ele>
        <time>2021-03-28T13:33:13Z</time>
      </trkpt>
      <trkpt lat="45.11021" lon="4.92713">
        <ele>171.4</ele>
        <time>2021-03-28T13:33:17Z</time>
      </trkpt>
      <trkpt lat="45.11029" lon="4.92738">
        <ele>171.6</ele>
        <time>2021-03-28T13:33:21Z</time>
      </trkpt>
      <trkpt lat="45.11036" lon="4.92764">
        <ele>172.2</ele>
        <time>2021-03-28T13:33:25Z</time>
      </trkpt>
      <trkpt lat="45.11043" lon="4.92791">
        <ele>171.6</ele>
        <time>2021-03-28T13:33:29Z</time>
      </trkpt>
      <trkpt lat="45.11048" lon="4.92817">
        <ele>171.6</ele>
        <time>2021-03-28T13:33:33Z</time>
      </trkpt>
      <trkpt lat="45.11054" lon="4.92844">
        <ele>173</ele>
        <time>2021-03-28T13:33:37Z</time>
      </trkpt>
      <trkpt lat="45.1106" lon="4.9287">
        <ele>172.8</ele>
        <time>2021-03-28T13:33:41Z</time>
      </trkpt>
      <trkpt lat="45.11066" lon="4.92895">
        <ele>173</ele>
        <time>2021-03-28T13:33:45Z</time>
      </trkpt>
      <trkpt lat="45.11071" lon="4.92921">
        <ele>173</ele>
        <time>2021-03-28T13:33:49Z</time>
      </trkpt>
      <trkpt lat="45.11076" lon="4.92948">
        <ele>172.2</ele>
        <time>2021-03-28T13:33:53Z</time>
      </trkpt>
      <trkpt lat="45.11081" lon="4.92974">
        <ele>173.2</ele>
        <time>2021-03-28T13:33:57Z</time>
      </trkpt>
      <trkpt lat="45.11086" lon="4.92999">
        <ele>173</ele>
        <time>2021-03-28T13:34:01Z</time>
      </trkpt>
      <trkpt lat="45.1109" lon="4.93024">
        <ele>174.2</ele>
        <time>2021-03-28T13:34:05Z</time>
      </trkpt>
      <trkpt lat="45.11095" lon="4.93048">
        <ele>175</ele>
        <time>2021-03-28T13:34:09Z</time>
      </trkpt>
      <trkpt lat="45.11101" lon="4.93071">
        <ele>175</ele>
        <time>2021-03-28T13:34:13Z</time>
      </trkpt>
      <trkpt lat="45.11106" lon="4.93096">
        <ele>175.2</ele>
        <time>2021-03-28T13:34:17Z</time>
      </trkpt>
      <trkpt lat="45.11111" lon="4.93121">
        <ele>174.8</ele>
        <time>2021-03-28T13:34:21Z</time>
      </trkpt>
      <trkpt lat="45.11116" lon="4.93146">
        <ele>174.6</ele>
        <time>2021-03-28T13:34:25Z</time>
      </trkpt>
      <trkpt lat="45.11121" lon="4.9317">
        <ele>175.6</ele>
        <time>2021-03-28T13:34:29Z</time>
      </trkpt>
      <trkpt lat="45.11129" lon="4.93193">
        <ele>175.6</ele>
        <time>2021-03-28T13:34:33Z</time>
      </trkpt>
      <trkpt lat="45.11137" lon="4.93214">
        <ele>176.2</ele>
        <time>2021-03-28T13:34:37Z</time>
      </trkpt>
      <trkpt lat="45.11146" lon="4.93234">
        <ele>176.4</ele>
        <time>2021-03-28T13:34:41Z</time>
      </trkpt>
      <trkpt lat="45.11154" lon="4.93253">
        <ele>177</ele>
        <time>2021-03-28T13:34:45Z</time>
      </trkpt>
      <trkpt lat="45.11162" lon="4.93271">
        <ele>177.4</ele>
        <time>2021-03-28T13:34:49Z</time>
      </trkpt>
      <trkpt lat="45.1117" lon="4.93288">
        <ele>178.6</ele>
        <time>2021-03-28T13:34:53Z</time>
      </trkpt>
      <trkpt lat="45.11178" lon="4.93304">
        <ele>179.2</ele>
        <time>2021-03-28T13:34:57Z</time>
      </trkpt>
      <trkpt lat="45.11185" lon="4.9332">
        <ele>179.4</ele>
        <time>2021-03-28T13:35:01Z</time>
      </trkpt>
      <trkpt lat="45.11193" lon="4.93336">
        <ele>180.6</ele>
        <time>2021-03-28T13:35:05Z</time>
      </trkpt>
      <trkpt lat="45.11201" lon="4.9335">
        <ele>181</ele>
        <time>2021-03-28T13:35:09Z</time>
      </trkpt>
      <trkpt lat="45.11208" lon="4.93364">
        <ele>181.2</ele>
        <time>2021-03-28T13:35:13Z</time>
      </trkpt>
      <trkpt lat="45.11215" lon="4.93376">
        <ele>181.8</ele>
        <time>2021-03-28T13:35:17Z</time>
      </trkpt>
      <trkpt lat="45.11223" lon="4.93388">
        <ele>182</ele>
        <time>2021-03-28T13:35:21Z</time>
      </trkpt>
      <trkpt lat="45.1123" lon="4.934">
        <ele>183.2</ele>
        <time>2021-03-28T13:35:25Z</time>
      </trkpt>
      <trkpt lat="45.11237" lon="4.93411">
        <ele>183.8</ele>
        <time>2021-03-28T13:35:29Z</time>
      </trkpt>
      <trkpt lat="45.11244" lon="4.93423">
        <ele>184.4</ele>
        <time>2021-03-28T13:35:33Z</time>
      </trkpt>
      <trkpt lat="45.11251" lon="4.93434">
        <ele>185</ele>
        <time>2021-03-28T13:35:37Z</time>
      </trkpt>
      <trkpt lat="45.11259" lon="4.93445">
        <ele>185.8</ele>
        <time>2021-03-28T13:35:41Z</time>
      </trkpt>
      <trkpt lat="45.11267" lon="4.93456">
        <ele>187.4</ele>
        <time>2021-03-28T13:35:45Z</time>
      </trkpt>
      <trkpt lat="45.11275" lon="4.93466">
        <ele>187.6</ele>
        <time>2021-03-28T13:35:49Z</time>
      </trkpt>
      <trkpt lat="45.11282" lon="4.93477">
        <ele>188</ele>
        <time>2021-03-28T13:35:53Z</time>
      </trkpt>
      <trkpt lat="45.1129" lon="4.93488">
        <ele>188.6</ele>
        <time>2021-03-28T13:35:57Z</time>
      </trkpt>
      <trkpt lat="45.11297" lon="4.935">
        <ele>189.4</ele>
        <time>2021-03-28T13:36:01Z</time>
      </trkpt>
      <trkpt lat="45.11305" lon="4.93512">
        <ele>190.2</ele>
        <time>2021-03-28T13:36:05Z</time>
      </trkpt>
      <trkpt lat="45.11312" lon="4.93524">
        <ele>190.8</ele>
        <time>2021-03-28T13:36:09Z</time>
      </trkpt>
      <trkpt lat="45.11319" lon="4.93537">
        <ele>192</ele>
        <time>2021-03-28T13:36:13Z</time>
      </trkpt>
      <trkpt lat="45.11326" lon="4.93549">
        <ele>191.6</ele>
        <time>2021-03-28T13:36:17Z</time>
      </trkpt>
      <trkpt lat="45.11333" lon="4.93562">
        <ele>192.4</ele>
        <time>2021-03-28T13:36:21Z</time>
      </trkpt>
      <trkpt lat="45.11339" lon="4.93576">
        <ele>192.6</ele>
        <time>2021-03-28T13:36:25Z</time>
      </trkpt>
      <trkpt lat="45.11345" lon="4.9359">
        <ele>193.6</ele>
        <time>2021-03-28T13:36:29Z</time>
      </trkpt>
      <trkpt lat="45.1135" lon="4.93605">
        <ele>193.8</ele>
        <time>2021-03-28T13:36:33Z</time>
      </trkpt>
      <trkpt lat="45.11356" lon="4.93619">
        <ele>194.6</ele>
        <time>2021-03-28T13:36:37Z</time>
      </trkpt>
      <trkpt lat="45.11361" lon="4.93635">
        <ele>194.4</ele>
        <time>2021-03-28T13:36:41Z</time>
      </trkpt>
      <trkpt lat="45.11366" lon="4.93651">
        <ele>194.8</ele>
        <time>2021-03-28T13:36:45Z</time>
      </trkpt>
      <trkpt lat="45.11372" lon="4.93667">
        <ele>195</ele>
        <time>2021-03-28T13:36:49Z</time>
      </trkpt>
      <trkpt lat="45.11377" lon="4.93684">
        <ele>195.2</ele>
        <time>2021-03-28T13:36:53Z</time>
      </trkpt>
      <trkpt lat="45.11382" lon="4.93702">
        <ele>195.6</ele>
        <time>2021-03-28T13:36:57Z</time>
      </trkpt>
      <trkpt lat="45.11388" lon="4.93719">
        <ele>195.6</ele>
        <time>2021-03-28T13:37:01Z</time>
      </trkpt>
      <trkpt lat="45.11393" lon="4.93737">
        <ele>195.2</ele>
        <time>2021-03-28T13:37:05Z</time>
      </trkpt>
      <trkpt lat="45.114" lon="4.93757">
        <ele>194</ele>
        <time>2021-03-28T13:37:09Z</time>
      </trkpt>
      <trkpt lat="45.11408" lon="4.93779">
        <ele>194</ele>
        <time>2021-03-28T13:37:13Z</time>
      </trkpt>
      <trkpt lat="45.11418" lon="4.93806">
        <ele>192.2</ele>
        <time>2021-03-28T13:37:17Z</time>
      </trkpt>
      <trkpt lat="45.11433" lon="4.93836">
        <ele>190.2</ele>
        <time>2021-03-28T13:37:21Z</time>
      </trkpt>
      <trkpt lat="45.11454" lon="4.93868">
        <ele>187.8</ele>
        <time>2021-03-28T13:37:25Z</time>
      </trkpt>
      <trkpt lat="45.11479" lon="4.93898">
        <ele>186.4</ele>
        <time>2021-03-28T13:37:29Z</time>
      </trkpt>
      <trkpt lat="45.11503" lon="4.93925">
        <ele>186</ele>
        <time>2021-03-28T13:37:33Z</time>
      </trkpt>
      <trkpt lat="45.11527" lon="4.93949">
        <ele>185.4</ele>
        <time>2021-03-28T13:37:37Z</time>
      </trkpt>
      <trkpt lat="45.11549" lon="4.93968">
        <ele>185.4</ele>
        <time>2021-03-28T13:37:41Z</time>
      </trkpt>
      <trkpt lat="45.1157" lon="4.93981">
        <ele>185.6</ele>
        <time>2021-03-28T13:37:45Z</time>
      </trkpt>
      <trkpt lat="45.11591" lon="4.93988">
        <ele>185.4</ele>
        <time>2021-03-28T13:37:49Z</time>
      </trkpt>
      <trkpt lat="45.1161" lon="4.93992">
        <ele>186.4</ele>
        <time>2021-03-28T13:37:53Z</time>
      </trkpt>
      <trkpt lat="45.11627" lon="4.93995">
        <ele>187.2</ele>
        <time>2021-03-28T13:37:57Z</time>
      </trkpt>
      <trkpt lat="45.11644" lon="4.93998">
        <ele>187</ele>
        <time>2021-03-28T13:38:01Z</time>
      </trkpt>
      <trkpt lat="45.11656" lon="4.94011">
        <ele>187.6</ele>
        <time>2021-03-28T13:38:05Z</time>
      </trkpt>
      <trkpt lat="45.11656" lon="4.94036">
        <ele>185.8</ele>
        <time>2021-03-28T13:38:09Z</time>
      </trkpt>
      <trkpt lat="45.11655" lon="4.94065">
        <ele>185.2</ele>
        <time>2021-03-28T13:38:13Z</time>
      </trkpt>
      <trkpt lat="45.11653" lon="4.94093">
        <ele>185.8</ele>
        <time>2021-03-28T13:38:17Z</time>
      </trkpt>
      <trkpt lat="45.11652" lon="4.94113">
        <ele>185.4</ele>
        <time>2021-03-28T13:38:21Z</time>
      </trkpt>
      <trkpt lat="45.11654" lon="4.94132">
        <ele>186</ele>
        <time>2021-03-28T13:38:25Z</time>
      </trkpt>
      <trkpt lat="45.11654" lon="4.94153">
        <ele>185.8</ele>
        <time>2021-03-28T13:38:29Z</time>
      </trkpt>
      <trkpt lat="45.11652" lon="4.94178">
        <ele>185.8</ele>
        <time>2021-03-28T13:38:33Z</time>
      </trkpt>
      <trkpt lat="45.11651" lon="4.94205">
        <ele>185</ele>
        <time>2021-03-28T13:38:37Z</time>
      </trkpt>
      <trkpt lat="45.1165" lon="4.94232">
        <ele>185.4</ele>
        <time>2021-03-28T13:38:41Z</time>
      </trkpt>
      <trkpt lat="45.11649" lon="4.94258">
        <ele>186</ele>
        <time>2021-03-28T13:38:45Z</time>
      </trkpt>
      <trkpt lat="45.11649" lon="4.94283">
        <ele>186.4</ele>
        <time>2021-03-28T13:38:49Z</time>
      </trkpt>
      <trkpt lat="45.11648" lon="4.94306">
        <ele>186.4</ele>
        <time>2021-03-28T13:38:53Z</time>
      </trkpt>
      <trkpt lat="45.11649" lon="4.94328">
        <ele>187.4</ele>
        <time>2021-03-28T13:38:57Z</time>
      </trkpt>
      <trkpt lat="45.11652" lon="4.9435">
        <ele>187.6</ele>
        <time>2021-03-28T13:39:01Z</time>
      </trkpt>
      <trkpt lat="45.11654" lon="4.94368">
        <ele>188.6</ele>
        <time>2021-03-28T13:39:05Z</time>
      </trkpt>
      <trkpt lat="45.11656" lon="4.94383">
        <ele>189.2</ele>
        <time>2021-03-28T13:39:09Z</time>
      </trkpt>
      <trkpt lat="45.11656" lon="4.94397">
        <ele>190</ele>
        <time>2021-03-28T13:39:13Z</time>
      </trkpt>
      <trkpt lat="45.11657" lon="4.94408">
        <ele>191.2</ele>
        <time>2021-03-28T13:39:17Z</time>
      </trkpt>
      <trkpt lat="45.11658" lon="4.94417">
        <ele>192.2</ele>
        <time>2021-03-28T13:39:21Z</time>
      </trkpt>
      <trkpt lat="45.11659" lon="4.94424">
        <ele>192.2</ele>
        <time>2021-03-28T13:39:25Z</time>
      </trkpt>
      <trkpt lat="45.11656" lon="4.94428">
        <ele>192.4</ele>
        <time>2021-03-28T13:39:29Z</time>
      </trkpt>
      <trkpt lat="45.11651" lon="4.94432">
        <ele>193.8</ele>
        <time>2021-03-28T13:39:33Z</time>
      </trkpt>
      <trkpt lat="45.11646" lon="4.94434">
        <ele>194.6</ele>
        <time>2021-03-28T13:39:37Z</time>
      </trkpt>
      <trkpt lat="45.1164" lon="4.94439">
        <ele>194.8</ele>
        <time>2021-03-28T13:39:41Z</time>
      </trkpt>
      <trkpt lat="45.11635" lon="4.94444">
        <ele>195</ele>
        <time>2021-03-28T13:39:45Z</time>
      </trkpt>
      <trkpt lat="45.11626" lon="4.94446">
        <ele>195.8</ele>
        <time>2021-03-28T13:39:49Z</time>
      </trkpt>
      <trkpt lat="45.1162" lon="4.94452">
        <ele>196.6</ele>
        <time>2021-03-28T13:39:53Z</time>
      </trkpt>
      <trkpt lat="45.11615" lon="4.94458">
        <ele>197.4</ele>
        <time>2021-03-28T13:39:57Z</time>
      </trkpt>
      <trkpt lat="45.11611" lon="4.94464">
        <ele>197.6</ele>
        <time>2021-03-28T13:40:01Z</time>
      </trkpt>
      <trkpt lat="45.11604" lon="4.94471">
        <ele>198.6</ele>
        <time>2021-03-28T13:40:05Z</time>
      </trkpt>
      <trkpt lat="45.11598" lon="4.9448">
        <ele>199.4</ele>
        <time>2021-03-28T13:40:09Z</time>
      </trkpt>
      <trkpt lat="45.11594" lon="4.94488">
        <ele>199.8</ele>
        <time>2021-03-28T13:40:13Z</time>
      </trkpt>
      <trkpt lat="45.11589" lon="4.94496">
        <ele>200.2</ele>
        <time>2021-03-28T13:40:17Z</time>
      </trkpt>
      <trkpt lat="45.11585" lon="4.94502">
        <ele>200.6</ele>
        <time>2021-03-28T13:40:21Z</time>
      </trkpt>
      <trkpt lat="45.11575" lon="4.94509">
        <ele>201</ele>
        <time>2021-03-28T13:40:25Z</time>
      </trkpt>
      <trkpt lat="45.11568" lon="4.9452">
        <ele>201.8</ele>
        <time>2021-03-28T13:40:29Z</time>
      </trkpt>
      <trkpt lat="45.11563" lon="4.94533">
        <ele>201.8</ele>
        <time>2021-03-28T13:40:33Z</time>
      </trkpt>
      <trkpt lat="45.1156" lon="4.94548">
        <ele>202.2</ele>
        <time>2021-03-28T13:40:37Z</time>
      </trkpt>
      <trkpt lat="45.11558" lon="4.94564">
        <ele>202.4</ele>
        <time>2021-03-28T13:40:41Z</time>
      </trkpt>
      <trkpt lat="45.11556" lon="4.94582">
        <ele>202.6</ele>
        <time>2021-03-28T13:40:45Z</time>
      </trkpt>
      <trkpt lat="45.11555" lon="4.94599">
        <ele>202.8</ele>
        <time>2021-03-28T13:40:49Z</time>
      </trkpt>
      <trkpt lat="45.11556" lon="4.94618">
        <ele>202.6</ele>
        <time>2021-03-28T13:40:53Z</time>
      </trkpt>
      <trkpt lat="45.11556" lon="4.94638">
        <ele>202.8</ele>
        <time>2021-03-28T13:40:57Z</time>
      </trkpt>
      <trkpt lat="45.11556" lon="4.9466">
        <ele>202.8</ele>
        <time>2021-03-28T13:41:01Z</time>
      </trkpt>
      <trkpt lat="45.11555" lon="4.94682">
        <ele>203</ele>
        <time>2021-03-28T13:41:05Z</time>
      </trkpt>
      <trkpt lat="45.11555" lon="4.94703">
        <ele>203.2</ele>
        <time>2021-03-28T13:41:09Z</time>
      </trkpt>
      <trkpt lat="45.11556" lon="4.94723">
        <ele>203.2</ele>
        <time>2021-03-28T13:41:13Z</time>
      </trkpt>
      <trkpt lat="45.11557" lon="4.94743">
        <ele>203.6</ele>
        <time>2021-03-28T13:41:17Z</time>
      </trkpt>
      <trkpt lat="45.11559" lon="4.9476">
        <ele>204.6</ele>
        <time>2021-03-28T13:41:21Z</time>
      </trkpt>
      <trkpt lat="45.11561" lon="4.94777">
        <ele>205.4</ele>
        <time>2021-03-28T13:41:25Z</time>
      </trkpt>
      <trkpt lat="45.11562" lon="4.94788">
        <ele>204.6</ele>
        <time>2021-03-28T13:41:29Z</time>
      </trkpt>
      <trkpt lat="45.11564" lon="4.94794">
        <ele>205.2</ele>
        <time>2021-03-28T13:41:33Z</time>
      </trkpt>
      <trkpt lat="45.11565" lon="4.94808">
        <ele>205</ele>
        <time>2021-03-28T13:41:37Z</time>
      </trkpt>
      <trkpt lat="45.11567" lon="4.94823">
        <ele>205.8</ele>
        <time>2021-03-28T13:41:41Z</time>
      </trkpt>
      <trkpt lat="45.1157" lon="4.94838">
        <ele>206.4</ele>
        <time>2021-03-28T13:41:45Z</time>
      </trkpt>
      <trkpt lat="45.11573" lon="4.94854">
        <ele>206.8</ele>
        <time>2021-03-28T13:41:49Z</time>
      </trkpt>
      <trkpt lat="45.11576" lon="4.94869">
        <ele>207</ele>
        <time>2021-03-28T13:41:53Z</time>
      </trkpt>
      <trkpt lat="45.11579" lon="4.94885">
        <ele>207.6</ele>
        <time>2021-03-28T13:41:57Z</time>
      </trkpt>
      <trkpt lat="45.11582" lon="4.94901">
        <ele>207.2</ele>
        <time>2021-03-28T13:42:01Z</time>
      </trkpt>
      <trkpt lat="45.11585" lon="4.94917">
        <ele>208.2</ele>
        <time>2021-03-28T13:42:05Z</time>
      </trkpt>
      <trkpt lat="45.11589" lon="4.94931">
        <ele>208.4</ele>
        <time>2021-03-28T13:42:09Z</time>
      </trkpt>
      <trkpt lat="45.11592" lon="4.94941">
        <ele>208.2</ele>
        <time>2021-03-28T13:42:13Z</time>
      </trkpt>
      <trkpt lat="45.11592" lon="4.9495">
        <ele>208.4</ele>
        <time>2021-03-28T13:42:17Z</time>
      </trkpt>
      <trkpt lat="45.11597" lon="4.94962">
        <ele>209</ele>
        <time>2021-03-28T13:42:21Z</time>
      </trkpt>
      <trkpt lat="45.11604" lon="4.94976">
        <ele>209</ele>
        <time>2021-03-28T13:42:25Z</time>
      </trkpt>
      <trkpt lat="45.11613" lon="4.94995">
        <ele>207.8</ele>
        <time>2021-03-28T13:42:29Z</time>
      </trkpt>
      <trkpt lat="45.11622" lon="4.95018">
        <ele>206.6</ele>
        <time>2021-03-28T13:42:33Z</time>
      </trkpt>
      <trkpt lat="45.11634" lon="4.95041">
        <ele>206.2</ele>
        <time>2021-03-28T13:42:37Z</time>
      </trkpt>
      <trkpt lat="45.11646" lon="4.95066">
        <ele>205.8</ele>
        <time>2021-03-28T13:42:41Z</time>
      </trkpt>
      <trkpt lat="45.11656" lon="4.95091">
        <ele>205.4</ele>
        <time>2021-03-28T13:42:45Z</time>
      </trkpt>
      <trkpt lat="45.11666" lon="4.9512">
        <ele>204.6</ele>
        <time>2021-03-28T13:42:49Z</time>
      </trkpt>
      <trkpt lat="45.11674" lon="4.9515">
        <ele>203</ele>
        <time>2021-03-28T13:42:53Z</time>
      </trkpt>
      <trkpt lat="45.11682" lon="4.95178">
        <ele>203</ele>
        <time>2021-03-28T13:42:57Z</time>
      </trkpt>
      <trkpt lat="45.11689" lon="4.95205">
        <ele>203.2</ele>
        <time>2021-03-28T13:43:01Z</time>
      </trkpt>
      <trkpt lat="45.11695" lon="4.95231">
        <ele>202.2</ele>
        <time>2021-03-28T13:43:05Z</time>
      </trkpt>
      <trkpt lat="45.11706" lon="4.95257">
        <ele>202.2</ele>
        <time>2021-03-28T13:43:09Z</time>
      </trkpt>
      <trkpt lat="45.11717" lon="4.95286">
        <ele>199.4</ele>
        <time>2021-03-28T13:43:13Z</time>
      </trkpt>
      <trkpt lat="45.11719" lon="4.95322">
        <ele>198.2</ele>
        <time>2021-03-28T13:43:17Z</time>
      </trkpt>
      <trkpt lat="45.11713" lon="4.95363">
        <ele>194.6</ele>
        <time>2021-03-28T13:43:21Z</time>
      </trkpt>
      <trkpt lat="45.11724" lon="4.95404">
        <ele>192.4</ele>
        <time>2021-03-28T13:43:25Z</time>
      </trkpt>
      <trkpt lat="45.11757" lon="4.95422">
        <ele>188.2</ele>
        <time>2021-03-28T13:43:29Z</time>
      </trkpt>
      <trkpt lat="45.11795" lon="4.95432">
        <ele>184</ele>
        <time>2021-03-28T13:43:33Z</time>
      </trkpt>
      <trkpt lat="45.11824" lon="4.9546">
        <ele>184.2</ele>
        <time>2021-03-28T13:43:37Z</time>
      </trkpt>
      <trkpt lat="45.11823" lon="4.95506">
        <ele>183</ele>
        <time>2021-03-28T13:43:41Z</time>
      </trkpt>
      <trkpt lat="45.11808" lon="4.95529">
        <ele>187.4</ele>
        <time>2021-03-28T13:43:45Z</time>
      </trkpt>
      <trkpt lat="45.11799" lon="4.95545">
        <ele>190</ele>
        <time>2021-03-28T13:43:49Z</time>
      </trkpt>
      <trkpt lat="45.11798" lon="4.95557">
        <ele>191.2</ele>
        <time>2021-03-28T13:43:53Z</time>
      </trkpt>
      <trkpt lat="45.11799" lon="4.95569">
        <ele>192</ele>
        <time>2021-03-28T13:43:57Z</time>
      </trkpt>
      <trkpt lat="45.11799" lon="4.9558">
        <ele>191.8</ele>
        <time>2021-03-28T13:44:01Z</time>
      </trkpt>
      <trkpt lat="45.11801" lon="4.9559">
        <ele>193</ele>
        <time>2021-03-28T13:44:05Z</time>
      </trkpt>
      <trkpt lat="45.118" lon="4.95601">
        <ele>193.2</ele>
        <time>2021-03-28T13:44:09Z</time>
      </trkpt>
      <trkpt lat="45.11797" lon="4.95611">
        <ele>194</ele>
        <time>2021-03-28T13:44:13Z</time>
      </trkpt>
      <trkpt lat="45.11791" lon="4.95616">
        <ele>195</ele>
        <time>2021-03-28T13:44:17Z</time>
      </trkpt>
      <trkpt lat="45.11785" lon="4.95618">
        <ele>196</ele>
        <time>2021-03-28T13:44:21Z</time>
      </trkpt>
      <trkpt lat="45.11778" lon="4.95619">
        <ele>196.6</ele>
        <time>2021-03-28T13:44:25Z</time>
      </trkpt>
      <trkpt lat="45.11772" lon="4.95621">
        <ele>197.8</ele>
        <time>2021-03-28T13:44:29Z</time>
      </trkpt>
      <trkpt lat="45.11767" lon="4.95624">
        <ele>198</ele>
        <time>2021-03-28T13:44:33Z</time>
      </trkpt>
      <trkpt lat="45.11761" lon="4.95629">
        <ele>198.6</ele>
        <time>2021-03-28T13:44:37Z</time>
      </trkpt>
      <trkpt lat="45.11755" lon="4.95635">
        <ele>199</ele>
        <time>2021-03-28T13:44:41Z</time>
      </trkpt>
      <trkpt lat="45.11752" lon="4.95648">
        <ele>199.6</ele>
        <time>2021-03-28T13:44:45Z</time>
      </trkpt>
      <trkpt lat="45.11752" lon="4.95661">
        <ele>200.2</ele>
        <time>2021-03-28T13:44:49Z</time>
      </trkpt>
      <trkpt lat="45.11752" lon="4.95674">
        <ele>201.2</ele>
        <time>2021-03-28T13:44:53Z</time>
      </trkpt>
      <trkpt lat="45.1175" lon="4.95686">
        <ele>202.2</ele>
        <time>2021-03-28T13:44:57Z</time>
      </trkpt>
      <trkpt lat="45.11749" lon="4.95697">
        <ele>202.4</ele>
        <time>2021-03-28T13:45:01Z</time>
      </trkpt>
      <trkpt lat="45.11747" lon="4.95708">
        <ele>203.6</ele>
        <time>2021-03-28T13:45:05Z</time>
      </trkpt>
      <trkpt lat="45.11746" lon="4.95719">
        <ele>203.6</ele>
        <time>2021-03-28T13:45:09Z</time>
      </trkpt>
      <trkpt lat="45.11746" lon="4.9573">
        <ele>204.4</ele>
        <time>2021-03-28T13:45:13Z</time>
      </trkpt>
      <trkpt lat="45.11746" lon="4.95741">
        <ele>205.4</ele>
        <time>2021-03-28T13:45:17Z</time>
      </trkpt>
      <trkpt lat="45.11744" lon="4.95752">
        <ele>205.2</ele>
        <time>2021-03-28T13:45:21Z</time>
      </trkpt>
      <trkpt lat="45.11744" lon="4.95764">
        <ele>206</ele>
        <time>2021-03-28T13:45:25Z</time>
      </trkpt>
      <trkpt lat="45.11745" lon="4.95777">
        <ele>206.2</ele>
        <time>2021-03-28T13:45:29Z</time>
      </trkpt>
      <trkpt lat="45.11745" lon="4.95791">
        <ele>206</ele>
        <time>2021-03-28T13:45:33Z</time>
      </trkpt>
      <trkpt lat="45.11747" lon="4.95807">
        <ele>205.2</ele>
        <time>2021-03-28T13:45:37Z</time>
      </trkpt>
      <trkpt lat="45.11752" lon="4.95825">
        <ele>205.6</ele>
        <time>2021-03-28T13:45:41Z</time>
      </trkpt>
      <trkpt lat="45.11756" lon="4.95845">
        <ele>204.4</ele>
        <time>2021-03-28T13:45:45Z</time>
      </trkpt>
      <trkpt lat="45.1176" lon="4.95867">
        <ele>202.8</ele>
        <time>2021-03-28T13:45:49Z</time>
      </trkpt>
      <trkpt lat="45.11767" lon="4.95893">
        <ele>202</ele>
        <time>2021-03-28T13:45:53Z</time>
      </trkpt>
      <trkpt lat="45.11774" lon="4.95925">
        <ele>200</ele>
        <time>2021-03-28T13:45:57Z</time>
      </trkpt>
      <trkpt lat="45.1178" lon="4.95962">
        <ele>199</ele>
        <time>2021-03-28T13:46:01Z</time>
      </trkpt>
      <trkpt lat="45.11787" lon="4.96004">
        <ele>196</ele>
        <time>2021-03-28T13:46:05Z</time>
      </trkpt>
      <trkpt lat="45.11795" lon="4.9605">
        <ele>193.6</ele>
        <time>2021-03-28T13:46:09Z</time>
      </trkpt>
      <trkpt lat="45.11801" lon="4.96101">
        <ele>191</ele>
        <time>2021-03-28T13:46:13Z</time>
      </trkpt>
      <trkpt lat="45.11806" lon="4.96155">
        <ele>188</ele>
        <time>2021-03-28T13:46:17Z</time>
      </trkpt>
      <trkpt lat="45.11811" lon="4.9621">
        <ele>185</ele>
        <time>2021-03-28T13:46:21Z</time>
      </trkpt>
      <trkpt lat="45.11814" lon="4.96258">
        <ele>183</ele>
        <time>2021-03-28T13:46:25Z</time>
      </trkpt>
      <trkpt lat="45.11828" lon="4.96303">
        <ele>180.8</ele>
        <time>2021-03-28T13:46:29Z</time>
      </trkpt>
      <trkpt lat="45.11828" lon="4.96349">
        <ele>177</ele>
        <time>2021-03-28T13:46:33Z</time>
      </trkpt>
      <trkpt lat="45.11836" lon="4.96399">
        <ele>174</ele>
        <time>2021-03-28T13:46:37Z</time>
      </trkpt>
      <trkpt lat="45.1186" lon="4.96443">
        <ele>173.2</ele>
        <time>2021-03-28T13:46:41Z</time>
      </trkpt>
      <trkpt lat="45.11876" lon="4.9649">
        <ele>172.4</ele>
        <time>2021-03-28T13:46:45Z</time>
      </trkpt>
      <trkpt lat="45.11874" lon="4.96536">
        <ele>172.4</ele>
        <time>2021-03-28T13:46:49Z</time>
      </trkpt>
      <trkpt lat="45.11869" lon="4.96575">
        <ele>174.8</ele>
        <time>2021-03-28T13:46:53Z</time>
      </trkpt>
      <trkpt lat="45.11861" lon="4.96611">
        <ele>174</ele>
        <time>2021-03-28T13:46:57Z</time>
      </trkpt>
      <trkpt lat="45.11851" lon="4.96645">
        <ele>172.4</ele>
        <time>2021-03-28T13:47:01Z</time>
      </trkpt>
      <trkpt lat="45.1184" lon="4.96679">
        <ele>171.6</ele>
        <time>2021-03-28T13:47:05Z</time>
      </trkpt>
      <trkpt lat="45.11828" lon="4.96712">
        <ele>171.4</ele>
        <time>2021-03-28T13:47:09Z</time>
      </trkpt>
      <trkpt lat="45.11812" lon="4.96743">
        <ele>170.2</ele>
        <time>2021-03-28T13:47:13Z</time>
      </trkpt>
      <trkpt lat="45.1179" lon="4.96765">
        <ele>170</ele>
        <time>2021-03-28T13:47:17Z</time>
      </trkpt>
      <trkpt lat="45.11768" lon="4.96778">
        <ele>169.4</ele>
        <time>2021-03-28T13:47:21Z</time>
      </trkpt>
      <trkpt lat="45.11752" lon="4.96797">
        <ele>170.4</ele>
        <time>2021-03-28T13:47:25Z</time>
      </trkpt>
      <trkpt lat="45.11742" lon="4.96821">
        <ele>169.8</ele>
        <time>2021-03-28T13:47:29Z</time>
      </trkpt>
      <trkpt lat="45.11734" lon="4.96845">
        <ele>169.4</ele>
        <time>2021-03-28T13:47:33Z</time>
      </trkpt>
      <trkpt lat="45.11744" lon="4.96868">
        <ele>169.6</ele>
        <time>2021-03-28T13:47:37Z</time>
      </trkpt>
      <trkpt lat="45.1176" lon="4.96884">
        <ele>170.2</ele>
        <time>2021-03-28T13:47:41Z</time>
      </trkpt>
      <trkpt lat="45.11772" lon="4.96903">
        <ele>171.4</ele>
        <time>2021-03-28T13:47:45Z</time>
      </trkpt>
      <trkpt lat="45.11785" lon="4.96924">
        <ele>171.6</ele>
        <time>2021-03-28T13:47:49Z</time>
      </trkpt>
      <trkpt lat="45.11796" lon="4.96944">
        <ele>171.4</ele>
        <time>2021-03-28T13:47:53Z</time>
      </trkpt>
      <trkpt lat="45.11809" lon="4.96964">
        <ele>171.4</ele>
        <time>2021-03-28T13:47:57Z</time>
      </trkpt>
      <trkpt lat="45.11822" lon="4.96983">
        <ele>171.8</ele>
        <time>2021-03-28T13:48:01Z</time>
      </trkpt>
      <trkpt lat="45.11834" lon="4.97002">
        <ele>172</ele>
        <time>2021-03-28T13:48:05Z</time>
      </trkpt>
      <trkpt lat="45.11849" lon="4.97021">
        <ele>172</ele>
        <time>2021-03-28T13:48:09Z</time>
      </trkpt>
      <trkpt lat="45.11863" lon="4.9704">
        <ele>171.4</ele>
        <time>2021-03-28T13:48:13Z</time>
      </trkpt>
      <trkpt lat="45.11874" lon="4.97062">
        <ele>171.6</ele>
        <time>2021-03-28T13:48:17Z</time>
      </trkpt>
      <trkpt lat="45.11881" lon="4.97088">
        <ele>170.4</ele>
        <time>2021-03-28T13:48:21Z</time>
      </trkpt>
      <trkpt lat="45.119" lon="4.97097">
        <ele>171.6</ele>
        <time>2021-03-28T13:48:25Z</time>
      </trkpt>
      <trkpt lat="45.11917" lon="4.9711">
        <ele>172</ele>
        <time>2021-03-28T13:48:29Z</time>
      </trkpt>
      <trkpt lat="45.1193" lon="4.97127">
        <ele>172.4</ele>
        <time>2021-03-28T13:48:33Z</time>
      </trkpt>
      <trkpt lat="45.11944" lon="4.97144">
        <ele>172</ele>
        <time>2021-03-28T13:48:37Z</time>
      </trkpt>
      <trkpt lat="45.11958" lon="4.97161">
        <ele>172.8</ele>
        <time>2021-03-28T13:48:41Z</time>
      </trkpt>
      <trkpt lat="45.11972" lon="4.97178">
        <ele>173</ele>
        <time>2021-03-28T13:48:45Z</time>
      </trkpt>
      <trkpt lat="45.11984" lon="4.97196">
        <ele>172.8</ele>
        <time>2021-03-28T13:48:49Z</time>
      </trkpt>
      <trkpt lat="45.11997" lon="4.97216">
        <ele>173.2</ele>
        <time>2021-03-28T13:48:53Z</time>
      </trkpt>
      <trkpt lat="45.12006" lon="4.97236">
        <ele>174.4</ele>
        <time>2021-03-28T13:48:57Z</time>
      </trkpt>
      <trkpt lat="45.12017" lon="4.97256">
        <ele>174.4</ele>
        <time>2021-03-28T13:49:01Z</time>
      </trkpt>
      <trkpt lat="45.12026" lon="4.97277">
        <ele>175</ele>
        <time>2021-03-28T13:49:05Z</time>
      </trkpt>
      <trkpt lat="45.12036" lon="4.973">
        <ele>174.4</ele>
        <time>2021-03-28T13:49:09Z</time>
      </trkpt>
      <trkpt lat="45.12044" lon="4.97324">
        <ele>174.4</ele>
        <time>2021-03-28T13:49:13Z</time>
      </trkpt>
      <trkpt lat="45.12054" lon="4.97348">
        <ele>174.6</ele>
        <time>2021-03-28T13:49:17Z</time>
      </trkpt>
      <trkpt lat="45.12062" lon="4.97374">
        <ele>174.6</ele>
        <time>2021-03-28T13:49:21Z</time>
      </trkpt>
      <trkpt lat="45.12068" lon="4.97402">
        <ele>175.2</ele>
        <time>2021-03-28T13:49:25Z</time>
      </trkpt>
      <trkpt lat="45.12074" lon="4.97432">
        <ele>175.4</ele>
        <time>2021-03-28T13:49:29Z</time>
      </trkpt>
      <trkpt lat="45.12081" lon="4.97462">
        <ele>175.2</ele>
        <time>2021-03-28T13:49:33Z</time>
      </trkpt>
      <trkpt lat="45.12087" lon="4.9749">
        <ele>175.4</ele>
        <time>2021-03-28T13:49:37Z</time>
      </trkpt>
      <trkpt lat="45.12095" lon="4.97516">
        <ele>176.2</ele>
        <time>2021-03-28T13:49:41Z</time>
      </trkpt>
      <trkpt lat="45.12103" lon="4.97543">
        <ele>176.2</ele>
        <time>2021-03-28T13:49:45Z</time>
      </trkpt>
      <trkpt lat="45.12108" lon="4.97569">
        <ele>176.4</ele>
        <time>2021-03-28T13:49:49Z</time>
      </trkpt>
      <trkpt lat="45.12111" lon="4.97595">
        <ele>176.8</ele>
        <time>2021-03-28T13:49:53Z</time>
      </trkpt>
      <trkpt lat="45.12114" lon="4.97624">
        <ele>176.4</ele>
        <time>2021-03-28T13:49:57Z</time>
      </trkpt>
      <trkpt lat="45.12117" lon="4.97652">
        <ele>177.2</ele>
        <time>2021-03-28T13:50:01Z</time>
      </trkpt>
      <trkpt lat="45.1212" lon="4.9768">
        <ele>177.4</ele>
        <time>2021-03-28T13:50:05Z</time>
      </trkpt>
      <trkpt lat="45.12122" lon="4.97708">
        <ele>178</ele>
        <time>2021-03-28T13:50:09Z</time>
      </trkpt>
      <trkpt lat="45.12124" lon="4.97735">
        <ele>177.2</ele>
        <time>2021-03-28T13:50:13Z</time>
      </trkpt>
      <trkpt lat="45.12128" lon="4.97763">
        <ele>177.8</ele>
        <time>2021-03-28T13:50:17Z</time>
      </trkpt>
      <trkpt lat="45.12132" lon="4.97791">
        <ele>178.4</ele>
        <time>2021-03-28T13:50:21Z</time>
      </trkpt>
      <trkpt lat="45.12137" lon="4.97819">
        <ele>178.4</ele>
        <time>2021-03-28T13:50:25Z</time>
      </trkpt>
      <trkpt lat="45.12141" lon="4.97845">
        <ele>179.2</ele>
        <time>2021-03-28T13:50:29Z</time>
      </trkpt>
      <trkpt lat="45.12145" lon="4.97872">
        <ele>179</ele>
        <time>2021-03-28T13:50:33Z</time>
      </trkpt>
      <trkpt lat="45.12148" lon="4.97899">
        <ele>179</ele>
        <time>2021-03-28T13:50:37Z</time>
      </trkpt>
      <trkpt lat="45.12152" lon="4.97927">
        <ele>178.2</ele>
        <time>2021-03-28T13:50:41Z</time>
      </trkpt>
      <trkpt lat="45.12154" lon="4.97955">
        <ele>178.4</ele>
        <time>2021-03-28T13:50:45Z</time>
      </trkpt>
      <trkpt lat="45.12157" lon="4.97984">
        <ele>177.8</ele>
        <time>2021-03-28T13:50:49Z</time>
      </trkpt>
      <trkpt lat="45.12159" lon="4.98014">
        <ele>178.2</ele>
        <time>2021-03-28T13:50:53Z</time>
      </trkpt>
      <trkpt lat="45.12163" lon="4.98043">
        <ele>178.8</ele>
        <time>2021-03-28T13:50:57Z</time>
      </trkpt>
      <trkpt lat="45.12167" lon="4.98071">
        <ele>178.4</ele>
        <time>2021-03-28T13:51:01Z</time>
      </trkpt>
      <trkpt lat="45.12173" lon="4.981">
        <ele>177.4</ele>
        <time>2021-03-28T13:51:05Z</time>
      </trkpt>
      <trkpt lat="45.12178" lon="4.98125">
        <ele>178</ele>
        <time>2021-03-28T13:51:09Z</time>
      </trkpt>
      <trkpt lat="45.12183" lon="4.98152">
        <ele>177.2</ele>
        <time>2021-03-28T13:51:13Z</time>
      </trkpt>
      <trkpt lat="45.12183" lon="4.98181">
        <ele>177.2</ele>
        <time>2021-03-28T13:51:17Z</time>
      </trkpt>
      <trkpt lat="45.1218" lon="4.98212">
        <ele>176.6</ele>
        <time>2021-03-28T13:51:21Z</time>
      </trkpt>
      <trkpt lat="45.12182" lon="4.98242">
        <ele>176.8</ele>
        <time>2021-03-28T13:51:25Z</time>
      </trkpt>
      <trkpt lat="45.12181" lon="4.98269">
        <ele>176.4</ele>
        <time>2021-03-28T13:51:29Z</time>
      </trkpt>
      <trkpt lat="45.12184" lon="4.98291">
        <ele>177.2</ele>
        <time>2021-03-28T13:51:33Z</time>
      </trkpt>
      <trkpt lat="45.12184" lon="4.98315">
        <ele>176.4</ele>
        <time>2021-03-28T13:51:37Z</time>
      </trkpt>
      <trkpt lat="45.12186" lon="4.98342">
        <ele>176.4</ele>
        <time>2021-03-28T13:51:41Z</time>
      </trkpt>
      <trkpt lat="45.12187" lon="4.98367">
        <ele>176.8</ele>
        <time>2021-03-28T13:51:45Z</time>
      </trkpt>
      <trkpt lat="45.12189" lon="4.9839">
        <ele>177.6</ele>
        <time>2021-03-28T13:51:49Z</time>
      </trkpt>
      <trkpt lat="45.12184" lon="4.98401">
        <ele>178.8</ele>
        <time>2021-03-28T13:51:53Z</time>
      </trkpt>
      <trkpt lat="45.12175" lon="4.98402">
        <ele>178.6</ele>
        <time>2021-03-28T13:51:57Z</time>
      </trkpt>
      <trkpt lat="45.12167" lon="4.98402">
        <ele>179</ele>
        <time>2021-03-28T13:52:01Z</time>
      </trkpt>
      <trkpt lat="45.12166" lon="4.98408">
        <ele>178.8</ele>
        <time>2021-03-28T13:52:05Z</time>
      </trkpt>
      <trkpt lat="45.12177" lon="4.98409">
        <ele>178.4</ele>
        <time>2021-03-28T13:52:09Z</time>
      </trkpt>
      <trkpt lat="45.12188" lon="4.9841">
        <ele>178.2</ele>
        <time>2021-03-28T13:52:13Z</time>
      </trkpt>
      <trkpt lat="45.12203" lon="4.98412">
        <ele>178.6</ele>
        <time>2021-03-28T13:52:17Z</time>
      </trkpt>
      <trkpt lat="45.12215" lon="4.98417">
        <ele>178.8</ele>
        <time>2021-03-28T13:52:21Z</time>
      </trkpt>
      <trkpt lat="45.12215" lon="4.98438">
        <ele>178.6</ele>
        <time>2021-03-28T13:52:25Z</time>
      </trkpt>
      <trkpt lat="45.12213" lon="4.98461">
        <ele>179.4</ele>
        <time>2021-03-28T13:52:29Z</time>
      </trkpt>
      <trkpt lat="45.12215" lon="4.9848">
        <ele>180.4</ele>
        <time>2021-03-28T13:52:33Z</time>
      </trkpt>
      <trkpt lat="45.12214" lon="4.98493">
        <ele>181</ele>
        <time>2021-03-28T13:52:37Z</time>
      </trkpt>
      <trkpt lat="45.12203" lon="4.98496">
        <ele>180.6</ele>
        <time>2021-03-28T13:52:41Z</time>
      </trkpt>
      <trkpt lat="45.12191" lon="4.98498">
        <ele>179.4</ele>
        <time>2021-03-28T13:52:45Z</time>
      </trkpt>
      <trkpt lat="45.12184" lon="4.98506">
        <ele>178.6</ele>
        <time>2021-03-28T13:52:49Z</time>
      </trkpt>
      <trkpt lat="45.12172" lon="4.98512">
        <ele>178.4</ele>
        <time>2021-03-28T13:52:53Z</time>
      </trkpt>
      <trkpt lat="45.1216" lon="4.98516">
        <ele>178</ele>
        <time>2021-03-28T13:52:57Z</time>
      </trkpt>
      <trkpt lat="45.1216" lon="4.98516">
        <ele>179.2</ele>
        <time>2021-03-28T13:53:01Z</time>
      </trkpt>
    </trkseg>
  </trk>
</gpx>